<?xml version="1.0" encoding="UTF-8" standalone="no" ?>
<gpx xmlns="http://www.topografix.com/GPX/1/1" xmlns:xsi="http://www.w3.org/2001/XMLSchema-instance" xsi:schemaLocation="http://www.topografix.com/GPX/1/1 http://www.topografix.com/GPX/1/1/gpx.xsd" version="1.1" creator="VisuGPX - https://www.visugpx.com">
  <metadata>
    <name>sortie GR du 21 janvier 2012</name>
    <desc><![CDATA[Un douzaine de GR au départ de Curis]]></desc>
  </metadata>
  <trk>
    <name><![CDATA[2012-01-22T08:10:34Z]]></name>
    <trkseg>
      <trkpt lat="45.86994" lon="4.81988">
        <ele>222</ele>
        <time>2012-01-22T08:10:34Z</time>
      </trkpt>
      <trkpt lat="45.86994" lon="4.81981">
        <ele>223</ele>
        <time>2012-01-22T08:10:37Z</time>
      </trkpt>
      <trkpt lat="45.86994" lon="4.8197">
        <ele>224</ele>
        <time>2012-01-22T08:10:42Z</time>
      </trkpt>
      <trkpt lat="45.86992" lon="4.81962">
        <ele>225</ele>
        <time>2012-01-22T08:10:45Z</time>
      </trkpt>
      <trkpt lat="45.8699" lon="4.8196">
        <ele>226</ele>
        <time>2012-01-22T08:10:46Z</time>
      </trkpt>
      <trkpt lat="45.86979" lon="4.81954">
        <ele>226</ele>
        <time>2012-01-22T08:10:51Z</time>
      </trkpt>
      <trkpt lat="45.86975" lon="4.8195">
        <ele>227</ele>
        <time>2012-01-22T08:10:53Z</time>
      </trkpt>
      <trkpt lat="45.8697" lon="4.81944">
        <ele>227</ele>
        <time>2012-01-22T08:10:56Z</time>
      </trkpt>
      <trkpt lat="45.86961" lon="4.8193">
        <ele>227</ele>
        <time>2012-01-22T08:11:01Z</time>
      </trkpt>
      <trkpt lat="45.8695" lon="4.81915">
        <ele>233</ele>
        <time>2012-01-22T08:11:07Z</time>
      </trkpt>
      <trkpt lat="45.86947" lon="4.8191">
        <ele>233</ele>
        <time>2012-01-22T08:11:09Z</time>
      </trkpt>
      <trkpt lat="45.86941" lon="4.81902">
        <ele>233</ele>
        <time>2012-01-22T08:11:13Z</time>
      </trkpt>
      <trkpt lat="45.86934" lon="4.81895">
        <ele>233</ele>
        <time>2012-01-22T08:11:18Z</time>
      </trkpt>
      <trkpt lat="45.86932" lon="4.81894">
        <ele>233</ele>
        <time>2012-01-22T08:11:19Z</time>
      </trkpt>
      <trkpt lat="45.86922" lon="4.81889">
        <ele>233</ele>
        <time>2012-01-22T08:11:24Z</time>
      </trkpt>
      <trkpt lat="45.86915" lon="4.81884">
        <ele>231</ele>
        <time>2012-01-22T08:11:28Z</time>
      </trkpt>
      <trkpt lat="45.86913" lon="4.81883">
        <ele>231</ele>
        <time>2012-01-22T08:11:29Z</time>
      </trkpt>
      <trkpt lat="45.86904" lon="4.81879">
        <ele>231</ele>
        <time>2012-01-22T08:11:34Z</time>
      </trkpt>
      <trkpt lat="45.86896" lon="4.81875">
        <ele>232</ele>
        <time>2012-01-22T08:11:38Z</time>
      </trkpt>
      <trkpt lat="45.8689" lon="4.81872">
        <ele>232</ele>
        <time>2012-01-22T08:11:41Z</time>
      </trkpt>
      <trkpt lat="45.86878" lon="4.81867">
        <ele>232</ele>
        <time>2012-01-22T08:11:47Z</time>
      </trkpt>
      <trkpt lat="45.86865" lon="4.81865">
        <ele>232</ele>
        <time>2012-01-22T08:11:54Z</time>
      </trkpt>
      <trkpt lat="45.86861" lon="4.81862">
        <ele>232</ele>
        <time>2012-01-22T08:11:57Z</time>
      </trkpt>
      <trkpt lat="45.8686" lon="4.8186">
        <ele>232</ele>
        <time>2012-01-22T08:11:58Z</time>
      </trkpt>
      <trkpt lat="45.86858" lon="4.81855">
        <ele>232</ele>
        <time>2012-01-22T08:12:00Z</time>
      </trkpt>
      <trkpt lat="45.86852" lon="4.81844">
        <ele>231</ele>
        <time>2012-01-22T08:12:05Z</time>
      </trkpt>
      <trkpt lat="45.86848" lon="4.81837">
        <ele>231</ele>
        <time>2012-01-22T08:12:08Z</time>
      </trkpt>
      <trkpt lat="45.86844" lon="4.81829">
        <ele>233</ele>
        <time>2012-01-22T08:12:11Z</time>
      </trkpt>
      <trkpt lat="45.86838" lon="4.81815">
        <ele>235</ele>
        <time>2012-01-22T08:12:16Z</time>
      </trkpt>
      <trkpt lat="45.86836" lon="4.8181">
        <ele>236</ele>
        <time>2012-01-22T08:12:18Z</time>
      </trkpt>
      <trkpt lat="45.86827" lon="4.81792">
        <ele>236</ele>
        <time>2012-01-22T08:12:25Z</time>
      </trkpt>
      <trkpt lat="45.86825" lon="4.81779">
        <ele>237</ele>
        <time>2012-01-22T08:12:30Z</time>
      </trkpt>
      <trkpt lat="45.86824" lon="4.81764">
        <ele>237</ele>
        <time>2012-01-22T08:12:36Z</time>
      </trkpt>
      <trkpt lat="45.86823" lon="4.81752">
        <ele>238</ele>
        <time>2012-01-22T08:12:42Z</time>
      </trkpt>
      <trkpt lat="45.86825" lon="4.81737">
        <ele>240</ele>
        <time>2012-01-22T08:12:50Z</time>
      </trkpt>
      <trkpt lat="45.86826" lon="4.81736">
        <ele>240</ele>
        <time>2012-01-22T08:12:51Z</time>
      </trkpt>
      <trkpt lat="45.86828" lon="4.8172">
        <ele>241</ele>
        <time>2012-01-22T08:13:00Z</time>
      </trkpt>
      <trkpt lat="45.86829" lon="4.81712">
        <ele>242</ele>
        <time>2012-01-22T08:13:04Z</time>
      </trkpt>
      <trkpt lat="45.8683" lon="4.81704">
        <ele>243</ele>
        <time>2012-01-22T08:13:08Z</time>
      </trkpt>
      <trkpt lat="45.86832" lon="4.81696">
        <ele>245</ele>
        <time>2012-01-22T08:13:12Z</time>
      </trkpt>
      <trkpt lat="45.86832" lon="4.81691">
        <ele>246</ele>
        <time>2012-01-22T08:13:14Z</time>
      </trkpt>
      <trkpt lat="45.86833" lon="4.81686">
        <ele>247</ele>
        <time>2012-01-22T08:13:16Z</time>
      </trkpt>
      <trkpt lat="45.86833" lon="4.81674">
        <ele>251</ele>
        <time>2012-01-22T08:13:22Z</time>
      </trkpt>
      <trkpt lat="45.86833" lon="4.81659">
        <ele>259</ele>
        <time>2012-01-22T08:13:29Z</time>
      </trkpt>
      <trkpt lat="45.86833" lon="4.81657">
        <ele>260</ele>
        <time>2012-01-22T08:13:30Z</time>
      </trkpt>
      <trkpt lat="45.86833" lon="4.81639">
        <ele>251</ele>
        <time>2012-01-22T08:13:38Z</time>
      </trkpt>
      <trkpt lat="45.86833" lon="4.81631">
        <ele>252</ele>
        <time>2012-01-22T08:13:42Z</time>
      </trkpt>
      <trkpt lat="45.86834" lon="4.81626">
        <ele>269</ele>
        <time>2012-01-22T08:13:45Z</time>
      </trkpt>
      <trkpt lat="45.86835" lon="4.8161">
        <ele>270</ele>
        <time>2012-01-22T08:13:54Z</time>
      </trkpt>
      <trkpt lat="45.86834" lon="4.81605">
        <ele>270</ele>
        <time>2012-01-22T08:13:57Z</time>
      </trkpt>
      <trkpt lat="45.86835" lon="4.816">
        <ele>270</ele>
        <time>2012-01-22T08:14:00Z</time>
      </trkpt>
      <trkpt lat="45.86835" lon="4.81595">
        <ele>269</ele>
        <time>2012-01-22T08:14:02Z</time>
      </trkpt>
      <trkpt lat="45.86834" lon="4.81591">
        <ele>268</ele>
        <time>2012-01-22T08:14:04Z</time>
      </trkpt>
      <trkpt lat="45.86834" lon="4.81581">
        <ele>268</ele>
        <time>2012-01-22T08:14:10Z</time>
      </trkpt>
      <trkpt lat="45.86834" lon="4.81577">
        <ele>271</ele>
        <time>2012-01-22T08:14:13Z</time>
      </trkpt>
      <trkpt lat="45.86834" lon="4.81567">
        <ele>277</ele>
        <time>2012-01-22T08:14:19Z</time>
      </trkpt>
      <trkpt lat="45.86834" lon="4.81564">
        <ele>278</ele>
        <time>2012-01-22T08:14:21Z</time>
      </trkpt>
      <trkpt lat="45.86834" lon="4.81553">
        <ele>281</ele>
        <time>2012-01-22T08:14:27Z</time>
      </trkpt>
      <trkpt lat="45.86835" lon="4.81549">
        <ele>282</ele>
        <time>2012-01-22T08:14:30Z</time>
      </trkpt>
      <trkpt lat="45.86835" lon="4.8154">
        <ele>283</ele>
        <time>2012-01-22T08:14:35Z</time>
      </trkpt>
      <trkpt lat="45.86834" lon="4.81523">
        <ele>283</ele>
        <time>2012-01-22T08:14:43Z</time>
      </trkpt>
      <trkpt lat="45.86833" lon="4.8152">
        <ele>267</ele>
        <time>2012-01-22T08:14:45Z</time>
      </trkpt>
      <trkpt lat="45.86832" lon="4.81511">
        <ele>271</ele>
        <time>2012-01-22T08:14:50Z</time>
      </trkpt>
      <trkpt lat="45.8683" lon="4.81497">
        <ele>276</ele>
        <time>2012-01-22T08:14:56Z</time>
      </trkpt>
      <trkpt lat="45.86829" lon="4.81493">
        <ele>275</ele>
        <time>2012-01-22T08:14:58Z</time>
      </trkpt>
      <trkpt lat="45.86828" lon="4.81486">
        <ele>274</ele>
        <time>2012-01-22T08:15:01Z</time>
      </trkpt>
      <trkpt lat="45.86824" lon="4.8147">
        <ele>272</ele>
        <time>2012-01-22T08:15:08Z</time>
      </trkpt>
      <trkpt lat="45.86823" lon="4.81467">
        <ele>272</ele>
        <time>2012-01-22T08:15:09Z</time>
      </trkpt>
      <trkpt lat="45.86821" lon="4.81457">
        <ele>273</ele>
        <time>2012-01-22T08:15:13Z</time>
      </trkpt>
      <trkpt lat="45.86817" lon="4.81441">
        <ele>275</ele>
        <time>2012-01-22T08:15:18Z</time>
      </trkpt>
      <trkpt lat="45.86813" lon="4.81425">
        <ele>277</ele>
        <time>2012-01-22T08:15:24Z</time>
      </trkpt>
      <trkpt lat="45.86809" lon="4.81415">
        <ele>283</ele>
        <time>2012-01-22T08:15:28Z</time>
      </trkpt>
      <trkpt lat="45.86809" lon="4.81412">
        <ele>283</ele>
        <time>2012-01-22T08:15:29Z</time>
      </trkpt>
      <trkpt lat="45.86805" lon="4.81395">
        <ele>282</ele>
        <time>2012-01-22T08:15:35Z</time>
      </trkpt>
      <trkpt lat="45.86805" lon="4.81389">
        <ele>283</ele>
        <time>2012-01-22T08:15:37Z</time>
      </trkpt>
      <trkpt lat="45.86802" lon="4.81377">
        <ele>283</ele>
        <time>2012-01-22T08:15:41Z</time>
      </trkpt>
      <trkpt lat="45.86799" lon="4.81362">
        <ele>284</ele>
        <time>2012-01-22T08:15:46Z</time>
      </trkpt>
      <trkpt lat="45.86799" lon="4.81359">
        <ele>284</ele>
        <time>2012-01-22T08:15:47Z</time>
      </trkpt>
      <trkpt lat="45.86795" lon="4.81346">
        <ele>285</ele>
        <time>2012-01-22T08:15:52Z</time>
      </trkpt>
      <trkpt lat="45.86796" lon="4.81342">
        <ele>285</ele>
        <time>2012-01-22T08:15:53Z</time>
      </trkpt>
      <trkpt lat="45.86794" lon="4.81336">
        <ele>285</ele>
        <time>2012-01-22T08:15:56Z</time>
      </trkpt>
      <trkpt lat="45.86792" lon="4.81331">
        <ele>295</ele>
        <time>2012-01-22T08:15:58Z</time>
      </trkpt>
      <trkpt lat="45.86782" lon="4.81313">
        <ele>294</ele>
        <time>2012-01-22T08:16:03Z</time>
      </trkpt>
      <trkpt lat="45.8678" lon="4.81307">
        <ele>294</ele>
        <time>2012-01-22T08:16:05Z</time>
      </trkpt>
      <trkpt lat="45.86776" lon="4.81293">
        <ele>296</ele>
        <time>2012-01-22T08:16:10Z</time>
      </trkpt>
      <trkpt lat="45.86774" lon="4.81288">
        <ele>296</ele>
        <time>2012-01-22T08:16:13Z</time>
      </trkpt>
      <trkpt lat="45.86772" lon="4.81281">
        <ele>296</ele>
        <time>2012-01-22T08:16:15Z</time>
      </trkpt>
      <trkpt lat="45.86772" lon="4.81276">
        <ele>296</ele>
        <time>2012-01-22T08:16:17Z</time>
      </trkpt>
      <trkpt lat="45.86767" lon="4.81264">
        <ele>296</ele>
        <time>2012-01-22T08:16:23Z</time>
      </trkpt>
      <trkpt lat="45.86765" lon="4.81258">
        <ele>295</ele>
        <time>2012-01-22T08:16:26Z</time>
      </trkpt>
      <trkpt lat="45.86763" lon="4.81251">
        <ele>294</ele>
        <time>2012-01-22T08:16:30Z</time>
      </trkpt>
      <trkpt lat="45.8676" lon="4.81238">
        <ele>303</ele>
        <time>2012-01-22T08:16:37Z</time>
      </trkpt>
      <trkpt lat="45.86758" lon="4.81226">
        <ele>307</ele>
        <time>2012-01-22T08:16:43Z</time>
      </trkpt>
      <trkpt lat="45.86754" lon="4.81217">
        <ele>309</ele>
        <time>2012-01-22T08:16:49Z</time>
      </trkpt>
      <trkpt lat="45.86753" lon="4.81215">
        <ele>310</ele>
        <time>2012-01-22T08:16:50Z</time>
      </trkpt>
      <trkpt lat="45.86748" lon="4.81204">
        <ele>291</ele>
        <time>2012-01-22T08:16:55Z</time>
      </trkpt>
      <trkpt lat="45.86748" lon="4.81201">
        <ele>291</ele>
        <time>2012-01-22T08:16:56Z</time>
      </trkpt>
      <trkpt lat="45.86744" lon="4.81191">
        <ele>293</ele>
        <time>2012-01-22T08:17:02Z</time>
      </trkpt>
      <trkpt lat="45.86744" lon="4.81189">
        <ele>294</ele>
        <time>2012-01-22T08:17:03Z</time>
      </trkpt>
      <trkpt lat="45.86743" lon="4.81183">
        <ele>296</ele>
        <time>2012-01-22T08:17:07Z</time>
      </trkpt>
      <trkpt lat="45.86742" lon="4.8118">
        <ele>297</ele>
        <time>2012-01-22T08:17:09Z</time>
      </trkpt>
      <trkpt lat="45.86741" lon="4.81176">
        <ele>298</ele>
        <time>2012-01-22T08:17:11Z</time>
      </trkpt>
      <trkpt lat="45.86739" lon="4.81165">
        <ele>304</ele>
        <time>2012-01-22T08:17:18Z</time>
      </trkpt>
      <trkpt lat="45.86739" lon="4.81164">
        <ele>304</ele>
        <time>2012-01-22T08:17:19Z</time>
      </trkpt>
      <trkpt lat="45.86733" lon="4.81142">
        <ele>302</ele>
        <time>2012-01-22T08:17:29Z</time>
      </trkpt>
      <trkpt lat="45.86733" lon="4.8114">
        <ele>302</ele>
        <time>2012-01-22T08:17:30Z</time>
      </trkpt>
      <trkpt lat="45.86732" lon="4.81133">
        <ele>303</ele>
        <time>2012-01-22T08:17:34Z</time>
      </trkpt>
      <trkpt lat="45.86731" lon="4.8113">
        <ele>303</ele>
        <time>2012-01-22T08:17:36Z</time>
      </trkpt>
      <trkpt lat="45.86729" lon="4.81121">
        <ele>303</ele>
        <time>2012-01-22T08:17:41Z</time>
      </trkpt>
      <trkpt lat="45.86727" lon="4.81117">
        <ele>304</ele>
        <time>2012-01-22T08:17:43Z</time>
      </trkpt>
      <trkpt lat="45.86725" lon="4.81114">
        <ele>304</ele>
        <time>2012-01-22T08:17:44Z</time>
      </trkpt>
      <trkpt lat="45.86724" lon="4.81113">
        <ele>304</ele>
        <time>2012-01-22T08:17:45Z</time>
      </trkpt>
      <trkpt lat="45.86721" lon="4.81102">
        <ele>304</ele>
        <time>2012-01-22T08:17:50Z</time>
      </trkpt>
      <trkpt lat="45.86717" lon="4.81089">
        <ele>305</ele>
        <time>2012-01-22T08:17:57Z</time>
      </trkpt>
      <trkpt lat="45.86717" lon="4.81087">
        <ele>305</ele>
        <time>2012-01-22T08:17:58Z</time>
      </trkpt>
      <trkpt lat="45.86716" lon="4.81074">
        <ele>313</ele>
        <time>2012-01-22T08:18:05Z</time>
      </trkpt>
      <trkpt lat="45.86712" lon="4.81064">
        <ele>312</ele>
        <time>2012-01-22T08:18:11Z</time>
      </trkpt>
      <trkpt lat="45.8671" lon="4.81049">
        <ele>313</ele>
        <time>2012-01-22T08:18:19Z</time>
      </trkpt>
      <trkpt lat="45.86709" lon="4.81046">
        <ele>313</ele>
        <time>2012-01-22T08:18:21Z</time>
      </trkpt>
      <trkpt lat="45.86707" lon="4.81041">
        <ele>313</ele>
        <time>2012-01-22T08:18:26Z</time>
      </trkpt>
      <trkpt lat="45.86707" lon="4.81041">
        <ele>313</ele>
        <time>2012-01-22T08:18:27Z</time>
      </trkpt>
      <trkpt lat="45.86703" lon="4.81037">
        <ele>313</ele>
        <time>2012-01-22T08:18:31Z</time>
      </trkpt>
      <trkpt lat="45.86703" lon="4.81036">
        <ele>313</ele>
        <time>2012-01-22T08:18:43Z</time>
      </trkpt>
      <trkpt lat="45.86704" lon="4.81028">
        <ele>314</ele>
        <time>2012-01-22T08:19:31Z</time>
      </trkpt>
      <trkpt lat="45.86703" lon="4.81027">
        <ele>314</ele>
        <time>2012-01-22T08:19:33Z</time>
      </trkpt>
      <trkpt lat="45.867" lon="4.81017">
        <ele>314</ele>
        <time>2012-01-22T08:19:39Z</time>
      </trkpt>
      <trkpt lat="45.86699" lon="4.81015">
        <ele>314</ele>
        <time>2012-01-22T08:19:40Z</time>
      </trkpt>
      <trkpt lat="45.86695" lon="4.81003">
        <ele>314</ele>
        <time>2012-01-22T08:19:46Z</time>
      </trkpt>
      <trkpt lat="45.86692" lon="4.80992">
        <ele>322</ele>
        <time>2012-01-22T08:19:51Z</time>
      </trkpt>
      <trkpt lat="45.86691" lon="4.80989">
        <ele>322</ele>
        <time>2012-01-22T08:19:53Z</time>
      </trkpt>
      <trkpt lat="45.86686" lon="4.80978">
        <ele>323</ele>
        <time>2012-01-22T08:19:57Z</time>
      </trkpt>
      <trkpt lat="45.86683" lon="4.80967">
        <ele>324</ele>
        <time>2012-01-22T08:20:02Z</time>
      </trkpt>
      <trkpt lat="45.86683" lon="4.80966">
        <ele>324</ele>
        <time>2012-01-22T08:20:03Z</time>
      </trkpt>
      <trkpt lat="45.8668" lon="4.80961">
        <ele>324</ele>
        <time>2012-01-22T08:20:05Z</time>
      </trkpt>
      <trkpt lat="45.86672" lon="4.80951">
        <ele>325</ele>
        <time>2012-01-22T08:20:09Z</time>
      </trkpt>
      <trkpt lat="45.8667" lon="4.80949">
        <ele>325</ele>
        <time>2012-01-22T08:20:10Z</time>
      </trkpt>
      <trkpt lat="45.86665" lon="4.80945">
        <ele>320</ele>
        <time>2012-01-22T08:20:14Z</time>
      </trkpt>
      <trkpt lat="45.86656" lon="4.80939">
        <ele>321</ele>
        <time>2012-01-22T08:20:20Z</time>
      </trkpt>
      <trkpt lat="45.86653" lon="4.80937">
        <ele>321</ele>
        <time>2012-01-22T08:20:22Z</time>
      </trkpt>
      <trkpt lat="45.8665" lon="4.80937">
        <ele>321</ele>
        <time>2012-01-22T08:20:24Z</time>
      </trkpt>
      <trkpt lat="45.86639" lon="4.80936">
        <ele>321</ele>
        <time>2012-01-22T08:20:30Z</time>
      </trkpt>
      <trkpt lat="45.86632" lon="4.80936">
        <ele>321</ele>
        <time>2012-01-22T08:20:34Z</time>
      </trkpt>
      <trkpt lat="45.86629" lon="4.80936">
        <ele>321</ele>
        <time>2012-01-22T08:20:35Z</time>
      </trkpt>
      <trkpt lat="45.86617" lon="4.80935">
        <ele>321</ele>
        <time>2012-01-22T08:20:41Z</time>
      </trkpt>
      <trkpt lat="45.86615" lon="4.80934">
        <ele>321</ele>
        <time>2012-01-22T08:20:42Z</time>
      </trkpt>
      <trkpt lat="45.86606" lon="4.80934">
        <ele>322</ele>
        <time>2012-01-22T08:20:47Z</time>
      </trkpt>
      <trkpt lat="45.86597" lon="4.80936">
        <ele>322</ele>
        <time>2012-01-22T08:20:51Z</time>
      </trkpt>
      <trkpt lat="45.86593" lon="4.80938">
        <ele>322</ele>
        <time>2012-01-22T08:20:53Z</time>
      </trkpt>
      <trkpt lat="45.86582" lon="4.80941">
        <ele>322</ele>
        <time>2012-01-22T08:20:58Z</time>
      </trkpt>
      <trkpt lat="45.86578" lon="4.8094">
        <ele>322</ele>
        <time>2012-01-22T08:21:00Z</time>
      </trkpt>
      <trkpt lat="45.86573" lon="4.80939">
        <ele>322</ele>
        <time>2012-01-22T08:21:03Z</time>
      </trkpt>
      <trkpt lat="45.86571" lon="4.80939">
        <ele>322</ele>
        <time>2012-01-22T08:21:04Z</time>
      </trkpt>
      <trkpt lat="45.86561" lon="4.80937">
        <ele>322</ele>
        <time>2012-01-22T08:21:09Z</time>
      </trkpt>
      <trkpt lat="45.86559" lon="4.80936">
        <ele>322</ele>
        <time>2012-01-22T08:21:10Z</time>
      </trkpt>
      <trkpt lat="45.86549" lon="4.80933">
        <ele>322</ele>
        <time>2012-01-22T08:21:16Z</time>
      </trkpt>
      <trkpt lat="45.86545" lon="4.80932">
        <ele>322</ele>
        <time>2012-01-22T08:21:18Z</time>
      </trkpt>
      <trkpt lat="45.86541" lon="4.80931">
        <ele>322</ele>
        <time>2012-01-22T08:21:20Z</time>
      </trkpt>
      <trkpt lat="45.86539" lon="4.80929">
        <ele>322</ele>
        <time>2012-01-22T08:21:21Z</time>
      </trkpt>
      <trkpt lat="45.86528" lon="4.80922">
        <ele>323</ele>
        <time>2012-01-22T08:21:27Z</time>
      </trkpt>
      <trkpt lat="45.86524" lon="4.8092">
        <ele>323</ele>
        <time>2012-01-22T08:21:29Z</time>
      </trkpt>
      <trkpt lat="45.86518" lon="4.80917">
        <ele>324</ele>
        <time>2012-01-22T08:21:32Z</time>
      </trkpt>
      <trkpt lat="45.86508" lon="4.8091">
        <ele>331</ele>
        <time>2012-01-22T08:21:37Z</time>
      </trkpt>
      <trkpt lat="45.86506" lon="4.80908">
        <ele>331</ele>
        <time>2012-01-22T08:21:38Z</time>
      </trkpt>
      <trkpt lat="45.86495" lon="4.80899">
        <ele>330</ele>
        <time>2012-01-22T08:21:44Z</time>
      </trkpt>
      <trkpt lat="45.8649" lon="4.80895">
        <ele>331</ele>
        <time>2012-01-22T08:21:47Z</time>
      </trkpt>
      <trkpt lat="45.86484" lon="4.80892">
        <ele>331</ele>
        <time>2012-01-22T08:21:50Z</time>
      </trkpt>
      <trkpt lat="45.86474" lon="4.80882">
        <ele>332</ele>
        <time>2012-01-22T08:21:56Z</time>
      </trkpt>
      <trkpt lat="45.86463" lon="4.8087">
        <ele>333</ele>
        <time>2012-01-22T08:22:02Z</time>
      </trkpt>
      <trkpt lat="45.86459" lon="4.80866">
        <ele>333</ele>
        <time>2012-01-22T08:22:04Z</time>
      </trkpt>
      <trkpt lat="45.86454" lon="4.8086">
        <ele>334</ele>
        <time>2012-01-22T08:22:08Z</time>
      </trkpt>
      <trkpt lat="45.86447" lon="4.80849">
        <ele>334</ele>
        <time>2012-01-22T08:22:14Z</time>
      </trkpt>
      <trkpt lat="45.86445" lon="4.80846">
        <ele>334</ele>
        <time>2012-01-22T08:22:16Z</time>
      </trkpt>
      <trkpt lat="45.86436" lon="4.80834">
        <ele>335</ele>
        <time>2012-01-22T08:22:21Z</time>
      </trkpt>
      <trkpt lat="45.8643" lon="4.80827">
        <ele>342</ele>
        <time>2012-01-22T08:22:26Z</time>
      </trkpt>
      <trkpt lat="45.86428" lon="4.80824">
        <ele>342</ele>
        <time>2012-01-22T08:22:27Z</time>
      </trkpt>
      <trkpt lat="45.86422" lon="4.80817">
        <ele>343</ele>
        <time>2012-01-22T08:22:32Z</time>
      </trkpt>
      <trkpt lat="45.86416" lon="4.80809">
        <ele>339</ele>
        <time>2012-01-22T08:22:37Z</time>
      </trkpt>
      <trkpt lat="45.86414" lon="4.80807">
        <ele>339</ele>
        <time>2012-01-22T08:22:39Z</time>
      </trkpt>
      <trkpt lat="45.86404" lon="4.80797">
        <ele>340</ele>
        <time>2012-01-22T08:22:47Z</time>
      </trkpt>
      <trkpt lat="45.86402" lon="4.80792">
        <ele>340</ele>
        <time>2012-01-22T08:22:50Z</time>
      </trkpt>
      <trkpt lat="45.86401" lon="4.80788">
        <ele>340</ele>
        <time>2012-01-22T08:22:52Z</time>
      </trkpt>
      <trkpt lat="45.86403" lon="4.80768">
        <ele>343</ele>
        <time>2012-01-22T08:22:59Z</time>
      </trkpt>
      <trkpt lat="45.86403" lon="4.80766">
        <ele>343</ele>
        <time>2012-01-22T08:23:00Z</time>
      </trkpt>
      <trkpt lat="45.86405" lon="4.8076">
        <ele>345</ele>
        <time>2012-01-22T08:23:03Z</time>
      </trkpt>
      <trkpt lat="45.86406" lon="4.80756">
        <ele>345</ele>
        <time>2012-01-22T08:23:05Z</time>
      </trkpt>
      <trkpt lat="45.86409" lon="4.80747">
        <ele>349</ele>
        <time>2012-01-22T08:23:10Z</time>
      </trkpt>
      <trkpt lat="45.8641" lon="4.80743">
        <ele>349</ele>
        <time>2012-01-22T08:23:12Z</time>
      </trkpt>
      <trkpt lat="45.86411" lon="4.80741">
        <ele>349</ele>
        <time>2012-01-22T08:23:13Z</time>
      </trkpt>
      <trkpt lat="45.86414" lon="4.80727">
        <ele>348</ele>
        <time>2012-01-22T08:23:19Z</time>
      </trkpt>
      <trkpt lat="45.86413" lon="4.80715">
        <ele>348</ele>
        <time>2012-01-22T08:23:23Z</time>
      </trkpt>
      <trkpt lat="45.86413" lon="4.80711">
        <ele>348</ele>
        <time>2012-01-22T08:23:24Z</time>
      </trkpt>
      <trkpt lat="45.8641" lon="4.8069">
        <ele>350</ele>
        <time>2012-01-22T08:23:30Z</time>
      </trkpt>
      <trkpt lat="45.8641" lon="4.80687">
        <ele>350</ele>
        <time>2012-01-22T08:23:31Z</time>
      </trkpt>
      <trkpt lat="45.86405" lon="4.8067">
        <ele>352</ele>
        <time>2012-01-22T08:23:36Z</time>
      </trkpt>
      <trkpt lat="45.86402" lon="4.8066">
        <ele>355</ele>
        <time>2012-01-22T08:23:39Z</time>
      </trkpt>
      <trkpt lat="45.86398" lon="4.8065">
        <ele>354</ele>
        <time>2012-01-22T08:23:42Z</time>
      </trkpt>
      <trkpt lat="45.86391" lon="4.80636">
        <ele>354</ele>
        <time>2012-01-22T08:23:47Z</time>
      </trkpt>
      <trkpt lat="45.86384" lon="4.80626">
        <ele>354</ele>
        <time>2012-01-22T08:23:50Z</time>
      </trkpt>
      <trkpt lat="45.86378" lon="4.80616">
        <ele>354</ele>
        <time>2012-01-22T08:23:54Z</time>
      </trkpt>
      <trkpt lat="45.86374" lon="4.80608">
        <ele>354</ele>
        <time>2012-01-22T08:23:57Z</time>
      </trkpt>
      <trkpt lat="45.86367" lon="4.80596">
        <ele>354</ele>
        <time>2012-01-22T08:24:02Z</time>
      </trkpt>
      <trkpt lat="45.86365" lon="4.80593">
        <ele>354</ele>
        <time>2012-01-22T08:24:03Z</time>
      </trkpt>
      <trkpt lat="45.86353" lon="4.80585">
        <ele>353</ele>
        <time>2012-01-22T08:24:09Z</time>
      </trkpt>
      <trkpt lat="45.86349" lon="4.80582">
        <ele>357</ele>
        <time>2012-01-22T08:24:11Z</time>
      </trkpt>
      <trkpt lat="45.86341" lon="4.80576">
        <ele>356</ele>
        <time>2012-01-22T08:24:15Z</time>
      </trkpt>
      <trkpt lat="45.86332" lon="4.8057">
        <ele>353</ele>
        <time>2012-01-22T08:24:19Z</time>
      </trkpt>
      <trkpt lat="45.86328" lon="4.80565">
        <ele>354</ele>
        <time>2012-01-22T08:24:21Z</time>
      </trkpt>
      <trkpt lat="45.86318" lon="4.80551">
        <ele>356</ele>
        <time>2012-01-22T08:24:27Z</time>
      </trkpt>
      <trkpt lat="45.86317" lon="4.80548">
        <ele>356</ele>
        <time>2012-01-22T08:24:28Z</time>
      </trkpt>
      <trkpt lat="45.86306" lon="4.8053">
        <ele>357</ele>
        <time>2012-01-22T08:24:35Z</time>
      </trkpt>
      <trkpt lat="45.86296" lon="4.80516">
        <ele>358</ele>
        <time>2012-01-22T08:24:41Z</time>
      </trkpt>
      <trkpt lat="45.86293" lon="4.80511">
        <ele>358</ele>
        <time>2012-01-22T08:24:43Z</time>
      </trkpt>
      <trkpt lat="45.86285" lon="4.80503">
        <ele>359</ele>
        <time>2012-01-22T08:24:47Z</time>
      </trkpt>
      <trkpt lat="45.86278" lon="4.80498">
        <ele>367</ele>
        <time>2012-01-22T08:24:51Z</time>
      </trkpt>
      <trkpt lat="45.86276" lon="4.80497">
        <ele>367</ele>
        <time>2012-01-22T08:24:52Z</time>
      </trkpt>
      <trkpt lat="45.86269" lon="4.80497">
        <ele>367</ele>
        <time>2012-01-22T08:24:56Z</time>
      </trkpt>
      <trkpt lat="45.86259" lon="4.80503">
        <ele>361</ele>
        <time>2012-01-22T08:25:01Z</time>
      </trkpt>
      <trkpt lat="45.86257" lon="4.80505">
        <ele>361</ele>
        <time>2012-01-22T08:25:02Z</time>
      </trkpt>
      <trkpt lat="45.86248" lon="4.80514">
        <ele>361</ele>
        <time>2012-01-22T08:25:08Z</time>
      </trkpt>
      <trkpt lat="45.86246" lon="4.80515">
        <ele>361</ele>
        <time>2012-01-22T08:25:09Z</time>
      </trkpt>
      <trkpt lat="45.86243" lon="4.80515">
        <ele>361</ele>
        <time>2012-01-22T08:25:11Z</time>
      </trkpt>
      <trkpt lat="45.86241" lon="4.80516">
        <ele>361</ele>
        <time>2012-01-22T08:25:12Z</time>
      </trkpt>
      <trkpt lat="45.86236" lon="4.80517">
        <ele>361</ele>
        <time>2012-01-22T08:25:16Z</time>
      </trkpt>
      <trkpt lat="45.86224" lon="4.80523">
        <ele>360</ele>
        <time>2012-01-22T08:25:21Z</time>
      </trkpt>
      <trkpt lat="45.86211" lon="4.80526">
        <ele>360</ele>
        <time>2012-01-22T08:25:27Z</time>
      </trkpt>
      <trkpt lat="45.86207" lon="4.80526">
        <ele>361</ele>
        <time>2012-01-22T08:25:29Z</time>
      </trkpt>
      <trkpt lat="45.86197" lon="4.80527">
        <ele>361</ele>
        <time>2012-01-22T08:25:33Z</time>
      </trkpt>
      <trkpt lat="45.86189" lon="4.80527">
        <ele>362</ele>
        <time>2012-01-22T08:25:36Z</time>
      </trkpt>
      <trkpt lat="45.86182" lon="4.80525">
        <ele>362</ele>
        <time>2012-01-22T08:25:39Z</time>
      </trkpt>
      <trkpt lat="45.86169" lon="4.80522">
        <ele>364</ele>
        <time>2012-01-22T08:25:44Z</time>
      </trkpt>
      <trkpt lat="45.86167" lon="4.80521">
        <ele>364</ele>
        <time>2012-01-22T08:25:45Z</time>
      </trkpt>
      <trkpt lat="45.86153" lon="4.80516">
        <ele>366</ele>
        <time>2012-01-22T08:25:51Z</time>
      </trkpt>
      <trkpt lat="45.86151" lon="4.80515">
        <ele>366</ele>
        <time>2012-01-22T08:25:52Z</time>
      </trkpt>
      <trkpt lat="45.86137" lon="4.80509">
        <ele>365</ele>
        <time>2012-01-22T08:25:58Z</time>
      </trkpt>
      <trkpt lat="45.86132" lon="4.80507">
        <ele>365</ele>
        <time>2012-01-22T08:26:00Z</time>
      </trkpt>
      <trkpt lat="45.86123" lon="4.80503">
        <ele>365</ele>
        <time>2012-01-22T08:26:04Z</time>
      </trkpt>
      <trkpt lat="45.86114" lon="4.805">
        <ele>365</ele>
        <time>2012-01-22T08:26:08Z</time>
      </trkpt>
      <trkpt lat="45.8611" lon="4.80499">
        <ele>372</ele>
        <time>2012-01-22T08:26:10Z</time>
      </trkpt>
      <trkpt lat="45.86095" lon="4.80494">
        <ele>371</ele>
        <time>2012-01-22T08:26:17Z</time>
      </trkpt>
      <trkpt lat="45.86082" lon="4.80486">
        <ele>369</ele>
        <time>2012-01-22T08:26:23Z</time>
      </trkpt>
      <trkpt lat="45.86078" lon="4.80483">
        <ele>370</ele>
        <time>2012-01-22T08:26:26Z</time>
      </trkpt>
      <trkpt lat="45.86067" lon="4.80476">
        <ele>371</ele>
        <time>2012-01-22T08:26:31Z</time>
      </trkpt>
      <trkpt lat="45.8606" lon="4.80472">
        <ele>371</ele>
        <time>2012-01-22T08:26:35Z</time>
      </trkpt>
      <trkpt lat="45.86056" lon="4.8047">
        <ele>371</ele>
        <time>2012-01-22T08:26:37Z</time>
      </trkpt>
      <trkpt lat="45.86045" lon="4.80462">
        <ele>372</ele>
        <time>2012-01-22T08:26:43Z</time>
      </trkpt>
      <trkpt lat="45.86043" lon="4.8046">
        <ele>372</ele>
        <time>2012-01-22T08:26:44Z</time>
      </trkpt>
      <trkpt lat="45.86033" lon="4.80453">
        <ele>372</ele>
        <time>2012-01-22T08:26:49Z</time>
      </trkpt>
      <trkpt lat="45.86025" lon="4.80448">
        <ele>372</ele>
        <time>2012-01-22T08:26:53Z</time>
      </trkpt>
      <trkpt lat="45.86021" lon="4.80444">
        <ele>372</ele>
        <time>2012-01-22T08:26:55Z</time>
      </trkpt>
      <trkpt lat="45.86009" lon="4.80432">
        <ele>373</ele>
        <time>2012-01-22T08:27:02Z</time>
      </trkpt>
      <trkpt lat="45.86001" lon="4.80423">
        <ele>374</ele>
        <time>2012-01-22T08:27:07Z</time>
      </trkpt>
      <trkpt lat="45.85993" lon="4.80415">
        <ele>376</ele>
        <time>2012-01-22T08:27:11Z</time>
      </trkpt>
      <trkpt lat="45.85989" lon="4.80412">
        <ele>377</ele>
        <time>2012-01-22T08:27:13Z</time>
      </trkpt>
      <trkpt lat="45.85978" lon="4.80401">
        <ele>379</ele>
        <time>2012-01-22T08:27:19Z</time>
      </trkpt>
      <trkpt lat="45.85967" lon="4.80393">
        <ele>379</ele>
        <time>2012-01-22T08:27:25Z</time>
      </trkpt>
      <trkpt lat="45.85961" lon="4.80389">
        <ele>380</ele>
        <time>2012-01-22T08:27:27Z</time>
      </trkpt>
      <trkpt lat="45.85954" lon="4.80384">
        <ele>380</ele>
        <time>2012-01-22T08:27:32Z</time>
      </trkpt>
      <trkpt lat="45.85944" lon="4.80377">
        <ele>380</ele>
        <time>2012-01-22T08:27:38Z</time>
      </trkpt>
      <trkpt lat="45.85942" lon="4.80375">
        <ele>380</ele>
        <time>2012-01-22T08:27:39Z</time>
      </trkpt>
      <trkpt lat="45.85927" lon="4.80365">
        <ele>381</ele>
        <time>2012-01-22T08:27:47Z</time>
      </trkpt>
      <trkpt lat="45.85925" lon="4.80364">
        <ele>381</ele>
        <time>2012-01-22T08:27:48Z</time>
      </trkpt>
      <trkpt lat="45.85914" lon="4.80356">
        <ele>380</ele>
        <time>2012-01-22T08:27:54Z</time>
      </trkpt>
      <trkpt lat="45.8591" lon="4.80354">
        <ele>381</ele>
        <time>2012-01-22T08:27:56Z</time>
      </trkpt>
      <trkpt lat="45.859" lon="4.80347">
        <ele>381</ele>
        <time>2012-01-22T08:28:01Z</time>
      </trkpt>
      <trkpt lat="45.85892" lon="4.80341">
        <ele>381</ele>
        <time>2012-01-22T08:28:05Z</time>
      </trkpt>
      <trkpt lat="45.85889" lon="4.80338">
        <ele>380</ele>
        <time>2012-01-22T08:28:07Z</time>
      </trkpt>
      <trkpt lat="45.85875" lon="4.80329">
        <ele>386</ele>
        <time>2012-01-22T08:28:14Z</time>
      </trkpt>
      <trkpt lat="45.85858" lon="4.80318">
        <ele>386</ele>
        <time>2012-01-22T08:28:22Z</time>
      </trkpt>
      <trkpt lat="45.85844" lon="4.80309">
        <ele>386</ele>
        <time>2012-01-22T08:28:29Z</time>
      </trkpt>
      <trkpt lat="45.8584" lon="4.80306">
        <ele>386</ele>
        <time>2012-01-22T08:28:31Z</time>
      </trkpt>
      <trkpt lat="45.85834" lon="4.80302">
        <ele>387</ele>
        <time>2012-01-22T08:28:34Z</time>
      </trkpt>
      <trkpt lat="45.85821" lon="4.80294">
        <ele>385</ele>
        <time>2012-01-22T08:28:39Z</time>
      </trkpt>
      <trkpt lat="45.85812" lon="4.80287">
        <ele>386</ele>
        <time>2012-01-22T08:28:45Z</time>
      </trkpt>
      <trkpt lat="45.85806" lon="4.80282">
        <ele>386</ele>
        <time>2012-01-22T08:28:48Z</time>
      </trkpt>
      <trkpt lat="45.85797" lon="4.80277">
        <ele>386</ele>
        <time>2012-01-22T08:28:52Z</time>
      </trkpt>
      <trkpt lat="45.85789" lon="4.80271">
        <ele>386</ele>
        <time>2012-01-22T08:28:56Z</time>
      </trkpt>
      <trkpt lat="45.85785" lon="4.80269">
        <ele>386</ele>
        <time>2012-01-22T08:28:57Z</time>
      </trkpt>
      <trkpt lat="45.85778" lon="4.80262">
        <ele>386</ele>
        <time>2012-01-22T08:29:03Z</time>
      </trkpt>
      <trkpt lat="45.85773" lon="4.80258">
        <ele>386</ele>
        <time>2012-01-22T08:29:06Z</time>
      </trkpt>
      <trkpt lat="45.85766" lon="4.80251">
        <ele>386</ele>
        <time>2012-01-22T08:29:10Z</time>
      </trkpt>
      <trkpt lat="45.85757" lon="4.80242">
        <ele>389</ele>
        <time>2012-01-22T08:29:15Z</time>
      </trkpt>
      <trkpt lat="45.85756" lon="4.8024">
        <ele>389</ele>
        <time>2012-01-22T08:29:16Z</time>
      </trkpt>
      <trkpt lat="45.85743" lon="4.80225">
        <ele>382</ele>
        <time>2012-01-22T08:29:23Z</time>
      </trkpt>
      <trkpt lat="45.85735" lon="4.80219">
        <ele>381</ele>
        <time>2012-01-22T08:29:26Z</time>
      </trkpt>
      <trkpt lat="45.8573" lon="4.80218">
        <ele>381</ele>
        <time>2012-01-22T08:29:28Z</time>
      </trkpt>
      <trkpt lat="45.85726" lon="4.80215">
        <ele>380</ele>
        <time>2012-01-22T08:29:30Z</time>
      </trkpt>
      <trkpt lat="45.85722" lon="4.80208">
        <ele>380</ele>
        <time>2012-01-22T08:29:33Z</time>
      </trkpt>
      <trkpt lat="45.85715" lon="4.80203">
        <ele>379</ele>
        <time>2012-01-22T08:29:38Z</time>
      </trkpt>
      <trkpt lat="45.85715" lon="4.80207">
        <ele>379</ele>
        <time>2012-01-22T08:29:40Z</time>
      </trkpt>
      <trkpt lat="45.85715" lon="4.8021">
        <ele>379</ele>
        <time>2012-01-22T08:29:41Z</time>
      </trkpt>
      <trkpt lat="45.85716" lon="4.80214">
        <ele>379</ele>
        <time>2012-01-22T08:29:43Z</time>
      </trkpt>
      <trkpt lat="45.85717" lon="4.8023">
        <ele>379</ele>
        <time>2012-01-22T08:29:49Z</time>
      </trkpt>
      <trkpt lat="45.85718" lon="4.80237">
        <ele>379</ele>
        <time>2012-01-22T08:29:51Z</time>
      </trkpt>
      <trkpt lat="45.85718" lon="4.80242">
        <ele>379</ele>
        <time>2012-01-22T08:29:53Z</time>
      </trkpt>
      <trkpt lat="45.85717" lon="4.80245">
        <ele>379</ele>
        <time>2012-01-22T08:29:54Z</time>
      </trkpt>
      <trkpt lat="45.85715" lon="4.80253">
        <ele>375</ele>
        <time>2012-01-22T08:29:59Z</time>
      </trkpt>
      <trkpt lat="45.85711" lon="4.80262">
        <ele>374</ele>
        <time>2012-01-22T08:30:04Z</time>
      </trkpt>
      <trkpt lat="45.85701" lon="4.8028">
        <ele>372</ele>
        <time>2012-01-22T08:30:12Z</time>
      </trkpt>
      <trkpt lat="45.85699" lon="4.80283">
        <ele>371</ele>
        <time>2012-01-22T08:30:13Z</time>
      </trkpt>
      <trkpt lat="45.85692" lon="4.80294">
        <ele>370</ele>
        <time>2012-01-22T08:30:18Z</time>
      </trkpt>
      <trkpt lat="45.85686" lon="4.80302">
        <ele>369</ele>
        <time>2012-01-22T08:30:23Z</time>
      </trkpt>
      <trkpt lat="45.85685" lon="4.80303">
        <ele>368</ele>
        <time>2012-01-22T08:30:24Z</time>
      </trkpt>
      <trkpt lat="45.85678" lon="4.80311">
        <ele>366</ele>
        <time>2012-01-22T08:30:31Z</time>
      </trkpt>
      <trkpt lat="45.85671" lon="4.80319">
        <ele>364</ele>
        <time>2012-01-22T08:30:38Z</time>
      </trkpt>
      <trkpt lat="45.85667" lon="4.80323">
        <ele>362</ele>
        <time>2012-01-22T08:30:43Z</time>
      </trkpt>
      <trkpt lat="45.85658" lon="4.80333">
        <ele>353</ele>
        <time>2012-01-22T08:30:52Z</time>
      </trkpt>
      <trkpt lat="45.85656" lon="4.80337">
        <ele>349</ele>
        <time>2012-01-22T08:30:54Z</time>
      </trkpt>
      <trkpt lat="45.85651" lon="4.80347">
        <ele>345</ele>
        <time>2012-01-22T08:30:57Z</time>
      </trkpt>
      <trkpt lat="45.85652" lon="4.80362">
        <ele>342</ele>
        <time>2012-01-22T08:31:02Z</time>
      </trkpt>
      <trkpt lat="45.85653" lon="4.80371">
        <ele>341</ele>
        <time>2012-01-22T08:31:04Z</time>
      </trkpt>
      <trkpt lat="45.85656" lon="4.80391">
        <ele>340</ele>
        <time>2012-01-22T08:31:09Z</time>
      </trkpt>
      <trkpt lat="45.85657" lon="4.8041">
        <ele>342</ele>
        <time>2012-01-22T08:31:14Z</time>
      </trkpt>
      <trkpt lat="45.85657" lon="4.80418">
        <ele>339</ele>
        <time>2012-01-22T08:31:17Z</time>
      </trkpt>
      <trkpt lat="45.85656" lon="4.80422">
        <ele>339</ele>
        <time>2012-01-22T08:31:19Z</time>
      </trkpt>
      <trkpt lat="45.85654" lon="4.80428">
        <ele>336</ele>
        <time>2012-01-22T08:31:26Z</time>
      </trkpt>
      <trkpt lat="45.85654" lon="4.80429">
        <ele>336</ele>
        <time>2012-01-22T08:31:27Z</time>
      </trkpt>
      <trkpt lat="45.85652" lon="4.80433">
        <ele>335</ele>
        <time>2012-01-22T08:31:30Z</time>
      </trkpt>
      <trkpt lat="45.85652" lon="4.80433">
        <ele>334</ele>
        <time>2012-01-22T08:31:31Z</time>
      </trkpt>
      <trkpt lat="45.85653" lon="4.80434">
        <ele>334</ele>
        <time>2012-01-22T08:31:38Z</time>
      </trkpt>
      <trkpt lat="45.85651" lon="4.80439">
        <ele>333</ele>
        <time>2012-01-22T08:31:41Z</time>
      </trkpt>
      <trkpt lat="45.85651" lon="4.80441">
        <ele>333</ele>
        <time>2012-01-22T08:31:42Z</time>
      </trkpt>
      <trkpt lat="45.85647" lon="4.80448">
        <ele>331</ele>
        <time>2012-01-22T08:31:48Z</time>
      </trkpt>
      <trkpt lat="45.85643" lon="4.80458">
        <ele>329</ele>
        <time>2012-01-22T08:31:54Z</time>
      </trkpt>
      <trkpt lat="45.85643" lon="4.80462">
        <ele>329</ele>
        <time>2012-01-22T08:31:56Z</time>
      </trkpt>
      <trkpt lat="45.85641" lon="4.80468">
        <ele>328</ele>
        <time>2012-01-22T08:32:00Z</time>
      </trkpt>
      <trkpt lat="45.85642" lon="4.80478">
        <ele>328</ele>
        <time>2012-01-22T08:32:05Z</time>
      </trkpt>
      <trkpt lat="45.85641" lon="4.80487">
        <ele>327</ele>
        <time>2012-01-22T08:32:10Z</time>
      </trkpt>
      <trkpt lat="45.85641" lon="4.80489">
        <ele>328</ele>
        <time>2012-01-22T08:32:11Z</time>
      </trkpt>
      <trkpt lat="45.85642" lon="4.80503">
        <ele>321</ele>
        <time>2012-01-22T08:32:16Z</time>
      </trkpt>
      <trkpt lat="45.85643" lon="4.80513">
        <ele>321</ele>
        <time>2012-01-22T08:32:19Z</time>
      </trkpt>
      <trkpt lat="45.85643" lon="4.80519">
        <ele>320</ele>
        <time>2012-01-22T08:32:21Z</time>
      </trkpt>
      <trkpt lat="45.8564" lon="4.80539">
        <ele>317</ele>
        <time>2012-01-22T08:32:28Z</time>
      </trkpt>
      <trkpt lat="45.85638" lon="4.80543">
        <ele>317</ele>
        <time>2012-01-22T08:32:30Z</time>
      </trkpt>
      <trkpt lat="45.85635" lon="4.80548">
        <ele>316</ele>
        <time>2012-01-22T08:32:33Z</time>
      </trkpt>
      <trkpt lat="45.85633" lon="4.80551">
        <ele>316</ele>
        <time>2012-01-22T08:32:35Z</time>
      </trkpt>
      <trkpt lat="45.85633" lon="4.80551">
        <ele>316</ele>
        <time>2012-01-22T08:32:38Z</time>
      </trkpt>
      <trkpt lat="45.85634" lon="4.80557">
        <ele>315</ele>
        <time>2012-01-22T08:32:46Z</time>
      </trkpt>
      <trkpt lat="45.85632" lon="4.80557">
        <ele>315</ele>
        <time>2012-01-22T08:32:53Z</time>
      </trkpt>
      <trkpt lat="45.8563" lon="4.80556">
        <ele>315</ele>
        <time>2012-01-22T08:33:03Z</time>
      </trkpt>
      <trkpt lat="45.85629" lon="4.80556">
        <ele>315</ele>
        <time>2012-01-22T08:33:06Z</time>
      </trkpt>
      <trkpt lat="45.85629" lon="4.80557">
        <ele>315</ele>
        <time>2012-01-22T08:33:21Z</time>
      </trkpt>
      <trkpt lat="45.85629" lon="4.80557">
        <ele>315</ele>
        <time>2012-01-22T08:33:29Z</time>
      </trkpt>
      <trkpt lat="45.85627" lon="4.80556">
        <ele>315</ele>
        <time>2012-01-22T08:33:36Z</time>
      </trkpt>
      <trkpt lat="45.85626" lon="4.80556">
        <ele>315</ele>
        <time>2012-01-22T08:33:43Z</time>
      </trkpt>
      <trkpt lat="45.85627" lon="4.80554">
        <ele>315</ele>
        <time>2012-01-22T08:34:12Z</time>
      </trkpt>
      <trkpt lat="45.85622" lon="4.80551">
        <ele>315</ele>
        <time>2012-01-22T08:34:19Z</time>
      </trkpt>
      <trkpt lat="45.85618" lon="4.80549">
        <ele>314</ele>
        <time>2012-01-22T08:34:22Z</time>
      </trkpt>
      <trkpt lat="45.8561" lon="4.80551">
        <ele>313</ele>
        <time>2012-01-22T08:34:26Z</time>
      </trkpt>
      <trkpt lat="45.856" lon="4.80558">
        <ele>312</ele>
        <time>2012-01-22T08:34:31Z</time>
      </trkpt>
      <trkpt lat="45.85598" lon="4.8056">
        <ele>311</ele>
        <time>2012-01-22T08:34:32Z</time>
      </trkpt>
      <trkpt lat="45.85586" lon="4.80573">
        <ele>308</ele>
        <time>2012-01-22T08:34:38Z</time>
      </trkpt>
      <trkpt lat="45.85584" lon="4.80576">
        <ele>307</ele>
        <time>2012-01-22T08:34:39Z</time>
      </trkpt>
      <trkpt lat="45.85577" lon="4.80583">
        <ele>305</ele>
        <time>2012-01-22T08:34:44Z</time>
      </trkpt>
      <trkpt lat="45.85574" lon="4.8059">
        <ele>305</ele>
        <time>2012-01-22T08:34:52Z</time>
      </trkpt>
      <trkpt lat="45.85573" lon="4.80594">
        <ele>306</ele>
        <time>2012-01-22T08:34:53Z</time>
      </trkpt>
      <trkpt lat="45.85572" lon="4.80605">
        <ele>306</ele>
        <time>2012-01-22T08:34:57Z</time>
      </trkpt>
      <trkpt lat="45.85572" lon="4.80622">
        <ele>306</ele>
        <time>2012-01-22T08:35:02Z</time>
      </trkpt>
      <trkpt lat="45.8557" lon="4.80638">
        <ele>306</ele>
        <time>2012-01-22T08:35:07Z</time>
      </trkpt>
      <trkpt lat="45.85567" lon="4.80649">
        <ele>306</ele>
        <time>2012-01-22T08:35:10Z</time>
      </trkpt>
      <trkpt lat="45.85566" lon="4.80651">
        <ele>306</ele>
        <time>2012-01-22T08:35:11Z</time>
      </trkpt>
      <trkpt lat="45.85562" lon="4.80654">
        <ele>306</ele>
        <time>2012-01-22T08:35:13Z</time>
      </trkpt>
      <trkpt lat="45.85559" lon="4.80654">
        <ele>306</ele>
        <time>2012-01-22T08:35:15Z</time>
      </trkpt>
      <trkpt lat="45.85549" lon="4.80653">
        <ele>307</ele>
        <time>2012-01-22T08:35:21Z</time>
      </trkpt>
      <trkpt lat="45.85547" lon="4.80652">
        <ele>307</ele>
        <time>2012-01-22T08:35:22Z</time>
      </trkpt>
      <trkpt lat="45.85536" lon="4.80651">
        <ele>308</ele>
        <time>2012-01-22T08:35:28Z</time>
      </trkpt>
      <trkpt lat="45.85529" lon="4.80651">
        <ele>309</ele>
        <time>2012-01-22T08:35:32Z</time>
      </trkpt>
      <trkpt lat="45.85524" lon="4.8065">
        <ele>310</ele>
        <time>2012-01-22T08:35:35Z</time>
      </trkpt>
      <trkpt lat="45.85513" lon="4.80649">
        <ele>311</ele>
        <time>2012-01-22T08:35:41Z</time>
      </trkpt>
      <trkpt lat="45.8551" lon="4.80649">
        <ele>311</ele>
        <time>2012-01-22T08:35:43Z</time>
      </trkpt>
      <trkpt lat="45.85502" lon="4.80648">
        <ele>311</ele>
        <time>2012-01-22T08:35:48Z</time>
      </trkpt>
      <trkpt lat="45.85494" lon="4.80651">
        <ele>319</ele>
        <time>2012-01-22T08:35:53Z</time>
      </trkpt>
      <trkpt lat="45.85493" lon="4.80654">
        <ele>319</ele>
        <time>2012-01-22T08:35:54Z</time>
      </trkpt>
      <trkpt lat="45.85495" lon="4.80663">
        <ele>317</ele>
        <time>2012-01-22T08:35:58Z</time>
      </trkpt>
      <trkpt lat="45.855" lon="4.80678">
        <ele>314</ele>
        <time>2012-01-22T08:36:05Z</time>
      </trkpt>
      <trkpt lat="45.855" lon="4.80686">
        <ele>323</ele>
        <time>2012-01-22T08:36:09Z</time>
      </trkpt>
      <trkpt lat="45.85498" lon="4.80688">
        <ele>324</ele>
        <time>2012-01-22T08:36:11Z</time>
      </trkpt>
      <trkpt lat="45.85496" lon="4.80683">
        <ele>323</ele>
        <time>2012-01-22T08:36:15Z</time>
      </trkpt>
      <trkpt lat="45.85496" lon="4.80683">
        <ele>323</ele>
        <time>2012-01-22T08:36:16Z</time>
      </trkpt>
      <trkpt lat="45.85493" lon="4.80682">
        <ele>323</ele>
        <time>2012-01-22T08:36:19Z</time>
      </trkpt>
      <trkpt lat="45.85491" lon="4.80682">
        <ele>323</ele>
        <time>2012-01-22T08:36:20Z</time>
      </trkpt>
      <trkpt lat="45.8549" lon="4.80683">
        <ele>324</ele>
        <time>2012-01-22T08:36:21Z</time>
      </trkpt>
      <trkpt lat="45.85484" lon="4.80686">
        <ele>325</ele>
        <time>2012-01-22T08:36:25Z</time>
      </trkpt>
      <trkpt lat="45.85478" lon="4.80688">
        <ele>327</ele>
        <time>2012-01-22T08:36:29Z</time>
      </trkpt>
      <trkpt lat="45.85477" lon="4.8069">
        <ele>327</ele>
        <time>2012-01-22T08:36:30Z</time>
      </trkpt>
      <trkpt lat="45.85474" lon="4.80695">
        <ele>328</ele>
        <time>2012-01-22T08:36:34Z</time>
      </trkpt>
      <trkpt lat="45.85475" lon="4.807">
        <ele>328</ele>
        <time>2012-01-22T08:36:37Z</time>
      </trkpt>
      <trkpt lat="45.85478" lon="4.80704">
        <ele>328</ele>
        <time>2012-01-22T08:36:40Z</time>
      </trkpt>
      <trkpt lat="45.8548" lon="4.80705">
        <ele>328</ele>
        <time>2012-01-22T08:36:42Z</time>
      </trkpt>
      <trkpt lat="45.85482" lon="4.80708">
        <ele>328</ele>
        <time>2012-01-22T08:36:45Z</time>
      </trkpt>
      <trkpt lat="45.85486" lon="4.80713">
        <ele>328</ele>
        <time>2012-01-22T08:36:49Z</time>
      </trkpt>
      <trkpt lat="45.85489" lon="4.80714">
        <ele>328</ele>
        <time>2012-01-22T08:36:51Z</time>
      </trkpt>
      <trkpt lat="45.85497" lon="4.80719">
        <ele>328</ele>
        <time>2012-01-22T08:36:55Z</time>
      </trkpt>
      <trkpt lat="45.855" lon="4.80725">
        <ele>328</ele>
        <time>2012-01-22T08:36:59Z</time>
      </trkpt>
      <trkpt lat="45.855" lon="4.80729">
        <ele>319</ele>
        <time>2012-01-22T08:37:01Z</time>
      </trkpt>
      <trkpt lat="45.85501" lon="4.80732">
        <ele>319</ele>
        <time>2012-01-22T08:37:03Z</time>
      </trkpt>
      <trkpt lat="45.855" lon="4.80738">
        <ele>328</ele>
        <time>2012-01-22T08:37:07Z</time>
      </trkpt>
      <trkpt lat="45.85496" lon="4.80734">
        <ele>328</ele>
        <time>2012-01-22T08:37:12Z</time>
      </trkpt>
      <trkpt lat="45.85496" lon="4.80733">
        <ele>328</ele>
        <time>2012-01-22T08:37:13Z</time>
      </trkpt>
      <trkpt lat="45.85492" lon="4.8073">
        <ele>329</ele>
        <time>2012-01-22T08:37:21Z</time>
      </trkpt>
      <trkpt lat="45.8549" lon="4.80728">
        <ele>329</ele>
        <time>2012-01-22T08:37:25Z</time>
      </trkpt>
      <trkpt lat="45.85489" lon="4.80728">
        <ele>329</ele>
        <time>2012-01-22T08:37:26Z</time>
      </trkpt>
      <trkpt lat="45.85487" lon="4.80727">
        <ele>329</ele>
        <time>2012-01-22T08:37:27Z</time>
      </trkpt>
      <trkpt lat="45.85483" lon="4.80727">
        <ele>329</ele>
        <time>2012-01-22T08:37:32Z</time>
      </trkpt>
      <trkpt lat="45.85482" lon="4.80726">
        <ele>329</ele>
        <time>2012-01-22T08:37:33Z</time>
      </trkpt>
      <trkpt lat="45.85476" lon="4.80731">
        <ele>330</ele>
        <time>2012-01-22T08:37:39Z</time>
      </trkpt>
      <trkpt lat="45.85475" lon="4.80732">
        <ele>330</ele>
        <time>2012-01-22T08:37:41Z</time>
      </trkpt>
      <trkpt lat="45.85473" lon="4.80734">
        <ele>330</ele>
        <time>2012-01-22T08:37:44Z</time>
      </trkpt>
      <trkpt lat="45.85469" lon="4.80738">
        <ele>331</ele>
        <time>2012-01-22T08:37:48Z</time>
      </trkpt>
      <trkpt lat="45.85462" lon="4.80745">
        <ele>332</ele>
        <time>2012-01-22T08:37:55Z</time>
      </trkpt>
      <trkpt lat="45.85461" lon="4.80746">
        <ele>332</ele>
        <time>2012-01-22T08:37:56Z</time>
      </trkpt>
      <trkpt lat="45.85458" lon="4.8075">
        <ele>333</ele>
        <time>2012-01-22T08:37:59Z</time>
      </trkpt>
      <trkpt lat="45.85451" lon="4.80752">
        <ele>339</ele>
        <time>2012-01-22T08:38:04Z</time>
      </trkpt>
      <trkpt lat="45.85449" lon="4.80752">
        <ele>339</ele>
        <time>2012-01-22T08:38:06Z</time>
      </trkpt>
      <trkpt lat="45.85446" lon="4.80753">
        <ele>340</ele>
        <time>2012-01-22T08:38:09Z</time>
      </trkpt>
      <trkpt lat="45.85441" lon="4.80753">
        <ele>340</ele>
        <time>2012-01-22T08:38:12Z</time>
      </trkpt>
      <trkpt lat="45.85439" lon="4.80753">
        <ele>341</ele>
        <time>2012-01-22T08:38:13Z</time>
      </trkpt>
      <trkpt lat="45.85434" lon="4.80756">
        <ele>341</ele>
        <time>2012-01-22T08:38:16Z</time>
      </trkpt>
      <trkpt lat="45.85423" lon="4.80759">
        <ele>343</ele>
        <time>2012-01-22T08:38:24Z</time>
      </trkpt>
      <trkpt lat="45.85421" lon="4.8076">
        <ele>343</ele>
        <time>2012-01-22T08:38:26Z</time>
      </trkpt>
      <trkpt lat="45.85416" lon="4.80762">
        <ele>349</ele>
        <time>2012-01-22T08:38:31Z</time>
      </trkpt>
      <trkpt lat="45.85408" lon="4.80769">
        <ele>350</ele>
        <time>2012-01-22T08:38:38Z</time>
      </trkpt>
      <trkpt lat="45.85405" lon="4.80773">
        <ele>351</ele>
        <time>2012-01-22T08:38:41Z</time>
      </trkpt>
      <trkpt lat="45.854" lon="4.8078">
        <ele>352</ele>
        <time>2012-01-22T08:38:46Z</time>
      </trkpt>
      <trkpt lat="45.85398" lon="4.80781">
        <ele>352</ele>
        <time>2012-01-22T08:38:48Z</time>
      </trkpt>
      <trkpt lat="45.85394" lon="4.80785">
        <ele>353</ele>
        <time>2012-01-22T08:38:52Z</time>
      </trkpt>
      <trkpt lat="45.8539" lon="4.80788">
        <ele>353</ele>
        <time>2012-01-22T08:38:55Z</time>
      </trkpt>
      <trkpt lat="45.85387" lon="4.80791">
        <ele>354</ele>
        <time>2012-01-22T08:38:59Z</time>
      </trkpt>
      <trkpt lat="45.85379" lon="4.80796">
        <ele>355</ele>
        <time>2012-01-22T08:39:05Z</time>
      </trkpt>
      <trkpt lat="45.85376" lon="4.80802">
        <ele>355</ele>
        <time>2012-01-22T08:39:09Z</time>
      </trkpt>
      <trkpt lat="45.85375" lon="4.80803">
        <ele>356</ele>
        <time>2012-01-22T08:39:10Z</time>
      </trkpt>
      <trkpt lat="45.8537" lon="4.80805">
        <ele>356</ele>
        <time>2012-01-22T08:39:13Z</time>
      </trkpt>
      <trkpt lat="45.85366" lon="4.80812">
        <ele>357</ele>
        <time>2012-01-22T08:39:19Z</time>
      </trkpt>
      <trkpt lat="45.85361" lon="4.80818">
        <ele>358</ele>
        <time>2012-01-22T08:39:26Z</time>
      </trkpt>
      <trkpt lat="45.85361" lon="4.80819">
        <ele>358</ele>
        <time>2012-01-22T08:39:27Z</time>
      </trkpt>
      <trkpt lat="45.8536" lon="4.80821">
        <ele>359</ele>
        <time>2012-01-22T08:39:31Z</time>
      </trkpt>
      <trkpt lat="45.85358" lon="4.80826">
        <ele>359</ele>
        <time>2012-01-22T08:39:35Z</time>
      </trkpt>
      <trkpt lat="45.85356" lon="4.80831">
        <ele>360</ele>
        <time>2012-01-22T08:39:37Z</time>
      </trkpt>
      <trkpt lat="45.85355" lon="4.80835">
        <ele>366</ele>
        <time>2012-01-22T08:39:41Z</time>
      </trkpt>
      <trkpt lat="45.85353" lon="4.80843">
        <ele>367</ele>
        <time>2012-01-22T08:39:47Z</time>
      </trkpt>
      <trkpt lat="45.85352" lon="4.80851">
        <ele>367</ele>
        <time>2012-01-22T08:39:54Z</time>
      </trkpt>
      <trkpt lat="45.85353" lon="4.80853">
        <ele>367</ele>
        <time>2012-01-22T08:39:56Z</time>
      </trkpt>
      <trkpt lat="45.85355" lon="4.80857">
        <ele>367</ele>
        <time>2012-01-22T08:40:00Z</time>
      </trkpt>
      <trkpt lat="45.85355" lon="4.80862">
        <ele>367</ele>
        <time>2012-01-22T08:40:04Z</time>
      </trkpt>
      <trkpt lat="45.85355" lon="4.80865">
        <ele>368</ele>
        <time>2012-01-22T08:40:06Z</time>
      </trkpt>
      <trkpt lat="45.85356" lon="4.80867">
        <ele>368</ele>
        <time>2012-01-22T08:40:09Z</time>
      </trkpt>
      <trkpt lat="45.85357" lon="4.80871">
        <ele>368</ele>
        <time>2012-01-22T08:40:12Z</time>
      </trkpt>
      <trkpt lat="45.85357" lon="4.80871">
        <ele>368</ele>
        <time>2012-01-22T08:40:13Z</time>
      </trkpt>
      <trkpt lat="45.85357" lon="4.80874">
        <ele>369</ele>
        <time>2012-01-22T08:40:16Z</time>
      </trkpt>
      <trkpt lat="45.85357" lon="4.80876">
        <ele>369</ele>
        <time>2012-01-22T08:40:18Z</time>
      </trkpt>
      <trkpt lat="45.85356" lon="4.80879">
        <ele>369</ele>
        <time>2012-01-22T08:40:20Z</time>
      </trkpt>
      <trkpt lat="45.85358" lon="4.80882">
        <ele>369</ele>
        <time>2012-01-22T08:40:24Z</time>
      </trkpt>
      <trkpt lat="45.85357" lon="4.80887">
        <ele>370</ele>
        <time>2012-01-22T08:40:29Z</time>
      </trkpt>
      <trkpt lat="45.85358" lon="4.80892">
        <ele>371</ele>
        <time>2012-01-22T08:40:34Z</time>
      </trkpt>
      <trkpt lat="45.85358" lon="4.80895">
        <ele>371</ele>
        <time>2012-01-22T08:40:36Z</time>
      </trkpt>
      <trkpt lat="45.85356" lon="4.80897">
        <ele>372</ele>
        <time>2012-01-22T08:40:38Z</time>
      </trkpt>
      <trkpt lat="45.85357" lon="4.80901">
        <ele>373</ele>
        <time>2012-01-22T08:40:41Z</time>
      </trkpt>
      <trkpt lat="45.85357" lon="4.80903">
        <ele>373</ele>
        <time>2012-01-22T08:40:42Z</time>
      </trkpt>
      <trkpt lat="45.85358" lon="4.80912">
        <ele>374</ele>
        <time>2012-01-22T08:40:47Z</time>
      </trkpt>
      <trkpt lat="45.85358" lon="4.80917">
        <ele>383</ele>
        <time>2012-01-22T08:40:49Z</time>
      </trkpt>
      <trkpt lat="45.85358" lon="4.80922">
        <ele>383</ele>
        <time>2012-01-22T08:40:52Z</time>
      </trkpt>
      <trkpt lat="45.85359" lon="4.80923">
        <ele>383</ele>
        <time>2012-01-22T08:40:54Z</time>
      </trkpt>
      <trkpt lat="45.85364" lon="4.80932">
        <ele>382</ele>
        <time>2012-01-22T08:41:01Z</time>
      </trkpt>
      <trkpt lat="45.85365" lon="4.80937">
        <ele>382</ele>
        <time>2012-01-22T08:41:04Z</time>
      </trkpt>
      <trkpt lat="45.85365" lon="4.80938">
        <ele>382</ele>
        <time>2012-01-22T08:41:05Z</time>
      </trkpt>
      <trkpt lat="45.85367" lon="4.80941">
        <ele>382</ele>
        <time>2012-01-22T08:41:07Z</time>
      </trkpt>
      <trkpt lat="45.85369" lon="4.80945">
        <ele>382</ele>
        <time>2012-01-22T08:41:10Z</time>
      </trkpt>
      <trkpt lat="45.85369" lon="4.80949">
        <ele>383</ele>
        <time>2012-01-22T08:41:12Z</time>
      </trkpt>
      <trkpt lat="45.85369" lon="4.8095">
        <ele>383</ele>
        <time>2012-01-22T08:41:13Z</time>
      </trkpt>
      <trkpt lat="45.85369" lon="4.80957">
        <ele>383</ele>
        <time>2012-01-22T08:41:16Z</time>
      </trkpt>
      <trkpt lat="45.85369" lon="4.80962">
        <ele>384</ele>
        <time>2012-01-22T08:41:19Z</time>
      </trkpt>
      <trkpt lat="45.85369" lon="4.80966">
        <ele>385</ele>
        <time>2012-01-22T08:41:22Z</time>
      </trkpt>
      <trkpt lat="45.85368" lon="4.80971">
        <ele>385</ele>
        <time>2012-01-22T08:41:25Z</time>
      </trkpt>
      <trkpt lat="45.85369" lon="4.80972">
        <ele>385</ele>
        <time>2012-01-22T08:41:26Z</time>
      </trkpt>
      <trkpt lat="45.85368" lon="4.80977">
        <ele>386</ele>
        <time>2012-01-22T08:41:29Z</time>
      </trkpt>
      <trkpt lat="45.85369" lon="4.80989">
        <ele>387</ele>
        <time>2012-01-22T08:41:36Z</time>
      </trkpt>
      <trkpt lat="45.8537" lon="4.80999">
        <ele>388</ele>
        <time>2012-01-22T08:41:42Z</time>
      </trkpt>
      <trkpt lat="45.8537" lon="4.81001">
        <ele>401</ele>
        <time>2012-01-22T08:41:43Z</time>
      </trkpt>
      <trkpt lat="45.85372" lon="4.81013">
        <ele>402</ele>
        <time>2012-01-22T08:41:51Z</time>
      </trkpt>
      <trkpt lat="45.85372" lon="4.81022">
        <ele>403</ele>
        <time>2012-01-22T08:41:57Z</time>
      </trkpt>
      <trkpt lat="45.85373" lon="4.81025">
        <ele>403</ele>
        <time>2012-01-22T08:41:59Z</time>
      </trkpt>
      <trkpt lat="45.85375" lon="4.81031">
        <ele>404</ele>
        <time>2012-01-22T08:42:03Z</time>
      </trkpt>
      <trkpt lat="45.85375" lon="4.81033">
        <ele>404</ele>
        <time>2012-01-22T08:42:04Z</time>
      </trkpt>
      <trkpt lat="45.85376" lon="4.81039">
        <ele>405</ele>
        <time>2012-01-22T08:42:08Z</time>
      </trkpt>
      <trkpt lat="45.85377" lon="4.81042">
        <ele>405</ele>
        <time>2012-01-22T08:42:10Z</time>
      </trkpt>
      <trkpt lat="45.85378" lon="4.81044">
        <ele>405</ele>
        <time>2012-01-22T08:42:11Z</time>
      </trkpt>
      <trkpt lat="45.85381" lon="4.81049">
        <ele>405</ele>
        <time>2012-01-22T08:42:15Z</time>
      </trkpt>
      <trkpt lat="45.85382" lon="4.8105">
        <ele>405</ele>
        <time>2012-01-22T08:42:16Z</time>
      </trkpt>
      <trkpt lat="45.85382" lon="4.81053">
        <ele>406</ele>
        <time>2012-01-22T08:42:18Z</time>
      </trkpt>
      <trkpt lat="45.85384" lon="4.81055">
        <ele>406</ele>
        <time>2012-01-22T08:42:20Z</time>
      </trkpt>
      <trkpt lat="45.85385" lon="4.81056">
        <ele>406</ele>
        <time>2012-01-22T08:42:21Z</time>
      </trkpt>
      <trkpt lat="45.85385" lon="4.81064">
        <ele>407</ele>
        <time>2012-01-22T08:42:26Z</time>
      </trkpt>
      <trkpt lat="45.85385" lon="4.81067">
        <ele>407</ele>
        <time>2012-01-22T08:42:28Z</time>
      </trkpt>
      <trkpt lat="45.85387" lon="4.81072">
        <ele>407</ele>
        <time>2012-01-22T08:42:31Z</time>
      </trkpt>
      <trkpt lat="45.85387" lon="4.81073">
        <ele>407</ele>
        <time>2012-01-22T08:42:32Z</time>
      </trkpt>
      <trkpt lat="45.8539" lon="4.81077">
        <ele>407</ele>
        <time>2012-01-22T08:42:35Z</time>
      </trkpt>
      <trkpt lat="45.85393" lon="4.81084">
        <ele>420</ele>
        <time>2012-01-22T08:42:39Z</time>
      </trkpt>
      <trkpt lat="45.85393" lon="4.81086">
        <ele>420</ele>
        <time>2012-01-22T08:42:40Z</time>
      </trkpt>
      <trkpt lat="45.85393" lon="4.81088">
        <ele>421</ele>
        <time>2012-01-22T08:42:41Z</time>
      </trkpt>
      <trkpt lat="45.85394" lon="4.81089">
        <ele>420</ele>
        <time>2012-01-22T08:42:42Z</time>
      </trkpt>
      <trkpt lat="45.85398" lon="4.81093">
        <ele>419</ele>
        <time>2012-01-22T08:42:46Z</time>
      </trkpt>
      <trkpt lat="45.854" lon="4.81095">
        <ele>419</ele>
        <time>2012-01-22T08:42:49Z</time>
      </trkpt>
      <trkpt lat="45.85402" lon="4.81099">
        <ele>420</ele>
        <time>2012-01-22T08:42:53Z</time>
      </trkpt>
      <trkpt lat="45.85408" lon="4.81106">
        <ele>421</ele>
        <time>2012-01-22T08:42:59Z</time>
      </trkpt>
      <trkpt lat="45.85411" lon="4.81112">
        <ele>422</ele>
        <time>2012-01-22T08:43:04Z</time>
      </trkpt>
      <trkpt lat="45.85415" lon="4.81113">
        <ele>422</ele>
        <time>2012-01-22T08:43:07Z</time>
      </trkpt>
      <trkpt lat="45.8542" lon="4.81118">
        <ele>406</ele>
        <time>2012-01-22T08:43:11Z</time>
      </trkpt>
      <trkpt lat="45.85426" lon="4.81122">
        <ele>407</ele>
        <time>2012-01-22T08:43:15Z</time>
      </trkpt>
      <trkpt lat="45.85427" lon="4.81123">
        <ele>407</ele>
        <time>2012-01-22T08:43:16Z</time>
      </trkpt>
      <trkpt lat="45.85429" lon="4.81123">
        <ele>407</ele>
        <time>2012-01-22T08:43:17Z</time>
      </trkpt>
      <trkpt lat="45.85432" lon="4.81128">
        <ele>407</ele>
        <time>2012-01-22T08:43:21Z</time>
      </trkpt>
      <trkpt lat="45.85432" lon="4.81132">
        <ele>408</ele>
        <time>2012-01-22T08:43:24Z</time>
      </trkpt>
      <trkpt lat="45.85435" lon="4.81139">
        <ele>410</ele>
        <time>2012-01-22T08:43:30Z</time>
      </trkpt>
      <trkpt lat="45.85435" lon="4.81145">
        <ele>412</ele>
        <time>2012-01-22T08:43:34Z</time>
      </trkpt>
      <trkpt lat="45.85434" lon="4.81147">
        <ele>412</ele>
        <time>2012-01-22T08:43:36Z</time>
      </trkpt>
      <trkpt lat="45.85435" lon="4.81151">
        <ele>413</ele>
        <time>2012-01-22T08:43:39Z</time>
      </trkpt>
      <trkpt lat="45.85434" lon="4.81154">
        <ele>415</ele>
        <time>2012-01-22T08:43:41Z</time>
      </trkpt>
      <trkpt lat="45.85436" lon="4.81155">
        <ele>414</ele>
        <time>2012-01-22T08:43:42Z</time>
      </trkpt>
      <trkpt lat="45.8544" lon="4.81162">
        <ele>414</ele>
        <time>2012-01-22T08:43:46Z</time>
      </trkpt>
      <trkpt lat="45.85445" lon="4.81167">
        <ele>428</ele>
        <time>2012-01-22T08:43:50Z</time>
      </trkpt>
      <trkpt lat="45.85446" lon="4.8117">
        <ele>428</ele>
        <time>2012-01-22T08:43:52Z</time>
      </trkpt>
      <trkpt lat="45.85448" lon="4.81177">
        <ele>428</ele>
        <time>2012-01-22T08:43:58Z</time>
      </trkpt>
      <trkpt lat="45.85449" lon="4.8118">
        <ele>428</ele>
        <time>2012-01-22T08:44:01Z</time>
      </trkpt>
      <trkpt lat="45.8545" lon="4.81181">
        <ele>428</ele>
        <time>2012-01-22T08:44:02Z</time>
      </trkpt>
      <trkpt lat="45.85452" lon="4.81184">
        <ele>428</ele>
        <time>2012-01-22T08:44:05Z</time>
      </trkpt>
      <trkpt lat="45.85453" lon="4.81185">
        <ele>428</ele>
        <time>2012-01-22T08:44:07Z</time>
      </trkpt>
      <trkpt lat="45.85453" lon="4.8119">
        <ele>428</ele>
        <time>2012-01-22T08:44:10Z</time>
      </trkpt>
      <trkpt lat="45.85454" lon="4.81192">
        <ele>428</ele>
        <time>2012-01-22T08:44:12Z</time>
      </trkpt>
      <trkpt lat="45.85455" lon="4.81194">
        <ele>428</ele>
        <time>2012-01-22T08:44:14Z</time>
      </trkpt>
      <trkpt lat="45.85457" lon="4.81196">
        <ele>428</ele>
        <time>2012-01-22T08:44:17Z</time>
      </trkpt>
      <trkpt lat="45.85459" lon="4.812">
        <ele>429</ele>
        <time>2012-01-22T08:44:20Z</time>
      </trkpt>
      <trkpt lat="45.85462" lon="4.81208">
        <ele>429</ele>
        <time>2012-01-22T08:44:27Z</time>
      </trkpt>
      <trkpt lat="45.85463" lon="4.81209">
        <ele>430</ele>
        <time>2012-01-22T08:44:28Z</time>
      </trkpt>
      <trkpt lat="45.85464" lon="4.81211">
        <ele>430</ele>
        <time>2012-01-22T08:44:30Z</time>
      </trkpt>
      <trkpt lat="45.85467" lon="4.81215">
        <ele>430</ele>
        <time>2012-01-22T08:44:33Z</time>
      </trkpt>
      <trkpt lat="45.85468" lon="4.81218">
        <ele>430</ele>
        <time>2012-01-22T08:44:35Z</time>
      </trkpt>
      <trkpt lat="45.85472" lon="4.8122">
        <ele>430</ele>
        <time>2012-01-22T08:44:38Z</time>
      </trkpt>
      <trkpt lat="45.85474" lon="4.81222">
        <ele>430</ele>
        <time>2012-01-22T08:44:40Z</time>
      </trkpt>
      <trkpt lat="45.85476" lon="4.81223">
        <ele>430</ele>
        <time>2012-01-22T08:44:42Z</time>
      </trkpt>
      <trkpt lat="45.85477" lon="4.81226">
        <ele>430</ele>
        <time>2012-01-22T08:44:44Z</time>
      </trkpt>
      <trkpt lat="45.85479" lon="4.81228">
        <ele>431</ele>
        <time>2012-01-22T08:44:46Z</time>
      </trkpt>
      <trkpt lat="45.85479" lon="4.8123">
        <ele>431</ele>
        <time>2012-01-22T08:44:48Z</time>
      </trkpt>
      <trkpt lat="45.85481" lon="4.81232">
        <ele>431</ele>
        <time>2012-01-22T08:44:50Z</time>
      </trkpt>
      <trkpt lat="45.85483" lon="4.81239">
        <ele>432</ele>
        <time>2012-01-22T08:44:56Z</time>
      </trkpt>
      <trkpt lat="45.85484" lon="4.81239">
        <ele>432</ele>
        <time>2012-01-22T08:44:57Z</time>
      </trkpt>
      <trkpt lat="45.85485" lon="4.8124">
        <ele>432</ele>
        <time>2012-01-22T08:44:58Z</time>
      </trkpt>
      <trkpt lat="45.85491" lon="4.81246">
        <ele>432</ele>
        <time>2012-01-22T08:45:04Z</time>
      </trkpt>
      <trkpt lat="45.85492" lon="4.81248">
        <ele>432</ele>
        <time>2012-01-22T08:45:05Z</time>
      </trkpt>
      <trkpt lat="45.85492" lon="4.81249">
        <ele>432</ele>
        <time>2012-01-22T08:45:06Z</time>
      </trkpt>
      <trkpt lat="45.85492" lon="4.81258">
        <ele>437</ele>
        <time>2012-01-22T08:45:12Z</time>
      </trkpt>
      <trkpt lat="45.85498" lon="4.81269">
        <ele>438</ele>
        <time>2012-01-22T08:45:20Z</time>
      </trkpt>
      <trkpt lat="45.85503" lon="4.81278">
        <ele>430</ele>
        <time>2012-01-22T08:45:27Z</time>
      </trkpt>
      <trkpt lat="45.85503" lon="4.81279">
        <ele>430</ele>
        <time>2012-01-22T08:45:28Z</time>
      </trkpt>
      <trkpt lat="45.855" lon="4.81283">
        <ele>430</ele>
        <time>2012-01-22T08:45:32Z</time>
      </trkpt>
      <trkpt lat="45.855" lon="4.81283">
        <ele>440</ele>
        <time>2012-01-22T08:45:33Z</time>
      </trkpt>
      <trkpt lat="45.855" lon="4.81283">
        <ele>440</ele>
        <time>2012-01-22T08:45:39Z</time>
      </trkpt>
      <trkpt lat="45.85498" lon="4.81284">
        <ele>440</ele>
        <time>2012-01-22T08:45:42Z</time>
      </trkpt>
      <trkpt lat="45.85496" lon="4.81284">
        <ele>440</ele>
        <time>2012-01-22T08:45:44Z</time>
      </trkpt>
      <trkpt lat="45.85495" lon="4.81285">
        <ele>440</ele>
        <time>2012-01-22T08:45:45Z</time>
      </trkpt>
      <trkpt lat="45.85494" lon="4.81285">
        <ele>440</ele>
        <time>2012-01-22T08:45:49Z</time>
      </trkpt>
      <trkpt lat="45.85494" lon="4.81288">
        <ele>441</ele>
        <time>2012-01-22T08:46:32Z</time>
      </trkpt>
      <trkpt lat="45.85497" lon="4.81289">
        <ele>440</ele>
        <time>2012-01-22T08:47:03Z</time>
      </trkpt>
      <trkpt lat="45.85495" lon="4.81288">
        <ele>440</ele>
        <time>2012-01-22T08:47:42Z</time>
      </trkpt>
      <trkpt lat="45.85493" lon="4.81288">
        <ele>441</ele>
        <time>2012-01-22T08:47:44Z</time>
      </trkpt>
      <trkpt lat="45.8549" lon="4.81288">
        <ele>441</ele>
        <time>2012-01-22T08:47:48Z</time>
      </trkpt>
      <trkpt lat="45.85487" lon="4.81286">
        <ele>441</ele>
        <time>2012-01-22T08:47:54Z</time>
      </trkpt>
      <trkpt lat="45.85482" lon="4.81284">
        <ele>441</ele>
        <time>2012-01-22T08:48:00Z</time>
      </trkpt>
      <trkpt lat="45.85477" lon="4.81284">
        <ele>442</ele>
        <time>2012-01-22T08:48:06Z</time>
      </trkpt>
      <trkpt lat="45.85475" lon="4.81284">
        <ele>442</ele>
        <time>2012-01-22T08:48:09Z</time>
      </trkpt>
      <trkpt lat="45.85472" lon="4.81283">
        <ele>442</ele>
        <time>2012-01-22T08:48:12Z</time>
      </trkpt>
      <trkpt lat="45.85466" lon="4.81281">
        <ele>443</ele>
        <time>2012-01-22T08:48:18Z</time>
      </trkpt>
      <trkpt lat="45.85459" lon="4.81281">
        <ele>444</ele>
        <time>2012-01-22T08:48:26Z</time>
      </trkpt>
      <trkpt lat="45.85458" lon="4.81282">
        <ele>444</ele>
        <time>2012-01-22T08:48:27Z</time>
      </trkpt>
      <trkpt lat="45.85457" lon="4.81281">
        <ele>444</ele>
        <time>2012-01-22T08:48:28Z</time>
      </trkpt>
      <trkpt lat="45.85454" lon="4.81281">
        <ele>444</ele>
        <time>2012-01-22T08:48:32Z</time>
      </trkpt>
      <trkpt lat="45.85451" lon="4.81281">
        <ele>444</ele>
        <time>2012-01-22T08:48:35Z</time>
      </trkpt>
      <trkpt lat="45.85449" lon="4.8128">
        <ele>445</ele>
        <time>2012-01-22T08:48:37Z</time>
      </trkpt>
      <trkpt lat="45.85448" lon="4.8128">
        <ele>445</ele>
        <time>2012-01-22T08:48:39Z</time>
      </trkpt>
      <trkpt lat="45.85446" lon="4.81279">
        <ele>445</ele>
        <time>2012-01-22T08:48:41Z</time>
      </trkpt>
      <trkpt lat="45.85445" lon="4.81279">
        <ele>445</ele>
        <time>2012-01-22T08:48:43Z</time>
      </trkpt>
      <trkpt lat="45.85443" lon="4.81278">
        <ele>445</ele>
        <time>2012-01-22T08:48:45Z</time>
      </trkpt>
      <trkpt lat="45.8544" lon="4.81278">
        <ele>446</ele>
        <time>2012-01-22T08:48:48Z</time>
      </trkpt>
      <trkpt lat="45.8544" lon="4.81278">
        <ele>446</ele>
        <time>2012-01-22T08:48:49Z</time>
      </trkpt>
      <trkpt lat="45.85437" lon="4.81278">
        <ele>446</ele>
        <time>2012-01-22T08:48:52Z</time>
      </trkpt>
      <trkpt lat="45.85431" lon="4.81275">
        <ele>447</ele>
        <time>2012-01-22T08:48:57Z</time>
      </trkpt>
      <trkpt lat="45.85422" lon="4.81273">
        <ele>448</ele>
        <time>2012-01-22T08:49:05Z</time>
      </trkpt>
      <trkpt lat="45.85415" lon="4.8127">
        <ele>456</ele>
        <time>2012-01-22T08:49:11Z</time>
      </trkpt>
      <trkpt lat="45.85415" lon="4.8127">
        <ele>456</ele>
        <time>2012-01-22T08:49:12Z</time>
      </trkpt>
      <trkpt lat="45.85409" lon="4.81266">
        <ele>456</ele>
        <time>2012-01-22T08:49:18Z</time>
      </trkpt>
      <trkpt lat="45.85408" lon="4.81265">
        <ele>456</ele>
        <time>2012-01-22T08:49:19Z</time>
      </trkpt>
      <trkpt lat="45.85405" lon="4.81264">
        <ele>456</ele>
        <time>2012-01-22T08:49:23Z</time>
      </trkpt>
      <trkpt lat="45.85404" lon="4.81264">
        <ele>456</ele>
        <time>2012-01-22T08:49:24Z</time>
      </trkpt>
      <trkpt lat="45.85396" lon="4.8126">
        <ele>457</ele>
        <time>2012-01-22T08:49:31Z</time>
      </trkpt>
      <trkpt lat="45.85395" lon="4.81259">
        <ele>457</ele>
        <time>2012-01-22T08:49:32Z</time>
      </trkpt>
      <trkpt lat="45.85392" lon="4.81257">
        <ele>457</ele>
        <time>2012-01-22T08:49:36Z</time>
      </trkpt>
      <trkpt lat="45.85388" lon="4.81253">
        <ele>458</ele>
        <time>2012-01-22T08:49:40Z</time>
      </trkpt>
      <trkpt lat="45.85387" lon="4.81252">
        <ele>458</ele>
        <time>2012-01-22T08:49:41Z</time>
      </trkpt>
      <trkpt lat="45.85378" lon="4.81245">
        <ele>454</ele>
        <time>2012-01-22T08:49:48Z</time>
      </trkpt>
      <trkpt lat="45.85371" lon="4.81237">
        <ele>455</ele>
        <time>2012-01-22T08:49:55Z</time>
      </trkpt>
      <trkpt lat="45.85362" lon="4.81228">
        <ele>456</ele>
        <time>2012-01-22T08:50:02Z</time>
      </trkpt>
      <trkpt lat="45.85355" lon="4.81222">
        <ele>456</ele>
        <time>2012-01-22T08:50:08Z</time>
      </trkpt>
      <trkpt lat="45.85352" lon="4.8122">
        <ele>456</ele>
        <time>2012-01-22T08:50:10Z</time>
      </trkpt>
      <trkpt lat="45.85344" lon="4.81213">
        <ele>456</ele>
        <time>2012-01-22T08:50:15Z</time>
      </trkpt>
      <trkpt lat="45.85338" lon="4.8121">
        <ele>456</ele>
        <time>2012-01-22T08:50:18Z</time>
      </trkpt>
      <trkpt lat="45.85333" lon="4.81207">
        <ele>464</ele>
        <time>2012-01-22T08:50:20Z</time>
      </trkpt>
      <trkpt lat="45.85321" lon="4.81198">
        <ele>464</ele>
        <time>2012-01-22T08:50:25Z</time>
      </trkpt>
      <trkpt lat="45.85317" lon="4.81195">
        <ele>464</ele>
        <time>2012-01-22T08:50:27Z</time>
      </trkpt>
      <trkpt lat="45.85307" lon="4.81185">
        <ele>464</ele>
        <time>2012-01-22T08:50:33Z</time>
      </trkpt>
      <trkpt lat="45.85305" lon="4.81182">
        <ele>464</ele>
        <time>2012-01-22T08:50:34Z</time>
      </trkpt>
      <trkpt lat="45.85297" lon="4.81172">
        <ele>464</ele>
        <time>2012-01-22T08:50:39Z</time>
      </trkpt>
      <trkpt lat="45.85291" lon="4.81164">
        <ele>460</ele>
        <time>2012-01-22T08:50:43Z</time>
      </trkpt>
      <trkpt lat="45.85287" lon="4.81158">
        <ele>460</ele>
        <time>2012-01-22T08:50:46Z</time>
      </trkpt>
      <trkpt lat="45.85279" lon="4.81148">
        <ele>461</ele>
        <time>2012-01-22T08:50:52Z</time>
      </trkpt>
      <trkpt lat="45.85276" lon="4.81145">
        <ele>461</ele>
        <time>2012-01-22T08:50:54Z</time>
      </trkpt>
      <trkpt lat="45.8527" lon="4.81138">
        <ele>461</ele>
        <time>2012-01-22T08:50:58Z</time>
      </trkpt>
      <trkpt lat="45.85262" lon="4.81127">
        <ele>461</ele>
        <time>2012-01-22T08:51:03Z</time>
      </trkpt>
      <trkpt lat="45.8526" lon="4.81125">
        <ele>461</ele>
        <time>2012-01-22T08:51:04Z</time>
      </trkpt>
      <trkpt lat="45.85252" lon="4.81118">
        <ele>462</ele>
        <time>2012-01-22T08:51:09Z</time>
      </trkpt>
      <trkpt lat="45.85246" lon="4.81113">
        <ele>471</ele>
        <time>2012-01-22T08:51:13Z</time>
      </trkpt>
      <trkpt lat="45.85243" lon="4.81111">
        <ele>471</ele>
        <time>2012-01-22T08:51:15Z</time>
      </trkpt>
      <trkpt lat="45.85233" lon="4.81101">
        <ele>471</ele>
        <time>2012-01-22T08:51:21Z</time>
      </trkpt>
      <trkpt lat="45.8523" lon="4.81099">
        <ele>471</ele>
        <time>2012-01-22T08:51:23Z</time>
      </trkpt>
      <trkpt lat="45.85225" lon="4.81094">
        <ele>472</ele>
        <time>2012-01-22T08:51:26Z</time>
      </trkpt>
      <trkpt lat="45.85213" lon="4.81085">
        <ele>473</ele>
        <time>2012-01-22T08:51:32Z</time>
      </trkpt>
      <trkpt lat="45.85204" lon="4.81076">
        <ele>471</ele>
        <time>2012-01-22T08:51:38Z</time>
      </trkpt>
      <trkpt lat="45.85199" lon="4.81068">
        <ele>471</ele>
        <time>2012-01-22T08:51:42Z</time>
      </trkpt>
      <trkpt lat="45.85198" lon="4.81066">
        <ele>471</ele>
        <time>2012-01-22T08:51:43Z</time>
      </trkpt>
      <trkpt lat="45.8519" lon="4.81055">
        <ele>471</ele>
        <time>2012-01-22T08:51:50Z</time>
      </trkpt>
      <trkpt lat="45.85186" lon="4.81047">
        <ele>471</ele>
        <time>2012-01-22T08:51:54Z</time>
      </trkpt>
      <trkpt lat="45.85184" lon="4.81045">
        <ele>471</ele>
        <time>2012-01-22T08:51:55Z</time>
      </trkpt>
      <trkpt lat="45.8518" lon="4.81035">
        <ele>471</ele>
        <time>2012-01-22T08:51:59Z</time>
      </trkpt>
      <trkpt lat="45.85174" lon="4.81024">
        <ele>472</ele>
        <time>2012-01-22T08:52:04Z</time>
      </trkpt>
      <trkpt lat="45.85171" lon="4.8102">
        <ele>473</ele>
        <time>2012-01-22T08:52:06Z</time>
      </trkpt>
      <trkpt lat="45.8516" lon="4.81004">
        <ele>479</ele>
        <time>2012-01-22T08:52:14Z</time>
      </trkpt>
      <trkpt lat="45.85149" lon="4.80996">
        <ele>478</ele>
        <time>2012-01-22T08:52:20Z</time>
      </trkpt>
      <trkpt lat="45.85143" lon="4.80993">
        <ele>478</ele>
        <time>2012-01-22T08:52:23Z</time>
      </trkpt>
      <trkpt lat="45.85136" lon="4.80988">
        <ele>478</ele>
        <time>2012-01-22T08:52:26Z</time>
      </trkpt>
      <trkpt lat="45.85128" lon="4.80978">
        <ele>478</ele>
        <time>2012-01-22T08:52:31Z</time>
      </trkpt>
      <trkpt lat="45.8512" lon="4.80966">
        <ele>479</ele>
        <time>2012-01-22T08:52:37Z</time>
      </trkpt>
      <trkpt lat="45.85114" lon="4.80958">
        <ele>479</ele>
        <time>2012-01-22T08:52:41Z</time>
      </trkpt>
      <trkpt lat="45.85108" lon="4.80952">
        <ele>479</ele>
        <time>2012-01-22T08:52:44Z</time>
      </trkpt>
      <trkpt lat="45.851" lon="4.80942">
        <ele>480</ele>
        <time>2012-01-22T08:52:49Z</time>
      </trkpt>
      <trkpt lat="45.85098" lon="4.8094">
        <ele>481</ele>
        <time>2012-01-22T08:52:50Z</time>
      </trkpt>
      <trkpt lat="45.85091" lon="4.80929">
        <ele>483</ele>
        <time>2012-01-22T08:52:55Z</time>
      </trkpt>
      <trkpt lat="45.85087" lon="4.80922">
        <ele>485</ele>
        <time>2012-01-22T08:52:59Z</time>
      </trkpt>
      <trkpt lat="45.85086" lon="4.8092">
        <ele>486</ele>
        <time>2012-01-22T08:53:00Z</time>
      </trkpt>
      <trkpt lat="45.85077" lon="4.80905">
        <ele>487</ele>
        <time>2012-01-22T08:53:06Z</time>
      </trkpt>
      <trkpt lat="45.85075" lon="4.80901">
        <ele>486</ele>
        <time>2012-01-22T08:53:08Z</time>
      </trkpt>
      <trkpt lat="45.8507" lon="4.80892">
        <ele>486</ele>
        <time>2012-01-22T08:53:12Z</time>
      </trkpt>
      <trkpt lat="45.85063" lon="4.80883">
        <ele>486</ele>
        <time>2012-01-22T08:53:17Z</time>
      </trkpt>
      <trkpt lat="45.85061" lon="4.8088">
        <ele>486</ele>
        <time>2012-01-22T08:53:18Z</time>
      </trkpt>
      <trkpt lat="45.85055" lon="4.8087">
        <ele>486</ele>
        <time>2012-01-22T08:53:23Z</time>
      </trkpt>
      <trkpt lat="45.8505" lon="4.80861">
        <ele>486</ele>
        <time>2012-01-22T08:53:27Z</time>
      </trkpt>
      <trkpt lat="45.85047" lon="4.80857">
        <ele>486</ele>
        <time>2012-01-22T08:53:29Z</time>
      </trkpt>
      <trkpt lat="45.85037" lon="4.80842">
        <ele>487</ele>
        <time>2012-01-22T08:53:36Z</time>
      </trkpt>
      <trkpt lat="45.85034" lon="4.80838">
        <ele>487</ele>
        <time>2012-01-22T08:53:38Z</time>
      </trkpt>
      <trkpt lat="45.8503" lon="4.80829">
        <ele>483</ele>
        <time>2012-01-22T08:53:42Z</time>
      </trkpt>
      <trkpt lat="45.85026" lon="4.80821">
        <ele>484</ele>
        <time>2012-01-22T08:53:45Z</time>
      </trkpt>
      <trkpt lat="45.85022" lon="4.80813">
        <ele>484</ele>
        <time>2012-01-22T08:53:48Z</time>
      </trkpt>
      <trkpt lat="45.85014" lon="4.80801">
        <ele>483</ele>
        <time>2012-01-22T08:53:53Z</time>
      </trkpt>
      <trkpt lat="45.85013" lon="4.80799">
        <ele>483</ele>
        <time>2012-01-22T08:53:54Z</time>
      </trkpt>
      <trkpt lat="45.85007" lon="4.80786">
        <ele>483</ele>
        <time>2012-01-22T08:53:59Z</time>
      </trkpt>
      <trkpt lat="45.85004" lon="4.80779">
        <ele>483</ele>
        <time>2012-01-22T08:54:01Z</time>
      </trkpt>
      <trkpt lat="45.85" lon="4.80765">
        <ele>490</ele>
        <time>2012-01-22T08:54:05Z</time>
      </trkpt>
      <trkpt lat="45.84994" lon="4.80754">
        <ele>490</ele>
        <time>2012-01-22T08:54:09Z</time>
      </trkpt>
      <trkpt lat="45.84992" lon="4.80749">
        <ele>489</ele>
        <time>2012-01-22T08:54:11Z</time>
      </trkpt>
      <trkpt lat="45.84985" lon="4.80732">
        <ele>488</ele>
        <time>2012-01-22T08:54:17Z</time>
      </trkpt>
      <trkpt lat="45.84984" lon="4.80729">
        <ele>488</ele>
        <time>2012-01-22T08:54:18Z</time>
      </trkpt>
      <trkpt lat="45.84979" lon="4.80715">
        <ele>487</ele>
        <time>2012-01-22T08:54:24Z</time>
      </trkpt>
      <trkpt lat="45.84978" lon="4.8071">
        <ele>487</ele>
        <time>2012-01-22T08:54:34Z</time>
      </trkpt>
      <trkpt lat="45.84977" lon="4.80708">
        <ele>487</ele>
        <time>2012-01-22T08:54:35Z</time>
      </trkpt>
      <trkpt lat="45.84975" lon="4.80705">
        <ele>487</ele>
        <time>2012-01-22T08:54:38Z</time>
      </trkpt>
      <trkpt lat="45.84972" lon="4.80699">
        <ele>487</ele>
        <time>2012-01-22T08:54:42Z</time>
      </trkpt>
      <trkpt lat="45.84967" lon="4.80688">
        <ele>486</ele>
        <time>2012-01-22T08:54:50Z</time>
      </trkpt>
      <trkpt lat="45.84965" lon="4.80682">
        <ele>487</ele>
        <time>2012-01-22T08:54:54Z</time>
      </trkpt>
      <trkpt lat="45.84964" lon="4.8068">
        <ele>487</ele>
        <time>2012-01-22T08:54:57Z</time>
      </trkpt>
      <trkpt lat="45.84959" lon="4.80673">
        <ele>487</ele>
        <time>2012-01-22T08:56:15Z</time>
      </trkpt>
      <trkpt lat="45.84956" lon="4.8067">
        <ele>488</ele>
        <time>2012-01-22T08:56:31Z</time>
      </trkpt>
      <trkpt lat="45.84954" lon="4.80667">
        <ele>488</ele>
        <time>2012-01-22T08:56:33Z</time>
      </trkpt>
      <trkpt lat="45.84952" lon="4.80663">
        <ele>485</ele>
        <time>2012-01-22T08:56:36Z</time>
      </trkpt>
      <trkpt lat="45.8495" lon="4.80657">
        <ele>485</ele>
        <time>2012-01-22T08:56:40Z</time>
      </trkpt>
      <trkpt lat="45.84949" lon="4.80655">
        <ele>485</ele>
        <time>2012-01-22T08:56:42Z</time>
      </trkpt>
      <trkpt lat="45.84948" lon="4.80654">
        <ele>485</ele>
        <time>2012-01-22T08:56:43Z</time>
      </trkpt>
      <trkpt lat="45.84946" lon="4.80648">
        <ele>485</ele>
        <time>2012-01-22T08:56:48Z</time>
      </trkpt>
      <trkpt lat="45.84945" lon="4.80646">
        <ele>485</ele>
        <time>2012-01-22T08:56:50Z</time>
      </trkpt>
      <trkpt lat="45.84944" lon="4.80645">
        <ele>486</ele>
        <time>2012-01-22T08:56:51Z</time>
      </trkpt>
      <trkpt lat="45.8494" lon="4.80639">
        <ele>486</ele>
        <time>2012-01-22T08:56:55Z</time>
      </trkpt>
      <trkpt lat="45.84931" lon="4.80629">
        <ele>486</ele>
        <time>2012-01-22T08:57:03Z</time>
      </trkpt>
      <trkpt lat="45.8493" lon="4.80628">
        <ele>486</ele>
        <time>2012-01-22T08:57:04Z</time>
      </trkpt>
      <trkpt lat="45.84924" lon="4.80621">
        <ele>487</ele>
        <time>2012-01-22T08:57:09Z</time>
      </trkpt>
      <trkpt lat="45.84915" lon="4.80609">
        <ele>497</ele>
        <time>2012-01-22T08:57:16Z</time>
      </trkpt>
      <trkpt lat="45.84906" lon="4.80599">
        <ele>497</ele>
        <time>2012-01-22T08:57:21Z</time>
      </trkpt>
      <trkpt lat="45.84902" lon="4.80593">
        <ele>497</ele>
        <time>2012-01-22T08:57:24Z</time>
      </trkpt>
      <trkpt lat="45.84899" lon="4.80589">
        <ele>497</ele>
        <time>2012-01-22T08:57:26Z</time>
      </trkpt>
      <trkpt lat="45.84888" lon="4.80577">
        <ele>498</ele>
        <time>2012-01-22T08:57:32Z</time>
      </trkpt>
      <trkpt lat="45.84887" lon="4.80575">
        <ele>498</ele>
        <time>2012-01-22T08:57:33Z</time>
      </trkpt>
      <trkpt lat="45.84881" lon="4.80564">
        <ele>498</ele>
        <time>2012-01-22T08:57:38Z</time>
      </trkpt>
      <trkpt lat="45.84874" lon="4.80554">
        <ele>499</ele>
        <time>2012-01-22T08:57:44Z</time>
      </trkpt>
      <trkpt lat="45.84873" lon="4.80552">
        <ele>499</ele>
        <time>2012-01-22T08:57:45Z</time>
      </trkpt>
      <trkpt lat="45.84866" lon="4.80542">
        <ele>499</ele>
        <time>2012-01-22T08:57:50Z</time>
      </trkpt>
      <trkpt lat="45.8486" lon="4.80535">
        <ele>500</ele>
        <time>2012-01-22T08:57:54Z</time>
      </trkpt>
      <trkpt lat="45.84857" lon="4.8053">
        <ele>500</ele>
        <time>2012-01-22T08:57:56Z</time>
      </trkpt>
      <trkpt lat="45.84847" lon="4.80521">
        <ele>502</ele>
        <time>2012-01-22T08:58:02Z</time>
      </trkpt>
      <trkpt lat="45.84845" lon="4.80519">
        <ele>502</ele>
        <time>2012-01-22T08:58:03Z</time>
      </trkpt>
      <trkpt lat="45.84836" lon="4.8051">
        <ele>505</ele>
        <time>2012-01-22T08:58:09Z</time>
      </trkpt>
      <trkpt lat="45.84829" lon="4.80505">
        <ele>508</ele>
        <time>2012-01-22T08:58:13Z</time>
      </trkpt>
      <trkpt lat="45.84825" lon="4.80502">
        <ele>508</ele>
        <time>2012-01-22T08:58:15Z</time>
      </trkpt>
      <trkpt lat="45.84816" lon="4.80493">
        <ele>510</ele>
        <time>2012-01-22T08:58:21Z</time>
      </trkpt>
      <trkpt lat="45.84813" lon="4.80491">
        <ele>510</ele>
        <time>2012-01-22T08:58:23Z</time>
      </trkpt>
      <trkpt lat="45.84807" lon="4.80485">
        <ele>510</ele>
        <time>2012-01-22T08:58:27Z</time>
      </trkpt>
      <trkpt lat="45.848" lon="4.80476">
        <ele>511</ele>
        <time>2012-01-22T08:58:32Z</time>
      </trkpt>
      <trkpt lat="45.84798" lon="4.80475">
        <ele>511</ele>
        <time>2012-01-22T08:58:33Z</time>
      </trkpt>
      <trkpt lat="45.8479" lon="4.80466">
        <ele>512</ele>
        <time>2012-01-22T08:58:39Z</time>
      </trkpt>
      <trkpt lat="45.84784" lon="4.80459">
        <ele>512</ele>
        <time>2012-01-22T08:58:44Z</time>
      </trkpt>
      <trkpt lat="45.84783" lon="4.80457">
        <ele>512</ele>
        <time>2012-01-22T08:58:45Z</time>
      </trkpt>
      <trkpt lat="45.84775" lon="4.80448">
        <ele>514</ele>
        <time>2012-01-22T08:58:50Z</time>
      </trkpt>
      <trkpt lat="45.84768" lon="4.80442">
        <ele>515</ele>
        <time>2012-01-22T08:58:54Z</time>
      </trkpt>
      <trkpt lat="45.84767" lon="4.8044">
        <ele>515</ele>
        <time>2012-01-22T08:58:55Z</time>
      </trkpt>
      <trkpt lat="45.84766" lon="4.80439">
        <ele>515</ele>
        <time>2012-01-22T08:58:56Z</time>
      </trkpt>
      <trkpt lat="45.84761" lon="4.80433">
        <ele>517</ele>
        <time>2012-01-22T08:59:00Z</time>
      </trkpt>
      <trkpt lat="45.8476" lon="4.80432">
        <ele>517</ele>
        <time>2012-01-22T08:59:01Z</time>
      </trkpt>
      <trkpt lat="45.84754" lon="4.80423">
        <ele>520</ele>
        <time>2012-01-22T08:59:07Z</time>
      </trkpt>
      <trkpt lat="45.84752" lon="4.8042">
        <ele>522</ele>
        <time>2012-01-22T08:59:09Z</time>
      </trkpt>
      <trkpt lat="45.84747" lon="4.80415">
        <ele>524</ele>
        <time>2012-01-22T08:59:13Z</time>
      </trkpt>
      <trkpt lat="45.84739" lon="4.80406">
        <ele>524</ele>
        <time>2012-01-22T08:59:20Z</time>
      </trkpt>
      <trkpt lat="45.84732" lon="4.80396">
        <ele>523</ele>
        <time>2012-01-22T08:59:26Z</time>
      </trkpt>
      <trkpt lat="45.84725" lon="4.80389">
        <ele>523</ele>
        <time>2012-01-22T08:59:32Z</time>
      </trkpt>
      <trkpt lat="45.84724" lon="4.80387">
        <ele>523</ele>
        <time>2012-01-22T08:59:33Z</time>
      </trkpt>
      <trkpt lat="45.84714" lon="4.80377">
        <ele>524</ele>
        <time>2012-01-22T08:59:40Z</time>
      </trkpt>
      <trkpt lat="45.84713" lon="4.80375">
        <ele>524</ele>
        <time>2012-01-22T08:59:42Z</time>
      </trkpt>
      <trkpt lat="45.8471" lon="4.80372">
        <ele>524</ele>
        <time>2012-01-22T08:59:44Z</time>
      </trkpt>
      <trkpt lat="45.84709" lon="4.8037">
        <ele>524</ele>
        <time>2012-01-22T08:59:45Z</time>
      </trkpt>
      <trkpt lat="45.84705" lon="4.80365">
        <ele>524</ele>
        <time>2012-01-22T08:59:48Z</time>
      </trkpt>
      <trkpt lat="45.84701" lon="4.80361">
        <ele>525</ele>
        <time>2012-01-22T08:59:50Z</time>
      </trkpt>
      <trkpt lat="45.84696" lon="4.80353">
        <ele>525</ele>
        <time>2012-01-22T08:59:54Z</time>
      </trkpt>
      <trkpt lat="45.84693" lon="4.80351">
        <ele>526</ele>
        <time>2012-01-22T08:59:56Z</time>
      </trkpt>
      <trkpt lat="45.84684" lon="4.80339">
        <ele>528</ele>
        <time>2012-01-22T09:00:03Z</time>
      </trkpt>
      <trkpt lat="45.84682" lon="4.80336">
        <ele>528</ele>
        <time>2012-01-22T09:00:05Z</time>
      </trkpt>
      <trkpt lat="45.84676" lon="4.80329">
        <ele>528</ele>
        <time>2012-01-22T09:00:09Z</time>
      </trkpt>
      <trkpt lat="45.84668" lon="4.80319">
        <ele>526</ele>
        <time>2012-01-22T09:00:15Z</time>
      </trkpt>
      <trkpt lat="45.84666" lon="4.80317">
        <ele>533</ele>
        <time>2012-01-22T09:00:16Z</time>
      </trkpt>
      <trkpt lat="45.84659" lon="4.80304">
        <ele>533</ele>
        <time>2012-01-22T09:00:22Z</time>
      </trkpt>
      <trkpt lat="45.84655" lon="4.80299">
        <ele>533</ele>
        <time>2012-01-22T09:00:24Z</time>
      </trkpt>
      <trkpt lat="45.84647" lon="4.8029">
        <ele>534</ele>
        <time>2012-01-22T09:00:28Z</time>
      </trkpt>
      <trkpt lat="45.84639" lon="4.80286">
        <ele>534</ele>
        <time>2012-01-22T09:00:31Z</time>
      </trkpt>
      <trkpt lat="45.84633" lon="4.80284">
        <ele>534</ele>
        <time>2012-01-22T09:00:33Z</time>
      </trkpt>
      <trkpt lat="45.8462" lon="4.80279">
        <ele>535</ele>
        <time>2012-01-22T09:00:38Z</time>
      </trkpt>
      <trkpt lat="45.84614" lon="4.80278">
        <ele>536</ele>
        <time>2012-01-22T09:00:40Z</time>
      </trkpt>
      <trkpt lat="45.84601" lon="4.80271">
        <ele>537</ele>
        <time>2012-01-22T09:00:45Z</time>
      </trkpt>
      <trkpt lat="45.84599" lon="4.80271">
        <ele>537</ele>
        <time>2012-01-22T09:00:46Z</time>
      </trkpt>
      <trkpt lat="45.84583" lon="4.80266">
        <ele>542</ele>
        <time>2012-01-22T09:00:53Z</time>
      </trkpt>
      <trkpt lat="45.84566" lon="4.80264">
        <ele>541</ele>
        <time>2012-01-22T09:01:00Z</time>
      </trkpt>
      <trkpt lat="45.84563" lon="4.80265">
        <ele>541</ele>
        <time>2012-01-22T09:01:01Z</time>
      </trkpt>
      <trkpt lat="45.84554" lon="4.80265">
        <ele>541</ele>
        <time>2012-01-22T09:01:05Z</time>
      </trkpt>
      <trkpt lat="45.84544" lon="4.80263">
        <ele>541</ele>
        <time>2012-01-22T09:01:10Z</time>
      </trkpt>
      <trkpt lat="45.84542" lon="4.80262">
        <ele>541</ele>
        <time>2012-01-22T09:01:11Z</time>
      </trkpt>
      <trkpt lat="45.84529" lon="4.80257">
        <ele>542</ele>
        <time>2012-01-22T09:01:17Z</time>
      </trkpt>
      <trkpt lat="45.84525" lon="4.80255">
        <ele>542</ele>
        <time>2012-01-22T09:01:19Z</time>
      </trkpt>
      <trkpt lat="45.84518" lon="4.80251">
        <ele>543</ele>
        <time>2012-01-22T09:01:23Z</time>
      </trkpt>
      <trkpt lat="45.84507" lon="4.80244">
        <ele>547</ele>
        <time>2012-01-22T09:01:29Z</time>
      </trkpt>
      <trkpt lat="45.84497" lon="4.80235">
        <ele>548</ele>
        <time>2012-01-22T09:01:35Z</time>
      </trkpt>
      <trkpt lat="45.84491" lon="4.80228">
        <ele>549</ele>
        <time>2012-01-22T09:01:39Z</time>
      </trkpt>
      <trkpt lat="45.84489" lon="4.80225">
        <ele>549</ele>
        <time>2012-01-22T09:01:41Z</time>
      </trkpt>
      <trkpt lat="45.84482" lon="4.80212">
        <ele>550</ele>
        <time>2012-01-22T09:01:47Z</time>
      </trkpt>
      <trkpt lat="45.8448" lon="4.80208">
        <ele>550</ele>
        <time>2012-01-22T09:01:49Z</time>
      </trkpt>
      <trkpt lat="45.84475" lon="4.80198">
        <ele>550</ele>
        <time>2012-01-22T09:01:53Z</time>
      </trkpt>
      <trkpt lat="45.84469" lon="4.80184">
        <ele>551</ele>
        <time>2012-01-22T09:01:59Z</time>
      </trkpt>
      <trkpt lat="45.84468" lon="4.80182">
        <ele>551</ele>
        <time>2012-01-22T09:02:00Z</time>
      </trkpt>
      <trkpt lat="45.8446" lon="4.80167">
        <ele>551</ele>
        <time>2012-01-22T09:02:07Z</time>
      </trkpt>
      <trkpt lat="45.84457" lon="4.80163">
        <ele>554</ele>
        <time>2012-01-22T09:02:09Z</time>
      </trkpt>
      <trkpt lat="45.84454" lon="4.80153">
        <ele>554</ele>
        <time>2012-01-22T09:02:14Z</time>
      </trkpt>
      <trkpt lat="45.84449" lon="4.80139">
        <ele>555</ele>
        <time>2012-01-22T09:02:21Z</time>
      </trkpt>
      <trkpt lat="45.84447" lon="4.80134">
        <ele>555</ele>
        <time>2012-01-22T09:02:24Z</time>
      </trkpt>
      <trkpt lat="45.84446" lon="4.8013">
        <ele>555</ele>
        <time>2012-01-22T09:02:26Z</time>
      </trkpt>
      <trkpt lat="45.8444" lon="4.80115">
        <ele>556</ele>
        <time>2012-01-22T09:02:33Z</time>
      </trkpt>
      <trkpt lat="45.84439" lon="4.80113">
        <ele>556</ele>
        <time>2012-01-22T09:02:34Z</time>
      </trkpt>
      <trkpt lat="45.84435" lon="4.80102">
        <ele>557</ele>
        <time>2012-01-22T09:02:41Z</time>
      </trkpt>
      <trkpt lat="45.84432" lon="4.80098">
        <ele>557</ele>
        <time>2012-01-22T09:02:43Z</time>
      </trkpt>
      <trkpt lat="45.84429" lon="4.80093">
        <ele>558</ele>
        <time>2012-01-22T09:02:45Z</time>
      </trkpt>
      <trkpt lat="45.84428" lon="4.80091">
        <ele>558</ele>
        <time>2012-01-22T09:02:46Z</time>
      </trkpt>
      <trkpt lat="45.84423" lon="4.80081">
        <ele>559</ele>
        <time>2012-01-22T09:02:51Z</time>
      </trkpt>
      <trkpt lat="45.84419" lon="4.80076">
        <ele>559</ele>
        <time>2012-01-22T09:02:54Z</time>
      </trkpt>
      <trkpt lat="45.84416" lon="4.80073">
        <ele>562</ele>
        <time>2012-01-22T09:02:56Z</time>
      </trkpt>
      <trkpt lat="45.84415" lon="4.80071">
        <ele>562</ele>
        <time>2012-01-22T09:02:57Z</time>
      </trkpt>
      <trkpt lat="45.84405" lon="4.80061">
        <ele>562</ele>
        <time>2012-01-22T09:03:03Z</time>
      </trkpt>
      <trkpt lat="45.84404" lon="4.8006">
        <ele>562</ele>
        <time>2012-01-22T09:03:04Z</time>
      </trkpt>
      <trkpt lat="45.844" lon="4.80057">
        <ele>563</ele>
        <time>2012-01-22T09:03:07Z</time>
      </trkpt>
      <trkpt lat="45.84399" lon="4.80056">
        <ele>563</ele>
        <time>2012-01-22T09:03:08Z</time>
      </trkpt>
      <trkpt lat="45.84389" lon="4.80049">
        <ele>563</ele>
        <time>2012-01-22T09:03:15Z</time>
      </trkpt>
      <trkpt lat="45.84385" lon="4.80045">
        <ele>563</ele>
        <time>2012-01-22T09:03:19Z</time>
      </trkpt>
      <trkpt lat="45.84383" lon="4.80041">
        <ele>563</ele>
        <time>2012-01-22T09:03:21Z</time>
      </trkpt>
      <trkpt lat="45.84376" lon="4.80033">
        <ele>564</ele>
        <time>2012-01-22T09:03:27Z</time>
      </trkpt>
      <trkpt lat="45.84375" lon="4.8003">
        <ele>564</ele>
        <time>2012-01-22T09:03:28Z</time>
      </trkpt>
      <trkpt lat="45.84374" lon="4.80023">
        <ele>564</ele>
        <time>2012-01-22T09:03:31Z</time>
      </trkpt>
      <trkpt lat="45.84374" lon="4.80021">
        <ele>564</ele>
        <time>2012-01-22T09:03:32Z</time>
      </trkpt>
      <trkpt lat="45.84371" lon="4.80009">
        <ele>564</ele>
        <time>2012-01-22T09:03:38Z</time>
      </trkpt>
      <trkpt lat="45.84371" lon="4.8">
        <ele>565</ele>
        <time>2012-01-22T09:03:43Z</time>
      </trkpt>
      <trkpt lat="45.84372" lon="4.79997">
        <ele>565</ele>
        <time>2012-01-22T09:03:45Z</time>
      </trkpt>
      <trkpt lat="45.84372" lon="4.7999">
        <ele>565</ele>
        <time>2012-01-22T09:03:48Z</time>
      </trkpt>
      <trkpt lat="45.84372" lon="4.79976">
        <ele>565</ele>
        <time>2012-01-22T09:03:55Z</time>
      </trkpt>
      <trkpt lat="45.8437" lon="4.7997">
        <ele>565</ele>
        <time>2012-01-22T09:03:58Z</time>
      </trkpt>
      <trkpt lat="45.84365" lon="4.79966">
        <ele>565</ele>
        <time>2012-01-22T09:04:02Z</time>
      </trkpt>
      <trkpt lat="45.84353" lon="4.79958">
        <ele>566</ele>
        <time>2012-01-22T09:04:10Z</time>
      </trkpt>
      <trkpt lat="45.84352" lon="4.79956">
        <ele>566</ele>
        <time>2012-01-22T09:04:11Z</time>
      </trkpt>
      <trkpt lat="45.84343" lon="4.79949">
        <ele>567</ele>
        <time>2012-01-22T09:04:18Z</time>
      </trkpt>
      <trkpt lat="45.84336" lon="4.79949">
        <ele>567</ele>
        <time>2012-01-22T09:04:22Z</time>
      </trkpt>
      <trkpt lat="45.84329" lon="4.79945">
        <ele>572</ele>
        <time>2012-01-22T09:04:27Z</time>
      </trkpt>
      <trkpt lat="45.84319" lon="4.79938">
        <ele>572</ele>
        <time>2012-01-22T09:04:34Z</time>
      </trkpt>
      <trkpt lat="45.84317" lon="4.79936">
        <ele>572</ele>
        <time>2012-01-22T09:04:36Z</time>
      </trkpt>
      <trkpt lat="45.84305" lon="4.79924">
        <ele>573</ele>
        <time>2012-01-22T09:04:46Z</time>
      </trkpt>
      <trkpt lat="45.84304" lon="4.79922">
        <ele>573</ele>
        <time>2012-01-22T09:04:47Z</time>
      </trkpt>
      <trkpt lat="45.84293" lon="4.79913">
        <ele>576</ele>
        <time>2012-01-22T09:04:55Z</time>
      </trkpt>
      <trkpt lat="45.84288" lon="4.79907">
        <ele>577</ele>
        <time>2012-01-22T09:04:59Z</time>
      </trkpt>
      <trkpt lat="45.84279" lon="4.79895">
        <ele>578</ele>
        <time>2012-01-22T09:05:06Z</time>
      </trkpt>
      <trkpt lat="45.84273" lon="4.7989">
        <ele>578</ele>
        <time>2012-01-22T09:05:10Z</time>
      </trkpt>
      <trkpt lat="45.84267" lon="4.79884">
        <ele>579</ele>
        <time>2012-01-22T09:05:13Z</time>
      </trkpt>
      <trkpt lat="45.84257" lon="4.79873">
        <ele>580</ele>
        <time>2012-01-22T09:05:18Z</time>
      </trkpt>
      <trkpt lat="45.84252" lon="4.79867">
        <ele>581</ele>
        <time>2012-01-22T09:05:21Z</time>
      </trkpt>
      <trkpt lat="45.84244" lon="4.79854">
        <ele>587</ele>
        <time>2012-01-22T09:05:27Z</time>
      </trkpt>
      <trkpt lat="45.84244" lon="4.79851">
        <ele>587</ele>
        <time>2012-01-22T09:05:28Z</time>
      </trkpt>
      <trkpt lat="45.84237" lon="4.79836">
        <ele>588</ele>
        <time>2012-01-22T09:05:34Z</time>
      </trkpt>
      <trkpt lat="45.84236" lon="4.7983">
        <ele>591</ele>
        <time>2012-01-22T09:05:37Z</time>
      </trkpt>
      <trkpt lat="45.84234" lon="4.79826">
        <ele>591</ele>
        <time>2012-01-22T09:05:40Z</time>
      </trkpt>
      <trkpt lat="45.84233" lon="4.79818">
        <ele>591</ele>
        <time>2012-01-22T09:05:45Z</time>
      </trkpt>
      <trkpt lat="45.84231" lon="4.7981">
        <ele>591</ele>
        <time>2012-01-22T09:05:53Z</time>
      </trkpt>
      <trkpt lat="45.84231" lon="4.7981">
        <ele>591</ele>
        <time>2012-01-22T09:06:10Z</time>
      </trkpt>
      <trkpt lat="45.84228" lon="4.7981">
        <ele>591</ele>
        <time>2012-01-22T09:06:15Z</time>
      </trkpt>
      <trkpt lat="45.84228" lon="4.79811">
        <ele>591</ele>
        <time>2012-01-22T09:06:17Z</time>
      </trkpt>
      <trkpt lat="45.84229" lon="4.7981">
        <ele>591</ele>
        <time>2012-01-22T09:06:24Z</time>
      </trkpt>
      <trkpt lat="45.8423" lon="4.79813">
        <ele>591</ele>
        <time>2012-01-22T09:06:33Z</time>
      </trkpt>
      <trkpt lat="45.8423" lon="4.79812">
        <ele>591</ele>
        <time>2012-01-22T09:06:42Z</time>
      </trkpt>
      <trkpt lat="45.84229" lon="4.79809">
        <ele>591</ele>
        <time>2012-01-22T09:06:49Z</time>
      </trkpt>
      <trkpt lat="45.84228" lon="4.79808">
        <ele>591</ele>
        <time>2012-01-22T09:06:56Z</time>
      </trkpt>
      <trkpt lat="45.8423" lon="4.79807">
        <ele>591</ele>
        <time>2012-01-22T09:07:16Z</time>
      </trkpt>
      <trkpt lat="45.84229" lon="4.79809">
        <ele>591</ele>
        <time>2012-01-22T09:07:21Z</time>
      </trkpt>
      <trkpt lat="45.84228" lon="4.79809">
        <ele>591</ele>
        <time>2012-01-22T09:07:42Z</time>
      </trkpt>
      <trkpt lat="45.84228" lon="4.79809">
        <ele>591</ele>
        <time>2012-01-22T09:07:50Z</time>
      </trkpt>
      <trkpt lat="45.84228" lon="4.79811">
        <ele>591</ele>
        <time>2012-01-22T09:07:54Z</time>
      </trkpt>
      <trkpt lat="45.84225" lon="4.79809">
        <ele>591</ele>
        <time>2012-01-22T09:08:00Z</time>
      </trkpt>
      <trkpt lat="45.84226" lon="4.79807">
        <ele>591</ele>
        <time>2012-01-22T09:08:06Z</time>
      </trkpt>
      <trkpt lat="45.84226" lon="4.79807">
        <ele>591</ele>
        <time>2012-01-22T09:08:27Z</time>
      </trkpt>
      <trkpt lat="45.84226" lon="4.79813">
        <ele>591</ele>
        <time>2012-01-22T09:08:56Z</time>
      </trkpt>
      <trkpt lat="45.84227" lon="4.79813">
        <ele>591</ele>
        <time>2012-01-22T09:09:04Z</time>
      </trkpt>
      <trkpt lat="45.84226" lon="4.79809">
        <ele>591</ele>
        <time>2012-01-22T09:09:07Z</time>
      </trkpt>
      <trkpt lat="45.84227" lon="4.79808">
        <ele>591</ele>
        <time>2012-01-22T09:09:09Z</time>
      </trkpt>
      <trkpt lat="45.84226" lon="4.7981">
        <ele>591</ele>
        <time>2012-01-22T09:09:23Z</time>
      </trkpt>
      <trkpt lat="45.84227" lon="4.79811">
        <ele>591</ele>
        <time>2012-01-22T09:09:24Z</time>
      </trkpt>
      <trkpt lat="45.84227" lon="4.79811">
        <ele>591</ele>
        <time>2012-01-22T09:09:25Z</time>
      </trkpt>
      <trkpt lat="45.84227" lon="4.79808">
        <ele>591</ele>
        <time>2012-01-22T09:09:30Z</time>
      </trkpt>
      <trkpt lat="45.84227" lon="4.79807">
        <ele>591</ele>
        <time>2012-01-22T09:09:31Z</time>
      </trkpt>
      <trkpt lat="45.84226" lon="4.79805">
        <ele>591</ele>
        <time>2012-01-22T09:09:39Z</time>
      </trkpt>
      <trkpt lat="45.84223" lon="4.79806">
        <ele>591</ele>
        <time>2012-01-22T09:09:51Z</time>
      </trkpt>
      <trkpt lat="45.84224" lon="4.79809">
        <ele>591</ele>
        <time>2012-01-22T09:09:53Z</time>
      </trkpt>
      <trkpt lat="45.84222" lon="4.79809">
        <ele>591</ele>
        <time>2012-01-22T09:10:03Z</time>
      </trkpt>
      <trkpt lat="45.84222" lon="4.79808">
        <ele>591</ele>
        <time>2012-01-22T09:10:09Z</time>
      </trkpt>
      <trkpt lat="45.84222" lon="4.79809">
        <ele>591</ele>
        <time>2012-01-22T09:10:17Z</time>
      </trkpt>
      <trkpt lat="45.84221" lon="4.79811">
        <ele>591</ele>
        <time>2012-01-22T09:10:23Z</time>
      </trkpt>
      <trkpt lat="45.8422" lon="4.79809">
        <ele>591</ele>
        <time>2012-01-22T09:10:32Z</time>
      </trkpt>
      <trkpt lat="45.8422" lon="4.7981">
        <ele>591</ele>
        <time>2012-01-22T09:10:33Z</time>
      </trkpt>
      <trkpt lat="45.84221" lon="4.79816">
        <ele>591</ele>
        <time>2012-01-22T09:10:39Z</time>
      </trkpt>
      <trkpt lat="45.84222" lon="4.79819">
        <ele>591</ele>
        <time>2012-01-22T09:10:44Z</time>
      </trkpt>
      <trkpt lat="45.84221" lon="4.79822">
        <ele>591</ele>
        <time>2012-01-22T09:10:49Z</time>
      </trkpt>
      <trkpt lat="45.84221" lon="4.79825">
        <ele>591</ele>
        <time>2012-01-22T09:10:55Z</time>
      </trkpt>
      <trkpt lat="45.84221" lon="4.79828">
        <ele>591</ele>
        <time>2012-01-22T09:11:00Z</time>
      </trkpt>
      <trkpt lat="45.84216" lon="4.79828">
        <ele>591</ele>
        <time>2012-01-22T09:11:05Z</time>
      </trkpt>
      <trkpt lat="45.84214" lon="4.79829">
        <ele>591</ele>
        <time>2012-01-22T09:11:12Z</time>
      </trkpt>
      <trkpt lat="45.84215" lon="4.79829">
        <ele>591</ele>
        <time>2012-01-22T09:11:23Z</time>
      </trkpt>
      <trkpt lat="45.84213" lon="4.7983">
        <ele>591</ele>
        <time>2012-01-22T09:11:30Z</time>
      </trkpt>
      <trkpt lat="45.84212" lon="4.7984">
        <ele>587</ele>
        <time>2012-01-22T09:11:36Z</time>
      </trkpt>
      <trkpt lat="45.84216" lon="4.79852">
        <ele>587</ele>
        <time>2012-01-22T09:11:41Z</time>
      </trkpt>
      <trkpt lat="45.8422" lon="4.79865">
        <ele>586</ele>
        <time>2012-01-22T09:11:45Z</time>
      </trkpt>
      <trkpt lat="45.84221" lon="4.79868">
        <ele>586</ele>
        <time>2012-01-22T09:11:46Z</time>
      </trkpt>
      <trkpt lat="45.84228" lon="4.79888">
        <ele>584</ele>
        <time>2012-01-22T09:11:52Z</time>
      </trkpt>
      <trkpt lat="45.84229" lon="4.79891">
        <ele>584</ele>
        <time>2012-01-22T09:11:53Z</time>
      </trkpt>
      <trkpt lat="45.84235" lon="4.79903">
        <ele>582</ele>
        <time>2012-01-22T09:11:57Z</time>
      </trkpt>
      <trkpt lat="45.8424" lon="4.79914">
        <ele>581</ele>
        <time>2012-01-22T09:12:01Z</time>
      </trkpt>
      <trkpt lat="45.84243" lon="4.79919">
        <ele>578</ele>
        <time>2012-01-22T09:12:03Z</time>
      </trkpt>
      <trkpt lat="45.8425" lon="4.79935">
        <ele>575</ele>
        <time>2012-01-22T09:12:08Z</time>
      </trkpt>
      <trkpt lat="45.84251" lon="4.79938">
        <ele>575</ele>
        <time>2012-01-22T09:12:09Z</time>
      </trkpt>
      <trkpt lat="45.84257" lon="4.79961">
        <ele>573</ele>
        <time>2012-01-22T09:12:16Z</time>
      </trkpt>
      <trkpt lat="45.84255" lon="4.79981">
        <ele>571</ele>
        <time>2012-01-22T09:12:21Z</time>
      </trkpt>
      <trkpt lat="45.84254" lon="4.79988">
        <ele>571</ele>
        <time>2012-01-22T09:12:23Z</time>
      </trkpt>
      <trkpt lat="45.84252" lon="4.8">
        <ele>569</ele>
        <time>2012-01-22T09:12:26Z</time>
      </trkpt>
      <trkpt lat="45.84248" lon="4.80012">
        <ele>567</ele>
        <time>2012-01-22T09:12:30Z</time>
      </trkpt>
      <trkpt lat="45.84247" lon="4.80016">
        <ele>566</ele>
        <time>2012-01-22T09:12:31Z</time>
      </trkpt>
      <trkpt lat="45.84239" lon="4.80031">
        <ele>565</ele>
        <time>2012-01-22T09:12:35Z</time>
      </trkpt>
      <trkpt lat="45.84235" lon="4.80038">
        <ele>564</ele>
        <time>2012-01-22T09:12:37Z</time>
      </trkpt>
      <trkpt lat="45.84227" lon="4.80048">
        <ele>563</ele>
        <time>2012-01-22T09:12:40Z</time>
      </trkpt>
      <trkpt lat="45.84221" lon="4.80059">
        <ele>562</ele>
        <time>2012-01-22T09:12:43Z</time>
      </trkpt>
      <trkpt lat="45.84217" lon="4.80065">
        <ele>562</ele>
        <time>2012-01-22T09:12:45Z</time>
      </trkpt>
      <trkpt lat="45.84208" lon="4.80076">
        <ele>562</ele>
        <time>2012-01-22T09:12:49Z</time>
      </trkpt>
      <trkpt lat="45.84205" lon="4.80079">
        <ele>562</ele>
        <time>2012-01-22T09:12:50Z</time>
      </trkpt>
      <trkpt lat="45.8419" lon="4.80084">
        <ele>556</ele>
        <time>2012-01-22T09:12:55Z</time>
      </trkpt>
      <trkpt lat="45.84172" lon="4.8008">
        <ele>561</ele>
        <time>2012-01-22T09:13:02Z</time>
      </trkpt>
      <trkpt lat="45.84155" lon="4.80078">
        <ele>562</ele>
        <time>2012-01-22T09:13:08Z</time>
      </trkpt>
      <trkpt lat="45.84152" lon="4.80078">
        <ele>562</ele>
        <time>2012-01-22T09:13:09Z</time>
      </trkpt>
      <trkpt lat="45.84145" lon="4.80081">
        <ele>562</ele>
        <time>2012-01-22T09:13:12Z</time>
      </trkpt>
      <trkpt lat="45.84138" lon="4.80091">
        <ele>556</ele>
        <time>2012-01-22T09:13:16Z</time>
      </trkpt>
      <trkpt lat="45.8413" lon="4.80107">
        <ele>555</ele>
        <time>2012-01-22T09:13:21Z</time>
      </trkpt>
      <trkpt lat="45.84127" lon="4.80115">
        <ele>554</ele>
        <time>2012-01-22T09:13:24Z</time>
      </trkpt>
      <trkpt lat="45.84127" lon="4.80119">
        <ele>554</ele>
        <time>2012-01-22T09:13:26Z</time>
      </trkpt>
      <trkpt lat="45.84127" lon="4.80138">
        <ele>553</ele>
        <time>2012-01-22T09:13:31Z</time>
      </trkpt>
      <trkpt lat="45.84128" lon="4.80141">
        <ele>552</ele>
        <time>2012-01-22T09:13:32Z</time>
      </trkpt>
      <trkpt lat="45.84129" lon="4.80147">
        <ele>552</ele>
        <time>2012-01-22T09:13:34Z</time>
      </trkpt>
      <trkpt lat="45.84126" lon="4.80154">
        <ele>552</ele>
        <time>2012-01-22T09:13:36Z</time>
      </trkpt>
      <trkpt lat="45.84123" lon="4.80166">
        <ele>551</ele>
        <time>2012-01-22T09:13:39Z</time>
      </trkpt>
      <trkpt lat="45.84121" lon="4.80173">
        <ele>543</ele>
        <time>2012-01-22T09:13:41Z</time>
      </trkpt>
      <trkpt lat="45.84111" lon="4.80178">
        <ele>544</ele>
        <time>2012-01-22T09:13:45Z</time>
      </trkpt>
      <trkpt lat="45.84108" lon="4.80178">
        <ele>544</ele>
        <time>2012-01-22T09:13:46Z</time>
      </trkpt>
      <trkpt lat="45.84102" lon="4.8018">
        <ele>544</ele>
        <time>2012-01-22T09:13:49Z</time>
      </trkpt>
      <trkpt lat="45.84091" lon="4.80184">
        <ele>544</ele>
        <time>2012-01-22T09:13:53Z</time>
      </trkpt>
      <trkpt lat="45.84086" lon="4.80187">
        <ele>544</ele>
        <time>2012-01-22T09:13:55Z</time>
      </trkpt>
      <trkpt lat="45.84074" lon="4.80194">
        <ele>542</ele>
        <time>2012-01-22T09:13:59Z</time>
      </trkpt>
      <trkpt lat="45.84071" lon="4.80196">
        <ele>541</ele>
        <time>2012-01-22T09:14:00Z</time>
      </trkpt>
      <trkpt lat="45.84064" lon="4.80202">
        <ele>541</ele>
        <time>2012-01-22T09:14:03Z</time>
      </trkpt>
      <trkpt lat="45.84062" lon="4.80205">
        <ele>540</ele>
        <time>2012-01-22T09:14:04Z</time>
      </trkpt>
      <trkpt lat="45.84058" lon="4.8021">
        <ele>540</ele>
        <time>2012-01-22T09:14:06Z</time>
      </trkpt>
      <trkpt lat="45.84055" lon="4.80218">
        <ele>539</ele>
        <time>2012-01-22T09:14:08Z</time>
      </trkpt>
      <trkpt lat="45.8405" lon="4.80232">
        <ele>538</ele>
        <time>2012-01-22T09:14:12Z</time>
      </trkpt>
      <trkpt lat="45.84049" lon="4.80236">
        <ele>538</ele>
        <time>2012-01-22T09:14:13Z</time>
      </trkpt>
      <trkpt lat="45.84048" lon="4.8024">
        <ele>538</ele>
        <time>2012-01-22T09:14:14Z</time>
      </trkpt>
      <trkpt lat="45.84046" lon="4.80261">
        <ele>529</ele>
        <time>2012-01-22T09:14:18Z</time>
      </trkpt>
      <trkpt lat="45.84046" lon="4.80266">
        <ele>529</ele>
        <time>2012-01-22T09:14:19Z</time>
      </trkpt>
      <trkpt lat="45.84045" lon="4.80278">
        <ele>528</ele>
        <time>2012-01-22T09:14:22Z</time>
      </trkpt>
      <trkpt lat="45.84041" lon="4.80286">
        <ele>527</ele>
        <time>2012-01-22T09:14:24Z</time>
      </trkpt>
      <trkpt lat="45.84031" lon="4.80289">
        <ele>527</ele>
        <time>2012-01-22T09:14:28Z</time>
      </trkpt>
      <trkpt lat="45.84023" lon="4.80294">
        <ele>527</ele>
        <time>2012-01-22T09:14:31Z</time>
      </trkpt>
      <trkpt lat="45.84021" lon="4.80296">
        <ele>526</ele>
        <time>2012-01-22T09:14:32Z</time>
      </trkpt>
      <trkpt lat="45.84011" lon="4.80298">
        <ele>526</ele>
        <time>2012-01-22T09:14:36Z</time>
      </trkpt>
      <trkpt lat="45.84006" lon="4.80299">
        <ele>526</ele>
        <time>2012-01-22T09:14:38Z</time>
      </trkpt>
      <trkpt lat="45.84001" lon="4.80299">
        <ele>526</ele>
        <time>2012-01-22T09:14:40Z</time>
      </trkpt>
      <trkpt lat="45.83991" lon="4.80303">
        <ele>521</ele>
        <time>2012-01-22T09:14:44Z</time>
      </trkpt>
      <trkpt lat="45.83989" lon="4.80308">
        <ele>521</ele>
        <time>2012-01-22T09:14:46Z</time>
      </trkpt>
      <trkpt lat="45.83989" lon="4.80316">
        <ele>520</ele>
        <time>2012-01-22T09:14:48Z</time>
      </trkpt>
      <trkpt lat="45.83992" lon="4.80323">
        <ele>520</ele>
        <time>2012-01-22T09:14:50Z</time>
      </trkpt>
      <trkpt lat="45.83994" lon="4.80332">
        <ele>520</ele>
        <time>2012-01-22T09:14:52Z</time>
      </trkpt>
      <trkpt lat="45.83995" lon="4.80336">
        <ele>517</ele>
        <time>2012-01-22T09:14:53Z</time>
      </trkpt>
      <trkpt lat="45.83999" lon="4.80355">
        <ele>513</ele>
        <time>2012-01-22T09:14:58Z</time>
      </trkpt>
      <trkpt lat="45.83998" lon="4.80358">
        <ele>513</ele>
        <time>2012-01-22T09:14:59Z</time>
      </trkpt>
      <trkpt lat="45.83996" lon="4.80362">
        <ele>512</ele>
        <time>2012-01-22T09:15:02Z</time>
      </trkpt>
      <trkpt lat="45.83993" lon="4.80363">
        <ele>512</ele>
        <time>2012-01-22T09:15:08Z</time>
      </trkpt>
      <trkpt lat="45.83989" lon="4.80365">
        <ele>511</ele>
        <time>2012-01-22T09:15:13Z</time>
      </trkpt>
      <trkpt lat="45.83989" lon="4.80364">
        <ele>511</ele>
        <time>2012-01-22T09:15:14Z</time>
      </trkpt>
      <trkpt lat="45.83985" lon="4.80367">
        <ele>511</ele>
        <time>2012-01-22T09:16:21Z</time>
      </trkpt>
      <trkpt lat="45.83981" lon="4.80369">
        <ele>510</ele>
        <time>2012-01-22T09:16:31Z</time>
      </trkpt>
      <trkpt lat="45.8398" lon="4.80368">
        <ele>510</ele>
        <time>2012-01-22T09:16:33Z</time>
      </trkpt>
      <trkpt lat="45.83979" lon="4.80369">
        <ele>510</ele>
        <time>2012-01-22T09:16:35Z</time>
      </trkpt>
      <trkpt lat="45.83972" lon="4.80371">
        <ele>509</ele>
        <time>2012-01-22T09:16:41Z</time>
      </trkpt>
      <trkpt lat="45.83968" lon="4.80373">
        <ele>509</ele>
        <time>2012-01-22T09:16:45Z</time>
      </trkpt>
      <trkpt lat="45.83964" lon="4.80375">
        <ele>509</ele>
        <time>2012-01-22T09:16:48Z</time>
      </trkpt>
      <trkpt lat="45.83963" lon="4.80375">
        <ele>509</ele>
        <time>2012-01-22T09:16:49Z</time>
      </trkpt>
      <trkpt lat="45.83955" lon="4.80376">
        <ele>508</ele>
        <time>2012-01-22T09:16:55Z</time>
      </trkpt>
      <trkpt lat="45.83948" lon="4.80377">
        <ele>508</ele>
        <time>2012-01-22T09:17:01Z</time>
      </trkpt>
      <trkpt lat="45.83946" lon="4.80377">
        <ele>507</ele>
        <time>2012-01-22T09:17:03Z</time>
      </trkpt>
      <trkpt lat="45.83944" lon="4.80378">
        <ele>507</ele>
        <time>2012-01-22T09:17:06Z</time>
      </trkpt>
      <trkpt lat="45.83943" lon="4.80379">
        <ele>507</ele>
        <time>2012-01-22T09:17:08Z</time>
      </trkpt>
      <trkpt lat="45.83939" lon="4.80384">
        <ele>506</ele>
        <time>2012-01-22T09:17:14Z</time>
      </trkpt>
      <trkpt lat="45.83934" lon="4.80388">
        <ele>506</ele>
        <time>2012-01-22T09:17:20Z</time>
      </trkpt>
      <trkpt lat="45.83931" lon="4.80393">
        <ele>505</ele>
        <time>2012-01-22T09:17:23Z</time>
      </trkpt>
      <trkpt lat="45.83928" lon="4.80398">
        <ele>504</ele>
        <time>2012-01-22T09:17:25Z</time>
      </trkpt>
      <trkpt lat="45.83927" lon="4.804">
        <ele>503</ele>
        <time>2012-01-22T09:17:26Z</time>
      </trkpt>
      <trkpt lat="45.83923" lon="4.80408">
        <ele>502</ele>
        <time>2012-01-22T09:17:29Z</time>
      </trkpt>
      <trkpt lat="45.83919" lon="4.80417">
        <ele>498</ele>
        <time>2012-01-22T09:17:32Z</time>
      </trkpt>
      <trkpt lat="45.83917" lon="4.80423">
        <ele>498</ele>
        <time>2012-01-22T09:17:34Z</time>
      </trkpt>
      <trkpt lat="45.83911" lon="4.80438">
        <ele>489</ele>
        <time>2012-01-22T09:17:39Z</time>
      </trkpt>
      <trkpt lat="45.83911" lon="4.80441">
        <ele>489</ele>
        <time>2012-01-22T09:17:40Z</time>
      </trkpt>
      <trkpt lat="45.83909" lon="4.80449">
        <ele>487</ele>
        <time>2012-01-22T09:17:43Z</time>
      </trkpt>
      <trkpt lat="45.83901" lon="4.80459">
        <ele>485</ele>
        <time>2012-01-22T09:17:48Z</time>
      </trkpt>
      <trkpt lat="45.83899" lon="4.80458">
        <ele>485</ele>
        <time>2012-01-22T09:17:49Z</time>
      </trkpt>
      <trkpt lat="45.83892" lon="4.80452">
        <ele>485</ele>
        <time>2012-01-22T09:17:52Z</time>
      </trkpt>
      <trkpt lat="45.83882" lon="4.80442">
        <ele>484</ele>
        <time>2012-01-22T09:17:57Z</time>
      </trkpt>
      <trkpt lat="45.83879" lon="4.80441">
        <ele>484</ele>
        <time>2012-01-22T09:17:58Z</time>
      </trkpt>
      <trkpt lat="45.8387" lon="4.80434">
        <ele>483</ele>
        <time>2012-01-22T09:18:03Z</time>
      </trkpt>
      <trkpt lat="45.83864" lon="4.80433">
        <ele>482</ele>
        <time>2012-01-22T09:18:07Z</time>
      </trkpt>
      <trkpt lat="45.8386" lon="4.80444">
        <ele>481</ele>
        <time>2012-01-22T09:18:11Z</time>
      </trkpt>
      <trkpt lat="45.83859" lon="4.80451">
        <ele>481</ele>
        <time>2012-01-22T09:18:13Z</time>
      </trkpt>
      <trkpt lat="45.83857" lon="4.80458">
        <ele>480</ele>
        <time>2012-01-22T09:18:15Z</time>
      </trkpt>
      <trkpt lat="45.83855" lon="4.80465">
        <ele>480</ele>
        <time>2012-01-22T09:18:17Z</time>
      </trkpt>
      <trkpt lat="45.83851" lon="4.80481">
        <ele>477</ele>
        <time>2012-01-22T09:18:22Z</time>
      </trkpt>
      <trkpt lat="45.8385" lon="4.80485">
        <ele>477</ele>
        <time>2012-01-22T09:18:23Z</time>
      </trkpt>
      <trkpt lat="45.83848" lon="4.80501">
        <ele>471</ele>
        <time>2012-01-22T09:18:27Z</time>
      </trkpt>
      <trkpt lat="45.83846" lon="4.80513">
        <ele>471</ele>
        <time>2012-01-22T09:18:30Z</time>
      </trkpt>
      <trkpt lat="45.83845" lon="4.80521">
        <ele>471</ele>
        <time>2012-01-22T09:18:32Z</time>
      </trkpt>
      <trkpt lat="45.83844" lon="4.80539">
        <ele>470</ele>
        <time>2012-01-22T09:18:36Z</time>
      </trkpt>
      <trkpt lat="45.83843" lon="4.80548">
        <ele>469</ele>
        <time>2012-01-22T09:18:38Z</time>
      </trkpt>
      <trkpt lat="45.83842" lon="4.80566">
        <ele>466</ele>
        <time>2012-01-22T09:18:42Z</time>
      </trkpt>
      <trkpt lat="45.83842" lon="4.80584">
        <ele>460</ele>
        <time>2012-01-22T09:18:46Z</time>
      </trkpt>
      <trkpt lat="45.83841" lon="4.80586">
        <ele>460</ele>
        <time>2012-01-22T09:18:47Z</time>
      </trkpt>
      <trkpt lat="45.8384" lon="4.80585">
        <ele>460</ele>
        <time>2012-01-22T09:18:49Z</time>
      </trkpt>
      <trkpt lat="45.83839" lon="4.80583">
        <ele>460</ele>
        <time>2012-01-22T09:18:51Z</time>
      </trkpt>
      <trkpt lat="45.83839" lon="4.80583">
        <ele>462</ele>
        <time>2012-01-22T09:18:52Z</time>
      </trkpt>
      <trkpt lat="45.83839" lon="4.80582">
        <ele>462</ele>
        <time>2012-01-22T09:18:54Z</time>
      </trkpt>
      <trkpt lat="45.83839" lon="4.80582">
        <ele>462</ele>
        <time>2012-01-22T09:18:59Z</time>
      </trkpt>
      <trkpt lat="45.83838" lon="4.80583">
        <ele>461</ele>
        <time>2012-01-22T09:19:03Z</time>
      </trkpt>
      <trkpt lat="45.83839" lon="4.80584">
        <ele>460</ele>
        <time>2012-01-22T09:19:11Z</time>
      </trkpt>
      <trkpt lat="45.83835" lon="4.80581">
        <ele>461</ele>
        <time>2012-01-22T09:19:16Z</time>
      </trkpt>
      <trkpt lat="45.83832" lon="4.80577">
        <ele>458</ele>
        <time>2012-01-22T09:19:20Z</time>
      </trkpt>
      <trkpt lat="45.83832" lon="4.80577">
        <ele>458</ele>
        <time>2012-01-22T09:19:21Z</time>
      </trkpt>
      <trkpt lat="45.83831" lon="4.80577">
        <ele>458</ele>
        <time>2012-01-22T09:19:25Z</time>
      </trkpt>
      <trkpt lat="45.83827" lon="4.80572">
        <ele>457</ele>
        <time>2012-01-22T09:19:31Z</time>
      </trkpt>
      <trkpt lat="45.83819" lon="4.80559">
        <ele>456</ele>
        <time>2012-01-22T09:19:36Z</time>
      </trkpt>
      <trkpt lat="45.83815" lon="4.80553">
        <ele>456</ele>
        <time>2012-01-22T09:19:38Z</time>
      </trkpt>
      <trkpt lat="45.83805" lon="4.80543">
        <ele>455</ele>
        <time>2012-01-22T09:19:42Z</time>
      </trkpt>
      <trkpt lat="45.83797" lon="4.80536">
        <ele>455</ele>
        <time>2012-01-22T09:19:45Z</time>
      </trkpt>
      <trkpt lat="45.83792" lon="4.80533">
        <ele>454</ele>
        <time>2012-01-22T09:19:47Z</time>
      </trkpt>
      <trkpt lat="45.83779" lon="4.8053">
        <ele>453</ele>
        <time>2012-01-22T09:19:51Z</time>
      </trkpt>
      <trkpt lat="45.83777" lon="4.8053">
        <ele>453</ele>
        <time>2012-01-22T09:19:52Z</time>
      </trkpt>
      <trkpt lat="45.83762" lon="4.80537">
        <ele>451</ele>
        <time>2012-01-22T09:19:57Z</time>
      </trkpt>
      <trkpt lat="45.83742" lon="4.80545">
        <ele>446</ele>
        <time>2012-01-22T09:20:04Z</time>
      </trkpt>
      <trkpt lat="45.8373" lon="4.80546">
        <ele>446</ele>
        <time>2012-01-22T09:20:08Z</time>
      </trkpt>
      <trkpt lat="45.83724" lon="4.80546">
        <ele>446</ele>
        <time>2012-01-22T09:20:10Z</time>
      </trkpt>
      <trkpt lat="45.8371" lon="4.80546">
        <ele>447</ele>
        <time>2012-01-22T09:20:15Z</time>
      </trkpt>
      <trkpt lat="45.83705" lon="4.80544">
        <ele>447</ele>
        <time>2012-01-22T09:20:17Z</time>
      </trkpt>
      <trkpt lat="45.83703" lon="4.80543">
        <ele>447</ele>
        <time>2012-01-22T09:20:18Z</time>
      </trkpt>
      <trkpt lat="45.83702" lon="4.8054">
        <ele>448</ele>
        <time>2012-01-22T09:20:19Z</time>
      </trkpt>
      <trkpt lat="45.837" lon="4.80525">
        <ele>449</ele>
        <time>2012-01-22T09:20:24Z</time>
      </trkpt>
      <trkpt lat="45.837" lon="4.80516">
        <ele>450</ele>
        <time>2012-01-22T09:20:28Z</time>
      </trkpt>
      <trkpt lat="45.837" lon="4.80514">
        <ele>450</ele>
        <time>2012-01-22T09:20:29Z</time>
      </trkpt>
      <trkpt lat="45.83698" lon="4.80501">
        <ele>451</ele>
        <time>2012-01-22T09:20:36Z</time>
      </trkpt>
      <trkpt lat="45.83697" lon="4.80492">
        <ele>457</ele>
        <time>2012-01-22T09:20:40Z</time>
      </trkpt>
      <trkpt lat="45.83696" lon="4.80489">
        <ele>457</ele>
        <time>2012-01-22T09:20:42Z</time>
      </trkpt>
      <trkpt lat="45.83697" lon="4.80487">
        <ele>458</ele>
        <time>2012-01-22T09:20:43Z</time>
      </trkpt>
      <trkpt lat="45.83696" lon="4.80481">
        <ele>458</ele>
        <time>2012-01-22T09:20:46Z</time>
      </trkpt>
      <trkpt lat="45.83698" lon="4.80478">
        <ele>458</ele>
        <time>2012-01-22T09:20:49Z</time>
      </trkpt>
      <trkpt lat="45.83697" lon="4.80475">
        <ele>458</ele>
        <time>2012-01-22T09:20:51Z</time>
      </trkpt>
      <trkpt lat="45.83697" lon="4.80474">
        <ele>458</ele>
        <time>2012-01-22T09:20:53Z</time>
      </trkpt>
      <trkpt lat="45.83699" lon="4.80468">
        <ele>458</ele>
        <time>2012-01-22T09:20:56Z</time>
      </trkpt>
      <trkpt lat="45.83698" lon="4.80463">
        <ele>459</ele>
        <time>2012-01-22T09:20:58Z</time>
      </trkpt>
      <trkpt lat="45.83697" lon="4.80458">
        <ele>459</ele>
        <time>2012-01-22T09:21:01Z</time>
      </trkpt>
      <trkpt lat="45.83696" lon="4.80456">
        <ele>459</ele>
        <time>2012-01-22T09:21:02Z</time>
      </trkpt>
      <trkpt lat="45.83698" lon="4.80449">
        <ele>459</ele>
        <time>2012-01-22T09:21:08Z</time>
      </trkpt>
      <trkpt lat="45.83697" lon="4.80438">
        <ele>460</ele>
        <time>2012-01-22T09:21:15Z</time>
      </trkpt>
      <trkpt lat="45.83697" lon="4.80434">
        <ele>460</ele>
        <time>2012-01-22T09:21:17Z</time>
      </trkpt>
      <trkpt lat="45.83697" lon="4.80426">
        <ele>461</ele>
        <time>2012-01-22T09:21:21Z</time>
      </trkpt>
      <trkpt lat="45.83696" lon="4.80424">
        <ele>461</ele>
        <time>2012-01-22T09:21:22Z</time>
      </trkpt>
      <trkpt lat="45.83694" lon="4.80415">
        <ele>466</ele>
        <time>2012-01-22T09:21:27Z</time>
      </trkpt>
      <trkpt lat="45.83693" lon="4.80414">
        <ele>466</ele>
        <time>2012-01-22T09:21:28Z</time>
      </trkpt>
      <trkpt lat="45.83693" lon="4.80413">
        <ele>466</ele>
        <time>2012-01-22T09:21:29Z</time>
      </trkpt>
      <trkpt lat="45.83694" lon="4.80409">
        <ele>466</ele>
        <time>2012-01-22T09:21:31Z</time>
      </trkpt>
      <trkpt lat="45.83693" lon="4.80405">
        <ele>466</ele>
        <time>2012-01-22T09:21:33Z</time>
      </trkpt>
      <trkpt lat="45.83693" lon="4.80401">
        <ele>466</ele>
        <time>2012-01-22T09:21:35Z</time>
      </trkpt>
      <trkpt lat="45.83692" lon="4.80396">
        <ele>466</ele>
        <time>2012-01-22T09:21:38Z</time>
      </trkpt>
      <trkpt lat="45.83692" lon="4.80392">
        <ele>466</ele>
        <time>2012-01-22T09:21:40Z</time>
      </trkpt>
      <trkpt lat="45.83691" lon="4.80386">
        <ele>466</ele>
        <time>2012-01-22T09:21:45Z</time>
      </trkpt>
      <trkpt lat="45.8369" lon="4.80385">
        <ele>466</ele>
        <time>2012-01-22T09:21:46Z</time>
      </trkpt>
      <trkpt lat="45.83688" lon="4.80384">
        <ele>466</ele>
        <time>2012-01-22T09:21:48Z</time>
      </trkpt>
      <trkpt lat="45.83686" lon="4.80384">
        <ele>466</ele>
        <time>2012-01-22T09:21:50Z</time>
      </trkpt>
      <trkpt lat="45.83682" lon="4.80382">
        <ele>467</ele>
        <time>2012-01-22T09:21:53Z</time>
      </trkpt>
      <trkpt lat="45.8368" lon="4.80382">
        <ele>467</ele>
        <time>2012-01-22T09:21:55Z</time>
      </trkpt>
      <trkpt lat="45.83678" lon="4.80381">
        <ele>467</ele>
        <time>2012-01-22T09:21:57Z</time>
      </trkpt>
      <trkpt lat="45.83672" lon="4.80382">
        <ele>467</ele>
        <time>2012-01-22T09:22:02Z</time>
      </trkpt>
      <trkpt lat="45.83671" lon="4.80382">
        <ele>467</ele>
        <time>2012-01-22T09:22:03Z</time>
      </trkpt>
      <trkpt lat="45.83663" lon="4.80387">
        <ele>469</ele>
        <time>2012-01-22T09:22:10Z</time>
      </trkpt>
      <trkpt lat="45.83655" lon="4.80393">
        <ele>469</ele>
        <time>2012-01-22T09:22:18Z</time>
      </trkpt>
      <trkpt lat="45.83647" lon="4.804">
        <ele>469</ele>
        <time>2012-01-22T09:22:24Z</time>
      </trkpt>
      <trkpt lat="45.8364" lon="4.80408">
        <ele>469</ele>
        <time>2012-01-22T09:22:30Z</time>
      </trkpt>
      <trkpt lat="45.83638" lon="4.8041">
        <ele>469</ele>
        <time>2012-01-22T09:22:32Z</time>
      </trkpt>
      <trkpt lat="45.83633" lon="4.80416">
        <ele>469</ele>
        <time>2012-01-22T09:22:37Z</time>
      </trkpt>
      <trkpt lat="45.83626" lon="4.80423">
        <ele>466</ele>
        <time>2012-01-22T09:22:43Z</time>
      </trkpt>
      <trkpt lat="45.83625" lon="4.80423">
        <ele>466</ele>
        <time>2012-01-22T09:22:44Z</time>
      </trkpt>
      <trkpt lat="45.83617" lon="4.80425">
        <ele>467</ele>
        <time>2012-01-22T09:22:48Z</time>
      </trkpt>
      <trkpt lat="45.83606" lon="4.8043">
        <ele>467</ele>
        <time>2012-01-22T09:22:54Z</time>
      </trkpt>
      <trkpt lat="45.83604" lon="4.80432">
        <ele>467</ele>
        <time>2012-01-22T09:22:55Z</time>
      </trkpt>
      <trkpt lat="45.83593" lon="4.80436">
        <ele>467</ele>
        <time>2012-01-22T09:23:00Z</time>
      </trkpt>
      <trkpt lat="45.83591" lon="4.80437">
        <ele>467</ele>
        <time>2012-01-22T09:23:01Z</time>
      </trkpt>
      <trkpt lat="45.83589" lon="4.80439">
        <ele>467</ele>
        <time>2012-01-22T09:23:02Z</time>
      </trkpt>
      <trkpt lat="45.83579" lon="4.80447">
        <ele>467</ele>
        <time>2012-01-22T09:23:06Z</time>
      </trkpt>
      <trkpt lat="45.83573" lon="4.80452">
        <ele>467</ele>
        <time>2012-01-22T09:23:08Z</time>
      </trkpt>
      <trkpt lat="45.83562" lon="4.80457">
        <ele>466</ele>
        <time>2012-01-22T09:23:12Z</time>
      </trkpt>
      <trkpt lat="45.83554" lon="4.80463">
        <ele>466</ele>
        <time>2012-01-22T09:23:15Z</time>
      </trkpt>
      <trkpt lat="45.83552" lon="4.80464">
        <ele>466</ele>
        <time>2012-01-22T09:23:16Z</time>
      </trkpt>
      <trkpt lat="45.83539" lon="4.80472">
        <ele>465</ele>
        <time>2012-01-22T09:23:21Z</time>
      </trkpt>
      <trkpt lat="45.83536" lon="4.80473">
        <ele>465</ele>
        <time>2012-01-22T09:23:22Z</time>
      </trkpt>
      <trkpt lat="45.83533" lon="4.80476">
        <ele>465</ele>
        <time>2012-01-22T09:23:23Z</time>
      </trkpt>
      <trkpt lat="45.83525" lon="4.80484">
        <ele>464</ele>
        <time>2012-01-22T09:23:26Z</time>
      </trkpt>
      <trkpt lat="45.83518" lon="4.8049">
        <ele>463</ele>
        <time>2012-01-22T09:23:29Z</time>
      </trkpt>
      <trkpt lat="45.83514" lon="4.80494">
        <ele>463</ele>
        <time>2012-01-22T09:23:31Z</time>
      </trkpt>
      <trkpt lat="45.83504" lon="4.80506">
        <ele>460</ele>
        <time>2012-01-22T09:23:35Z</time>
      </trkpt>
      <trkpt lat="45.83501" lon="4.80508">
        <ele>460</ele>
        <time>2012-01-22T09:23:36Z</time>
      </trkpt>
      <trkpt lat="45.8349" lon="4.80513">
        <ele>456</ele>
        <time>2012-01-22T09:23:40Z</time>
      </trkpt>
      <trkpt lat="45.83481" lon="4.80517">
        <ele>455</ele>
        <time>2012-01-22T09:23:43Z</time>
      </trkpt>
      <trkpt lat="45.83473" lon="4.8052">
        <ele>454</ele>
        <time>2012-01-22T09:23:46Z</time>
      </trkpt>
      <trkpt lat="45.83462" lon="4.80523">
        <ele>453</ele>
        <time>2012-01-22T09:23:50Z</time>
      </trkpt>
      <trkpt lat="45.83454" lon="4.80526">
        <ele>452</ele>
        <time>2012-01-22T09:23:53Z</time>
      </trkpt>
      <trkpt lat="45.83443" lon="4.80531">
        <ele>451</ele>
        <time>2012-01-22T09:23:57Z</time>
      </trkpt>
      <trkpt lat="45.83437" lon="4.80537">
        <ele>451</ele>
        <time>2012-01-22T09:24:00Z</time>
      </trkpt>
      <trkpt lat="45.83427" lon="4.80548">
        <ele>450</ele>
        <time>2012-01-22T09:24:04Z</time>
      </trkpt>
      <trkpt lat="45.83417" lon="4.80552">
        <ele>449</ele>
        <time>2012-01-22T09:24:08Z</time>
      </trkpt>
      <trkpt lat="45.83409" lon="4.80556">
        <ele>442</ele>
        <time>2012-01-22T09:24:11Z</time>
      </trkpt>
      <trkpt lat="45.83399" lon="4.80557">
        <ele>441</ele>
        <time>2012-01-22T09:24:14Z</time>
      </trkpt>
      <trkpt lat="45.83389" lon="4.8056">
        <ele>441</ele>
        <time>2012-01-22T09:24:18Z</time>
      </trkpt>
      <trkpt lat="45.83384" lon="4.80562">
        <ele>440</ele>
        <time>2012-01-22T09:24:20Z</time>
      </trkpt>
      <trkpt lat="45.83379" lon="4.80567">
        <ele>440</ele>
        <time>2012-01-22T09:24:23Z</time>
      </trkpt>
      <trkpt lat="45.83378" lon="4.80571">
        <ele>439</ele>
        <time>2012-01-22T09:24:25Z</time>
      </trkpt>
      <trkpt lat="45.83378" lon="4.80574">
        <ele>439</ele>
        <time>2012-01-22T09:24:27Z</time>
      </trkpt>
      <trkpt lat="45.83379" lon="4.80579">
        <ele>439</ele>
        <time>2012-01-22T09:24:31Z</time>
      </trkpt>
      <trkpt lat="45.83379" lon="4.8058">
        <ele>439</ele>
        <time>2012-01-22T09:24:32Z</time>
      </trkpt>
      <trkpt lat="45.83379" lon="4.80582">
        <ele>439</ele>
        <time>2012-01-22T09:24:38Z</time>
      </trkpt>
      <trkpt lat="45.83379" lon="4.80583">
        <ele>439</ele>
        <time>2012-01-22T09:24:55Z</time>
      </trkpt>
      <trkpt lat="45.83378" lon="4.80576">
        <ele>439</ele>
        <time>2012-01-22T09:25:16Z</time>
      </trkpt>
      <trkpt lat="45.83378" lon="4.80576">
        <ele>439</ele>
        <time>2012-01-22T09:25:48Z</time>
      </trkpt>
      <trkpt lat="45.8338" lon="4.8058">
        <ele>439</ele>
        <time>2012-01-22T09:26:27Z</time>
      </trkpt>
      <trkpt lat="45.8338" lon="4.80583">
        <ele>439</ele>
        <time>2012-01-22T09:26:30Z</time>
      </trkpt>
      <trkpt lat="45.8338" lon="4.80586">
        <ele>436</ele>
        <time>2012-01-22T09:26:32Z</time>
      </trkpt>
      <trkpt lat="45.83382" lon="4.80603">
        <ele>436</ele>
        <time>2012-01-22T09:26:39Z</time>
      </trkpt>
      <trkpt lat="45.83382" lon="4.80607">
        <ele>436</ele>
        <time>2012-01-22T09:26:40Z</time>
      </trkpt>
      <trkpt lat="45.83383" lon="4.80625">
        <ele>435</ele>
        <time>2012-01-22T09:26:45Z</time>
      </trkpt>
      <trkpt lat="45.83384" lon="4.80635">
        <ele>435</ele>
        <time>2012-01-22T09:26:48Z</time>
      </trkpt>
      <trkpt lat="45.83386" lon="4.80645">
        <ele>435</ele>
        <time>2012-01-22T09:26:51Z</time>
      </trkpt>
      <trkpt lat="45.83387" lon="4.80659">
        <ele>435</ele>
        <time>2012-01-22T09:26:56Z</time>
      </trkpt>
      <trkpt lat="45.83386" lon="4.80661">
        <ele>435</ele>
        <time>2012-01-22T09:26:57Z</time>
      </trkpt>
      <trkpt lat="45.83378" lon="4.80665">
        <ele>434</ele>
        <time>2012-01-22T09:27:01Z</time>
      </trkpt>
      <trkpt lat="45.83376" lon="4.80666">
        <ele>434</ele>
        <time>2012-01-22T09:27:02Z</time>
      </trkpt>
      <trkpt lat="45.83368" lon="4.80666">
        <ele>433</ele>
        <time>2012-01-22T09:27:05Z</time>
      </trkpt>
      <trkpt lat="45.83366" lon="4.80666">
        <ele>433</ele>
        <time>2012-01-22T09:27:06Z</time>
      </trkpt>
      <trkpt lat="45.8336" lon="4.80662">
        <ele>433</ele>
        <time>2012-01-22T09:27:09Z</time>
      </trkpt>
      <trkpt lat="45.83359" lon="4.80663">
        <ele>432</ele>
        <time>2012-01-22T09:27:10Z</time>
      </trkpt>
      <trkpt lat="45.83351" lon="4.8067">
        <ele>429</ele>
        <time>2012-01-22T09:27:14Z</time>
      </trkpt>
      <trkpt lat="45.83349" lon="4.80674">
        <ele>429</ele>
        <time>2012-01-22T09:27:15Z</time>
      </trkpt>
      <trkpt lat="45.83344" lon="4.80685">
        <ele>429</ele>
        <time>2012-01-22T09:27:19Z</time>
      </trkpt>
      <trkpt lat="45.83343" lon="4.80687">
        <ele>429</ele>
        <time>2012-01-22T09:27:20Z</time>
      </trkpt>
      <trkpt lat="45.83339" lon="4.80692">
        <ele>429</ele>
        <time>2012-01-22T09:27:22Z</time>
      </trkpt>
      <trkpt lat="45.83337" lon="4.80694">
        <ele>429</ele>
        <time>2012-01-22T09:27:23Z</time>
      </trkpt>
      <trkpt lat="45.83329" lon="4.80704">
        <ele>424</ele>
        <time>2012-01-22T09:27:27Z</time>
      </trkpt>
      <trkpt lat="45.83322" lon="4.80704">
        <ele>424</ele>
        <time>2012-01-22T09:27:30Z</time>
      </trkpt>
      <trkpt lat="45.83317" lon="4.80706">
        <ele>424</ele>
        <time>2012-01-22T09:27:32Z</time>
      </trkpt>
      <trkpt lat="45.83311" lon="4.80709">
        <ele>424</ele>
        <time>2012-01-22T09:27:34Z</time>
      </trkpt>
      <trkpt lat="45.83304" lon="4.80713">
        <ele>423</ele>
        <time>2012-01-22T09:27:37Z</time>
      </trkpt>
      <trkpt lat="45.833" lon="4.80711">
        <ele>423</ele>
        <time>2012-01-22T09:27:39Z</time>
      </trkpt>
      <trkpt lat="45.83293" lon="4.80709">
        <ele>423</ele>
        <time>2012-01-22T09:27:42Z</time>
      </trkpt>
      <trkpt lat="45.8329" lon="4.80714">
        <ele>423</ele>
        <time>2012-01-22T09:27:44Z</time>
      </trkpt>
      <trkpt lat="45.8329" lon="4.80718">
        <ele>423</ele>
        <time>2012-01-22T09:27:45Z</time>
      </trkpt>
      <trkpt lat="45.83286" lon="4.80732">
        <ele>423</ele>
        <time>2012-01-22T09:27:49Z</time>
      </trkpt>
      <trkpt lat="45.83284" lon="4.80744">
        <ele>422</ele>
        <time>2012-01-22T09:27:52Z</time>
      </trkpt>
      <trkpt lat="45.83283" lon="4.80749">
        <ele>422</ele>
        <time>2012-01-22T09:27:53Z</time>
      </trkpt>
      <trkpt lat="45.83279" lon="4.80758">
        <ele>421</ele>
        <time>2012-01-22T09:27:56Z</time>
      </trkpt>
      <trkpt lat="45.83271" lon="4.80764">
        <ele>420</ele>
        <time>2012-01-22T09:28:00Z</time>
      </trkpt>
      <trkpt lat="45.83268" lon="4.80764">
        <ele>420</ele>
        <time>2012-01-22T09:28:01Z</time>
      </trkpt>
      <trkpt lat="45.83257" lon="4.80763">
        <ele>420</ele>
        <time>2012-01-22T09:28:05Z</time>
      </trkpt>
      <trkpt lat="45.83255" lon="4.80765">
        <ele>420</ele>
        <time>2012-01-22T09:28:06Z</time>
      </trkpt>
      <trkpt lat="45.83254" lon="4.80768">
        <ele>420</ele>
        <time>2012-01-22T09:28:07Z</time>
      </trkpt>
      <trkpt lat="45.83251" lon="4.80771">
        <ele>420</ele>
        <time>2012-01-22T09:28:08Z</time>
      </trkpt>
      <trkpt lat="45.83242" lon="4.80781">
        <ele>419</ele>
        <time>2012-01-22T09:28:12Z</time>
      </trkpt>
      <trkpt lat="45.83239" lon="4.80788">
        <ele>419</ele>
        <time>2012-01-22T09:28:14Z</time>
      </trkpt>
      <trkpt lat="45.83237" lon="4.80792">
        <ele>419</ele>
        <time>2012-01-22T09:28:15Z</time>
      </trkpt>
      <trkpt lat="45.83236" lon="4.80798">
        <ele>418</ele>
        <time>2012-01-22T09:28:17Z</time>
      </trkpt>
      <trkpt lat="45.83229" lon="4.80812">
        <ele>418</ele>
        <time>2012-01-22T09:28:21Z</time>
      </trkpt>
      <trkpt lat="45.83227" lon="4.80814">
        <ele>418</ele>
        <time>2012-01-22T09:28:22Z</time>
      </trkpt>
      <trkpt lat="45.83215" lon="4.80819">
        <ele>418</ele>
        <time>2012-01-22T09:28:26Z</time>
      </trkpt>
      <trkpt lat="45.83212" lon="4.80819">
        <ele>418</ele>
        <time>2012-01-22T09:28:27Z</time>
      </trkpt>
      <trkpt lat="45.83208" lon="4.80818">
        <ele>418</ele>
        <time>2012-01-22T09:28:28Z</time>
      </trkpt>
      <trkpt lat="45.83196" lon="4.80817">
        <ele>419</ele>
        <time>2012-01-22T09:28:31Z</time>
      </trkpt>
      <trkpt lat="45.83193" lon="4.80816">
        <ele>419</ele>
        <time>2012-01-22T09:28:32Z</time>
      </trkpt>
      <trkpt lat="45.83184" lon="4.80811">
        <ele>419</ele>
        <time>2012-01-22T09:28:35Z</time>
      </trkpt>
      <trkpt lat="45.83177" lon="4.80819">
        <ele>419</ele>
        <time>2012-01-22T09:28:39Z</time>
      </trkpt>
      <trkpt lat="45.83171" lon="4.80827">
        <ele>418</ele>
        <time>2012-01-22T09:28:44Z</time>
      </trkpt>
      <trkpt lat="45.83171" lon="4.80827">
        <ele>418</ele>
        <time>2012-01-22T09:28:54Z</time>
      </trkpt>
      <trkpt lat="45.83172" lon="4.80825">
        <ele>418</ele>
        <time>2012-01-22T09:29:01Z</time>
      </trkpt>
      <trkpt lat="45.8317" lon="4.8083">
        <ele>418</ele>
        <time>2012-01-22T09:29:15Z</time>
      </trkpt>
      <trkpt lat="45.83169" lon="4.80834">
        <ele>418</ele>
        <time>2012-01-22T09:29:17Z</time>
      </trkpt>
      <trkpt lat="45.83164" lon="4.8084">
        <ele>417</ele>
        <time>2012-01-22T09:29:21Z</time>
      </trkpt>
      <trkpt lat="45.83166" lon="4.80849">
        <ele>417</ele>
        <time>2012-01-22T09:29:25Z</time>
      </trkpt>
      <trkpt lat="45.83166" lon="4.80853">
        <ele>417</ele>
        <time>2012-01-22T09:29:26Z</time>
      </trkpt>
      <trkpt lat="45.83166" lon="4.80857">
        <ele>416</ele>
        <time>2012-01-22T09:29:27Z</time>
      </trkpt>
      <trkpt lat="45.83168" lon="4.80866">
        <ele>413</ele>
        <time>2012-01-22T09:29:30Z</time>
      </trkpt>
      <trkpt lat="45.83169" lon="4.80868">
        <ele>412</ele>
        <time>2012-01-22T09:29:31Z</time>
      </trkpt>
      <trkpt lat="45.8317" lon="4.80869">
        <ele>412</ele>
        <time>2012-01-22T09:29:32Z</time>
      </trkpt>
      <trkpt lat="45.8317" lon="4.80871">
        <ele>412</ele>
        <time>2012-01-22T09:29:35Z</time>
      </trkpt>
      <trkpt lat="45.83171" lon="4.8088">
        <ele>411</ele>
        <time>2012-01-22T09:29:39Z</time>
      </trkpt>
      <trkpt lat="45.83171" lon="4.80882">
        <ele>411</ele>
        <time>2012-01-22T09:29:40Z</time>
      </trkpt>
      <trkpt lat="45.83174" lon="4.80897">
        <ele>409</ele>
        <time>2012-01-22T09:29:44Z</time>
      </trkpt>
      <trkpt lat="45.83175" lon="4.809">
        <ele>409</ele>
        <time>2012-01-22T09:29:45Z</time>
      </trkpt>
      <trkpt lat="45.83175" lon="4.80902">
        <ele>408</ele>
        <time>2012-01-22T09:29:46Z</time>
      </trkpt>
      <trkpt lat="45.83173" lon="4.80906">
        <ele>408</ele>
        <time>2012-01-22T09:29:47Z</time>
      </trkpt>
      <trkpt lat="45.83172" lon="4.80909">
        <ele>407</ele>
        <time>2012-01-22T09:29:48Z</time>
      </trkpt>
      <trkpt lat="45.83171" lon="4.8092">
        <ele>404</ele>
        <time>2012-01-22T09:29:51Z</time>
      </trkpt>
      <trkpt lat="45.83171" lon="4.80924">
        <ele>403</ele>
        <time>2012-01-22T09:29:52Z</time>
      </trkpt>
      <trkpt lat="45.8317" lon="4.80932">
        <ele>402</ele>
        <time>2012-01-22T09:29:54Z</time>
      </trkpt>
      <trkpt lat="45.83167" lon="4.80938">
        <ele>401</ele>
        <time>2012-01-22T09:29:56Z</time>
      </trkpt>
      <trkpt lat="45.83159" lon="4.80953">
        <ele>403</ele>
        <time>2012-01-22T09:30:01Z</time>
      </trkpt>
      <trkpt lat="45.83154" lon="4.80959">
        <ele>402</ele>
        <time>2012-01-22T09:30:03Z</time>
      </trkpt>
      <trkpt lat="45.83149" lon="4.80963">
        <ele>402</ele>
        <time>2012-01-22T09:30:05Z</time>
      </trkpt>
      <trkpt lat="45.83151" lon="4.80971">
        <ele>401</ele>
        <time>2012-01-22T09:30:09Z</time>
      </trkpt>
      <trkpt lat="45.8315" lon="4.80975">
        <ele>400</ele>
        <time>2012-01-22T09:30:12Z</time>
      </trkpt>
      <trkpt lat="45.8315" lon="4.80978">
        <ele>399</ele>
        <time>2012-01-22T09:30:14Z</time>
      </trkpt>
      <trkpt lat="45.83151" lon="4.80984">
        <ele>398</ele>
        <time>2012-01-22T09:30:19Z</time>
      </trkpt>
      <trkpt lat="45.83149" lon="4.80984">
        <ele>398</ele>
        <time>2012-01-22T09:30:31Z</time>
      </trkpt>
      <trkpt lat="45.83149" lon="4.80991">
        <ele>397</ele>
        <time>2012-01-22T09:31:08Z</time>
      </trkpt>
      <trkpt lat="45.83148" lon="4.80994">
        <ele>397</ele>
        <time>2012-01-22T09:31:10Z</time>
      </trkpt>
      <trkpt lat="45.83147" lon="4.80999">
        <ele>397</ele>
        <time>2012-01-22T09:31:14Z</time>
      </trkpt>
      <trkpt lat="45.83145" lon="4.81009">
        <ele>389</ele>
        <time>2012-01-22T09:31:19Z</time>
      </trkpt>
      <trkpt lat="45.83144" lon="4.8101">
        <ele>389</ele>
        <time>2012-01-22T09:31:20Z</time>
      </trkpt>
      <trkpt lat="45.83145" lon="4.81019">
        <ele>389</ele>
        <time>2012-01-22T09:31:27Z</time>
      </trkpt>
      <trkpt lat="45.83148" lon="4.8103">
        <ele>388</ele>
        <time>2012-01-22T09:31:33Z</time>
      </trkpt>
      <trkpt lat="45.83149" lon="4.81033">
        <ele>388</ele>
        <time>2012-01-22T09:31:34Z</time>
      </trkpt>
      <trkpt lat="45.83152" lon="4.81043">
        <ele>386</ele>
        <time>2012-01-22T09:31:37Z</time>
      </trkpt>
      <trkpt lat="45.83152" lon="4.81047">
        <ele>386</ele>
        <time>2012-01-22T09:31:38Z</time>
      </trkpt>
      <trkpt lat="45.83158" lon="4.81063">
        <ele>383</ele>
        <time>2012-01-22T09:31:43Z</time>
      </trkpt>
      <trkpt lat="45.83161" lon="4.81067">
        <ele>382</ele>
        <time>2012-01-22T09:31:45Z</time>
      </trkpt>
      <trkpt lat="45.83168" lon="4.81071">
        <ele>379</ele>
        <time>2012-01-22T09:31:48Z</time>
      </trkpt>
      <trkpt lat="45.83179" lon="4.81074">
        <ele>379</ele>
        <time>2012-01-22T09:31:52Z</time>
      </trkpt>
      <trkpt lat="45.83182" lon="4.81074">
        <ele>380</ele>
        <time>2012-01-22T09:31:53Z</time>
      </trkpt>
      <trkpt lat="45.8319" lon="4.81076">
        <ele>380</ele>
        <time>2012-01-22T09:31:56Z</time>
      </trkpt>
      <trkpt lat="45.83201" lon="4.81077">
        <ele>381</ele>
        <time>2012-01-22T09:31:59Z</time>
      </trkpt>
      <trkpt lat="45.83209" lon="4.81078">
        <ele>381</ele>
        <time>2012-01-22T09:32:01Z</time>
      </trkpt>
      <trkpt lat="45.83222" lon="4.81082">
        <ele>381</ele>
        <time>2012-01-22T09:32:05Z</time>
      </trkpt>
      <trkpt lat="45.8324" lon="4.81088">
        <ele>374</ele>
        <time>2012-01-22T09:32:11Z</time>
      </trkpt>
      <trkpt lat="45.83245" lon="4.81095">
        <ele>374</ele>
        <time>2012-01-22T09:32:14Z</time>
      </trkpt>
      <trkpt lat="45.83246" lon="4.81101">
        <ele>373</ele>
        <time>2012-01-22T09:32:16Z</time>
      </trkpt>
      <trkpt lat="45.83245" lon="4.81112">
        <ele>372</ele>
        <time>2012-01-22T09:32:19Z</time>
      </trkpt>
      <trkpt lat="45.83244" lon="4.81121">
        <ele>371</ele>
        <time>2012-01-22T09:32:22Z</time>
      </trkpt>
      <trkpt lat="45.83241" lon="4.81135">
        <ele>369</ele>
        <time>2012-01-22T09:32:26Z</time>
      </trkpt>
      <trkpt lat="45.8324" lon="4.81139">
        <ele>369</ele>
        <time>2012-01-22T09:32:27Z</time>
      </trkpt>
      <trkpt lat="45.83238" lon="4.81152">
        <ele>368</ele>
        <time>2012-01-22T09:32:30Z</time>
      </trkpt>
      <trkpt lat="45.83241" lon="4.81164">
        <ele>367</ele>
        <time>2012-01-22T09:32:33Z</time>
      </trkpt>
      <trkpt lat="45.83241" lon="4.81168">
        <ele>363</ele>
        <time>2012-01-22T09:32:34Z</time>
      </trkpt>
      <trkpt lat="45.83241" lon="4.81173">
        <ele>363</ele>
        <time>2012-01-22T09:32:35Z</time>
      </trkpt>
      <trkpt lat="45.83243" lon="4.81186">
        <ele>361</ele>
        <time>2012-01-22T09:32:38Z</time>
      </trkpt>
      <trkpt lat="45.83242" lon="4.8119">
        <ele>360</ele>
        <time>2012-01-22T09:32:39Z</time>
      </trkpt>
      <trkpt lat="45.83241" lon="4.81195">
        <ele>360</ele>
        <time>2012-01-22T09:32:40Z</time>
      </trkpt>
      <trkpt lat="45.83239" lon="4.81213">
        <ele>358</ele>
        <time>2012-01-22T09:32:45Z</time>
      </trkpt>
      <trkpt lat="45.8324" lon="4.81217">
        <ele>358</ele>
        <time>2012-01-22T09:32:46Z</time>
      </trkpt>
      <trkpt lat="45.83241" lon="4.81228">
        <ele>357</ele>
        <time>2012-01-22T09:32:49Z</time>
      </trkpt>
      <trkpt lat="45.83241" lon="4.81231">
        <ele>357</ele>
        <time>2012-01-22T09:32:50Z</time>
      </trkpt>
      <trkpt lat="45.83242" lon="4.81243">
        <ele>356</ele>
        <time>2012-01-22T09:32:53Z</time>
      </trkpt>
      <trkpt lat="45.83242" lon="4.81251">
        <ele>353</ele>
        <time>2012-01-22T09:32:55Z</time>
      </trkpt>
      <trkpt lat="45.83244" lon="4.81271">
        <ele>349</ele>
        <time>2012-01-22T09:33:00Z</time>
      </trkpt>
      <trkpt lat="45.83249" lon="4.81287">
        <ele>347</ele>
        <time>2012-01-22T09:33:05Z</time>
      </trkpt>
      <trkpt lat="45.83251" lon="4.81297">
        <ele>351</ele>
        <time>2012-01-22T09:33:08Z</time>
      </trkpt>
      <trkpt lat="45.83252" lon="4.813">
        <ele>350</ele>
        <time>2012-01-22T09:33:09Z</time>
      </trkpt>
      <trkpt lat="45.83254" lon="4.81306">
        <ele>350</ele>
        <time>2012-01-22T09:33:11Z</time>
      </trkpt>
      <trkpt lat="45.83257" lon="4.81312">
        <ele>349</ele>
        <time>2012-01-22T09:33:13Z</time>
      </trkpt>
      <trkpt lat="45.83261" lon="4.81319">
        <ele>348</ele>
        <time>2012-01-22T09:33:16Z</time>
      </trkpt>
      <trkpt lat="45.83262" lon="4.81327">
        <ele>347</ele>
        <time>2012-01-22T09:33:19Z</time>
      </trkpt>
      <trkpt lat="45.8326" lon="4.81331">
        <ele>347</ele>
        <time>2012-01-22T09:33:21Z</time>
      </trkpt>
      <trkpt lat="45.83254" lon="4.81339">
        <ele>342</ele>
        <time>2012-01-22T09:33:26Z</time>
      </trkpt>
      <trkpt lat="45.83254" lon="4.81346">
        <ele>341</ele>
        <time>2012-01-22T09:33:30Z</time>
      </trkpt>
      <trkpt lat="45.83255" lon="4.81349">
        <ele>340</ele>
        <time>2012-01-22T09:33:32Z</time>
      </trkpt>
      <trkpt lat="45.83252" lon="4.81351">
        <ele>340</ele>
        <time>2012-01-22T09:33:34Z</time>
      </trkpt>
      <trkpt lat="45.83246" lon="4.81357">
        <ele>333</ele>
        <time>2012-01-22T09:33:38Z</time>
      </trkpt>
      <trkpt lat="45.83242" lon="4.81359">
        <ele>332</ele>
        <time>2012-01-22T09:33:40Z</time>
      </trkpt>
      <trkpt lat="45.83237" lon="4.81361">
        <ele>331</ele>
        <time>2012-01-22T09:33:43Z</time>
      </trkpt>
      <trkpt lat="45.83234" lon="4.81362">
        <ele>331</ele>
        <time>2012-01-22T09:33:44Z</time>
      </trkpt>
      <trkpt lat="45.8323" lon="4.81358">
        <ele>331</ele>
        <time>2012-01-22T09:33:47Z</time>
      </trkpt>
      <trkpt lat="45.83228" lon="4.81357">
        <ele>331</ele>
        <time>2012-01-22T09:33:48Z</time>
      </trkpt>
      <trkpt lat="45.83226" lon="4.81356">
        <ele>331</ele>
        <time>2012-01-22T09:33:49Z</time>
      </trkpt>
      <trkpt lat="45.83219" lon="4.81353">
        <ele>330</ele>
        <time>2012-01-22T09:33:53Z</time>
      </trkpt>
      <trkpt lat="45.83218" lon="4.81354">
        <ele>330</ele>
        <time>2012-01-22T09:33:54Z</time>
      </trkpt>
      <trkpt lat="45.83216" lon="4.81359">
        <ele>329</ele>
        <time>2012-01-22T09:33:56Z</time>
      </trkpt>
      <trkpt lat="45.83215" lon="4.81361">
        <ele>329</ele>
        <time>2012-01-22T09:33:57Z</time>
      </trkpt>
      <trkpt lat="45.83209" lon="4.81361">
        <ele>328</ele>
        <time>2012-01-22T09:34:00Z</time>
      </trkpt>
      <trkpt lat="45.83206" lon="4.81358">
        <ele>328</ele>
        <time>2012-01-22T09:34:02Z</time>
      </trkpt>
      <trkpt lat="45.83204" lon="4.81356">
        <ele>328</ele>
        <time>2012-01-22T09:34:05Z</time>
      </trkpt>
      <trkpt lat="45.83203" lon="4.81356">
        <ele>328</ele>
        <time>2012-01-22T09:34:06Z</time>
      </trkpt>
      <trkpt lat="45.832" lon="4.8136">
        <ele>328</ele>
        <time>2012-01-22T09:34:10Z</time>
      </trkpt>
      <trkpt lat="45.83199" lon="4.81359">
        <ele>328</ele>
        <time>2012-01-22T09:34:11Z</time>
      </trkpt>
      <trkpt lat="45.83197" lon="4.81358">
        <ele>328</ele>
        <time>2012-01-22T09:34:12Z</time>
      </trkpt>
      <trkpt lat="45.83192" lon="4.81355">
        <ele>328</ele>
        <time>2012-01-22T09:34:15Z</time>
      </trkpt>
      <trkpt lat="45.83191" lon="4.81355">
        <ele>328</ele>
        <time>2012-01-22T09:34:16Z</time>
      </trkpt>
      <trkpt lat="45.83186" lon="4.81356">
        <ele>327</ele>
        <time>2012-01-22T09:34:19Z</time>
      </trkpt>
      <trkpt lat="45.83183" lon="4.81352">
        <ele>328</ele>
        <time>2012-01-22T09:34:21Z</time>
      </trkpt>
      <trkpt lat="45.83178" lon="4.8135">
        <ele>328</ele>
        <time>2012-01-22T09:34:23Z</time>
      </trkpt>
      <trkpt lat="45.83167" lon="4.81345">
        <ele>328</ele>
        <time>2012-01-22T09:34:28Z</time>
      </trkpt>
      <trkpt lat="45.83165" lon="4.81343">
        <ele>325</ele>
        <time>2012-01-22T09:34:29Z</time>
      </trkpt>
      <trkpt lat="45.83157" lon="4.81335">
        <ele>325</ele>
        <time>2012-01-22T09:34:33Z</time>
      </trkpt>
      <trkpt lat="45.83149" lon="4.81329">
        <ele>331</ele>
        <time>2012-01-22T09:34:37Z</time>
      </trkpt>
      <trkpt lat="45.83144" lon="4.81325">
        <ele>332</ele>
        <time>2012-01-22T09:34:39Z</time>
      </trkpt>
      <trkpt lat="45.83135" lon="4.81316">
        <ele>332</ele>
        <time>2012-01-22T09:34:45Z</time>
      </trkpt>
      <trkpt lat="45.83133" lon="4.81315">
        <ele>332</ele>
        <time>2012-01-22T09:34:51Z</time>
      </trkpt>
      <trkpt lat="45.83131" lon="4.81317">
        <ele>332</ele>
        <time>2012-01-22T09:34:55Z</time>
      </trkpt>
      <trkpt lat="45.8313" lon="4.81327">
        <ele>331</ele>
        <time>2012-01-22T09:35:01Z</time>
      </trkpt>
      <trkpt lat="45.83129" lon="4.81339">
        <ele>319</ele>
        <time>2012-01-22T09:35:05Z</time>
      </trkpt>
      <trkpt lat="45.83129" lon="4.81345">
        <ele>319</ele>
        <time>2012-01-22T09:35:08Z</time>
      </trkpt>
      <trkpt lat="45.83127" lon="4.81348">
        <ele>318</ele>
        <time>2012-01-22T09:35:10Z</time>
      </trkpt>
      <trkpt lat="45.83126" lon="4.8135">
        <ele>318</ele>
        <time>2012-01-22T09:35:11Z</time>
      </trkpt>
      <trkpt lat="45.83122" lon="4.81351">
        <ele>318</ele>
        <time>2012-01-22T09:35:13Z</time>
      </trkpt>
      <trkpt lat="45.83115" lon="4.81353">
        <ele>317</ele>
        <time>2012-01-22T09:35:16Z</time>
      </trkpt>
      <trkpt lat="45.83113" lon="4.81353">
        <ele>317</ele>
        <time>2012-01-22T09:35:17Z</time>
      </trkpt>
      <trkpt lat="45.83109" lon="4.81353">
        <ele>317</ele>
        <time>2012-01-22T09:35:19Z</time>
      </trkpt>
      <trkpt lat="45.83102" lon="4.81352">
        <ele>317</ele>
        <time>2012-01-22T09:35:22Z</time>
      </trkpt>
      <trkpt lat="45.83098" lon="4.81353">
        <ele>317</ele>
        <time>2012-01-22T09:35:24Z</time>
      </trkpt>
      <trkpt lat="45.83091" lon="4.81357">
        <ele>316</ele>
        <time>2012-01-22T09:35:28Z</time>
      </trkpt>
      <trkpt lat="45.83085" lon="4.81368">
        <ele>315</ele>
        <time>2012-01-22T09:35:34Z</time>
      </trkpt>
      <trkpt lat="45.83084" lon="4.81369">
        <ele>315</ele>
        <time>2012-01-22T09:35:36Z</time>
      </trkpt>
      <trkpt lat="45.83083" lon="4.8137">
        <ele>315</ele>
        <time>2012-01-22T09:35:37Z</time>
      </trkpt>
      <trkpt lat="45.83081" lon="4.81371">
        <ele>315</ele>
        <time>2012-01-22T09:35:40Z</time>
      </trkpt>
      <trkpt lat="45.83076" lon="4.81374">
        <ele>315</ele>
        <time>2012-01-22T09:36:01Z</time>
      </trkpt>
      <trkpt lat="45.83077" lon="4.81374">
        <ele>315</ele>
        <time>2012-01-22T09:36:09Z</time>
      </trkpt>
      <trkpt lat="45.83077" lon="4.81376">
        <ele>315</ele>
        <time>2012-01-22T09:36:10Z</time>
      </trkpt>
      <trkpt lat="45.83078" lon="4.81373">
        <ele>315</ele>
        <time>2012-01-22T09:36:33Z</time>
      </trkpt>
      <trkpt lat="45.83079" lon="4.81374">
        <ele>315</ele>
        <time>2012-01-22T09:36:37Z</time>
      </trkpt>
      <trkpt lat="45.83079" lon="4.81374">
        <ele>315</ele>
        <time>2012-01-22T09:36:40Z</time>
      </trkpt>
      <trkpt lat="45.83077" lon="4.81368">
        <ele>316</ele>
        <time>2012-01-22T09:36:54Z</time>
      </trkpt>
      <trkpt lat="45.83074" lon="4.81357">
        <ele>317</ele>
        <time>2012-01-22T09:37:01Z</time>
      </trkpt>
      <trkpt lat="45.83072" lon="4.81354">
        <ele>317</ele>
        <time>2012-01-22T09:37:03Z</time>
      </trkpt>
      <trkpt lat="45.83072" lon="4.81351">
        <ele>317</ele>
        <time>2012-01-22T09:37:05Z</time>
      </trkpt>
      <trkpt lat="45.83071" lon="4.81348">
        <ele>317</ele>
        <time>2012-01-22T09:37:07Z</time>
      </trkpt>
      <trkpt lat="45.83067" lon="4.81339">
        <ele>318</ele>
        <time>2012-01-22T09:37:13Z</time>
      </trkpt>
      <trkpt lat="45.83061" lon="4.81334">
        <ele>318</ele>
        <time>2012-01-22T09:37:18Z</time>
      </trkpt>
      <trkpt lat="45.83059" lon="4.81332">
        <ele>326</ele>
        <time>2012-01-22T09:37:20Z</time>
      </trkpt>
      <trkpt lat="45.8305" lon="4.81323">
        <ele>328</ele>
        <time>2012-01-22T09:37:28Z</time>
      </trkpt>
      <trkpt lat="45.83047" lon="4.81319">
        <ele>328</ele>
        <time>2012-01-22T09:37:31Z</time>
      </trkpt>
      <trkpt lat="45.83039" lon="4.81312">
        <ele>329</ele>
        <time>2012-01-22T09:37:36Z</time>
      </trkpt>
      <trkpt lat="45.83032" lon="4.81302">
        <ele>331</ele>
        <time>2012-01-22T09:37:44Z</time>
      </trkpt>
      <trkpt lat="45.83029" lon="4.81297">
        <ele>331</ele>
        <time>2012-01-22T09:37:48Z</time>
      </trkpt>
      <trkpt lat="45.8303" lon="4.81295">
        <ele>332</ele>
        <time>2012-01-22T09:37:50Z</time>
      </trkpt>
      <trkpt lat="45.83029" lon="4.81295">
        <ele>332</ele>
        <time>2012-01-22T09:37:57Z</time>
      </trkpt>
      <trkpt lat="45.83025" lon="4.8129">
        <ele>332</ele>
        <time>2012-01-22T09:38:03Z</time>
      </trkpt>
      <trkpt lat="45.83023" lon="4.81289">
        <ele>333</ele>
        <time>2012-01-22T09:38:04Z</time>
      </trkpt>
      <trkpt lat="45.83021" lon="4.81288">
        <ele>333</ele>
        <time>2012-01-22T09:38:08Z</time>
      </trkpt>
      <trkpt lat="45.83021" lon="4.81289">
        <ele>333</ele>
        <time>2012-01-22T09:38:10Z</time>
      </trkpt>
      <trkpt lat="45.8302" lon="4.81289">
        <ele>333</ele>
        <time>2012-01-22T09:38:15Z</time>
      </trkpt>
      <trkpt lat="45.83016" lon="4.81293">
        <ele>332</ele>
        <time>2012-01-22T09:38:22Z</time>
      </trkpt>
      <trkpt lat="45.83017" lon="4.81299">
        <ele>331</ele>
        <time>2012-01-22T09:38:25Z</time>
      </trkpt>
      <trkpt lat="45.83018" lon="4.813">
        <ele>331</ele>
        <time>2012-01-22T09:38:26Z</time>
      </trkpt>
      <trkpt lat="45.83013" lon="4.81306">
        <ele>330</ele>
        <time>2012-01-22T09:38:31Z</time>
      </trkpt>
      <trkpt lat="45.83011" lon="4.81306">
        <ele>330</ele>
        <time>2012-01-22T09:38:33Z</time>
      </trkpt>
      <trkpt lat="45.83005" lon="4.81307">
        <ele>330</ele>
        <time>2012-01-22T09:38:38Z</time>
      </trkpt>
      <trkpt lat="45.83004" lon="4.81309">
        <ele>329</ele>
        <time>2012-01-22T09:38:40Z</time>
      </trkpt>
      <trkpt lat="45.83" lon="4.81314">
        <ele>341</ele>
        <time>2012-01-22T09:38:45Z</time>
      </trkpt>
      <trkpt lat="45.82998" lon="4.81315">
        <ele>341</ele>
        <time>2012-01-22T09:38:46Z</time>
      </trkpt>
      <trkpt lat="45.82997" lon="4.81316">
        <ele>340</ele>
        <time>2012-01-22T09:38:48Z</time>
      </trkpt>
      <trkpt lat="45.82994" lon="4.8132">
        <ele>339</ele>
        <time>2012-01-22T09:38:51Z</time>
      </trkpt>
      <trkpt lat="45.82993" lon="4.8132">
        <ele>339</ele>
        <time>2012-01-22T09:38:52Z</time>
      </trkpt>
      <trkpt lat="45.82988" lon="4.81323">
        <ele>340</ele>
        <time>2012-01-22T09:38:57Z</time>
      </trkpt>
      <trkpt lat="45.82986" lon="4.81324">
        <ele>341</ele>
        <time>2012-01-22T09:38:59Z</time>
      </trkpt>
      <trkpt lat="45.82983" lon="4.81327">
        <ele>342</ele>
        <time>2012-01-22T09:39:03Z</time>
      </trkpt>
      <trkpt lat="45.82979" lon="4.8133">
        <ele>344</ele>
        <time>2012-01-22T09:39:06Z</time>
      </trkpt>
      <trkpt lat="45.82975" lon="4.81335">
        <ele>339</ele>
        <time>2012-01-22T09:39:10Z</time>
      </trkpt>
      <trkpt lat="45.82973" lon="4.81339">
        <ele>340</ele>
        <time>2012-01-22T09:39:14Z</time>
      </trkpt>
      <trkpt lat="45.8297" lon="4.81345">
        <ele>341</ele>
        <time>2012-01-22T09:39:17Z</time>
      </trkpt>
      <trkpt lat="45.82967" lon="4.81351">
        <ele>342</ele>
        <time>2012-01-22T09:39:21Z</time>
      </trkpt>
      <trkpt lat="45.82965" lon="4.81354">
        <ele>343</ele>
        <time>2012-01-22T09:39:23Z</time>
      </trkpt>
      <trkpt lat="45.82964" lon="4.81356">
        <ele>343</ele>
        <time>2012-01-22T09:39:24Z</time>
      </trkpt>
      <trkpt lat="45.82959" lon="4.81366">
        <ele>345</ele>
        <time>2012-01-22T09:39:31Z</time>
      </trkpt>
      <trkpt lat="45.82955" lon="4.81371">
        <ele>346</ele>
        <time>2012-01-22T09:39:36Z</time>
      </trkpt>
      <trkpt lat="45.82953" lon="4.81376">
        <ele>346</ele>
        <time>2012-01-22T09:39:39Z</time>
      </trkpt>
      <trkpt lat="45.82953" lon="4.81377">
        <ele>346</ele>
        <time>2012-01-22T09:39:40Z</time>
      </trkpt>
      <trkpt lat="45.82949" lon="4.81382">
        <ele>346</ele>
        <time>2012-01-22T09:39:44Z</time>
      </trkpt>
      <trkpt lat="45.82947" lon="4.81384">
        <ele>347</ele>
        <time>2012-01-22T09:39:47Z</time>
      </trkpt>
      <trkpt lat="45.82941" lon="4.8139">
        <ele>348</ele>
        <time>2012-01-22T09:39:52Z</time>
      </trkpt>
      <trkpt lat="45.8294" lon="4.81392">
        <ele>349</ele>
        <time>2012-01-22T09:39:54Z</time>
      </trkpt>
      <trkpt lat="45.82935" lon="4.81401">
        <ele>350</ele>
        <time>2012-01-22T09:40:02Z</time>
      </trkpt>
      <trkpt lat="45.82935" lon="4.81403">
        <ele>351</ele>
        <time>2012-01-22T09:40:03Z</time>
      </trkpt>
      <trkpt lat="45.82934" lon="4.81409">
        <ele>352</ele>
        <time>2012-01-22T09:40:08Z</time>
      </trkpt>
      <trkpt lat="45.82932" lon="4.81412">
        <ele>353</ele>
        <time>2012-01-22T09:40:11Z</time>
      </trkpt>
      <trkpt lat="45.8293" lon="4.81419">
        <ele>353</ele>
        <time>2012-01-22T09:40:16Z</time>
      </trkpt>
      <trkpt lat="45.82928" lon="4.81422">
        <ele>353</ele>
        <time>2012-01-22T09:40:18Z</time>
      </trkpt>
      <trkpt lat="45.82921" lon="4.81426">
        <ele>354</ele>
        <time>2012-01-22T09:40:23Z</time>
      </trkpt>
      <trkpt lat="45.82919" lon="4.81427">
        <ele>354</ele>
        <time>2012-01-22T09:40:24Z</time>
      </trkpt>
      <trkpt lat="45.82918" lon="4.81428">
        <ele>354</ele>
        <time>2012-01-22T09:40:25Z</time>
      </trkpt>
      <trkpt lat="45.82915" lon="4.81433">
        <ele>370</ele>
        <time>2012-01-22T09:40:30Z</time>
      </trkpt>
      <trkpt lat="45.82915" lon="4.81439">
        <ele>371</ele>
        <time>2012-01-22T09:40:35Z</time>
      </trkpt>
      <trkpt lat="45.82916" lon="4.81442">
        <ele>372</ele>
        <time>2012-01-22T09:40:37Z</time>
      </trkpt>
      <trkpt lat="45.82914" lon="4.81444">
        <ele>372</ele>
        <time>2012-01-22T09:40:40Z</time>
      </trkpt>
      <trkpt lat="45.8291" lon="4.81446">
        <ele>373</ele>
        <time>2012-01-22T09:40:43Z</time>
      </trkpt>
      <trkpt lat="45.82905" lon="4.81451">
        <ele>374</ele>
        <time>2012-01-22T09:40:50Z</time>
      </trkpt>
      <trkpt lat="45.82903" lon="4.81455">
        <ele>375</ele>
        <time>2012-01-22T09:40:53Z</time>
      </trkpt>
      <trkpt lat="45.82897" lon="4.81458">
        <ele>376</ele>
        <time>2012-01-22T09:41:00Z</time>
      </trkpt>
      <trkpt lat="45.82895" lon="4.8146">
        <ele>376</ele>
        <time>2012-01-22T09:41:04Z</time>
      </trkpt>
      <trkpt lat="45.8289" lon="4.81464">
        <ele>377</ele>
        <time>2012-01-22T09:41:09Z</time>
      </trkpt>
      <trkpt lat="45.8289" lon="4.81465">
        <ele>377</ele>
        <time>2012-01-22T09:41:10Z</time>
      </trkpt>
      <trkpt lat="45.82889" lon="4.81467">
        <ele>377</ele>
        <time>2012-01-22T09:41:12Z</time>
      </trkpt>
      <trkpt lat="45.82885" lon="4.81472">
        <ele>378</ele>
        <time>2012-01-22T09:41:16Z</time>
      </trkpt>
      <trkpt lat="45.82881" lon="4.81477">
        <ele>379</ele>
        <time>2012-01-22T09:41:21Z</time>
      </trkpt>
      <trkpt lat="45.8288" lon="4.8148">
        <ele>379</ele>
        <time>2012-01-22T09:41:23Z</time>
      </trkpt>
      <trkpt lat="45.82877" lon="4.81494">
        <ele>379</ele>
        <time>2012-01-22T09:41:31Z</time>
      </trkpt>
      <trkpt lat="45.82874" lon="4.81501">
        <ele>382</ele>
        <time>2012-01-22T09:41:36Z</time>
      </trkpt>
      <trkpt lat="45.82873" lon="4.81506">
        <ele>382</ele>
        <time>2012-01-22T09:41:39Z</time>
      </trkpt>
      <trkpt lat="45.82869" lon="4.81519">
        <ele>384</ele>
        <time>2012-01-22T09:41:47Z</time>
      </trkpt>
      <trkpt lat="45.82868" lon="4.81526">
        <ele>384</ele>
        <time>2012-01-22T09:41:51Z</time>
      </trkpt>
      <trkpt lat="45.82867" lon="4.81534">
        <ele>385</ele>
        <time>2012-01-22T09:41:56Z</time>
      </trkpt>
      <trkpt lat="45.82864" lon="4.81544">
        <ele>386</ele>
        <time>2012-01-22T09:42:02Z</time>
      </trkpt>
      <trkpt lat="45.82863" lon="4.81551">
        <ele>387</ele>
        <time>2012-01-22T09:42:08Z</time>
      </trkpt>
      <trkpt lat="45.82864" lon="4.81557">
        <ele>387</ele>
        <time>2012-01-22T09:42:12Z</time>
      </trkpt>
      <trkpt lat="45.82864" lon="4.81564">
        <ele>388</ele>
        <time>2012-01-22T09:42:17Z</time>
      </trkpt>
      <trkpt lat="45.82864" lon="4.81566">
        <ele>388</ele>
        <time>2012-01-22T09:42:18Z</time>
      </trkpt>
      <trkpt lat="45.8287" lon="4.81576">
        <ele>387</ele>
        <time>2012-01-22T09:42:24Z</time>
      </trkpt>
      <trkpt lat="45.8287" lon="4.81577">
        <ele>387</ele>
        <time>2012-01-22T09:42:25Z</time>
      </trkpt>
      <trkpt lat="45.8287" lon="4.81579">
        <ele>386</ele>
        <time>2012-01-22T09:42:26Z</time>
      </trkpt>
      <trkpt lat="45.82873" lon="4.81586">
        <ele>393</ele>
        <time>2012-01-22T09:42:31Z</time>
      </trkpt>
      <trkpt lat="45.82876" lon="4.81589">
        <ele>392</ele>
        <time>2012-01-22T09:42:33Z</time>
      </trkpt>
      <trkpt lat="45.82881" lon="4.81597">
        <ele>391</ele>
        <time>2012-01-22T09:42:40Z</time>
      </trkpt>
      <trkpt lat="45.8288" lon="4.81598">
        <ele>391</ele>
        <time>2012-01-22T09:42:41Z</time>
      </trkpt>
      <trkpt lat="45.8288" lon="4.81602">
        <ele>392</ele>
        <time>2012-01-22T09:42:45Z</time>
      </trkpt>
      <trkpt lat="45.8288" lon="4.81604">
        <ele>392</ele>
        <time>2012-01-22T09:42:46Z</time>
      </trkpt>
      <trkpt lat="45.82879" lon="4.8161">
        <ele>393</ele>
        <time>2012-01-22T09:42:50Z</time>
      </trkpt>
      <trkpt lat="45.82882" lon="4.81614">
        <ele>392</ele>
        <time>2012-01-22T09:42:53Z</time>
      </trkpt>
      <trkpt lat="45.82883" lon="4.81616">
        <ele>392</ele>
        <time>2012-01-22T09:42:54Z</time>
      </trkpt>
      <trkpt lat="45.82882" lon="4.81619">
        <ele>393</ele>
        <time>2012-01-22T09:42:57Z</time>
      </trkpt>
      <trkpt lat="45.82884" lon="4.81623">
        <ele>393</ele>
        <time>2012-01-22T09:43:00Z</time>
      </trkpt>
      <trkpt lat="45.82884" lon="4.81625">
        <ele>393</ele>
        <time>2012-01-22T09:43:01Z</time>
      </trkpt>
      <trkpt lat="45.82894" lon="4.81634">
        <ele>392</ele>
        <time>2012-01-22T09:43:09Z</time>
      </trkpt>
      <trkpt lat="45.829" lon="4.8164">
        <ele>391</ele>
        <time>2012-01-22T09:43:15Z</time>
      </trkpt>
      <trkpt lat="45.82901" lon="4.81641">
        <ele>391</ele>
        <time>2012-01-22T09:43:16Z</time>
      </trkpt>
      <trkpt lat="45.82902" lon="4.81647">
        <ele>391</ele>
        <time>2012-01-22T09:43:20Z</time>
      </trkpt>
      <trkpt lat="45.82903" lon="4.8165">
        <ele>391</ele>
        <time>2012-01-22T09:43:23Z</time>
      </trkpt>
      <trkpt lat="45.82905" lon="4.81653">
        <ele>390</ele>
        <time>2012-01-22T09:43:25Z</time>
      </trkpt>
      <trkpt lat="45.82907" lon="4.81655">
        <ele>389</ele>
        <time>2012-01-22T09:43:27Z</time>
      </trkpt>
      <trkpt lat="45.82909" lon="4.81659">
        <ele>388</ele>
        <time>2012-01-22T09:43:30Z</time>
      </trkpt>
      <trkpt lat="45.82911" lon="4.81662">
        <ele>388</ele>
        <time>2012-01-22T09:43:34Z</time>
      </trkpt>
      <trkpt lat="45.82911" lon="4.81663">
        <ele>387</ele>
        <time>2012-01-22T09:43:35Z</time>
      </trkpt>
      <trkpt lat="45.82914" lon="4.81672">
        <ele>390</ele>
        <time>2012-01-22T09:43:41Z</time>
      </trkpt>
      <trkpt lat="45.82914" lon="4.81674">
        <ele>392</ele>
        <time>2012-01-22T09:43:42Z</time>
      </trkpt>
      <trkpt lat="45.82913" lon="4.81679">
        <ele>395</ele>
        <time>2012-01-22T09:43:47Z</time>
      </trkpt>
      <trkpt lat="45.82914" lon="4.81685">
        <ele>398</ele>
        <time>2012-01-22T09:43:51Z</time>
      </trkpt>
      <trkpt lat="45.82914" lon="4.81688">
        <ele>399</ele>
        <time>2012-01-22T09:43:53Z</time>
      </trkpt>
      <trkpt lat="45.82916" lon="4.81689">
        <ele>399</ele>
        <time>2012-01-22T09:43:54Z</time>
      </trkpt>
      <trkpt lat="45.82919" lon="4.81698">
        <ele>381</ele>
        <time>2012-01-22T09:44:01Z</time>
      </trkpt>
      <trkpt lat="45.82918" lon="4.81699">
        <ele>382</ele>
        <time>2012-01-22T09:44:02Z</time>
      </trkpt>
      <trkpt lat="45.82919" lon="4.81708">
        <ele>383</ele>
        <time>2012-01-22T09:44:08Z</time>
      </trkpt>
      <trkpt lat="45.82919" lon="4.8171">
        <ele>383</ele>
        <time>2012-01-22T09:44:09Z</time>
      </trkpt>
      <trkpt lat="45.82924" lon="4.81717">
        <ele>384</ele>
        <time>2012-01-22T09:44:15Z</time>
      </trkpt>
      <trkpt lat="45.82924" lon="4.81719">
        <ele>385</ele>
        <time>2012-01-22T09:44:16Z</time>
      </trkpt>
      <trkpt lat="45.82924" lon="4.81721">
        <ele>385</ele>
        <time>2012-01-22T09:44:17Z</time>
      </trkpt>
      <trkpt lat="45.82923" lon="4.81728">
        <ele>388</ele>
        <time>2012-01-22T09:44:22Z</time>
      </trkpt>
      <trkpt lat="45.82926" lon="4.81732">
        <ele>389</ele>
        <time>2012-01-22T09:44:26Z</time>
      </trkpt>
      <trkpt lat="45.82927" lon="4.81733">
        <ele>389</ele>
        <time>2012-01-22T09:44:27Z</time>
      </trkpt>
      <trkpt lat="45.82929" lon="4.81736">
        <ele>390</ele>
        <time>2012-01-22T09:44:29Z</time>
      </trkpt>
      <trkpt lat="45.8293" lon="4.81738">
        <ele>390</ele>
        <time>2012-01-22T09:44:31Z</time>
      </trkpt>
      <trkpt lat="45.82932" lon="4.8174">
        <ele>390</ele>
        <time>2012-01-22T09:44:33Z</time>
      </trkpt>
      <trkpt lat="45.82934" lon="4.81747">
        <ele>390</ele>
        <time>2012-01-22T09:44:38Z</time>
      </trkpt>
      <trkpt lat="45.82936" lon="4.8175">
        <ele>396</ele>
        <time>2012-01-22T09:44:41Z</time>
      </trkpt>
      <trkpt lat="45.82937" lon="4.81752">
        <ele>396</ele>
        <time>2012-01-22T09:44:42Z</time>
      </trkpt>
      <trkpt lat="45.82936" lon="4.81754">
        <ele>396</ele>
        <time>2012-01-22T09:44:43Z</time>
      </trkpt>
      <trkpt lat="45.82937" lon="4.81759">
        <ele>395</ele>
        <time>2012-01-22T09:44:46Z</time>
      </trkpt>
      <trkpt lat="45.82937" lon="4.8176">
        <ele>395</ele>
        <time>2012-01-22T09:44:47Z</time>
      </trkpt>
      <trkpt lat="45.82937" lon="4.81761">
        <ele>395</ele>
        <time>2012-01-22T09:44:48Z</time>
      </trkpt>
      <trkpt lat="45.82938" lon="4.81765">
        <ele>394</ele>
        <time>2012-01-22T09:44:53Z</time>
      </trkpt>
      <trkpt lat="45.82939" lon="4.81766">
        <ele>394</ele>
        <time>2012-01-22T09:44:54Z</time>
      </trkpt>
      <trkpt lat="45.82941" lon="4.81772">
        <ele>393</ele>
        <time>2012-01-22T09:44:58Z</time>
      </trkpt>
      <trkpt lat="45.82942" lon="4.81779">
        <ele>393</ele>
        <time>2012-01-22T09:45:04Z</time>
      </trkpt>
      <trkpt lat="45.82943" lon="4.8178">
        <ele>392</ele>
        <time>2012-01-22T09:45:05Z</time>
      </trkpt>
      <trkpt lat="45.82945" lon="4.81784">
        <ele>392</ele>
        <time>2012-01-22T09:45:08Z</time>
      </trkpt>
      <trkpt lat="45.82945" lon="4.81789">
        <ele>392</ele>
        <time>2012-01-22T09:45:11Z</time>
      </trkpt>
      <trkpt lat="45.82946" lon="4.8179">
        <ele>392</ele>
        <time>2012-01-22T09:45:12Z</time>
      </trkpt>
      <trkpt lat="45.82946" lon="4.81797">
        <ele>392</ele>
        <time>2012-01-22T09:45:17Z</time>
      </trkpt>
      <trkpt lat="45.82947" lon="4.81801">
        <ele>393</ele>
        <time>2012-01-22T09:45:21Z</time>
      </trkpt>
      <trkpt lat="45.82947" lon="4.81803">
        <ele>393</ele>
        <time>2012-01-22T09:45:23Z</time>
      </trkpt>
      <trkpt lat="45.82949" lon="4.81812">
        <ele>393</ele>
        <time>2012-01-22T09:45:29Z</time>
      </trkpt>
      <trkpt lat="45.8295" lon="4.81823">
        <ele>393</ele>
        <time>2012-01-22T09:45:36Z</time>
      </trkpt>
      <trkpt lat="45.8295" lon="4.81824">
        <ele>393</ele>
        <time>2012-01-22T09:45:37Z</time>
      </trkpt>
      <trkpt lat="45.8295" lon="4.81825">
        <ele>394</ele>
        <time>2012-01-22T09:45:39Z</time>
      </trkpt>
      <trkpt lat="45.82948" lon="4.81826">
        <ele>394</ele>
        <time>2012-01-22T09:45:40Z</time>
      </trkpt>
      <trkpt lat="45.82947" lon="4.81825">
        <ele>394</ele>
        <time>2012-01-22T09:45:42Z</time>
      </trkpt>
      <trkpt lat="45.82944" lon="4.81823">
        <ele>395</ele>
        <time>2012-01-22T09:45:46Z</time>
      </trkpt>
      <trkpt lat="45.82942" lon="4.81822">
        <ele>396</ele>
        <time>2012-01-22T09:45:49Z</time>
      </trkpt>
      <trkpt lat="45.82941" lon="4.81822">
        <ele>396</ele>
        <time>2012-01-22T09:45:50Z</time>
      </trkpt>
      <trkpt lat="45.82936" lon="4.81819">
        <ele>397</ele>
        <time>2012-01-22T09:45:55Z</time>
      </trkpt>
      <trkpt lat="45.82935" lon="4.81819">
        <ele>397</ele>
        <time>2012-01-22T09:45:56Z</time>
      </trkpt>
      <trkpt lat="45.82931" lon="4.81816">
        <ele>398</ele>
        <time>2012-01-22T09:46:01Z</time>
      </trkpt>
      <trkpt lat="45.82924" lon="4.81808">
        <ele>398</ele>
        <time>2012-01-22T09:46:10Z</time>
      </trkpt>
      <trkpt lat="45.82923" lon="4.81806">
        <ele>397</ele>
        <time>2012-01-22T09:46:12Z</time>
      </trkpt>
      <trkpt lat="45.82921" lon="4.81804">
        <ele>397</ele>
        <time>2012-01-22T09:46:14Z</time>
      </trkpt>
      <trkpt lat="45.82918" lon="4.81802">
        <ele>397</ele>
        <time>2012-01-22T09:46:18Z</time>
      </trkpt>
      <trkpt lat="45.82917" lon="4.81801">
        <ele>397</ele>
        <time>2012-01-22T09:46:19Z</time>
      </trkpt>
      <trkpt lat="45.82916" lon="4.818">
        <ele>414</ele>
        <time>2012-01-22T09:46:20Z</time>
      </trkpt>
      <trkpt lat="45.82913" lon="4.81798">
        <ele>414</ele>
        <time>2012-01-22T09:46:23Z</time>
      </trkpt>
      <trkpt lat="45.8291" lon="4.81795">
        <ele>415</ele>
        <time>2012-01-22T09:46:26Z</time>
      </trkpt>
      <trkpt lat="45.82909" lon="4.81794">
        <ele>415</ele>
        <time>2012-01-22T09:46:27Z</time>
      </trkpt>
      <trkpt lat="45.82904" lon="4.8179">
        <ele>415</ele>
        <time>2012-01-22T09:46:33Z</time>
      </trkpt>
      <trkpt lat="45.829" lon="4.81788">
        <ele>415</ele>
        <time>2012-01-22T09:46:37Z</time>
      </trkpt>
      <trkpt lat="45.82897" lon="4.81787">
        <ele>415</ele>
        <time>2012-01-22T09:46:40Z</time>
      </trkpt>
      <trkpt lat="45.82894" lon="4.81784">
        <ele>416</ele>
        <time>2012-01-22T09:46:44Z</time>
      </trkpt>
      <trkpt lat="45.82891" lon="4.81781">
        <ele>416</ele>
        <time>2012-01-22T09:46:48Z</time>
      </trkpt>
      <trkpt lat="45.82891" lon="4.8178">
        <ele>416</ele>
        <time>2012-01-22T09:46:49Z</time>
      </trkpt>
      <trkpt lat="45.82889" lon="4.81778">
        <ele>416</ele>
        <time>2012-01-22T09:46:52Z</time>
      </trkpt>
      <trkpt lat="45.82888" lon="4.81777">
        <ele>416</ele>
        <time>2012-01-22T09:46:53Z</time>
      </trkpt>
      <trkpt lat="45.82885" lon="4.81774">
        <ele>417</ele>
        <time>2012-01-22T09:46:57Z</time>
      </trkpt>
      <trkpt lat="45.82881" lon="4.81771">
        <ele>417</ele>
        <time>2012-01-22T09:47:01Z</time>
      </trkpt>
      <trkpt lat="45.82875" lon="4.81765">
        <ele>418</ele>
        <time>2012-01-22T09:47:07Z</time>
      </trkpt>
      <trkpt lat="45.82874" lon="4.81764">
        <ele>418</ele>
        <time>2012-01-22T09:47:08Z</time>
      </trkpt>
      <trkpt lat="45.8287" lon="4.81759">
        <ele>419</ele>
        <time>2012-01-22T09:47:13Z</time>
      </trkpt>
      <trkpt lat="45.82869" lon="4.81758">
        <ele>419</ele>
        <time>2012-01-22T09:47:14Z</time>
      </trkpt>
      <trkpt lat="45.82867" lon="4.81755">
        <ele>420</ele>
        <time>2012-01-22T09:47:17Z</time>
      </trkpt>
      <trkpt lat="45.82862" lon="4.81749">
        <ele>417</ele>
        <time>2012-01-22T09:47:23Z</time>
      </trkpt>
      <trkpt lat="45.82857" lon="4.81744">
        <ele>418</ele>
        <time>2012-01-22T09:47:28Z</time>
      </trkpt>
      <trkpt lat="45.82855" lon="4.81743">
        <ele>419</ele>
        <time>2012-01-22T09:47:29Z</time>
      </trkpt>
      <trkpt lat="45.82855" lon="4.81743">
        <ele>419</ele>
        <time>2012-01-22T09:47:30Z</time>
      </trkpt>
      <trkpt lat="45.8285" lon="4.81741">
        <ele>420</ele>
        <time>2012-01-22T09:47:35Z</time>
      </trkpt>
      <trkpt lat="45.82846" lon="4.81739">
        <ele>421</ele>
        <time>2012-01-22T09:47:38Z</time>
      </trkpt>
      <trkpt lat="45.82844" lon="4.81738">
        <ele>421</ele>
        <time>2012-01-22T09:47:40Z</time>
      </trkpt>
      <trkpt lat="45.8284" lon="4.81733">
        <ele>421</ele>
        <time>2012-01-22T09:47:44Z</time>
      </trkpt>
      <trkpt lat="45.82839" lon="4.81732">
        <ele>420</ele>
        <time>2012-01-22T09:47:45Z</time>
      </trkpt>
      <trkpt lat="45.82835" lon="4.81727">
        <ele>420</ele>
        <time>2012-01-22T09:47:49Z</time>
      </trkpt>
      <trkpt lat="45.82832" lon="4.81726">
        <ele>431</ele>
        <time>2012-01-22T09:47:52Z</time>
      </trkpt>
      <trkpt lat="45.82827" lon="4.81723">
        <ele>431</ele>
        <time>2012-01-22T09:47:56Z</time>
      </trkpt>
      <trkpt lat="45.82825" lon="4.81722">
        <ele>431</ele>
        <time>2012-01-22T09:47:59Z</time>
      </trkpt>
      <trkpt lat="45.82823" lon="4.8172">
        <ele>431</ele>
        <time>2012-01-22T09:48:00Z</time>
      </trkpt>
      <trkpt lat="45.82822" lon="4.81719">
        <ele>430</ele>
        <time>2012-01-22T09:48:01Z</time>
      </trkpt>
      <trkpt lat="45.8282" lon="4.81717">
        <ele>430</ele>
        <time>2012-01-22T09:48:02Z</time>
      </trkpt>
      <trkpt lat="45.82814" lon="4.81711">
        <ele>430</ele>
        <time>2012-01-22T09:48:07Z</time>
      </trkpt>
      <trkpt lat="45.82808" lon="4.81704">
        <ele>430</ele>
        <time>2012-01-22T09:48:13Z</time>
      </trkpt>
      <trkpt lat="45.82803" lon="4.817">
        <ele>430</ele>
        <time>2012-01-22T09:48:18Z</time>
      </trkpt>
      <trkpt lat="45.828" lon="4.81698">
        <ele>431</ele>
        <time>2012-01-22T09:48:20Z</time>
      </trkpt>
      <trkpt lat="45.82797" lon="4.81695">
        <ele>431</ele>
        <time>2012-01-22T09:48:23Z</time>
      </trkpt>
      <trkpt lat="45.82793" lon="4.8169">
        <ele>431</ele>
        <time>2012-01-22T09:48:26Z</time>
      </trkpt>
      <trkpt lat="45.82792" lon="4.81688">
        <ele>431</ele>
        <time>2012-01-22T09:48:27Z</time>
      </trkpt>
      <trkpt lat="45.82789" lon="4.8168">
        <ele>431</ele>
        <time>2012-01-22T09:48:32Z</time>
      </trkpt>
      <trkpt lat="45.82788" lon="4.81671">
        <ele>431</ele>
        <time>2012-01-22T09:48:39Z</time>
      </trkpt>
      <trkpt lat="45.82788" lon="4.81665">
        <ele>427</ele>
        <time>2012-01-22T09:48:43Z</time>
      </trkpt>
      <trkpt lat="45.82787" lon="4.8166">
        <ele>427</ele>
        <time>2012-01-22T09:48:46Z</time>
      </trkpt>
      <trkpt lat="45.82785" lon="4.8165">
        <ele>427</ele>
        <time>2012-01-22T09:48:53Z</time>
      </trkpt>
      <trkpt lat="45.82785" lon="4.81645">
        <ele>427</ele>
        <time>2012-01-22T09:48:56Z</time>
      </trkpt>
      <trkpt lat="45.82784" lon="4.8164">
        <ele>427</ele>
        <time>2012-01-22T09:48:59Z</time>
      </trkpt>
      <trkpt lat="45.82783" lon="4.81636">
        <ele>426</ele>
        <time>2012-01-22T09:49:02Z</time>
      </trkpt>
      <trkpt lat="45.82783" lon="4.81635">
        <ele>426</ele>
        <time>2012-01-22T09:49:03Z</time>
      </trkpt>
      <trkpt lat="45.82781" lon="4.8163">
        <ele>426</ele>
        <time>2012-01-22T09:49:06Z</time>
      </trkpt>
      <trkpt lat="45.82779" lon="4.81626">
        <ele>426</ele>
        <time>2012-01-22T09:49:09Z</time>
      </trkpt>
      <trkpt lat="45.82779" lon="4.81625">
        <ele>426</ele>
        <time>2012-01-22T09:49:10Z</time>
      </trkpt>
      <trkpt lat="45.82779" lon="4.81623">
        <ele>427</ele>
        <time>2012-01-22T09:49:11Z</time>
      </trkpt>
      <trkpt lat="45.82776" lon="4.81617">
        <ele>427</ele>
        <time>2012-01-22T09:49:15Z</time>
      </trkpt>
      <trkpt lat="45.82775" lon="4.81614">
        <ele>427</ele>
        <time>2012-01-22T09:49:16Z</time>
      </trkpt>
      <trkpt lat="45.82773" lon="4.81608">
        <ele>427</ele>
        <time>2012-01-22T09:49:19Z</time>
      </trkpt>
      <trkpt lat="45.8277" lon="4.81597">
        <ele>428</ele>
        <time>2012-01-22T09:49:24Z</time>
      </trkpt>
      <trkpt lat="45.82768" lon="4.8159">
        <ele>429</ele>
        <time>2012-01-22T09:49:27Z</time>
      </trkpt>
      <trkpt lat="45.82767" lon="4.81589">
        <ele>430</ele>
        <time>2012-01-22T09:49:28Z</time>
      </trkpt>
      <trkpt lat="45.82766" lon="4.81585">
        <ele>430</ele>
        <time>2012-01-22T09:49:29Z</time>
      </trkpt>
      <trkpt lat="45.82763" lon="4.81578">
        <ele>428</ele>
        <time>2012-01-22T09:49:33Z</time>
      </trkpt>
      <trkpt lat="45.82763" lon="4.81575">
        <ele>428</ele>
        <time>2012-01-22T09:49:36Z</time>
      </trkpt>
      <trkpt lat="45.82762" lon="4.81571">
        <ele>427</ele>
        <time>2012-01-22T09:49:38Z</time>
      </trkpt>
      <trkpt lat="45.82762" lon="4.81566">
        <ele>426</ele>
        <time>2012-01-22T09:49:40Z</time>
      </trkpt>
      <trkpt lat="45.82762" lon="4.81563">
        <ele>425</ele>
        <time>2012-01-22T09:49:41Z</time>
      </trkpt>
      <trkpt lat="45.82763" lon="4.81551">
        <ele>423</ele>
        <time>2012-01-22T09:49:48Z</time>
      </trkpt>
      <trkpt lat="45.82761" lon="4.81544">
        <ele>423</ele>
        <time>2012-01-22T09:49:52Z</time>
      </trkpt>
      <trkpt lat="45.8276" lon="4.81539">
        <ele>423</ele>
        <time>2012-01-22T09:49:55Z</time>
      </trkpt>
      <trkpt lat="45.82759" lon="4.81538">
        <ele>423</ele>
        <time>2012-01-22T09:49:56Z</time>
      </trkpt>
      <trkpt lat="45.82756" lon="4.8153">
        <ele>423</ele>
        <time>2012-01-22T09:50:01Z</time>
      </trkpt>
      <trkpt lat="45.82753" lon="4.8152">
        <ele>425</ele>
        <time>2012-01-22T09:50:52Z</time>
      </trkpt>
      <trkpt lat="45.82751" lon="4.81518">
        <ele>425</ele>
        <time>2012-01-22T09:50:57Z</time>
      </trkpt>
      <trkpt lat="45.82753" lon="4.81515">
        <ele>425</ele>
        <time>2012-01-22T09:51:02Z</time>
      </trkpt>
      <trkpt lat="45.82755" lon="4.8151">
        <ele>426</ele>
        <time>2012-01-22T09:51:08Z</time>
      </trkpt>
      <trkpt lat="45.82759" lon="4.81499">
        <ele>426</ele>
        <time>2012-01-22T09:51:13Z</time>
      </trkpt>
      <trkpt lat="45.82765" lon="4.81483">
        <ele>421</ele>
        <time>2012-01-22T09:51:18Z</time>
      </trkpt>
      <trkpt lat="45.82766" lon="4.8148">
        <ele>420</ele>
        <time>2012-01-22T09:51:19Z</time>
      </trkpt>
      <trkpt lat="45.82768" lon="4.81475">
        <ele>419</ele>
        <time>2012-01-22T09:51:21Z</time>
      </trkpt>
      <trkpt lat="45.82769" lon="4.81472">
        <ele>419</ele>
        <time>2012-01-22T09:51:22Z</time>
      </trkpt>
      <trkpt lat="45.82772" lon="4.81465">
        <ele>418</ele>
        <time>2012-01-22T09:51:24Z</time>
      </trkpt>
      <trkpt lat="45.82775" lon="4.81451">
        <ele>417</ele>
        <time>2012-01-22T09:51:28Z</time>
      </trkpt>
      <trkpt lat="45.82775" lon="4.81448">
        <ele>417</ele>
        <time>2012-01-22T09:51:29Z</time>
      </trkpt>
      <trkpt lat="45.82779" lon="4.81425">
        <ele>416</ele>
        <time>2012-01-22T09:51:35Z</time>
      </trkpt>
      <trkpt lat="45.82782" lon="4.81404">
        <ele>416</ele>
        <time>2012-01-22T09:51:40Z</time>
      </trkpt>
      <trkpt lat="45.82782" lon="4.814">
        <ele>415</ele>
        <time>2012-01-22T09:51:41Z</time>
      </trkpt>
      <trkpt lat="45.82785" lon="4.81389">
        <ele>415</ele>
        <time>2012-01-22T09:51:44Z</time>
      </trkpt>
      <trkpt lat="45.82789" lon="4.81372">
        <ele>414</ele>
        <time>2012-01-22T09:51:48Z</time>
      </trkpt>
      <trkpt lat="45.82791" lon="4.81364">
        <ele>414</ele>
        <time>2012-01-22T09:51:50Z</time>
      </trkpt>
      <trkpt lat="45.82792" lon="4.81346">
        <ele>414</ele>
        <time>2012-01-22T09:51:54Z</time>
      </trkpt>
      <trkpt lat="45.82793" lon="4.81342">
        <ele>414</ele>
        <time>2012-01-22T09:51:55Z</time>
      </trkpt>
      <trkpt lat="45.82795" lon="4.81316">
        <ele>413</ele>
        <time>2012-01-22T09:52:01Z</time>
      </trkpt>
      <trkpt lat="45.82798" lon="4.81286">
        <ele>413</ele>
        <time>2012-01-22T09:52:08Z</time>
      </trkpt>
      <trkpt lat="45.82798" lon="4.81282">
        <ele>413</ele>
        <time>2012-01-22T09:52:09Z</time>
      </trkpt>
      <trkpt lat="45.828" lon="4.81258">
        <ele>413</ele>
        <time>2012-01-22T09:52:15Z</time>
      </trkpt>
      <trkpt lat="45.828" lon="4.81256">
        <ele>413</ele>
        <time>2012-01-22T09:52:20Z</time>
      </trkpt>
      <trkpt lat="45.828" lon="4.8125">
        <ele>413</ele>
        <time>2012-01-22T09:52:28Z</time>
      </trkpt>
      <trkpt lat="45.82801" lon="4.81247">
        <ele>411</ele>
        <time>2012-01-22T09:52:29Z</time>
      </trkpt>
      <trkpt lat="45.82804" lon="4.81235">
        <ele>411</ele>
        <time>2012-01-22T09:52:32Z</time>
      </trkpt>
      <trkpt lat="45.82808" lon="4.81222">
        <ele>411</ele>
        <time>2012-01-22T09:52:35Z</time>
      </trkpt>
      <trkpt lat="45.82811" lon="4.8121">
        <ele>411</ele>
        <time>2012-01-22T09:52:38Z</time>
      </trkpt>
      <trkpt lat="45.82814" lon="4.81198">
        <ele>410</ele>
        <time>2012-01-22T09:52:41Z</time>
      </trkpt>
      <trkpt lat="45.82819" lon="4.81185">
        <ele>410</ele>
        <time>2012-01-22T09:52:45Z</time>
      </trkpt>
      <trkpt lat="45.82822" lon="4.81175">
        <ele>410</ele>
        <time>2012-01-22T09:52:48Z</time>
      </trkpt>
      <trkpt lat="45.82827" lon="4.81158">
        <ele>409</ele>
        <time>2012-01-22T09:52:53Z</time>
      </trkpt>
      <trkpt lat="45.82828" lon="4.81155">
        <ele>408</ele>
        <time>2012-01-22T09:52:54Z</time>
      </trkpt>
      <trkpt lat="45.8283" lon="4.81145">
        <ele>407</ele>
        <time>2012-01-22T09:52:58Z</time>
      </trkpt>
      <trkpt lat="45.8283" lon="4.81143">
        <ele>407</ele>
        <time>2012-01-22T09:52:59Z</time>
      </trkpt>
      <trkpt lat="45.82831" lon="4.81142">
        <ele>407</ele>
        <time>2012-01-22T09:53:04Z</time>
      </trkpt>
      <trkpt lat="45.8283" lon="4.81143">
        <ele>407</ele>
        <time>2012-01-22T09:53:32Z</time>
      </trkpt>
      <trkpt lat="45.82831" lon="4.81143">
        <ele>407</ele>
        <time>2012-01-22T09:53:39Z</time>
      </trkpt>
      <trkpt lat="45.82828" lon="4.81139">
        <ele>407</ele>
        <time>2012-01-22T09:53:49Z</time>
      </trkpt>
      <trkpt lat="45.82826" lon="4.81137">
        <ele>407</ele>
        <time>2012-01-22T09:53:50Z</time>
      </trkpt>
      <trkpt lat="45.82812" lon="4.81125">
        <ele>406</ele>
        <time>2012-01-22T09:53:56Z</time>
      </trkpt>
      <trkpt lat="45.82798" lon="4.81117">
        <ele>405</ele>
        <time>2012-01-22T09:54:01Z</time>
      </trkpt>
      <trkpt lat="45.82793" lon="4.81115">
        <ele>405</ele>
        <time>2012-01-22T09:54:03Z</time>
      </trkpt>
      <trkpt lat="45.82784" lon="4.81109">
        <ele>404</ele>
        <time>2012-01-22T09:54:07Z</time>
      </trkpt>
      <trkpt lat="45.82775" lon="4.81105">
        <ele>404</ele>
        <time>2012-01-22T09:54:10Z</time>
      </trkpt>
      <trkpt lat="45.8277" lon="4.81101">
        <ele>403</ele>
        <time>2012-01-22T09:54:12Z</time>
      </trkpt>
      <trkpt lat="45.82757" lon="4.81093">
        <ele>401</ele>
        <time>2012-01-22T09:54:17Z</time>
      </trkpt>
      <trkpt lat="45.82755" lon="4.8109">
        <ele>400</ele>
        <time>2012-01-22T09:54:18Z</time>
      </trkpt>
      <trkpt lat="45.82742" lon="4.8108">
        <ele>396</ele>
        <time>2012-01-22T09:54:23Z</time>
      </trkpt>
      <trkpt lat="45.8274" lon="4.81077">
        <ele>395</ele>
        <time>2012-01-22T09:54:24Z</time>
      </trkpt>
      <trkpt lat="45.82729" lon="4.81059">
        <ele>392</ele>
        <time>2012-01-22T09:54:29Z</time>
      </trkpt>
      <trkpt lat="45.82727" lon="4.81055">
        <ele>392</ele>
        <time>2012-01-22T09:54:30Z</time>
      </trkpt>
      <trkpt lat="45.82718" lon="4.81045">
        <ele>391</ele>
        <time>2012-01-22T09:54:33Z</time>
      </trkpt>
      <trkpt lat="45.82711" lon="4.81037">
        <ele>390</ele>
        <time>2012-01-22T09:54:36Z</time>
      </trkpt>
      <trkpt lat="45.82708" lon="4.81033">
        <ele>390</ele>
        <time>2012-01-22T09:54:37Z</time>
      </trkpt>
      <trkpt lat="45.82694" lon="4.81021">
        <ele>388</ele>
        <time>2012-01-22T09:54:42Z</time>
      </trkpt>
      <trkpt lat="45.8268" lon="4.81018">
        <ele>387</ele>
        <time>2012-01-22T09:54:46Z</time>
      </trkpt>
      <trkpt lat="45.82676" lon="4.81018">
        <ele>386</ele>
        <time>2012-01-22T09:54:47Z</time>
      </trkpt>
      <trkpt lat="45.82657" lon="4.81016">
        <ele>382</ele>
        <time>2012-01-22T09:54:53Z</time>
      </trkpt>
      <trkpt lat="45.82644" lon="4.81009">
        <ele>382</ele>
        <time>2012-01-22T09:54:59Z</time>
      </trkpt>
      <trkpt lat="45.8264" lon="4.81004">
        <ele>382</ele>
        <time>2012-01-22T09:55:01Z</time>
      </trkpt>
      <trkpt lat="45.82631" lon="4.80992">
        <ele>380</ele>
        <time>2012-01-22T09:55:06Z</time>
      </trkpt>
      <trkpt lat="45.82627" lon="4.80987">
        <ele>380</ele>
        <time>2012-01-22T09:55:08Z</time>
      </trkpt>
      <trkpt lat="45.82616" lon="4.80981">
        <ele>379</ele>
        <time>2012-01-22T09:55:12Z</time>
      </trkpt>
      <trkpt lat="45.82609" lon="4.80977">
        <ele>379</ele>
        <time>2012-01-22T09:55:15Z</time>
      </trkpt>
      <trkpt lat="45.82604" lon="4.80977">
        <ele>379</ele>
        <time>2012-01-22T09:55:17Z</time>
      </trkpt>
      <trkpt lat="45.82589" lon="4.80975">
        <ele>379</ele>
        <time>2012-01-22T09:55:23Z</time>
      </trkpt>
      <trkpt lat="45.82582" lon="4.80974">
        <ele>376</ele>
        <time>2012-01-22T09:55:26Z</time>
      </trkpt>
      <trkpt lat="45.8257" lon="4.80971">
        <ele>376</ele>
        <time>2012-01-22T09:55:31Z</time>
      </trkpt>
      <trkpt lat="45.8256" lon="4.8097">
        <ele>376</ele>
        <time>2012-01-22T09:55:35Z</time>
      </trkpt>
      <trkpt lat="45.8255" lon="4.80967">
        <ele>376</ele>
        <time>2012-01-22T09:55:39Z</time>
      </trkpt>
      <trkpt lat="45.82542" lon="4.80967">
        <ele>376</ele>
        <time>2012-01-22T09:55:42Z</time>
      </trkpt>
      <trkpt lat="45.82531" lon="4.80964">
        <ele>375</ele>
        <time>2012-01-22T09:55:46Z</time>
      </trkpt>
      <trkpt lat="45.82529" lon="4.80963">
        <ele>375</ele>
        <time>2012-01-22T09:55:47Z</time>
      </trkpt>
      <trkpt lat="45.82512" lon="4.80959">
        <ele>375</ele>
        <time>2012-01-22T09:55:53Z</time>
      </trkpt>
      <trkpt lat="45.82494" lon="4.80952">
        <ele>371</ele>
        <time>2012-01-22T09:56:00Z</time>
      </trkpt>
      <trkpt lat="45.82477" lon="4.80946">
        <ele>371</ele>
        <time>2012-01-22T09:56:07Z</time>
      </trkpt>
      <trkpt lat="45.82475" lon="4.80945">
        <ele>371</ele>
        <time>2012-01-22T09:56:08Z</time>
      </trkpt>
      <trkpt lat="45.82461" lon="4.80935">
        <ele>371</ele>
        <time>2012-01-22T09:56:14Z</time>
      </trkpt>
      <trkpt lat="45.82459" lon="4.80933">
        <ele>370</ele>
        <time>2012-01-22T09:56:15Z</time>
      </trkpt>
      <trkpt lat="45.82445" lon="4.80921">
        <ele>370</ele>
        <time>2012-01-22T09:56:21Z</time>
      </trkpt>
      <trkpt lat="45.82443" lon="4.80919">
        <ele>370</ele>
        <time>2012-01-22T09:56:22Z</time>
      </trkpt>
      <trkpt lat="45.82435" lon="4.8091">
        <ele>374</ele>
        <time>2012-01-22T09:56:26Z</time>
      </trkpt>
      <trkpt lat="45.82428" lon="4.80901">
        <ele>374</ele>
        <time>2012-01-22T09:56:30Z</time>
      </trkpt>
      <trkpt lat="45.82426" lon="4.80898">
        <ele>375</ele>
        <time>2012-01-22T09:56:31Z</time>
      </trkpt>
      <trkpt lat="45.82415" lon="4.80887">
        <ele>371</ele>
        <time>2012-01-22T09:56:36Z</time>
      </trkpt>
      <trkpt lat="45.82412" lon="4.80884">
        <ele>371</ele>
        <time>2012-01-22T09:56:38Z</time>
      </trkpt>
      <trkpt lat="45.82401" lon="4.80875">
        <ele>371</ele>
        <time>2012-01-22T09:56:43Z</time>
      </trkpt>
      <trkpt lat="45.82395" lon="4.80869">
        <ele>371</ele>
        <time>2012-01-22T09:56:46Z</time>
      </trkpt>
      <trkpt lat="45.82386" lon="4.8086">
        <ele>372</ele>
        <time>2012-01-22T09:56:51Z</time>
      </trkpt>
      <trkpt lat="45.8238" lon="4.80852">
        <ele>371</ele>
        <time>2012-01-22T09:56:55Z</time>
      </trkpt>
      <trkpt lat="45.82377" lon="4.80847">
        <ele>371</ele>
        <time>2012-01-22T09:56:57Z</time>
      </trkpt>
      <trkpt lat="45.82375" lon="4.80845">
        <ele>371</ele>
        <time>2012-01-22T09:56:58Z</time>
      </trkpt>
      <trkpt lat="45.82374" lon="4.80836">
        <ele>371</ele>
        <time>2012-01-22T09:57:01Z</time>
      </trkpt>
      <trkpt lat="45.82374" lon="4.80835">
        <ele>371</ele>
        <time>2012-01-22T09:57:02Z</time>
      </trkpt>
      <trkpt lat="45.82374" lon="4.80828">
        <ele>377</ele>
        <time>2012-01-22T09:57:06Z</time>
      </trkpt>
      <trkpt lat="45.82372" lon="4.80815">
        <ele>378</ele>
        <time>2012-01-22T09:57:13Z</time>
      </trkpt>
      <trkpt lat="45.82372" lon="4.80802">
        <ele>378</ele>
        <time>2012-01-22T09:57:21Z</time>
      </trkpt>
      <trkpt lat="45.82371" lon="4.808">
        <ele>378</ele>
        <time>2012-01-22T09:57:22Z</time>
      </trkpt>
      <trkpt lat="45.82368" lon="4.80795">
        <ele>378</ele>
        <time>2012-01-22T09:57:26Z</time>
      </trkpt>
      <trkpt lat="45.82368" lon="4.80794">
        <ele>378</ele>
        <time>2012-01-22T09:57:27Z</time>
      </trkpt>
      <trkpt lat="45.82369" lon="4.80789">
        <ele>379</ele>
        <time>2012-01-22T09:57:32Z</time>
      </trkpt>
      <trkpt lat="45.82369" lon="4.80785">
        <ele>379</ele>
        <time>2012-01-22T09:57:34Z</time>
      </trkpt>
      <trkpt lat="45.82369" lon="4.80778">
        <ele>379</ele>
        <time>2012-01-22T09:57:38Z</time>
      </trkpt>
      <trkpt lat="45.82372" lon="4.80769">
        <ele>380</ele>
        <time>2012-01-22T09:57:44Z</time>
      </trkpt>
      <trkpt lat="45.82373" lon="4.80758">
        <ele>380</ele>
        <time>2012-01-22T09:57:51Z</time>
      </trkpt>
      <trkpt lat="45.82374" lon="4.80753">
        <ele>381</ele>
        <time>2012-01-22T09:57:54Z</time>
      </trkpt>
      <trkpt lat="45.82377" lon="4.80744">
        <ele>386</ele>
        <time>2012-01-22T09:58:00Z</time>
      </trkpt>
      <trkpt lat="45.8238" lon="4.80733">
        <ele>387</ele>
        <time>2012-01-22T09:58:08Z</time>
      </trkpt>
      <trkpt lat="45.8238" lon="4.80729">
        <ele>387</ele>
        <time>2012-01-22T09:58:10Z</time>
      </trkpt>
      <trkpt lat="45.8238" lon="4.80716">
        <ele>387</ele>
        <time>2012-01-22T09:58:16Z</time>
      </trkpt>
      <trkpt lat="45.82377" lon="4.80706">
        <ele>388</ele>
        <time>2012-01-22T09:58:24Z</time>
      </trkpt>
      <trkpt lat="45.82375" lon="4.80704">
        <ele>387</ele>
        <time>2012-01-22T09:58:27Z</time>
      </trkpt>
      <trkpt lat="45.82371" lon="4.80699">
        <ele>387</ele>
        <time>2012-01-22T09:58:31Z</time>
      </trkpt>
      <trkpt lat="45.82366" lon="4.8069">
        <ele>387</ele>
        <time>2012-01-22T09:58:38Z</time>
      </trkpt>
      <trkpt lat="45.82361" lon="4.80685">
        <ele>387</ele>
        <time>2012-01-22T09:58:42Z</time>
      </trkpt>
      <trkpt lat="45.82358" lon="4.8068">
        <ele>387</ele>
        <time>2012-01-22T09:58:45Z</time>
      </trkpt>
      <trkpt lat="45.82356" lon="4.80674">
        <ele>387</ele>
        <time>2012-01-22T09:58:49Z</time>
      </trkpt>
      <trkpt lat="45.82356" lon="4.80669">
        <ele>387</ele>
        <time>2012-01-22T09:58:52Z</time>
      </trkpt>
      <trkpt lat="45.82357" lon="4.80662">
        <ele>392</ele>
        <time>2012-01-22T09:58:57Z</time>
      </trkpt>
      <trkpt lat="45.82357" lon="4.8066">
        <ele>392</ele>
        <time>2012-01-22T09:58:59Z</time>
      </trkpt>
      <trkpt lat="45.82358" lon="4.80649">
        <ele>393</ele>
        <time>2012-01-22T09:59:07Z</time>
      </trkpt>
      <trkpt lat="45.8236" lon="4.80636">
        <ele>394</ele>
        <time>2012-01-22T09:59:15Z</time>
      </trkpt>
      <trkpt lat="45.8236" lon="4.80625">
        <ele>395</ele>
        <time>2012-01-22T09:59:22Z</time>
      </trkpt>
      <trkpt lat="45.82362" lon="4.8061">
        <ele>395</ele>
        <time>2012-01-22T09:59:30Z</time>
      </trkpt>
      <trkpt lat="45.82362" lon="4.80608">
        <ele>395</ele>
        <time>2012-01-22T09:59:31Z</time>
      </trkpt>
      <trkpt lat="45.82362" lon="4.80597">
        <ele>396</ele>
        <time>2012-01-22T09:59:38Z</time>
      </trkpt>
      <trkpt lat="45.82362" lon="4.80595">
        <ele>396</ele>
        <time>2012-01-22T09:59:39Z</time>
      </trkpt>
      <trkpt lat="45.82362" lon="4.80584">
        <ele>396</ele>
        <time>2012-01-22T09:59:45Z</time>
      </trkpt>
      <trkpt lat="45.82362" lon="4.80583">
        <ele>401</ele>
        <time>2012-01-22T09:59:46Z</time>
      </trkpt>
      <trkpt lat="45.82362" lon="4.80581">
        <ele>402</ele>
        <time>2012-01-22T09:59:47Z</time>
      </trkpt>
      <trkpt lat="45.82365" lon="4.80569">
        <ele>403</ele>
        <time>2012-01-22T09:59:54Z</time>
      </trkpt>
      <trkpt lat="45.82368" lon="4.8056">
        <ele>403</ele>
        <time>2012-01-22T09:59:59Z</time>
      </trkpt>
      <trkpt lat="45.82369" lon="4.80555">
        <ele>404</ele>
        <time>2012-01-22T10:00:02Z</time>
      </trkpt>
      <trkpt lat="45.82373" lon="4.80544">
        <ele>405</ele>
        <time>2012-01-22T10:00:09Z</time>
      </trkpt>
      <trkpt lat="45.82375" lon="4.80535">
        <ele>406</ele>
        <time>2012-01-22T10:00:15Z</time>
      </trkpt>
      <trkpt lat="45.82375" lon="4.80533">
        <ele>406</ele>
        <time>2012-01-22T10:00:16Z</time>
      </trkpt>
      <trkpt lat="45.82378" lon="4.80527">
        <ele>406</ele>
        <time>2012-01-22T10:00:20Z</time>
      </trkpt>
      <trkpt lat="45.82378" lon="4.80526">
        <ele>406</ele>
        <time>2012-01-22T10:00:21Z</time>
      </trkpt>
      <trkpt lat="45.82379" lon="4.80525">
        <ele>407</ele>
        <time>2012-01-22T10:00:23Z</time>
      </trkpt>
      <trkpt lat="45.82381" lon="4.80521">
        <ele>407</ele>
        <time>2012-01-22T10:00:26Z</time>
      </trkpt>
      <trkpt lat="45.82382" lon="4.8052">
        <ele>407</ele>
        <time>2012-01-22T10:00:27Z</time>
      </trkpt>
      <trkpt lat="45.82383" lon="4.80513">
        <ele>408</ele>
        <time>2012-01-22T10:00:31Z</time>
      </trkpt>
      <trkpt lat="45.82383" lon="4.80509">
        <ele>408</ele>
        <time>2012-01-22T10:00:33Z</time>
      </trkpt>
      <trkpt lat="45.82385" lon="4.80502">
        <ele>408</ele>
        <time>2012-01-22T10:00:37Z</time>
      </trkpt>
      <trkpt lat="45.82384" lon="4.80495">
        <ele>412</ele>
        <time>2012-01-22T10:00:41Z</time>
      </trkpt>
      <trkpt lat="45.82386" lon="4.80486">
        <ele>412</ele>
        <time>2012-01-22T10:00:46Z</time>
      </trkpt>
      <trkpt lat="45.82386" lon="4.80483">
        <ele>412</ele>
        <time>2012-01-22T10:00:47Z</time>
      </trkpt>
      <trkpt lat="45.82386" lon="4.80476">
        <ele>412</ele>
        <time>2012-01-22T10:00:50Z</time>
      </trkpt>
      <trkpt lat="45.82386" lon="4.80472">
        <ele>412</ele>
        <time>2012-01-22T10:00:52Z</time>
      </trkpt>
      <trkpt lat="45.82388" lon="4.80466">
        <ele>412</ele>
        <time>2012-01-22T10:00:55Z</time>
      </trkpt>
      <trkpt lat="45.8239" lon="4.80462">
        <ele>413</ele>
        <time>2012-01-22T10:00:58Z</time>
      </trkpt>
      <trkpt lat="45.82391" lon="4.8046">
        <ele>413</ele>
        <time>2012-01-22T10:00:59Z</time>
      </trkpt>
      <trkpt lat="45.82391" lon="4.80458">
        <ele>413</ele>
        <time>2012-01-22T10:01:00Z</time>
      </trkpt>
      <trkpt lat="45.82392" lon="4.8045">
        <ele>413</ele>
        <time>2012-01-22T10:01:04Z</time>
      </trkpt>
      <trkpt lat="45.82393" lon="4.8045">
        <ele>413</ele>
        <time>2012-01-22T10:01:06Z</time>
      </trkpt>
      <trkpt lat="45.82391" lon="4.80445">
        <ele>413</ele>
        <time>2012-01-22T10:01:38Z</time>
      </trkpt>
      <trkpt lat="45.82393" lon="4.80445">
        <ele>413</ele>
        <time>2012-01-22T10:01:40Z</time>
      </trkpt>
      <trkpt lat="45.82396" lon="4.80445">
        <ele>414</ele>
        <time>2012-01-22T10:01:44Z</time>
      </trkpt>
      <trkpt lat="45.82402" lon="4.80443">
        <ele>414</ele>
        <time>2012-01-22T10:01:51Z</time>
      </trkpt>
      <trkpt lat="45.82403" lon="4.80442">
        <ele>415</ele>
        <time>2012-01-22T10:01:52Z</time>
      </trkpt>
      <trkpt lat="45.8241" lon="4.80437">
        <ele>416</ele>
        <time>2012-01-22T10:01:57Z</time>
      </trkpt>
      <trkpt lat="45.82411" lon="4.80436">
        <ele>416</ele>
        <time>2012-01-22T10:01:58Z</time>
      </trkpt>
      <trkpt lat="45.82412" lon="4.80434">
        <ele>416</ele>
        <time>2012-01-22T10:01:59Z</time>
      </trkpt>
      <trkpt lat="45.8242" lon="4.80432">
        <ele>423</ele>
        <time>2012-01-22T10:02:06Z</time>
      </trkpt>
      <trkpt lat="45.82425" lon="4.80438">
        <ele>424</ele>
        <time>2012-01-22T10:02:12Z</time>
      </trkpt>
      <trkpt lat="45.82426" lon="4.8044">
        <ele>424</ele>
        <time>2012-01-22T10:02:13Z</time>
      </trkpt>
      <trkpt lat="45.8243" lon="4.80439">
        <ele>424</ele>
        <time>2012-01-22T10:02:16Z</time>
      </trkpt>
      <trkpt lat="45.82434" lon="4.80438">
        <ele>425</ele>
        <time>2012-01-22T10:02:19Z</time>
      </trkpt>
      <trkpt lat="45.82443" lon="4.80434">
        <ele>426</ele>
        <time>2012-01-22T10:02:25Z</time>
      </trkpt>
      <trkpt lat="45.82446" lon="4.80429">
        <ele>426</ele>
        <time>2012-01-22T10:02:28Z</time>
      </trkpt>
      <trkpt lat="45.82449" lon="4.80426">
        <ele>427</ele>
        <time>2012-01-22T10:02:30Z</time>
      </trkpt>
      <trkpt lat="45.82451" lon="4.80423">
        <ele>427</ele>
        <time>2012-01-22T10:02:32Z</time>
      </trkpt>
      <trkpt lat="45.82454" lon="4.80423">
        <ele>427</ele>
        <time>2012-01-22T10:02:34Z</time>
      </trkpt>
      <trkpt lat="45.82456" lon="4.80418">
        <ele>428</ele>
        <time>2012-01-22T10:02:37Z</time>
      </trkpt>
      <trkpt lat="45.82462" lon="4.80412">
        <ele>428</ele>
        <time>2012-01-22T10:02:42Z</time>
      </trkpt>
      <trkpt lat="45.82464" lon="4.8041">
        <ele>429</ele>
        <time>2012-01-22T10:02:44Z</time>
      </trkpt>
      <trkpt lat="45.82465" lon="4.80409">
        <ele>429</ele>
        <time>2012-01-22T10:02:45Z</time>
      </trkpt>
      <trkpt lat="45.8247" lon="4.80404">
        <ele>429</ele>
        <time>2012-01-22T10:02:50Z</time>
      </trkpt>
      <trkpt lat="45.82478" lon="4.80398">
        <ele>430</ele>
        <time>2012-01-22T10:02:58Z</time>
      </trkpt>
      <trkpt lat="45.82486" lon="4.80396">
        <ele>431</ele>
        <time>2012-01-22T10:03:05Z</time>
      </trkpt>
      <trkpt lat="45.8249" lon="4.80393">
        <ele>431</ele>
        <time>2012-01-22T10:03:08Z</time>
      </trkpt>
      <trkpt lat="45.82493" lon="4.8039">
        <ele>431</ele>
        <time>2012-01-22T10:03:11Z</time>
      </trkpt>
      <trkpt lat="45.82495" lon="4.80387">
        <ele>431</ele>
        <time>2012-01-22T10:03:13Z</time>
      </trkpt>
      <trkpt lat="45.82501" lon="4.80386">
        <ele>439</ele>
        <time>2012-01-22T10:03:18Z</time>
      </trkpt>
      <trkpt lat="45.82504" lon="4.80385">
        <ele>439</ele>
        <time>2012-01-22T10:03:21Z</time>
      </trkpt>
      <trkpt lat="45.82509" lon="4.80382">
        <ele>439</ele>
        <time>2012-01-22T10:03:25Z</time>
      </trkpt>
      <trkpt lat="45.82513" lon="4.80381">
        <ele>439</ele>
        <time>2012-01-22T10:03:28Z</time>
      </trkpt>
      <trkpt lat="45.8252" lon="4.80376">
        <ele>439</ele>
        <time>2012-01-22T10:03:33Z</time>
      </trkpt>
      <trkpt lat="45.82528" lon="4.80372">
        <ele>440</ele>
        <time>2012-01-22T10:03:39Z</time>
      </trkpt>
      <trkpt lat="45.82531" lon="4.80371">
        <ele>440</ele>
        <time>2012-01-22T10:03:41Z</time>
      </trkpt>
      <trkpt lat="45.82536" lon="4.80365">
        <ele>440</ele>
        <time>2012-01-22T10:03:46Z</time>
      </trkpt>
      <trkpt lat="45.82537" lon="4.80364">
        <ele>440</ele>
        <time>2012-01-22T10:03:47Z</time>
      </trkpt>
      <trkpt lat="45.82541" lon="4.8036">
        <ele>440</ele>
        <time>2012-01-22T10:03:51Z</time>
      </trkpt>
      <trkpt lat="45.82546" lon="4.80355">
        <ele>441</ele>
        <time>2012-01-22T10:03:55Z</time>
      </trkpt>
      <trkpt lat="45.8255" lon="4.80351">
        <ele>441</ele>
        <time>2012-01-22T10:03:58Z</time>
      </trkpt>
      <trkpt lat="45.82551" lon="4.8035">
        <ele>441</ele>
        <time>2012-01-22T10:03:59Z</time>
      </trkpt>
      <trkpt lat="45.82559" lon="4.80342">
        <ele>443</ele>
        <time>2012-01-22T10:04:07Z</time>
      </trkpt>
      <trkpt lat="45.82561" lon="4.80339">
        <ele>443</ele>
        <time>2012-01-22T10:04:10Z</time>
      </trkpt>
      <trkpt lat="45.82563" lon="4.80336">
        <ele>443</ele>
        <time>2012-01-22T10:04:13Z</time>
      </trkpt>
      <trkpt lat="45.82568" lon="4.80328">
        <ele>443</ele>
        <time>2012-01-22T10:04:20Z</time>
      </trkpt>
      <trkpt lat="45.82575" lon="4.80324">
        <ele>444</ele>
        <time>2012-01-22T10:04:26Z</time>
      </trkpt>
      <trkpt lat="45.82575" lon="4.80323">
        <ele>444</ele>
        <time>2012-01-22T10:04:27Z</time>
      </trkpt>
      <trkpt lat="45.82577" lon="4.8032">
        <ele>444</ele>
        <time>2012-01-22T10:04:32Z</time>
      </trkpt>
      <trkpt lat="45.82576" lon="4.80315">
        <ele>443</ele>
        <time>2012-01-22T10:04:35Z</time>
      </trkpt>
      <trkpt lat="45.82574" lon="4.80312">
        <ele>442</ele>
        <time>2012-01-22T10:04:39Z</time>
      </trkpt>
      <trkpt lat="45.82578" lon="4.80303">
        <ele>442</ele>
        <time>2012-01-22T10:04:52Z</time>
      </trkpt>
      <trkpt lat="45.82582" lon="4.80297">
        <ele>442</ele>
        <time>2012-01-22T10:04:56Z</time>
      </trkpt>
      <trkpt lat="45.82587" lon="4.80288">
        <ele>453</ele>
        <time>2012-01-22T10:05:01Z</time>
      </trkpt>
      <trkpt lat="45.82593" lon="4.80284">
        <ele>453</ele>
        <time>2012-01-22T10:05:07Z</time>
      </trkpt>
      <trkpt lat="45.82593" lon="4.80282">
        <ele>453</ele>
        <time>2012-01-22T10:05:08Z</time>
      </trkpt>
      <trkpt lat="45.82595" lon="4.8028">
        <ele>453</ele>
        <time>2012-01-22T10:05:11Z</time>
      </trkpt>
      <trkpt lat="45.82597" lon="4.80278">
        <ele>453</ele>
        <time>2012-01-22T10:05:13Z</time>
      </trkpt>
      <trkpt lat="45.82598" lon="4.80278">
        <ele>453</ele>
        <time>2012-01-22T10:05:14Z</time>
      </trkpt>
      <trkpt lat="45.82599" lon="4.80278">
        <ele>453</ele>
        <time>2012-01-22T10:05:15Z</time>
      </trkpt>
      <trkpt lat="45.82605" lon="4.80273">
        <ele>454</ele>
        <time>2012-01-22T10:05:20Z</time>
      </trkpt>
      <trkpt lat="45.82608" lon="4.80271">
        <ele>454</ele>
        <time>2012-01-22T10:05:22Z</time>
      </trkpt>
      <trkpt lat="45.8261" lon="4.80265">
        <ele>454</ele>
        <time>2012-01-22T10:05:25Z</time>
      </trkpt>
      <trkpt lat="45.82613" lon="4.80262">
        <ele>454</ele>
        <time>2012-01-22T10:05:28Z</time>
      </trkpt>
      <trkpt lat="45.82616" lon="4.80259">
        <ele>455</ele>
        <time>2012-01-22T10:05:32Z</time>
      </trkpt>
      <trkpt lat="45.82619" lon="4.80256">
        <ele>455</ele>
        <time>2012-01-22T10:05:35Z</time>
      </trkpt>
      <trkpt lat="45.82626" lon="4.80252">
        <ele>457</ele>
        <time>2012-01-22T10:05:41Z</time>
      </trkpt>
      <trkpt lat="45.82633" lon="4.80244">
        <ele>457</ele>
        <time>2012-01-22T10:05:47Z</time>
      </trkpt>
      <trkpt lat="45.82638" lon="4.80238">
        <ele>458</ele>
        <time>2012-01-22T10:05:51Z</time>
      </trkpt>
      <trkpt lat="45.82638" lon="4.80238">
        <ele>458</ele>
        <time>2012-01-22T10:05:52Z</time>
      </trkpt>
      <trkpt lat="45.82639" lon="4.80236">
        <ele>458</ele>
        <time>2012-01-22T10:05:53Z</time>
      </trkpt>
      <trkpt lat="45.82641" lon="4.80234">
        <ele>459</ele>
        <time>2012-01-22T10:05:55Z</time>
      </trkpt>
      <trkpt lat="45.82643" lon="4.80232">
        <ele>459</ele>
        <time>2012-01-22T10:05:57Z</time>
      </trkpt>
      <trkpt lat="45.82645" lon="4.80231">
        <ele>459</ele>
        <time>2012-01-22T10:05:59Z</time>
      </trkpt>
      <trkpt lat="45.82651" lon="4.8023">
        <ele>460</ele>
        <time>2012-01-22T10:06:03Z</time>
      </trkpt>
      <trkpt lat="45.82656" lon="4.80226">
        <ele>460</ele>
        <time>2012-01-22T10:06:08Z</time>
      </trkpt>
      <trkpt lat="45.82657" lon="4.80226">
        <ele>460</ele>
        <time>2012-01-22T10:06:09Z</time>
      </trkpt>
      <trkpt lat="45.82659" lon="4.80225">
        <ele>461</ele>
        <time>2012-01-22T10:06:10Z</time>
      </trkpt>
      <trkpt lat="45.82661" lon="4.80224">
        <ele>461</ele>
        <time>2012-01-22T10:06:12Z</time>
      </trkpt>
      <trkpt lat="45.82662" lon="4.80221">
        <ele>460</ele>
        <time>2012-01-22T10:06:15Z</time>
      </trkpt>
      <trkpt lat="45.82663" lon="4.80221">
        <ele>460</ele>
        <time>2012-01-22T10:06:17Z</time>
      </trkpt>
      <trkpt lat="45.82668" lon="4.80219">
        <ele>472</ele>
        <time>2012-01-22T10:06:21Z</time>
      </trkpt>
      <trkpt lat="45.8267" lon="4.80217">
        <ele>473</ele>
        <time>2012-01-22T10:06:23Z</time>
      </trkpt>
      <trkpt lat="45.82675" lon="4.80213">
        <ele>473</ele>
        <time>2012-01-22T10:06:27Z</time>
      </trkpt>
      <trkpt lat="45.82677" lon="4.80211">
        <ele>473</ele>
        <time>2012-01-22T10:06:29Z</time>
      </trkpt>
      <trkpt lat="45.82679" lon="4.80209">
        <ele>473</ele>
        <time>2012-01-22T10:06:32Z</time>
      </trkpt>
      <trkpt lat="45.8268" lon="4.80206">
        <ele>473</ele>
        <time>2012-01-22T10:06:35Z</time>
      </trkpt>
      <trkpt lat="45.82687" lon="4.80203">
        <ele>473</ele>
        <time>2012-01-22T10:06:41Z</time>
      </trkpt>
      <trkpt lat="45.82689" lon="4.80203">
        <ele>473</ele>
        <time>2012-01-22T10:06:43Z</time>
      </trkpt>
      <trkpt lat="45.82692" lon="4.80203">
        <ele>474</ele>
        <time>2012-01-22T10:06:45Z</time>
      </trkpt>
      <trkpt lat="45.82693" lon="4.80202">
        <ele>474</ele>
        <time>2012-01-22T10:06:47Z</time>
      </trkpt>
      <trkpt lat="45.82696" lon="4.80201">
        <ele>474</ele>
        <time>2012-01-22T10:06:51Z</time>
      </trkpt>
      <trkpt lat="45.82697" lon="4.80201">
        <ele>474</ele>
        <time>2012-01-22T10:06:53Z</time>
      </trkpt>
      <trkpt lat="45.82701" lon="4.802">
        <ele>475</ele>
        <time>2012-01-22T10:06:56Z</time>
      </trkpt>
      <trkpt lat="45.82705" lon="4.80198">
        <ele>475</ele>
        <time>2012-01-22T10:06:59Z</time>
      </trkpt>
      <trkpt lat="45.82709" lon="4.80195">
        <ele>475</ele>
        <time>2012-01-22T10:07:02Z</time>
      </trkpt>
      <trkpt lat="45.8271" lon="4.80194">
        <ele>476</ele>
        <time>2012-01-22T10:07:03Z</time>
      </trkpt>
      <trkpt lat="45.82716" lon="4.8019">
        <ele>477</ele>
        <time>2012-01-22T10:07:08Z</time>
      </trkpt>
      <trkpt lat="45.82723" lon="4.80185">
        <ele>478</ele>
        <time>2012-01-22T10:07:15Z</time>
      </trkpt>
      <trkpt lat="45.82726" lon="4.80184">
        <ele>478</ele>
        <time>2012-01-22T10:07:17Z</time>
      </trkpt>
      <trkpt lat="45.82728" lon="4.80182">
        <ele>479</ele>
        <time>2012-01-22T10:07:19Z</time>
      </trkpt>
      <trkpt lat="45.82728" lon="4.8018">
        <ele>479</ele>
        <time>2012-01-22T10:07:20Z</time>
      </trkpt>
      <trkpt lat="45.8273" lon="4.80179">
        <ele>480</ele>
        <time>2012-01-22T10:07:22Z</time>
      </trkpt>
      <trkpt lat="45.82736" lon="4.80173">
        <ele>482</ele>
        <time>2012-01-22T10:07:28Z</time>
      </trkpt>
      <trkpt lat="45.82737" lon="4.80172">
        <ele>482</ele>
        <time>2012-01-22T10:07:29Z</time>
      </trkpt>
      <trkpt lat="45.82739" lon="4.8017">
        <ele>483</ele>
        <time>2012-01-22T10:07:32Z</time>
      </trkpt>
      <trkpt lat="45.82742" lon="4.80169">
        <ele>484</ele>
        <time>2012-01-22T10:07:35Z</time>
      </trkpt>
      <trkpt lat="45.82743" lon="4.80168">
        <ele>485</ele>
        <time>2012-01-22T10:07:36Z</time>
      </trkpt>
      <trkpt lat="45.82744" lon="4.80167">
        <ele>485</ele>
        <time>2012-01-22T10:07:37Z</time>
      </trkpt>
      <trkpt lat="45.82747" lon="4.80162">
        <ele>484</ele>
        <time>2012-01-22T10:07:42Z</time>
      </trkpt>
      <trkpt lat="45.82749" lon="4.80161">
        <ele>484</ele>
        <time>2012-01-22T10:07:43Z</time>
      </trkpt>
      <trkpt lat="45.82754" lon="4.80157">
        <ele>489</ele>
        <time>2012-01-22T10:07:47Z</time>
      </trkpt>
      <trkpt lat="45.82757" lon="4.80156">
        <ele>490</ele>
        <time>2012-01-22T10:07:50Z</time>
      </trkpt>
      <trkpt lat="45.82758" lon="4.80156">
        <ele>490</ele>
        <time>2012-01-22T10:07:51Z</time>
      </trkpt>
      <trkpt lat="45.82759" lon="4.80156">
        <ele>490</ele>
        <time>2012-01-22T10:07:52Z</time>
      </trkpt>
      <trkpt lat="45.82764" lon="4.80153">
        <ele>490</ele>
        <time>2012-01-22T10:07:57Z</time>
      </trkpt>
      <trkpt lat="45.82771" lon="4.80147">
        <ele>491</ele>
        <time>2012-01-22T10:08:05Z</time>
      </trkpt>
      <trkpt lat="45.82773" lon="4.80142">
        <ele>491</ele>
        <time>2012-01-22T10:08:09Z</time>
      </trkpt>
      <trkpt lat="45.82777" lon="4.8014">
        <ele>492</ele>
        <time>2012-01-22T10:08:12Z</time>
      </trkpt>
      <trkpt lat="45.82783" lon="4.80135">
        <ele>492</ele>
        <time>2012-01-22T10:08:18Z</time>
      </trkpt>
      <trkpt lat="45.8279" lon="4.80131">
        <ele>493</ele>
        <time>2012-01-22T10:08:23Z</time>
      </trkpt>
      <trkpt lat="45.8279" lon="4.8013">
        <ele>493</ele>
        <time>2012-01-22T10:08:24Z</time>
      </trkpt>
      <trkpt lat="45.82792" lon="4.80129">
        <ele>493</ele>
        <time>2012-01-22T10:08:26Z</time>
      </trkpt>
      <trkpt lat="45.82793" lon="4.80127">
        <ele>493</ele>
        <time>2012-01-22T10:08:28Z</time>
      </trkpt>
      <trkpt lat="45.82799" lon="4.80133">
        <ele>494</ele>
        <time>2012-01-22T10:08:33Z</time>
      </trkpt>
      <trkpt lat="45.82805" lon="4.80138">
        <ele>494</ele>
        <time>2012-01-22T10:08:37Z</time>
      </trkpt>
      <trkpt lat="45.82809" lon="4.8014">
        <ele>495</ele>
        <time>2012-01-22T10:08:40Z</time>
      </trkpt>
      <trkpt lat="45.8281" lon="4.80141">
        <ele>495</ele>
        <time>2012-01-22T10:08:41Z</time>
      </trkpt>
      <trkpt lat="45.82817" lon="4.80143">
        <ele>496</ele>
        <time>2012-01-22T10:08:45Z</time>
      </trkpt>
      <trkpt lat="45.82822" lon="4.80143">
        <ele>496</ele>
        <time>2012-01-22T10:08:48Z</time>
      </trkpt>
      <trkpt lat="45.82823" lon="4.80143">
        <ele>496</ele>
        <time>2012-01-22T10:08:49Z</time>
      </trkpt>
      <trkpt lat="45.82825" lon="4.8014">
        <ele>496</ele>
        <time>2012-01-22T10:08:51Z</time>
      </trkpt>
      <trkpt lat="45.82829" lon="4.80138">
        <ele>496</ele>
        <time>2012-01-22T10:08:54Z</time>
      </trkpt>
      <trkpt lat="45.82831" lon="4.80138">
        <ele>496</ele>
        <time>2012-01-22T10:08:55Z</time>
      </trkpt>
      <trkpt lat="45.8284" lon="4.80134">
        <ele>504</ele>
        <time>2012-01-22T10:09:01Z</time>
      </trkpt>
      <trkpt lat="45.82842" lon="4.80133">
        <ele>504</ele>
        <time>2012-01-22T10:09:02Z</time>
      </trkpt>
      <trkpt lat="45.82848" lon="4.80123">
        <ele>505</ele>
        <time>2012-01-22T10:09:09Z</time>
      </trkpt>
      <trkpt lat="45.82849" lon="4.80122">
        <ele>505</ele>
        <time>2012-01-22T10:09:10Z</time>
      </trkpt>
      <trkpt lat="45.82856" lon="4.80115">
        <ele>505</ele>
        <time>2012-01-22T10:09:16Z</time>
      </trkpt>
      <trkpt lat="45.82858" lon="4.80112">
        <ele>505</ele>
        <time>2012-01-22T10:09:20Z</time>
      </trkpt>
      <trkpt lat="45.82862" lon="4.80106">
        <ele>506</ele>
        <time>2012-01-22T10:09:24Z</time>
      </trkpt>
      <trkpt lat="45.82865" lon="4.801">
        <ele>506</ele>
        <time>2012-01-22T10:09:28Z</time>
      </trkpt>
      <trkpt lat="45.82868" lon="4.80097">
        <ele>506</ele>
        <time>2012-01-22T10:09:31Z</time>
      </trkpt>
      <trkpt lat="45.82869" lon="4.80093">
        <ele>506</ele>
        <time>2012-01-22T10:09:33Z</time>
      </trkpt>
      <trkpt lat="45.82871" lon="4.80083">
        <ele>506</ele>
        <time>2012-01-22T10:09:36Z</time>
      </trkpt>
      <trkpt lat="45.82873" lon="4.80076">
        <ele>506</ele>
        <time>2012-01-22T10:09:41Z</time>
      </trkpt>
      <trkpt lat="45.82876" lon="4.80074">
        <ele>507</ele>
        <time>2012-01-22T10:09:44Z</time>
      </trkpt>
      <trkpt lat="45.82877" lon="4.80073">
        <ele>507</ele>
        <time>2012-01-22T10:09:45Z</time>
      </trkpt>
      <trkpt lat="45.8288" lon="4.80071">
        <ele>507</ele>
        <time>2012-01-22T10:09:48Z</time>
      </trkpt>
      <trkpt lat="45.82883" lon="4.80064">
        <ele>507</ele>
        <time>2012-01-22T10:09:52Z</time>
      </trkpt>
      <trkpt lat="45.8289" lon="4.80058">
        <ele>508</ele>
        <time>2012-01-22T10:09:59Z</time>
      </trkpt>
      <trkpt lat="45.82891" lon="4.80056">
        <ele>508</ele>
        <time>2012-01-22T10:10:01Z</time>
      </trkpt>
      <trkpt lat="45.82895" lon="4.80053">
        <ele>508</ele>
        <time>2012-01-22T10:10:05Z</time>
      </trkpt>
      <trkpt lat="45.82903" lon="4.80047">
        <ele>508</ele>
        <time>2012-01-22T10:10:12Z</time>
      </trkpt>
      <trkpt lat="45.82906" lon="4.80042">
        <ele>508</ele>
        <time>2012-01-22T10:10:16Z</time>
      </trkpt>
      <trkpt lat="45.8291" lon="4.80037">
        <ele>509</ele>
        <time>2012-01-22T10:10:20Z</time>
      </trkpt>
      <trkpt lat="45.82922" lon="4.80028">
        <ele>516</ele>
        <time>2012-01-22T10:10:29Z</time>
      </trkpt>
      <trkpt lat="45.82923" lon="4.80027">
        <ele>516</ele>
        <time>2012-01-22T10:10:30Z</time>
      </trkpt>
      <trkpt lat="45.82932" lon="4.80021">
        <ele>516</ele>
        <time>2012-01-22T10:10:38Z</time>
      </trkpt>
      <trkpt lat="45.82939" lon="4.80017">
        <ele>517</ele>
        <time>2012-01-22T10:10:43Z</time>
      </trkpt>
      <trkpt lat="45.8294" lon="4.80015">
        <ele>517</ele>
        <time>2012-01-22T10:10:44Z</time>
      </trkpt>
      <trkpt lat="45.82946" lon="4.80009">
        <ele>517</ele>
        <time>2012-01-22T10:10:49Z</time>
      </trkpt>
      <trkpt lat="45.82954" lon="4.80002">
        <ele>518</ele>
        <time>2012-01-22T10:10:55Z</time>
      </trkpt>
      <trkpt lat="45.82959" lon="4.79998">
        <ele>514</ele>
        <time>2012-01-22T10:10:59Z</time>
      </trkpt>
      <trkpt lat="45.8297" lon="4.79989">
        <ele>515</ele>
        <time>2012-01-22T10:11:08Z</time>
      </trkpt>
      <trkpt lat="45.82972" lon="4.79988">
        <ele>515</ele>
        <time>2012-01-22T10:11:09Z</time>
      </trkpt>
      <trkpt lat="45.82983" lon="4.7998">
        <ele>516</ele>
        <time>2012-01-22T10:11:18Z</time>
      </trkpt>
      <trkpt lat="45.82987" lon="4.79978">
        <ele>516</ele>
        <time>2012-01-22T10:11:21Z</time>
      </trkpt>
      <trkpt lat="45.82994" lon="4.79973">
        <ele>516</ele>
        <time>2012-01-22T10:11:27Z</time>
      </trkpt>
      <trkpt lat="45.83003" lon="4.79968">
        <ele>520</ele>
        <time>2012-01-22T10:11:36Z</time>
      </trkpt>
      <trkpt lat="45.83004" lon="4.79967">
        <ele>520</ele>
        <time>2012-01-22T10:11:37Z</time>
      </trkpt>
      <trkpt lat="45.83005" lon="4.79966">
        <ele>520</ele>
        <time>2012-01-22T10:11:38Z</time>
      </trkpt>
      <trkpt lat="45.83005" lon="4.79964">
        <ele>520</ele>
        <time>2012-01-22T10:11:43Z</time>
      </trkpt>
      <trkpt lat="45.83006" lon="4.79961">
        <ele>520</ele>
        <time>2012-01-22T10:11:51Z</time>
      </trkpt>
      <trkpt lat="45.83006" lon="4.79959">
        <ele>520</ele>
        <time>2012-01-22T10:12:00Z</time>
      </trkpt>
      <trkpt lat="45.83006" lon="4.79955">
        <ele>519</ele>
        <time>2012-01-22T10:13:17Z</time>
      </trkpt>
      <trkpt lat="45.83005" lon="4.79956">
        <ele>519</ele>
        <time>2012-01-22T10:13:34Z</time>
      </trkpt>
      <trkpt lat="45.83006" lon="4.79954">
        <ele>519</ele>
        <time>2012-01-22T10:13:45Z</time>
      </trkpt>
      <trkpt lat="45.83007" lon="4.79954">
        <ele>519</ele>
        <time>2012-01-22T10:13:47Z</time>
      </trkpt>
      <trkpt lat="45.83008" lon="4.79955">
        <ele>519</ele>
        <time>2012-01-22T10:13:57Z</time>
      </trkpt>
      <trkpt lat="45.83012" lon="4.79953">
        <ele>519</ele>
        <time>2012-01-22T10:14:07Z</time>
      </trkpt>
      <trkpt lat="45.83019" lon="4.7995">
        <ele>519</ele>
        <time>2012-01-22T10:14:12Z</time>
      </trkpt>
      <trkpt lat="45.83022" lon="4.79951">
        <ele>519</ele>
        <time>2012-01-22T10:14:16Z</time>
      </trkpt>
      <trkpt lat="45.83025" lon="4.79951">
        <ele>519</ele>
        <time>2012-01-22T10:14:18Z</time>
      </trkpt>
      <trkpt lat="45.83032" lon="4.79948">
        <ele>519</ele>
        <time>2012-01-22T10:14:24Z</time>
      </trkpt>
      <trkpt lat="45.83036" lon="4.79948">
        <ele>519</ele>
        <time>2012-01-22T10:14:28Z</time>
      </trkpt>
      <trkpt lat="45.83037" lon="4.79948">
        <ele>520</ele>
        <time>2012-01-22T10:14:30Z</time>
      </trkpt>
      <trkpt lat="45.8304" lon="4.79948">
        <ele>520</ele>
        <time>2012-01-22T10:14:33Z</time>
      </trkpt>
      <trkpt lat="45.83045" lon="4.79946">
        <ele>520</ele>
        <time>2012-01-22T10:14:36Z</time>
      </trkpt>
      <trkpt lat="45.8306" lon="4.79942">
        <ele>520</ele>
        <time>2012-01-22T10:14:42Z</time>
      </trkpt>
      <trkpt lat="45.83074" lon="4.79939">
        <ele>520</ele>
        <time>2012-01-22T10:14:48Z</time>
      </trkpt>
      <trkpt lat="45.83079" lon="4.79939">
        <ele>520</ele>
        <time>2012-01-22T10:14:50Z</time>
      </trkpt>
      <trkpt lat="45.83087" lon="4.79936">
        <ele>520</ele>
        <time>2012-01-22T10:14:53Z</time>
      </trkpt>
      <trkpt lat="45.83098" lon="4.79934">
        <ele>520</ele>
        <time>2012-01-22T10:14:58Z</time>
      </trkpt>
      <trkpt lat="45.83105" lon="4.79932">
        <ele>520</ele>
        <time>2012-01-22T10:15:01Z</time>
      </trkpt>
      <trkpt lat="45.8311" lon="4.79932">
        <ele>520</ele>
        <time>2012-01-22T10:15:04Z</time>
      </trkpt>
      <trkpt lat="45.83118" lon="4.79931">
        <ele>520</ele>
        <time>2012-01-22T10:15:08Z</time>
      </trkpt>
      <trkpt lat="45.83122" lon="4.79932">
        <ele>520</ele>
        <time>2012-01-22T10:15:10Z</time>
      </trkpt>
      <trkpt lat="45.8313" lon="4.79935">
        <ele>520</ele>
        <time>2012-01-22T10:15:15Z</time>
      </trkpt>
      <trkpt lat="45.83137" lon="4.79935">
        <ele>519</ele>
        <time>2012-01-22T10:15:18Z</time>
      </trkpt>
      <trkpt lat="45.83138" lon="4.79935">
        <ele>519</ele>
        <time>2012-01-22T10:15:19Z</time>
      </trkpt>
      <trkpt lat="45.83148" lon="4.79932">
        <ele>519</ele>
        <time>2012-01-22T10:15:23Z</time>
      </trkpt>
      <trkpt lat="45.8315" lon="4.79933">
        <ele>519</ele>
        <time>2012-01-22T10:15:24Z</time>
      </trkpt>
      <trkpt lat="45.83154" lon="4.79935">
        <ele>519</ele>
        <time>2012-01-22T10:15:28Z</time>
      </trkpt>
      <trkpt lat="45.8316" lon="4.79936">
        <ele>519</ele>
        <time>2012-01-22T10:15:31Z</time>
      </trkpt>
      <trkpt lat="45.83163" lon="4.79938">
        <ele>519</ele>
        <time>2012-01-22T10:15:33Z</time>
      </trkpt>
      <trkpt lat="45.83165" lon="4.79939">
        <ele>519</ele>
        <time>2012-01-22T10:15:34Z</time>
      </trkpt>
      <trkpt lat="45.8317" lon="4.79941">
        <ele>514</ele>
        <time>2012-01-22T10:15:36Z</time>
      </trkpt>
      <trkpt lat="45.83171" lon="4.79942">
        <ele>514</ele>
        <time>2012-01-22T10:15:37Z</time>
      </trkpt>
      <trkpt lat="45.83173" lon="4.79944">
        <ele>514</ele>
        <time>2012-01-22T10:15:38Z</time>
      </trkpt>
      <trkpt lat="45.83177" lon="4.79947">
        <ele>513</ele>
        <time>2012-01-22T10:15:41Z</time>
      </trkpt>
      <trkpt lat="45.83178" lon="4.79951">
        <ele>513</ele>
        <time>2012-01-22T10:15:42Z</time>
      </trkpt>
      <trkpt lat="45.83182" lon="4.79962">
        <ele>513</ele>
        <time>2012-01-22T10:15:46Z</time>
      </trkpt>
      <trkpt lat="45.83183" lon="4.79964">
        <ele>513</ele>
        <time>2012-01-22T10:15:47Z</time>
      </trkpt>
      <trkpt lat="45.83183" lon="4.79965">
        <ele>513</ele>
        <time>2012-01-22T10:15:48Z</time>
      </trkpt>
      <trkpt lat="45.83185" lon="4.79967">
        <ele>513</ele>
        <time>2012-01-22T10:15:51Z</time>
      </trkpt>
      <trkpt lat="45.83186" lon="4.79967">
        <ele>513</ele>
        <time>2012-01-22T10:15:52Z</time>
      </trkpt>
      <trkpt lat="45.83198" lon="4.79966">
        <ele>512</ele>
        <time>2012-01-22T10:15:57Z</time>
      </trkpt>
      <trkpt lat="45.83199" lon="4.79966">
        <ele>512</ele>
        <time>2012-01-22T10:15:58Z</time>
      </trkpt>
      <trkpt lat="45.83203" lon="4.79964">
        <ele>511</ele>
        <time>2012-01-22T10:16:00Z</time>
      </trkpt>
      <trkpt lat="45.83205" lon="4.79964">
        <ele>511</ele>
        <time>2012-01-22T10:16:01Z</time>
      </trkpt>
      <trkpt lat="45.83214" lon="4.79966">
        <ele>510</ele>
        <time>2012-01-22T10:16:05Z</time>
      </trkpt>
      <trkpt lat="45.83216" lon="4.79967">
        <ele>510</ele>
        <time>2012-01-22T10:16:06Z</time>
      </trkpt>
      <trkpt lat="45.83222" lon="4.79974">
        <ele>510</ele>
        <time>2012-01-22T10:16:09Z</time>
      </trkpt>
      <trkpt lat="45.83224" lon="4.79976">
        <ele>509</ele>
        <time>2012-01-22T10:16:10Z</time>
      </trkpt>
      <trkpt lat="45.83231" lon="4.79987">
        <ele>508</ele>
        <time>2012-01-22T10:16:14Z</time>
      </trkpt>
      <trkpt lat="45.83232" lon="4.79989">
        <ele>508</ele>
        <time>2012-01-22T10:16:15Z</time>
      </trkpt>
      <trkpt lat="45.83236" lon="4.79993">
        <ele>507</ele>
        <time>2012-01-22T10:16:17Z</time>
      </trkpt>
      <trkpt lat="45.83238" lon="4.79996">
        <ele>506</ele>
        <time>2012-01-22T10:16:18Z</time>
      </trkpt>
      <trkpt lat="45.83247" lon="4.79992">
        <ele>505</ele>
        <time>2012-01-22T10:16:22Z</time>
      </trkpt>
      <trkpt lat="45.83252" lon="4.79989">
        <ele>503</ele>
        <time>2012-01-22T10:16:24Z</time>
      </trkpt>
      <trkpt lat="45.83259" lon="4.79985">
        <ele>503</ele>
        <time>2012-01-22T10:16:27Z</time>
      </trkpt>
      <trkpt lat="45.8326" lon="4.79984">
        <ele>502</ele>
        <time>2012-01-22T10:16:28Z</time>
      </trkpt>
      <trkpt lat="45.83268" lon="4.79982">
        <ele>502</ele>
        <time>2012-01-22T10:16:31Z</time>
      </trkpt>
      <trkpt lat="45.83271" lon="4.79982">
        <ele>502</ele>
        <time>2012-01-22T10:16:32Z</time>
      </trkpt>
      <trkpt lat="45.83276" lon="4.79978">
        <ele>502</ele>
        <time>2012-01-22T10:16:35Z</time>
      </trkpt>
      <trkpt lat="45.83285" lon="4.79978">
        <ele>502</ele>
        <time>2012-01-22T10:16:39Z</time>
      </trkpt>
      <trkpt lat="45.83288" lon="4.79978">
        <ele>502</ele>
        <time>2012-01-22T10:16:40Z</time>
      </trkpt>
      <trkpt lat="45.83296" lon="4.79975">
        <ele>502</ele>
        <time>2012-01-22T10:16:43Z</time>
      </trkpt>
      <trkpt lat="45.83301" lon="4.79971">
        <ele>502</ele>
        <time>2012-01-22T10:16:46Z</time>
      </trkpt>
      <trkpt lat="45.83303" lon="4.79972">
        <ele>502</ele>
        <time>2012-01-22T10:16:47Z</time>
      </trkpt>
      <trkpt lat="45.83306" lon="4.79976">
        <ele>502</ele>
        <time>2012-01-22T10:16:49Z</time>
      </trkpt>
      <trkpt lat="45.83314" lon="4.79978">
        <ele>501</ele>
        <time>2012-01-22T10:16:52Z</time>
      </trkpt>
      <trkpt lat="45.83322" lon="4.79976">
        <ele>501</ele>
        <time>2012-01-22T10:16:55Z</time>
      </trkpt>
      <trkpt lat="45.83324" lon="4.79976">
        <ele>501</ele>
        <time>2012-01-22T10:16:56Z</time>
      </trkpt>
      <trkpt lat="45.83329" lon="4.79976">
        <ele>501</ele>
        <time>2012-01-22T10:16:58Z</time>
      </trkpt>
      <trkpt lat="45.83343" lon="4.79971">
        <ele>500</ele>
        <time>2012-01-22T10:17:04Z</time>
      </trkpt>
      <trkpt lat="45.83345" lon="4.7997">
        <ele>500</ele>
        <time>2012-01-22T10:17:05Z</time>
      </trkpt>
      <trkpt lat="45.83362" lon="4.79965">
        <ele>500</ele>
        <time>2012-01-22T10:17:12Z</time>
      </trkpt>
      <trkpt lat="45.83372" lon="4.79962">
        <ele>500</ele>
        <time>2012-01-22T10:17:18Z</time>
      </trkpt>
      <trkpt lat="45.83374" lon="4.79962">
        <ele>500</ele>
        <time>2012-01-22T10:17:21Z</time>
      </trkpt>
      <trkpt lat="45.83374" lon="4.79961">
        <ele>500</ele>
        <time>2012-01-22T10:17:24Z</time>
      </trkpt>
      <trkpt lat="45.83372" lon="4.79959">
        <ele>500</ele>
        <time>2012-01-22T10:18:23Z</time>
      </trkpt>
      <trkpt lat="45.83371" lon="4.79959">
        <ele>500</ele>
        <time>2012-01-22T10:18:53Z</time>
      </trkpt>
      <trkpt lat="45.83371" lon="4.7996">
        <ele>500</ele>
        <time>2012-01-22T10:19:07Z</time>
      </trkpt>
      <trkpt lat="45.83372" lon="4.7996">
        <ele>500</ele>
        <time>2012-01-22T10:19:10Z</time>
      </trkpt>
      <trkpt lat="45.83371" lon="4.7996">
        <ele>500</ele>
        <time>2012-01-22T10:19:19Z</time>
      </trkpt>
      <trkpt lat="45.83373" lon="4.79955">
        <ele>500</ele>
        <time>2012-01-22T10:20:32Z</time>
      </trkpt>
      <trkpt lat="45.8338" lon="4.79951">
        <ele>500</ele>
        <time>2012-01-22T10:20:36Z</time>
      </trkpt>
      <trkpt lat="45.83385" lon="4.7995">
        <ele>500</ele>
        <time>2012-01-22T10:20:38Z</time>
      </trkpt>
      <trkpt lat="45.83398" lon="4.79945">
        <ele>501</ele>
        <time>2012-01-22T10:20:43Z</time>
      </trkpt>
      <trkpt lat="45.83414" lon="4.79941">
        <ele>501</ele>
        <time>2012-01-22T10:20:49Z</time>
      </trkpt>
      <trkpt lat="45.83416" lon="4.7994">
        <ele>501</ele>
        <time>2012-01-22T10:20:50Z</time>
      </trkpt>
      <trkpt lat="45.83426" lon="4.79936">
        <ele>503</ele>
        <time>2012-01-22T10:20:54Z</time>
      </trkpt>
      <trkpt lat="45.83435" lon="4.79932">
        <ele>503</ele>
        <time>2012-01-22T10:20:58Z</time>
      </trkpt>
      <trkpt lat="45.8344" lon="4.79931">
        <ele>503</ele>
        <time>2012-01-22T10:21:00Z</time>
      </trkpt>
      <trkpt lat="45.83455" lon="4.79925">
        <ele>504</ele>
        <time>2012-01-22T10:21:06Z</time>
      </trkpt>
      <trkpt lat="45.83464" lon="4.79912">
        <ele>502</ele>
        <time>2012-01-22T10:21:11Z</time>
      </trkpt>
      <trkpt lat="45.83467" lon="4.79903">
        <ele>501</ele>
        <time>2012-01-22T10:21:14Z</time>
      </trkpt>
      <trkpt lat="45.83469" lon="4.79897">
        <ele>501</ele>
        <time>2012-01-22T10:21:16Z</time>
      </trkpt>
      <trkpt lat="45.83471" lon="4.79875">
        <ele>499</ele>
        <time>2012-01-22T10:21:22Z</time>
      </trkpt>
      <trkpt lat="45.83474" lon="4.79856">
        <ele>498</ele>
        <time>2012-01-22T10:21:27Z</time>
      </trkpt>
      <trkpt lat="45.83476" lon="4.79849">
        <ele>498</ele>
        <time>2012-01-22T10:21:29Z</time>
      </trkpt>
      <trkpt lat="45.83478" lon="4.79833">
        <ele>490</ele>
        <time>2012-01-22T10:21:33Z</time>
      </trkpt>
      <trkpt lat="45.8348" lon="4.79824">
        <ele>490</ele>
        <time>2012-01-22T10:21:35Z</time>
      </trkpt>
      <trkpt lat="45.83484" lon="4.7981">
        <ele>488</ele>
        <time>2012-01-22T10:21:38Z</time>
      </trkpt>
      <trkpt lat="45.83488" lon="4.79799">
        <ele>487</ele>
        <time>2012-01-22T10:21:41Z</time>
      </trkpt>
      <trkpt lat="45.83489" lon="4.79792">
        <ele>486</ele>
        <time>2012-01-22T10:21:43Z</time>
      </trkpt>
      <trkpt lat="45.83492" lon="4.79772">
        <ele>484</ele>
        <time>2012-01-22T10:21:49Z</time>
      </trkpt>
      <trkpt lat="45.83487" lon="4.79749">
        <ele>479</ele>
        <time>2012-01-22T10:21:53Z</time>
      </trkpt>
      <trkpt lat="45.83486" lon="4.79744">
        <ele>478</ele>
        <time>2012-01-22T10:21:54Z</time>
      </trkpt>
      <trkpt lat="45.83483" lon="4.79719">
        <ele>476</ele>
        <time>2012-01-22T10:21:59Z</time>
      </trkpt>
      <trkpt lat="45.83483" lon="4.79714">
        <ele>476</ele>
        <time>2012-01-22T10:22:00Z</time>
      </trkpt>
      <trkpt lat="45.83485" lon="4.79697">
        <ele>475</ele>
        <time>2012-01-22T10:22:04Z</time>
      </trkpt>
      <trkpt lat="45.83485" lon="4.79688">
        <ele>475</ele>
        <time>2012-01-22T10:22:06Z</time>
      </trkpt>
      <trkpt lat="45.83485" lon="4.79678">
        <ele>475</ele>
        <time>2012-01-22T10:22:08Z</time>
      </trkpt>
      <trkpt lat="45.83485" lon="4.79659">
        <ele>474</ele>
        <time>2012-01-22T10:22:12Z</time>
      </trkpt>
      <trkpt lat="45.83484" lon="4.79655">
        <ele>474</ele>
        <time>2012-01-22T10:22:13Z</time>
      </trkpt>
      <trkpt lat="45.83484" lon="4.79634">
        <ele>473</ele>
        <time>2012-01-22T10:22:18Z</time>
      </trkpt>
      <trkpt lat="45.83483" lon="4.7963">
        <ele>473</ele>
        <time>2012-01-22T10:22:19Z</time>
      </trkpt>
      <trkpt lat="45.83481" lon="4.79618">
        <ele>473</ele>
        <time>2012-01-22T10:22:22Z</time>
      </trkpt>
      <trkpt lat="45.83478" lon="4.79615">
        <ele>473</ele>
        <time>2012-01-22T10:22:23Z</time>
      </trkpt>
      <trkpt lat="45.8347" lon="4.79612">
        <ele>473</ele>
        <time>2012-01-22T10:22:26Z</time>
      </trkpt>
      <trkpt lat="45.83464" lon="4.79611">
        <ele>472</ele>
        <time>2012-01-22T10:22:28Z</time>
      </trkpt>
      <trkpt lat="45.83462" lon="4.79612">
        <ele>472</ele>
        <time>2012-01-22T10:22:29Z</time>
      </trkpt>
      <trkpt lat="45.83455" lon="4.79611">
        <ele>472</ele>
        <time>2012-01-22T10:22:32Z</time>
      </trkpt>
      <trkpt lat="45.83451" lon="4.7961">
        <ele>472</ele>
        <time>2012-01-22T10:22:33Z</time>
      </trkpt>
      <trkpt lat="45.83444" lon="4.79604">
        <ele>472</ele>
        <time>2012-01-22T10:22:36Z</time>
      </trkpt>
      <trkpt lat="45.83444" lon="4.79601">
        <ele>472</ele>
        <time>2012-01-22T10:22:37Z</time>
      </trkpt>
      <trkpt lat="45.83445" lon="4.79588">
        <ele>472</ele>
        <time>2012-01-22T10:22:41Z</time>
      </trkpt>
      <trkpt lat="45.83446" lon="4.79585">
        <ele>472</ele>
        <time>2012-01-22T10:22:42Z</time>
      </trkpt>
      <trkpt lat="45.83448" lon="4.79565">
        <ele>473</ele>
        <time>2012-01-22T10:22:48Z</time>
      </trkpt>
      <trkpt lat="45.83449" lon="4.79562">
        <ele>473</ele>
        <time>2012-01-22T10:22:49Z</time>
      </trkpt>
      <trkpt lat="45.83448" lon="4.79546">
        <ele>473</ele>
        <time>2012-01-22T10:22:53Z</time>
      </trkpt>
      <trkpt lat="45.83446" lon="4.79544">
        <ele>473</ele>
        <time>2012-01-22T10:22:54Z</time>
      </trkpt>
      <trkpt lat="45.8344" lon="4.79539">
        <ele>473</ele>
        <time>2012-01-22T10:22:57Z</time>
      </trkpt>
      <trkpt lat="45.83434" lon="4.79537">
        <ele>473</ele>
        <time>2012-01-22T10:22:59Z</time>
      </trkpt>
      <trkpt lat="45.83424" lon="4.79534">
        <ele>473</ele>
        <time>2012-01-22T10:23:03Z</time>
      </trkpt>
      <trkpt lat="45.83421" lon="4.79534">
        <ele>473</ele>
        <time>2012-01-22T10:23:04Z</time>
      </trkpt>
      <trkpt lat="45.83411" lon="4.79532">
        <ele>470</ele>
        <time>2012-01-22T10:23:08Z</time>
      </trkpt>
      <trkpt lat="45.834" lon="4.79532">
        <ele>470</ele>
        <time>2012-01-22T10:23:12Z</time>
      </trkpt>
      <trkpt lat="45.83395" lon="4.79532">
        <ele>470</ele>
        <time>2012-01-22T10:23:14Z</time>
      </trkpt>
      <trkpt lat="45.83384" lon="4.79524">
        <ele>470</ele>
        <time>2012-01-22T10:23:19Z</time>
      </trkpt>
      <trkpt lat="45.83383" lon="4.79522">
        <ele>470</ele>
        <time>2012-01-22T10:23:20Z</time>
      </trkpt>
      <trkpt lat="45.83379" lon="4.79515">
        <ele>470</ele>
        <time>2012-01-22T10:23:24Z</time>
      </trkpt>
      <trkpt lat="45.83369" lon="4.79502">
        <ele>470</ele>
        <time>2012-01-22T10:23:32Z</time>
      </trkpt>
      <trkpt lat="45.83365" lon="4.79489">
        <ele>472</ele>
        <time>2012-01-22T10:23:39Z</time>
      </trkpt>
      <trkpt lat="45.83366" lon="4.79477">
        <ele>473</ele>
        <time>2012-01-22T10:23:45Z</time>
      </trkpt>
      <trkpt lat="45.83366" lon="4.7947">
        <ele>473</ele>
        <time>2012-01-22T10:23:48Z</time>
      </trkpt>
      <trkpt lat="45.83361" lon="4.79452">
        <ele>474</ele>
        <time>2012-01-22T10:23:57Z</time>
      </trkpt>
      <trkpt lat="45.83353" lon="4.79439">
        <ele>474</ele>
        <time>2012-01-22T10:24:05Z</time>
      </trkpt>
      <trkpt lat="45.83349" lon="4.79432">
        <ele>475</ele>
        <time>2012-01-22T10:24:09Z</time>
      </trkpt>
      <trkpt lat="45.83342" lon="4.79424">
        <ele>475</ele>
        <time>2012-01-22T10:24:15Z</time>
      </trkpt>
      <trkpt lat="45.83334" lon="4.79416">
        <ele>476</ele>
        <time>2012-01-22T10:24:21Z</time>
      </trkpt>
      <trkpt lat="45.83331" lon="4.79414">
        <ele>476</ele>
        <time>2012-01-22T10:24:23Z</time>
      </trkpt>
      <trkpt lat="45.83319" lon="4.79408">
        <ele>477</ele>
        <time>2012-01-22T10:24:31Z</time>
      </trkpt>
      <trkpt lat="45.83316" lon="4.79407">
        <ele>477</ele>
        <time>2012-01-22T10:24:33Z</time>
      </trkpt>
      <trkpt lat="45.83307" lon="4.79404">
        <ele>477</ele>
        <time>2012-01-22T10:24:39Z</time>
      </trkpt>
      <trkpt lat="45.83301" lon="4.79401">
        <ele>478</ele>
        <time>2012-01-22T10:24:43Z</time>
      </trkpt>
      <trkpt lat="45.83297" lon="4.794">
        <ele>477</ele>
        <time>2012-01-22T10:24:45Z</time>
      </trkpt>
      <trkpt lat="45.83285" lon="4.79395">
        <ele>477</ele>
        <time>2012-01-22T10:24:52Z</time>
      </trkpt>
      <trkpt lat="45.83279" lon="4.7939">
        <ele>477</ele>
        <time>2012-01-22T10:24:57Z</time>
      </trkpt>
      <trkpt lat="45.83277" lon="4.79389">
        <ele>477</ele>
        <time>2012-01-22T10:24:59Z</time>
      </trkpt>
      <trkpt lat="45.83276" lon="4.79387">
        <ele>477</ele>
        <time>2012-01-22T10:25:02Z</time>
      </trkpt>
      <trkpt lat="45.83276" lon="4.79383">
        <ele>478</ele>
        <time>2012-01-22T10:25:04Z</time>
      </trkpt>
      <trkpt lat="45.83278" lon="4.79369">
        <ele>479</ele>
        <time>2012-01-22T10:25:12Z</time>
      </trkpt>
      <trkpt lat="45.83279" lon="4.79368">
        <ele>479</ele>
        <time>2012-01-22T10:25:13Z</time>
      </trkpt>
      <trkpt lat="45.83279" lon="4.79366">
        <ele>479</ele>
        <time>2012-01-22T10:25:17Z</time>
      </trkpt>
      <trkpt lat="45.83279" lon="4.79365">
        <ele>479</ele>
        <time>2012-01-22T10:25:18Z</time>
      </trkpt>
      <trkpt lat="45.83282" lon="4.79351">
        <ele>480</ele>
        <time>2012-01-22T10:25:26Z</time>
      </trkpt>
      <trkpt lat="45.83283" lon="4.79342">
        <ele>480</ele>
        <time>2012-01-22T10:25:33Z</time>
      </trkpt>
      <trkpt lat="45.83282" lon="4.7934">
        <ele>480</ele>
        <time>2012-01-22T10:25:37Z</time>
      </trkpt>
      <trkpt lat="45.83275" lon="4.79337">
        <ele>480</ele>
        <time>2012-01-22T10:28:46Z</time>
      </trkpt>
      <trkpt lat="45.83274" lon="4.79337">
        <ele>480</ele>
        <time>2012-01-22T10:28:51Z</time>
      </trkpt>
      <trkpt lat="45.83271" lon="4.79336">
        <ele>481</ele>
        <time>2012-01-22T10:28:54Z</time>
      </trkpt>
      <trkpt lat="45.83264" lon="4.79332">
        <ele>485</ele>
        <time>2012-01-22T10:29:00Z</time>
      </trkpt>
      <trkpt lat="45.83262" lon="4.79331">
        <ele>484</ele>
        <time>2012-01-22T10:29:06Z</time>
      </trkpt>
      <trkpt lat="45.83253" lon="4.79329">
        <ele>483</ele>
        <time>2012-01-22T10:29:10Z</time>
      </trkpt>
      <trkpt lat="45.83251" lon="4.79328">
        <ele>483</ele>
        <time>2012-01-22T10:29:11Z</time>
      </trkpt>
      <trkpt lat="45.83238" lon="4.79323">
        <ele>483</ele>
        <time>2012-01-22T10:29:17Z</time>
      </trkpt>
      <trkpt lat="45.83234" lon="4.79321">
        <ele>483</ele>
        <time>2012-01-22T10:29:19Z</time>
      </trkpt>
      <trkpt lat="45.83226" lon="4.79319">
        <ele>484</ele>
        <time>2012-01-22T10:29:22Z</time>
      </trkpt>
      <trkpt lat="45.83216" lon="4.79313">
        <ele>484</ele>
        <time>2012-01-22T10:29:27Z</time>
      </trkpt>
      <trkpt lat="45.83214" lon="4.79312">
        <ele>484</ele>
        <time>2012-01-22T10:29:28Z</time>
      </trkpt>
      <trkpt lat="45.83201" lon="4.79307">
        <ele>484</ele>
        <time>2012-01-22T10:29:33Z</time>
      </trkpt>
      <trkpt lat="45.83198" lon="4.79306">
        <ele>484</ele>
        <time>2012-01-22T10:29:34Z</time>
      </trkpt>
      <trkpt lat="45.83188" lon="4.79304">
        <ele>483</ele>
        <time>2012-01-22T10:29:38Z</time>
      </trkpt>
      <trkpt lat="45.8318" lon="4.79302">
        <ele>483</ele>
        <time>2012-01-22T10:29:41Z</time>
      </trkpt>
      <trkpt lat="45.83175" lon="4.79301">
        <ele>483</ele>
        <time>2012-01-22T10:29:43Z</time>
      </trkpt>
      <trkpt lat="45.83163" lon="4.79297">
        <ele>480</ele>
        <time>2012-01-22T10:29:48Z</time>
      </trkpt>
      <trkpt lat="45.83161" lon="4.79295">
        <ele>481</ele>
        <time>2012-01-22T10:29:49Z</time>
      </trkpt>
      <trkpt lat="45.83161" lon="4.79291">
        <ele>481</ele>
        <time>2012-01-22T10:29:51Z</time>
      </trkpt>
      <trkpt lat="45.83169" lon="4.79288">
        <ele>485</ele>
        <time>2012-01-22T10:29:55Z</time>
      </trkpt>
      <trkpt lat="45.83174" lon="4.79288">
        <ele>485</ele>
        <time>2012-01-22T10:29:57Z</time>
      </trkpt>
      <trkpt lat="45.83176" lon="4.79288">
        <ele>485</ele>
        <time>2012-01-22T10:29:58Z</time>
      </trkpt>
      <trkpt lat="45.83179" lon="4.79286">
        <ele>485</ele>
        <time>2012-01-22T10:30:00Z</time>
      </trkpt>
      <trkpt lat="45.8318" lon="4.79285">
        <ele>485</ele>
        <time>2012-01-22T10:30:01Z</time>
      </trkpt>
      <trkpt lat="45.83185" lon="4.79277">
        <ele>486</ele>
        <time>2012-01-22T10:30:07Z</time>
      </trkpt>
      <trkpt lat="45.8319" lon="4.7927">
        <ele>486</ele>
        <time>2012-01-22T10:30:14Z</time>
      </trkpt>
      <trkpt lat="45.83191" lon="4.79268">
        <ele>487</ele>
        <time>2012-01-22T10:30:15Z</time>
      </trkpt>
      <trkpt lat="45.83197" lon="4.79258">
        <ele>487</ele>
        <time>2012-01-22T10:30:22Z</time>
      </trkpt>
      <trkpt lat="45.83202" lon="4.7925">
        <ele>494</ele>
        <time>2012-01-22T10:30:28Z</time>
      </trkpt>
      <trkpt lat="45.83203" lon="4.79247">
        <ele>494</ele>
        <time>2012-01-22T10:30:30Z</time>
      </trkpt>
      <trkpt lat="45.83208" lon="4.79237">
        <ele>494</ele>
        <time>2012-01-22T10:30:36Z</time>
      </trkpt>
      <trkpt lat="45.83213" lon="4.79229">
        <ele>495</ele>
        <time>2012-01-22T10:30:42Z</time>
      </trkpt>
      <trkpt lat="45.83215" lon="4.79225">
        <ele>495</ele>
        <time>2012-01-22T10:30:45Z</time>
      </trkpt>
      <trkpt lat="45.83218" lon="4.79212">
        <ele>496</ele>
        <time>2012-01-22T10:30:52Z</time>
      </trkpt>
      <trkpt lat="45.83221" lon="4.79204">
        <ele>497</ele>
        <time>2012-01-22T10:30:57Z</time>
      </trkpt>
      <trkpt lat="45.83223" lon="4.79197">
        <ele>497</ele>
        <time>2012-01-22T10:31:01Z</time>
      </trkpt>
      <trkpt lat="45.83227" lon="4.79179">
        <ele>499</ele>
        <time>2012-01-22T10:31:10Z</time>
      </trkpt>
      <trkpt lat="45.83232" lon="4.79167">
        <ele>500</ele>
        <time>2012-01-22T10:31:19Z</time>
      </trkpt>
      <trkpt lat="45.83231" lon="4.79161">
        <ele>505</ele>
        <time>2012-01-22T10:31:22Z</time>
      </trkpt>
      <trkpt lat="45.83232" lon="4.79156">
        <ele>505</ele>
        <time>2012-01-22T10:31:24Z</time>
      </trkpt>
      <trkpt lat="45.83234" lon="4.79153">
        <ele>505</ele>
        <time>2012-01-22T10:31:26Z</time>
      </trkpt>
      <trkpt lat="45.83235" lon="4.79152">
        <ele>505</ele>
        <time>2012-01-22T10:31:27Z</time>
      </trkpt>
      <trkpt lat="45.83237" lon="4.79142">
        <ele>505</ele>
        <time>2012-01-22T10:31:32Z</time>
      </trkpt>
      <trkpt lat="45.83241" lon="4.79126">
        <ele>506</ele>
        <time>2012-01-22T10:31:40Z</time>
      </trkpt>
      <trkpt lat="45.83241" lon="4.79124">
        <ele>506</ele>
        <time>2012-01-22T10:31:41Z</time>
      </trkpt>
      <trkpt lat="45.83246" lon="4.79113">
        <ele>507</ele>
        <time>2012-01-22T10:31:48Z</time>
      </trkpt>
      <trkpt lat="45.8325" lon="4.79102">
        <ele>511</ele>
        <time>2012-01-22T10:31:55Z</time>
      </trkpt>
      <trkpt lat="45.83251" lon="4.79098">
        <ele>511</ele>
        <time>2012-01-22T10:31:57Z</time>
      </trkpt>
      <trkpt lat="45.83255" lon="4.79083">
        <ele>514</ele>
        <time>2012-01-22T10:32:05Z</time>
      </trkpt>
      <trkpt lat="45.83258" lon="4.7908">
        <ele>514</ele>
        <time>2012-01-22T10:32:08Z</time>
      </trkpt>
      <trkpt lat="45.83259" lon="4.79079">
        <ele>514</ele>
        <time>2012-01-22T10:32:09Z</time>
      </trkpt>
      <trkpt lat="45.83259" lon="4.79077">
        <ele>515</ele>
        <time>2012-01-22T10:32:10Z</time>
      </trkpt>
      <trkpt lat="45.83262" lon="4.79071">
        <ele>515</ele>
        <time>2012-01-22T10:32:14Z</time>
      </trkpt>
      <trkpt lat="45.83264" lon="4.79071">
        <ele>515</ele>
        <time>2012-01-22T10:32:15Z</time>
      </trkpt>
      <trkpt lat="45.83272" lon="4.79073">
        <ele>516</ele>
        <time>2012-01-22T10:32:23Z</time>
      </trkpt>
      <trkpt lat="45.83275" lon="4.79074">
        <ele>516</ele>
        <time>2012-01-22T10:32:25Z</time>
      </trkpt>
      <trkpt lat="45.8328" lon="4.79076">
        <ele>516</ele>
        <time>2012-01-22T10:32:29Z</time>
      </trkpt>
      <trkpt lat="45.83293" lon="4.79078">
        <ele>516</ele>
        <time>2012-01-22T10:32:38Z</time>
      </trkpt>
      <trkpt lat="45.83301" lon="4.7908">
        <ele>516</ele>
        <time>2012-01-22T10:32:45Z</time>
      </trkpt>
      <trkpt lat="45.83311" lon="4.79076">
        <ele>516</ele>
        <time>2012-01-22T10:32:52Z</time>
      </trkpt>
      <trkpt lat="45.83314" lon="4.79075">
        <ele>516</ele>
        <time>2012-01-22T10:32:54Z</time>
      </trkpt>
      <trkpt lat="45.83316" lon="4.79069">
        <ele>516</ele>
        <time>2012-01-22T10:32:58Z</time>
      </trkpt>
      <trkpt lat="45.83319" lon="4.79056">
        <ele>517</ele>
        <time>2012-01-22T10:33:06Z</time>
      </trkpt>
      <trkpt lat="45.83321" lon="4.79053">
        <ele>517</ele>
        <time>2012-01-22T10:33:08Z</time>
      </trkpt>
      <trkpt lat="45.83324" lon="4.79048">
        <ele>517</ele>
        <time>2012-01-22T10:33:12Z</time>
      </trkpt>
      <trkpt lat="45.83331" lon="4.7904">
        <ele>518</ele>
        <time>2012-01-22T10:33:19Z</time>
      </trkpt>
      <trkpt lat="45.83335" lon="4.79035">
        <ele>520</ele>
        <time>2012-01-22T10:33:23Z</time>
      </trkpt>
      <trkpt lat="45.83336" lon="4.79031">
        <ele>520</ele>
        <time>2012-01-22T10:33:26Z</time>
      </trkpt>
      <trkpt lat="45.83338" lon="4.79018">
        <ele>521</ele>
        <time>2012-01-22T10:33:34Z</time>
      </trkpt>
      <trkpt lat="45.83338" lon="4.79009">
        <ele>522</ele>
        <time>2012-01-22T10:33:40Z</time>
      </trkpt>
      <trkpt lat="45.83338" lon="4.79006">
        <ele>522</ele>
        <time>2012-01-22T10:33:42Z</time>
      </trkpt>
      <trkpt lat="45.8334" lon="4.78996">
        <ele>525</ele>
        <time>2012-01-22T10:33:49Z</time>
      </trkpt>
      <trkpt lat="45.83339" lon="4.78987">
        <ele>526</ele>
        <time>2012-01-22T10:33:54Z</time>
      </trkpt>
      <trkpt lat="45.83339" lon="4.78982">
        <ele>526</ele>
        <time>2012-01-22T10:33:57Z</time>
      </trkpt>
      <trkpt lat="45.8334" lon="4.78975">
        <ele>527</ele>
        <time>2012-01-22T10:34:01Z</time>
      </trkpt>
      <trkpt lat="45.8334" lon="4.78967">
        <ele>528</ele>
        <time>2012-01-22T10:34:05Z</time>
      </trkpt>
      <trkpt lat="45.83342" lon="4.78956">
        <ele>529</ele>
        <time>2012-01-22T10:34:13Z</time>
      </trkpt>
      <trkpt lat="45.83342" lon="4.78955">
        <ele>529</ele>
        <time>2012-01-22T10:34:14Z</time>
      </trkpt>
      <trkpt lat="45.83342" lon="4.78951">
        <ele>529</ele>
        <time>2012-01-22T10:34:16Z</time>
      </trkpt>
      <trkpt lat="45.83341" lon="4.78949">
        <ele>529</ele>
        <time>2012-01-22T10:34:18Z</time>
      </trkpt>
      <trkpt lat="45.83341" lon="4.78946">
        <ele>529</ele>
        <time>2012-01-22T10:34:20Z</time>
      </trkpt>
      <trkpt lat="45.83341" lon="4.78937">
        <ele>530</ele>
        <time>2012-01-22T10:34:27Z</time>
      </trkpt>
      <trkpt lat="45.83341" lon="4.78935">
        <ele>530</ele>
        <time>2012-01-22T10:34:28Z</time>
      </trkpt>
      <trkpt lat="45.83341" lon="4.78927">
        <ele>531</ele>
        <time>2012-01-22T10:34:33Z</time>
      </trkpt>
      <trkpt lat="45.83341" lon="4.78922">
        <ele>531</ele>
        <time>2012-01-22T10:34:36Z</time>
      </trkpt>
      <trkpt lat="45.83342" lon="4.78913">
        <ele>534</ele>
        <time>2012-01-22T10:34:42Z</time>
      </trkpt>
      <trkpt lat="45.83342" lon="4.78911">
        <ele>534</ele>
        <time>2012-01-22T10:34:43Z</time>
      </trkpt>
      <trkpt lat="45.83341" lon="4.78902">
        <ele>535</ele>
        <time>2012-01-22T10:34:47Z</time>
      </trkpt>
      <trkpt lat="45.8334" lon="4.78898">
        <ele>536</ele>
        <time>2012-01-22T10:34:49Z</time>
      </trkpt>
      <trkpt lat="45.83339" lon="4.78888">
        <ele>537</ele>
        <time>2012-01-22T10:34:54Z</time>
      </trkpt>
      <trkpt lat="45.83339" lon="4.78887">
        <ele>537</ele>
        <time>2012-01-22T10:34:55Z</time>
      </trkpt>
      <trkpt lat="45.83336" lon="4.78873">
        <ele>538</ele>
        <time>2012-01-22T10:35:01Z</time>
      </trkpt>
      <trkpt lat="45.83335" lon="4.78868">
        <ele>538</ele>
        <time>2012-01-22T10:35:03Z</time>
      </trkpt>
      <trkpt lat="45.83335" lon="4.78858">
        <ele>539</ele>
        <time>2012-01-22T10:35:09Z</time>
      </trkpt>
      <trkpt lat="45.83335" lon="4.78856">
        <ele>539</ele>
        <time>2012-01-22T10:35:12Z</time>
      </trkpt>
      <trkpt lat="45.83334" lon="4.78856">
        <ele>539</ele>
        <time>2012-01-22T10:35:16Z</time>
      </trkpt>
      <trkpt lat="45.83332" lon="4.78861">
        <ele>535</ele>
        <time>2012-01-22T10:35:25Z</time>
      </trkpt>
      <trkpt lat="45.83332" lon="4.78862">
        <ele>535</ele>
        <time>2012-01-22T10:35:26Z</time>
      </trkpt>
      <trkpt lat="45.83331" lon="4.78865">
        <ele>534</ele>
        <time>2012-01-22T10:35:34Z</time>
      </trkpt>
      <trkpt lat="45.83331" lon="4.78866">
        <ele>534</ele>
        <time>2012-01-22T10:35:37Z</time>
      </trkpt>
      <trkpt lat="45.83332" lon="4.78863">
        <ele>535</ele>
        <time>2012-01-22T10:35:47Z</time>
      </trkpt>
      <trkpt lat="45.83332" lon="4.78856">
        <ele>535</ele>
        <time>2012-01-22T10:35:52Z</time>
      </trkpt>
      <trkpt lat="45.83333" lon="4.78851">
        <ele>536</ele>
        <time>2012-01-22T10:35:55Z</time>
      </trkpt>
      <trkpt lat="45.83333" lon="4.78849">
        <ele>537</ele>
        <time>2012-01-22T10:35:56Z</time>
      </trkpt>
      <trkpt lat="45.83334" lon="4.78845">
        <ele>540</ele>
        <time>2012-01-22T10:35:59Z</time>
      </trkpt>
      <trkpt lat="45.83334" lon="4.78843">
        <ele>540</ele>
        <time>2012-01-22T10:36:00Z</time>
      </trkpt>
      <trkpt lat="45.83334" lon="4.78841">
        <ele>540</ele>
        <time>2012-01-22T10:36:01Z</time>
      </trkpt>
      <trkpt lat="45.83335" lon="4.78836">
        <ele>541</ele>
        <time>2012-01-22T10:36:04Z</time>
      </trkpt>
      <trkpt lat="45.83335" lon="4.78833">
        <ele>541</ele>
        <time>2012-01-22T10:36:06Z</time>
      </trkpt>
      <trkpt lat="45.83337" lon="4.78823">
        <ele>542</ele>
        <time>2012-01-22T10:36:12Z</time>
      </trkpt>
      <trkpt lat="45.83335" lon="4.78816">
        <ele>542</ele>
        <time>2012-01-22T10:36:16Z</time>
      </trkpt>
      <trkpt lat="45.83335" lon="4.78814">
        <ele>542</ele>
        <time>2012-01-22T10:36:17Z</time>
      </trkpt>
      <trkpt lat="45.83336" lon="4.78812">
        <ele>542</ele>
        <time>2012-01-22T10:36:19Z</time>
      </trkpt>
      <trkpt lat="45.83336" lon="4.78809">
        <ele>542</ele>
        <time>2012-01-22T10:36:23Z</time>
      </trkpt>
      <trkpt lat="45.83333" lon="4.78805">
        <ele>536</ele>
        <time>2012-01-22T10:36:26Z</time>
      </trkpt>
      <trkpt lat="45.83332" lon="4.78805">
        <ele>536</ele>
        <time>2012-01-22T10:36:27Z</time>
      </trkpt>
      <trkpt lat="45.83327" lon="4.78804">
        <ele>535</ele>
        <time>2012-01-22T10:36:30Z</time>
      </trkpt>
      <trkpt lat="45.83326" lon="4.78805">
        <ele>535</ele>
        <time>2012-01-22T10:36:31Z</time>
      </trkpt>
      <trkpt lat="45.83324" lon="4.78806">
        <ele>535</ele>
        <time>2012-01-22T10:36:32Z</time>
      </trkpt>
      <trkpt lat="45.83322" lon="4.78807">
        <ele>535</ele>
        <time>2012-01-22T10:36:33Z</time>
      </trkpt>
      <trkpt lat="45.83312" lon="4.78814">
        <ele>535</ele>
        <time>2012-01-22T10:36:38Z</time>
      </trkpt>
      <trkpt lat="45.83304" lon="4.7882">
        <ele>534</ele>
        <time>2012-01-22T10:36:42Z</time>
      </trkpt>
      <trkpt lat="45.8329" lon="4.7883">
        <ele>533</ele>
        <time>2012-01-22T10:36:48Z</time>
      </trkpt>
      <trkpt lat="45.83286" lon="4.78834">
        <ele>532</ele>
        <time>2012-01-22T10:36:50Z</time>
      </trkpt>
      <trkpt lat="45.83281" lon="4.78838">
        <ele>532</ele>
        <time>2012-01-22T10:36:52Z</time>
      </trkpt>
      <trkpt lat="45.8327" lon="4.78842">
        <ele>531</ele>
        <time>2012-01-22T10:36:56Z</time>
      </trkpt>
      <trkpt lat="45.83267" lon="4.78842">
        <ele>530</ele>
        <time>2012-01-22T10:36:57Z</time>
      </trkpt>
      <trkpt lat="45.83253" lon="4.78849">
        <ele>530</ele>
        <time>2012-01-22T10:37:02Z</time>
      </trkpt>
      <trkpt lat="45.83248" lon="4.78852">
        <ele>524</ele>
        <time>2012-01-22T10:37:04Z</time>
      </trkpt>
      <trkpt lat="45.83239" lon="4.78858">
        <ele>524</ele>
        <time>2012-01-22T10:37:07Z</time>
      </trkpt>
      <trkpt lat="45.83232" lon="4.78866">
        <ele>523</ele>
        <time>2012-01-22T10:37:10Z</time>
      </trkpt>
      <trkpt lat="45.83223" lon="4.78871">
        <ele>522</ele>
        <time>2012-01-22T10:37:13Z</time>
      </trkpt>
      <trkpt lat="45.83215" lon="4.78878">
        <ele>521</ele>
        <time>2012-01-22T10:37:16Z</time>
      </trkpt>
      <trkpt lat="45.8321" lon="4.78881">
        <ele>521</ele>
        <time>2012-01-22T10:37:18Z</time>
      </trkpt>
      <trkpt lat="45.83196" lon="4.78888">
        <ele>520</ele>
        <time>2012-01-22T10:37:23Z</time>
      </trkpt>
      <trkpt lat="45.83181" lon="4.78893">
        <ele>519</ele>
        <time>2012-01-22T10:37:29Z</time>
      </trkpt>
      <trkpt lat="45.83179" lon="4.78892">
        <ele>519</ele>
        <time>2012-01-22T10:37:30Z</time>
      </trkpt>
      <trkpt lat="45.83178" lon="4.78891">
        <ele>519</ele>
        <time>2012-01-22T10:37:31Z</time>
      </trkpt>
      <trkpt lat="45.83179" lon="4.78886">
        <ele>519</ele>
        <time>2012-01-22T10:37:33Z</time>
      </trkpt>
      <trkpt lat="45.83182" lon="4.78882">
        <ele>519</ele>
        <time>2012-01-22T10:37:35Z</time>
      </trkpt>
      <trkpt lat="45.83187" lon="4.78876">
        <ele>520</ele>
        <time>2012-01-22T10:37:38Z</time>
      </trkpt>
      <trkpt lat="45.83191" lon="4.78872">
        <ele>520</ele>
        <time>2012-01-22T10:37:40Z</time>
      </trkpt>
      <trkpt lat="45.83196" lon="4.78863">
        <ele>520</ele>
        <time>2012-01-22T10:37:44Z</time>
      </trkpt>
      <trkpt lat="45.83202" lon="4.78852">
        <ele>520</ele>
        <time>2012-01-22T10:37:48Z</time>
      </trkpt>
      <trkpt lat="45.83205" lon="4.78846">
        <ele>520</ele>
        <time>2012-01-22T10:37:50Z</time>
      </trkpt>
      <trkpt lat="45.83215" lon="4.78828">
        <ele>519</ele>
        <time>2012-01-22T10:37:56Z</time>
      </trkpt>
      <trkpt lat="45.83217" lon="4.78825">
        <ele>519</ele>
        <time>2012-01-22T10:37:57Z</time>
      </trkpt>
      <trkpt lat="45.83223" lon="4.78818">
        <ele>520</ele>
        <time>2012-01-22T10:38:00Z</time>
      </trkpt>
      <trkpt lat="45.83229" lon="4.78812">
        <ele>520</ele>
        <time>2012-01-22T10:38:03Z</time>
      </trkpt>
      <trkpt lat="45.83233" lon="4.78808">
        <ele>520</ele>
        <time>2012-01-22T10:38:05Z</time>
      </trkpt>
      <trkpt lat="45.83242" lon="4.78799">
        <ele>520</ele>
        <time>2012-01-22T10:38:09Z</time>
      </trkpt>
      <trkpt lat="45.83244" lon="4.78797">
        <ele>520</ele>
        <time>2012-01-22T10:38:10Z</time>
      </trkpt>
      <trkpt lat="45.83252" lon="4.7879">
        <ele>529</ele>
        <time>2012-01-22T10:38:14Z</time>
      </trkpt>
      <trkpt lat="45.8326" lon="4.78782">
        <ele>529</ele>
        <time>2012-01-22T10:38:18Z</time>
      </trkpt>
      <trkpt lat="45.83264" lon="4.78779">
        <ele>529</ele>
        <time>2012-01-22T10:38:20Z</time>
      </trkpt>
      <trkpt lat="45.83275" lon="4.78773">
        <ele>530</ele>
        <time>2012-01-22T10:38:25Z</time>
      </trkpt>
      <trkpt lat="45.83278" lon="4.78769">
        <ele>530</ele>
        <time>2012-01-22T10:38:27Z</time>
      </trkpt>
      <trkpt lat="45.83284" lon="4.78762">
        <ele>530</ele>
        <time>2012-01-22T10:38:31Z</time>
      </trkpt>
      <trkpt lat="45.83292" lon="4.78751">
        <ele>531</ele>
        <time>2012-01-22T10:38:37Z</time>
      </trkpt>
      <trkpt lat="45.83293" lon="4.7875">
        <ele>527</ele>
        <time>2012-01-22T10:38:38Z</time>
      </trkpt>
      <trkpt lat="45.83303" lon="4.78744">
        <ele>529</ele>
        <time>2012-01-22T10:38:43Z</time>
      </trkpt>
      <trkpt lat="45.8331" lon="4.78738">
        <ele>530</ele>
        <time>2012-01-22T10:38:47Z</time>
      </trkpt>
      <trkpt lat="45.83313" lon="4.78734">
        <ele>530</ele>
        <time>2012-01-22T10:38:49Z</time>
      </trkpt>
      <trkpt lat="45.83322" lon="4.78732">
        <ele>531</ele>
        <time>2012-01-22T10:38:54Z</time>
      </trkpt>
      <trkpt lat="45.83329" lon="4.78732">
        <ele>532</ele>
        <time>2012-01-22T10:38:58Z</time>
      </trkpt>
      <trkpt lat="45.83336" lon="4.7873">
        <ele>539</ele>
        <time>2012-01-22T10:39:03Z</time>
      </trkpt>
      <trkpt lat="45.83343" lon="4.78724">
        <ele>539</ele>
        <time>2012-01-22T10:39:10Z</time>
      </trkpt>
      <trkpt lat="45.83347" lon="4.78722">
        <ele>539</ele>
        <time>2012-01-22T10:39:14Z</time>
      </trkpt>
      <trkpt lat="45.83349" lon="4.78721">
        <ele>539</ele>
        <time>2012-01-22T10:39:16Z</time>
      </trkpt>
      <trkpt lat="45.83352" lon="4.7872">
        <ele>539</ele>
        <time>2012-01-22T10:39:19Z</time>
      </trkpt>
      <trkpt lat="45.83353" lon="4.78719">
        <ele>539</ele>
        <time>2012-01-22T10:39:20Z</time>
      </trkpt>
      <trkpt lat="45.83362" lon="4.78717">
        <ele>539</ele>
        <time>2012-01-22T10:39:24Z</time>
      </trkpt>
      <trkpt lat="45.83366" lon="4.78715">
        <ele>540</ele>
        <time>2012-01-22T10:39:27Z</time>
      </trkpt>
      <trkpt lat="45.83372" lon="4.78716">
        <ele>540</ele>
        <time>2012-01-22T10:39:30Z</time>
      </trkpt>
      <trkpt lat="45.83375" lon="4.78715">
        <ele>540</ele>
        <time>2012-01-22T10:39:32Z</time>
      </trkpt>
      <trkpt lat="45.83382" lon="4.78715">
        <ele>541</ele>
        <time>2012-01-22T10:39:36Z</time>
      </trkpt>
      <trkpt lat="45.83385" lon="4.78714">
        <ele>541</ele>
        <time>2012-01-22T10:39:38Z</time>
      </trkpt>
      <trkpt lat="45.83393" lon="4.78712">
        <ele>542</ele>
        <time>2012-01-22T10:39:41Z</time>
      </trkpt>
      <trkpt lat="45.83402" lon="4.78704">
        <ele>542</ele>
        <time>2012-01-22T10:39:45Z</time>
      </trkpt>
      <trkpt lat="45.83405" lon="4.78702">
        <ele>542</ele>
        <time>2012-01-22T10:39:46Z</time>
      </trkpt>
      <trkpt lat="45.83417" lon="4.78695">
        <ele>550</ele>
        <time>2012-01-22T10:39:52Z</time>
      </trkpt>
      <trkpt lat="45.8342" lon="4.78694">
        <ele>550</ele>
        <time>2012-01-22T10:39:53Z</time>
      </trkpt>
      <trkpt lat="45.83429" lon="4.78688">
        <ele>550</ele>
        <time>2012-01-22T10:39:57Z</time>
      </trkpt>
      <trkpt lat="45.83434" lon="4.78674">
        <ele>549</ele>
        <time>2012-01-22T10:40:02Z</time>
      </trkpt>
      <trkpt lat="45.83437" lon="4.7867">
        <ele>549</ele>
        <time>2012-01-22T10:40:04Z</time>
      </trkpt>
      <trkpt lat="45.83442" lon="4.78662">
        <ele>547</ele>
        <time>2012-01-22T10:40:07Z</time>
      </trkpt>
      <trkpt lat="45.8345" lon="4.78656">
        <ele>548</ele>
        <time>2012-01-22T10:40:11Z</time>
      </trkpt>
      <trkpt lat="45.83454" lon="4.78653">
        <ele>548</ele>
        <time>2012-01-22T10:40:13Z</time>
      </trkpt>
      <trkpt lat="45.83465" lon="4.78642">
        <ele>549</ele>
        <time>2012-01-22T10:40:18Z</time>
      </trkpt>
      <trkpt lat="45.83476" lon="4.78631">
        <ele>550</ele>
        <time>2012-01-22T10:40:24Z</time>
      </trkpt>
      <trkpt lat="45.83482" lon="4.78628">
        <ele>550</ele>
        <time>2012-01-22T10:40:28Z</time>
      </trkpt>
      <trkpt lat="45.83484" lon="4.78626">
        <ele>550</ele>
        <time>2012-01-22T10:40:29Z</time>
      </trkpt>
      <trkpt lat="45.83494" lon="4.78617">
        <ele>550</ele>
        <time>2012-01-22T10:40:35Z</time>
      </trkpt>
      <trkpt lat="45.83498" lon="4.78613">
        <ele>551</ele>
        <time>2012-01-22T10:40:37Z</time>
      </trkpt>
      <trkpt lat="45.83502" lon="4.78606">
        <ele>559</ele>
        <time>2012-01-22T10:40:40Z</time>
      </trkpt>
      <trkpt lat="45.83504" lon="4.78605">
        <ele>559</ele>
        <time>2012-01-22T10:40:41Z</time>
      </trkpt>
      <trkpt lat="45.83511" lon="4.78596">
        <ele>558</ele>
        <time>2012-01-22T10:40:45Z</time>
      </trkpt>
      <trkpt lat="45.83514" lon="4.78594">
        <ele>558</ele>
        <time>2012-01-22T10:40:46Z</time>
      </trkpt>
      <trkpt lat="45.83523" lon="4.78584">
        <ele>559</ele>
        <time>2012-01-22T10:40:51Z</time>
      </trkpt>
      <trkpt lat="45.83529" lon="4.78575">
        <ele>556</ele>
        <time>2012-01-22T10:40:55Z</time>
      </trkpt>
      <trkpt lat="45.83531" lon="4.78573">
        <ele>556</ele>
        <time>2012-01-22T10:40:56Z</time>
      </trkpt>
      <trkpt lat="45.83539" lon="4.78565">
        <ele>557</ele>
        <time>2012-01-22T10:41:01Z</time>
      </trkpt>
      <trkpt lat="45.83545" lon="4.78557">
        <ele>557</ele>
        <time>2012-01-22T10:41:05Z</time>
      </trkpt>
      <trkpt lat="45.83547" lon="4.78554">
        <ele>557</ele>
        <time>2012-01-22T10:41:07Z</time>
      </trkpt>
      <trkpt lat="45.83548" lon="4.78552">
        <ele>557</ele>
        <time>2012-01-22T10:41:08Z</time>
      </trkpt>
      <trkpt lat="45.83553" lon="4.78544">
        <ele>557</ele>
        <time>2012-01-22T10:41:12Z</time>
      </trkpt>
      <trkpt lat="45.83555" lon="4.78536">
        <ele>557</ele>
        <time>2012-01-22T10:41:15Z</time>
      </trkpt>
      <trkpt lat="45.83557" lon="4.78529">
        <ele>557</ele>
        <time>2012-01-22T10:41:17Z</time>
      </trkpt>
      <trkpt lat="45.83558" lon="4.78526">
        <ele>557</ele>
        <time>2012-01-22T10:41:18Z</time>
      </trkpt>
      <trkpt lat="45.8356" lon="4.7852">
        <ele>557</ele>
        <time>2012-01-22T10:41:20Z</time>
      </trkpt>
      <trkpt lat="45.83565" lon="4.78513">
        <ele>558</ele>
        <time>2012-01-22T10:41:23Z</time>
      </trkpt>
      <trkpt lat="45.83569" lon="4.78506">
        <ele>558</ele>
        <time>2012-01-22T10:41:26Z</time>
      </trkpt>
      <trkpt lat="45.83573" lon="4.78498">
        <ele>556</ele>
        <time>2012-01-22T10:41:29Z</time>
      </trkpt>
      <trkpt lat="45.83578" lon="4.78492">
        <ele>556</ele>
        <time>2012-01-22T10:41:32Z</time>
      </trkpt>
      <trkpt lat="45.83582" lon="4.78487">
        <ele>555</ele>
        <time>2012-01-22T10:41:34Z</time>
      </trkpt>
      <trkpt lat="45.83584" lon="4.78484">
        <ele>561</ele>
        <time>2012-01-22T10:41:35Z</time>
      </trkpt>
      <trkpt lat="45.8359" lon="4.78472">
        <ele>560</ele>
        <time>2012-01-22T10:41:39Z</time>
      </trkpt>
      <trkpt lat="45.83592" lon="4.78469">
        <ele>560</ele>
        <time>2012-01-22T10:41:40Z</time>
      </trkpt>
      <trkpt lat="45.83599" lon="4.78458">
        <ele>559</ele>
        <time>2012-01-22T10:41:44Z</time>
      </trkpt>
      <trkpt lat="45.83605" lon="4.78448">
        <ele>559</ele>
        <time>2012-01-22T10:41:47Z</time>
      </trkpt>
      <trkpt lat="45.83607" lon="4.78444">
        <ele>559</ele>
        <time>2012-01-22T10:41:48Z</time>
      </trkpt>
      <trkpt lat="45.83618" lon="4.78436">
        <ele>559</ele>
        <time>2012-01-22T10:41:52Z</time>
      </trkpt>
      <trkpt lat="45.83621" lon="4.78434">
        <ele>559</ele>
        <time>2012-01-22T10:41:53Z</time>
      </trkpt>
      <trkpt lat="45.83631" lon="4.78425">
        <ele>559</ele>
        <time>2012-01-22T10:41:57Z</time>
      </trkpt>
      <trkpt lat="45.83637" lon="4.7842">
        <ele>560</ele>
        <time>2012-01-22T10:41:59Z</time>
      </trkpt>
      <trkpt lat="45.83643" lon="4.78417">
        <ele>555</ele>
        <time>2012-01-22T10:42:01Z</time>
      </trkpt>
      <trkpt lat="45.83653" lon="4.78407">
        <ele>556</ele>
        <time>2012-01-22T10:42:05Z</time>
      </trkpt>
      <trkpt lat="45.83655" lon="4.78405">
        <ele>556</ele>
        <time>2012-01-22T10:42:06Z</time>
      </trkpt>
      <trkpt lat="45.83669" lon="4.78398">
        <ele>556</ele>
        <time>2012-01-22T10:42:11Z</time>
      </trkpt>
      <trkpt lat="45.83671" lon="4.78397">
        <ele>556</ele>
        <time>2012-01-22T10:42:12Z</time>
      </trkpt>
      <trkpt lat="45.8368" lon="4.78391">
        <ele>555</ele>
        <time>2012-01-22T10:42:16Z</time>
      </trkpt>
      <trkpt lat="45.83685" lon="4.78388">
        <ele>554</ele>
        <time>2012-01-22T10:42:20Z</time>
      </trkpt>
      <trkpt lat="45.83689" lon="4.78389">
        <ele>554</ele>
        <time>2012-01-22T10:42:22Z</time>
      </trkpt>
      <trkpt lat="45.83695" lon="4.7839">
        <ele>554</ele>
        <time>2012-01-22T10:42:24Z</time>
      </trkpt>
      <trkpt lat="45.83709" lon="4.7839">
        <ele>554</ele>
        <time>2012-01-22T10:42:28Z</time>
      </trkpt>
      <trkpt lat="45.83713" lon="4.78391">
        <ele>554</ele>
        <time>2012-01-22T10:42:29Z</time>
      </trkpt>
      <trkpt lat="45.83727" lon="4.78391">
        <ele>555</ele>
        <time>2012-01-22T10:42:33Z</time>
      </trkpt>
      <trkpt lat="45.8373" lon="4.78391">
        <ele>555</ele>
        <time>2012-01-22T10:42:34Z</time>
      </trkpt>
      <trkpt lat="45.83744" lon="4.78393">
        <ele>556</ele>
        <time>2012-01-22T10:42:39Z</time>
      </trkpt>
      <trkpt lat="45.83749" lon="4.78394">
        <ele>556</ele>
        <time>2012-01-22T10:42:41Z</time>
      </trkpt>
      <trkpt lat="45.83758" lon="4.78392">
        <ele>556</ele>
        <time>2012-01-22T10:42:44Z</time>
      </trkpt>
      <trkpt lat="45.83769" lon="4.78389">
        <ele>555</ele>
        <time>2012-01-22T10:42:48Z</time>
      </trkpt>
      <trkpt lat="45.83771" lon="4.78388">
        <ele>555</ele>
        <time>2012-01-22T10:42:49Z</time>
      </trkpt>
      <trkpt lat="45.83783" lon="4.78386">
        <ele>555</ele>
        <time>2012-01-22T10:42:54Z</time>
      </trkpt>
      <trkpt lat="45.83788" lon="4.78384">
        <ele>555</ele>
        <time>2012-01-22T10:42:56Z</time>
      </trkpt>
      <trkpt lat="45.83796" lon="4.78382">
        <ele>555</ele>
        <time>2012-01-22T10:42:59Z</time>
      </trkpt>
      <trkpt lat="45.83808" lon="4.78377">
        <ele>554</ele>
        <time>2012-01-22T10:43:03Z</time>
      </trkpt>
      <trkpt lat="45.83811" lon="4.78376">
        <ele>554</ele>
        <time>2012-01-22T10:43:04Z</time>
      </trkpt>
      <trkpt lat="45.8382" lon="4.78379">
        <ele>555</ele>
        <time>2012-01-22T10:43:08Z</time>
      </trkpt>
      <trkpt lat="45.83822" lon="4.78378">
        <ele>555</ele>
        <time>2012-01-22T10:43:09Z</time>
      </trkpt>
      <trkpt lat="45.83828" lon="4.78376">
        <ele>555</ele>
        <time>2012-01-22T10:43:12Z</time>
      </trkpt>
      <trkpt lat="45.83836" lon="4.78372">
        <ele>556</ele>
        <time>2012-01-22T10:43:15Z</time>
      </trkpt>
      <trkpt lat="45.83845" lon="4.78366">
        <ele>555</ele>
        <time>2012-01-22T10:43:20Z</time>
      </trkpt>
      <trkpt lat="45.83848" lon="4.78365">
        <ele>555</ele>
        <time>2012-01-22T10:43:21Z</time>
      </trkpt>
      <trkpt lat="45.83863" lon="4.78363">
        <ele>555</ele>
        <time>2012-01-22T10:43:26Z</time>
      </trkpt>
      <trkpt lat="45.83866" lon="4.78364">
        <ele>556</ele>
        <time>2012-01-22T10:43:27Z</time>
      </trkpt>
      <trkpt lat="45.83871" lon="4.78367">
        <ele>556</ele>
        <time>2012-01-22T10:43:30Z</time>
      </trkpt>
      <trkpt lat="45.83872" lon="4.78369">
        <ele>556</ele>
        <time>2012-01-22T10:43:31Z</time>
      </trkpt>
      <trkpt lat="45.83881" lon="4.78369">
        <ele>557</ele>
        <time>2012-01-22T10:43:34Z</time>
      </trkpt>
      <trkpt lat="45.83884" lon="4.78369">
        <ele>557</ele>
        <time>2012-01-22T10:43:35Z</time>
      </trkpt>
      <trkpt lat="45.83895" lon="4.7837">
        <ele>557</ele>
        <time>2012-01-22T10:43:40Z</time>
      </trkpt>
      <trkpt lat="45.83897" lon="4.7837">
        <ele>557</ele>
        <time>2012-01-22T10:43:41Z</time>
      </trkpt>
      <trkpt lat="45.83899" lon="4.78369">
        <ele>557</ele>
        <time>2012-01-22T10:43:42Z</time>
      </trkpt>
      <trkpt lat="45.83905" lon="4.78368">
        <ele>556</ele>
        <time>2012-01-22T10:43:44Z</time>
      </trkpt>
      <trkpt lat="45.83909" lon="4.78369">
        <ele>557</ele>
        <time>2012-01-22T10:43:46Z</time>
      </trkpt>
      <trkpt lat="45.83918" lon="4.7837">
        <ele>558</ele>
        <time>2012-01-22T10:43:50Z</time>
      </trkpt>
      <trkpt lat="45.8392" lon="4.78369">
        <ele>558</ele>
        <time>2012-01-22T10:43:51Z</time>
      </trkpt>
      <trkpt lat="45.83929" lon="4.7837">
        <ele>558</ele>
        <time>2012-01-22T10:43:55Z</time>
      </trkpt>
      <trkpt lat="45.83936" lon="4.78369">
        <ele>558</ele>
        <time>2012-01-22T10:43:59Z</time>
      </trkpt>
      <trkpt lat="45.83947" lon="4.78368">
        <ele>558</ele>
        <time>2012-01-22T10:44:04Z</time>
      </trkpt>
      <trkpt lat="45.83955" lon="4.78369">
        <ele>558</ele>
        <time>2012-01-22T10:44:08Z</time>
      </trkpt>
      <trkpt lat="45.83961" lon="4.78368">
        <ele>558</ele>
        <time>2012-01-22T10:44:10Z</time>
      </trkpt>
      <trkpt lat="45.83975" lon="4.78365">
        <ele>557</ele>
        <time>2012-01-22T10:44:16Z</time>
      </trkpt>
      <trkpt lat="45.83986" lon="4.78362">
        <ele>557</ele>
        <time>2012-01-22T10:44:21Z</time>
      </trkpt>
      <trkpt lat="45.83995" lon="4.78362">
        <ele>556</ele>
        <time>2012-01-22T10:44:24Z</time>
      </trkpt>
      <trkpt lat="45.84" lon="4.78363">
        <ele>556</ele>
        <time>2012-01-22T10:44:26Z</time>
      </trkpt>
      <trkpt lat="45.84012" lon="4.7836">
        <ele>556</ele>
        <time>2012-01-22T10:44:30Z</time>
      </trkpt>
      <trkpt lat="45.84015" lon="4.7836">
        <ele>556</ele>
        <time>2012-01-22T10:44:31Z</time>
      </trkpt>
      <trkpt lat="45.84021" lon="4.78361">
        <ele>556</ele>
        <time>2012-01-22T10:44:35Z</time>
      </trkpt>
      <trkpt lat="45.84034" lon="4.78361">
        <ele>556</ele>
        <time>2012-01-22T10:44:40Z</time>
      </trkpt>
      <trkpt lat="45.84051" lon="4.78362">
        <ele>556</ele>
        <time>2012-01-22T10:44:47Z</time>
      </trkpt>
      <trkpt lat="45.84055" lon="4.78362">
        <ele>556</ele>
        <time>2012-01-22T10:44:48Z</time>
      </trkpt>
      <trkpt lat="45.84063" lon="4.78363">
        <ele>556</ele>
        <time>2012-01-22T10:44:51Z</time>
      </trkpt>
      <trkpt lat="45.84068" lon="4.78363">
        <ele>555</ele>
        <time>2012-01-22T10:44:54Z</time>
      </trkpt>
      <trkpt lat="45.84071" lon="4.78365">
        <ele>556</ele>
        <time>2012-01-22T10:44:55Z</time>
      </trkpt>
      <trkpt lat="45.84074" lon="4.78366">
        <ele>556</ele>
        <time>2012-01-22T10:44:56Z</time>
      </trkpt>
      <trkpt lat="45.84085" lon="4.78365">
        <ele>556</ele>
        <time>2012-01-22T10:45:00Z</time>
      </trkpt>
      <trkpt lat="45.84094" lon="4.78365">
        <ele>556</ele>
        <time>2012-01-22T10:45:03Z</time>
      </trkpt>
      <trkpt lat="45.84099" lon="4.78366">
        <ele>556</ele>
        <time>2012-01-22T10:45:05Z</time>
      </trkpt>
      <trkpt lat="45.84113" lon="4.78367">
        <ele>557</ele>
        <time>2012-01-22T10:45:11Z</time>
      </trkpt>
      <trkpt lat="45.84125" lon="4.78366">
        <ele>557</ele>
        <time>2012-01-22T10:45:16Z</time>
      </trkpt>
      <trkpt lat="45.84131" lon="4.78363">
        <ele>557</ele>
        <time>2012-01-22T10:45:19Z</time>
      </trkpt>
      <trkpt lat="45.84146" lon="4.7836">
        <ele>557</ele>
        <time>2012-01-22T10:45:24Z</time>
      </trkpt>
      <trkpt lat="45.84149" lon="4.78358">
        <ele>556</ele>
        <time>2012-01-22T10:45:25Z</time>
      </trkpt>
      <trkpt lat="45.8416" lon="4.78355">
        <ele>556</ele>
        <time>2012-01-22T10:45:29Z</time>
      </trkpt>
      <trkpt lat="45.84167" lon="4.78354">
        <ele>554</ele>
        <time>2012-01-22T10:45:32Z</time>
      </trkpt>
      <trkpt lat="45.84173" lon="4.78352">
        <ele>554</ele>
        <time>2012-01-22T10:45:34Z</time>
      </trkpt>
      <trkpt lat="45.84179" lon="4.78341">
        <ele>553</ele>
        <time>2012-01-22T10:45:39Z</time>
      </trkpt>
      <trkpt lat="45.84183" lon="4.78337">
        <ele>553</ele>
        <time>2012-01-22T10:45:41Z</time>
      </trkpt>
      <trkpt lat="45.84187" lon="4.7833">
        <ele>551</ele>
        <time>2012-01-22T10:45:44Z</time>
      </trkpt>
      <trkpt lat="45.84194" lon="4.78321">
        <ele>551</ele>
        <time>2012-01-22T10:45:48Z</time>
      </trkpt>
      <trkpt lat="45.84194" lon="4.78318">
        <ele>550</ele>
        <time>2012-01-22T10:45:49Z</time>
      </trkpt>
      <trkpt lat="45.84195" lon="4.78316">
        <ele>550</ele>
        <time>2012-01-22T10:45:50Z</time>
      </trkpt>
      <trkpt lat="45.84205" lon="4.78303">
        <ele>550</ele>
        <time>2012-01-22T10:45:56Z</time>
      </trkpt>
      <trkpt lat="45.84207" lon="4.78294">
        <ele>550</ele>
        <time>2012-01-22T10:46:00Z</time>
      </trkpt>
      <trkpt lat="45.84208" lon="4.78292">
        <ele>550</ele>
        <time>2012-01-22T10:46:01Z</time>
      </trkpt>
      <trkpt lat="45.84212" lon="4.78286">
        <ele>550</ele>
        <time>2012-01-22T10:46:08Z</time>
      </trkpt>
      <trkpt lat="45.84213" lon="4.78285">
        <ele>550</ele>
        <time>2012-01-22T10:46:09Z</time>
      </trkpt>
      <trkpt lat="45.84211" lon="4.78281">
        <ele>550</ele>
        <time>2012-01-22T10:46:13Z</time>
      </trkpt>
      <trkpt lat="45.84215" lon="4.78279">
        <ele>550</ele>
        <time>2012-01-22T10:46:24Z</time>
      </trkpt>
      <trkpt lat="45.84215" lon="4.78278">
        <ele>550</ele>
        <time>2012-01-22T10:46:33Z</time>
      </trkpt>
      <trkpt lat="45.84215" lon="4.78277">
        <ele>550</ele>
        <time>2012-01-22T10:46:41Z</time>
      </trkpt>
      <trkpt lat="45.84216" lon="4.7828">
        <ele>550</ele>
        <time>2012-01-22T10:46:57Z</time>
      </trkpt>
      <trkpt lat="45.84218" lon="4.78281">
        <ele>550</ele>
        <time>2012-01-22T10:46:58Z</time>
      </trkpt>
      <trkpt lat="45.84219" lon="4.78281">
        <ele>550</ele>
        <time>2012-01-22T10:46:59Z</time>
      </trkpt>
      <trkpt lat="45.84224" lon="4.78288">
        <ele>550</ele>
        <time>2012-01-22T10:47:04Z</time>
      </trkpt>
      <trkpt lat="45.84228" lon="4.78295">
        <ele>550</ele>
        <time>2012-01-22T10:47:07Z</time>
      </trkpt>
      <trkpt lat="45.8423" lon="4.78302">
        <ele>550</ele>
        <time>2012-01-22T10:47:09Z</time>
      </trkpt>
      <trkpt lat="45.84234" lon="4.78319">
        <ele>549</ele>
        <time>2012-01-22T10:47:14Z</time>
      </trkpt>
      <trkpt lat="45.84238" lon="4.78325">
        <ele>548</ele>
        <time>2012-01-22T10:47:16Z</time>
      </trkpt>
      <trkpt lat="45.84244" lon="4.78332">
        <ele>547</ele>
        <time>2012-01-22T10:47:19Z</time>
      </trkpt>
      <trkpt lat="45.84246" lon="4.78335">
        <ele>547</ele>
        <time>2012-01-22T10:47:20Z</time>
      </trkpt>
      <trkpt lat="45.84252" lon="4.78344">
        <ele>545</ele>
        <time>2012-01-22T10:47:23Z</time>
      </trkpt>
      <trkpt lat="45.84258" lon="4.78351">
        <ele>544</ele>
        <time>2012-01-22T10:47:26Z</time>
      </trkpt>
      <trkpt lat="45.84262" lon="4.78354">
        <ele>544</ele>
        <time>2012-01-22T10:47:28Z</time>
      </trkpt>
      <trkpt lat="45.84266" lon="4.78352">
        <ele>544</ele>
        <time>2012-01-22T10:47:30Z</time>
      </trkpt>
      <trkpt lat="45.84268" lon="4.78349">
        <ele>544</ele>
        <time>2012-01-22T10:47:31Z</time>
      </trkpt>
      <trkpt lat="45.84275" lon="4.78335">
        <ele>544</ele>
        <time>2012-01-22T10:47:35Z</time>
      </trkpt>
      <trkpt lat="45.84277" lon="4.78332">
        <ele>546</ele>
        <time>2012-01-22T10:47:36Z</time>
      </trkpt>
      <trkpt lat="45.8428" lon="4.78329">
        <ele>546</ele>
        <time>2012-01-22T10:47:37Z</time>
      </trkpt>
      <trkpt lat="45.84284" lon="4.78326">
        <ele>546</ele>
        <time>2012-01-22T10:47:39Z</time>
      </trkpt>
      <trkpt lat="45.84286" lon="4.78325">
        <ele>546</ele>
        <time>2012-01-22T10:47:40Z</time>
      </trkpt>
      <trkpt lat="45.84298" lon="4.78325">
        <ele>546</ele>
        <time>2012-01-22T10:47:44Z</time>
      </trkpt>
      <trkpt lat="45.84304" lon="4.78325">
        <ele>545</ele>
        <time>2012-01-22T10:47:46Z</time>
      </trkpt>
      <trkpt lat="45.84316" lon="4.7833">
        <ele>544</ele>
        <time>2012-01-22T10:47:50Z</time>
      </trkpt>
      <trkpt lat="45.84323" lon="4.78331">
        <ele>542</ele>
        <time>2012-01-22T10:47:52Z</time>
      </trkpt>
      <trkpt lat="45.84335" lon="4.78334">
        <ele>539</ele>
        <time>2012-01-22T10:47:56Z</time>
      </trkpt>
      <trkpt lat="45.84341" lon="4.78335">
        <ele>540</ele>
        <time>2012-01-22T10:47:59Z</time>
      </trkpt>
      <trkpt lat="45.84354" lon="4.78339">
        <ele>541</ele>
        <time>2012-01-22T10:48:03Z</time>
      </trkpt>
      <trkpt lat="45.84356" lon="4.78339">
        <ele>541</ele>
        <time>2012-01-22T10:48:04Z</time>
      </trkpt>
      <trkpt lat="45.84371" lon="4.78342">
        <ele>542</ele>
        <time>2012-01-22T10:48:09Z</time>
      </trkpt>
      <trkpt lat="45.84373" lon="4.78343">
        <ele>542</ele>
        <time>2012-01-22T10:48:10Z</time>
      </trkpt>
      <trkpt lat="45.84381" lon="4.7835">
        <ele>543</ele>
        <time>2012-01-22T10:48:14Z</time>
      </trkpt>
      <trkpt lat="45.84389" lon="4.78361">
        <ele>543</ele>
        <time>2012-01-22T10:48:18Z</time>
      </trkpt>
      <trkpt lat="45.84391" lon="4.78362">
        <ele>543</ele>
        <time>2012-01-22T10:48:19Z</time>
      </trkpt>
      <trkpt lat="45.84401" lon="4.78368">
        <ele>543</ele>
        <time>2012-01-22T10:48:23Z</time>
      </trkpt>
      <trkpt lat="45.84406" lon="4.78372">
        <ele>543</ele>
        <time>2012-01-22T10:48:25Z</time>
      </trkpt>
      <trkpt lat="45.84419" lon="4.78379">
        <ele>548</ele>
        <time>2012-01-22T10:48:29Z</time>
      </trkpt>
      <trkpt lat="45.84425" lon="4.78383">
        <ele>548</ele>
        <time>2012-01-22T10:48:31Z</time>
      </trkpt>
      <trkpt lat="45.8443" lon="4.78385">
        <ele>548</ele>
        <time>2012-01-22T10:48:33Z</time>
      </trkpt>
      <trkpt lat="45.8444" lon="4.78395">
        <ele>547</ele>
        <time>2012-01-22T10:48:38Z</time>
      </trkpt>
      <trkpt lat="45.84442" lon="4.78397">
        <ele>547</ele>
        <time>2012-01-22T10:48:39Z</time>
      </trkpt>
      <trkpt lat="45.84447" lon="4.78405">
        <ele>547</ele>
        <time>2012-01-22T10:48:42Z</time>
      </trkpt>
      <trkpt lat="45.8446" lon="4.78411">
        <ele>548</ele>
        <time>2012-01-22T10:48:47Z</time>
      </trkpt>
      <trkpt lat="45.84477" lon="4.78417">
        <ele>541</ele>
        <time>2012-01-22T10:48:52Z</time>
      </trkpt>
      <trkpt lat="45.8448" lon="4.78419">
        <ele>541</ele>
        <time>2012-01-22T10:48:53Z</time>
      </trkpt>
      <trkpt lat="45.84487" lon="4.7843">
        <ele>541</ele>
        <time>2012-01-22T10:48:57Z</time>
      </trkpt>
      <trkpt lat="45.84488" lon="4.78442">
        <ele>539</ele>
        <time>2012-01-22T10:49:00Z</time>
      </trkpt>
      <trkpt lat="45.84489" lon="4.78449">
        <ele>538</ele>
        <time>2012-01-22T10:49:02Z</time>
      </trkpt>
      <trkpt lat="45.84495" lon="4.78463">
        <ele>536</ele>
        <time>2012-01-22T10:49:07Z</time>
      </trkpt>
      <trkpt lat="45.84497" lon="4.78466">
        <ele>535</ele>
        <time>2012-01-22T10:49:08Z</time>
      </trkpt>
      <trkpt lat="45.84503" lon="4.78475">
        <ele>538</ele>
        <time>2012-01-22T10:49:11Z</time>
      </trkpt>
      <trkpt lat="45.84509" lon="4.78487">
        <ele>535</ele>
        <time>2012-01-22T10:49:15Z</time>
      </trkpt>
      <trkpt lat="45.84518" lon="4.78497">
        <ele>536</ele>
        <time>2012-01-22T10:49:19Z</time>
      </trkpt>
      <trkpt lat="45.84525" lon="4.78503">
        <ele>527</ele>
        <time>2012-01-22T10:49:22Z</time>
      </trkpt>
      <trkpt lat="45.8453" lon="4.78508">
        <ele>527</ele>
        <time>2012-01-22T10:49:24Z</time>
      </trkpt>
      <trkpt lat="45.84539" lon="4.78522">
        <ele>527</ele>
        <time>2012-01-22T10:49:29Z</time>
      </trkpt>
      <trkpt lat="45.84546" lon="4.78527">
        <ele>527</ele>
        <time>2012-01-22T10:49:34Z</time>
      </trkpt>
      <trkpt lat="45.84553" lon="4.78536">
        <ele>527</ele>
        <time>2012-01-22T10:49:40Z</time>
      </trkpt>
      <trkpt lat="45.84558" lon="4.78536">
        <ele>527</ele>
        <time>2012-01-22T10:49:41Z</time>
      </trkpt>
      <trkpt lat="45.8457" lon="4.78536">
        <ele>528</ele>
        <time>2012-01-22T10:49:45Z</time>
      </trkpt>
      <trkpt lat="45.84576" lon="4.78535">
        <ele>528</ele>
        <time>2012-01-22T10:49:48Z</time>
      </trkpt>
      <trkpt lat="45.84578" lon="4.78534">
        <ele>528</ele>
        <time>2012-01-22T10:49:50Z</time>
      </trkpt>
      <trkpt lat="45.84577" lon="4.78531">
        <ele>529</ele>
        <time>2012-01-22T10:49:54Z</time>
      </trkpt>
      <trkpt lat="45.84574" lon="4.78525">
        <ele>530</ele>
        <time>2012-01-22T10:49:58Z</time>
      </trkpt>
      <trkpt lat="45.84574" lon="4.78523">
        <ele>530</ele>
        <time>2012-01-22T10:49:59Z</time>
      </trkpt>
      <trkpt lat="45.84573" lon="4.78521">
        <ele>530</ele>
        <time>2012-01-22T10:50:01Z</time>
      </trkpt>
      <trkpt lat="45.84573" lon="4.78518">
        <ele>531</ele>
        <time>2012-01-22T10:50:04Z</time>
      </trkpt>
      <trkpt lat="45.84571" lon="4.78521">
        <ele>530</ele>
        <time>2012-01-22T10:50:12Z</time>
      </trkpt>
      <trkpt lat="45.84572" lon="4.78522">
        <ele>530</ele>
        <time>2012-01-22T10:50:20Z</time>
      </trkpt>
      <trkpt lat="45.84574" lon="4.78516">
        <ele>531</ele>
        <time>2012-01-22T10:50:29Z</time>
      </trkpt>
      <trkpt lat="45.84576" lon="4.78514">
        <ele>532</ele>
        <time>2012-01-22T10:50:30Z</time>
      </trkpt>
      <trkpt lat="45.84576" lon="4.78512">
        <ele>532</ele>
        <time>2012-01-22T10:50:32Z</time>
      </trkpt>
      <trkpt lat="45.84578" lon="4.7851">
        <ele>533</ele>
        <time>2012-01-22T10:50:34Z</time>
      </trkpt>
      <trkpt lat="45.8458" lon="4.78503">
        <ele>536</ele>
        <time>2012-01-22T10:50:39Z</time>
      </trkpt>
      <trkpt lat="45.84581" lon="4.78502">
        <ele>536</ele>
        <time>2012-01-22T10:50:40Z</time>
      </trkpt>
      <trkpt lat="45.84585" lon="4.78495">
        <ele>539</ele>
        <time>2012-01-22T10:50:44Z</time>
      </trkpt>
      <trkpt lat="45.84586" lon="4.78493">
        <ele>540</ele>
        <time>2012-01-22T10:50:45Z</time>
      </trkpt>
      <trkpt lat="45.84587" lon="4.78492">
        <ele>540</ele>
        <time>2012-01-22T10:50:46Z</time>
      </trkpt>
      <trkpt lat="45.8459" lon="4.78485">
        <ele>541</ele>
        <time>2012-01-22T10:50:51Z</time>
      </trkpt>
      <trkpt lat="45.84589" lon="4.78478">
        <ele>542</ele>
        <time>2012-01-22T10:50:57Z</time>
      </trkpt>
      <trkpt lat="45.84589" lon="4.78477">
        <ele>542</ele>
        <time>2012-01-22T10:50:58Z</time>
      </trkpt>
      <trkpt lat="45.84588" lon="4.78472">
        <ele>543</ele>
        <time>2012-01-22T10:51:01Z</time>
      </trkpt>
      <trkpt lat="45.84589" lon="4.78469">
        <ele>543</ele>
        <time>2012-01-22T10:51:03Z</time>
      </trkpt>
      <trkpt lat="45.84591" lon="4.78466">
        <ele>543</ele>
        <time>2012-01-22T10:51:05Z</time>
      </trkpt>
      <trkpt lat="45.8459" lon="4.78459">
        <ele>544</ele>
        <time>2012-01-22T10:51:10Z</time>
      </trkpt>
      <trkpt lat="45.84593" lon="4.78451">
        <ele>546</ele>
        <time>2012-01-22T10:51:16Z</time>
      </trkpt>
      <trkpt lat="45.84591" lon="4.78449">
        <ele>546</ele>
        <time>2012-01-22T10:51:18Z</time>
      </trkpt>
      <trkpt lat="45.84594" lon="4.78447">
        <ele>546</ele>
        <time>2012-01-22T10:51:22Z</time>
      </trkpt>
      <trkpt lat="45.84594" lon="4.78441">
        <ele>547</ele>
        <time>2012-01-22T10:51:26Z</time>
      </trkpt>
      <trkpt lat="45.84593" lon="4.78442">
        <ele>547</ele>
        <time>2012-01-22T10:51:28Z</time>
      </trkpt>
      <trkpt lat="45.84592" lon="4.7844">
        <ele>547</ele>
        <time>2012-01-22T10:51:30Z</time>
      </trkpt>
      <trkpt lat="45.84598" lon="4.78434">
        <ele>548</ele>
        <time>2012-01-22T10:51:35Z</time>
      </trkpt>
      <trkpt lat="45.84599" lon="4.78431">
        <ele>548</ele>
        <time>2012-01-22T10:51:37Z</time>
      </trkpt>
      <trkpt lat="45.84601" lon="4.78424">
        <ele>549</ele>
        <time>2012-01-22T10:51:43Z</time>
      </trkpt>
      <trkpt lat="45.846" lon="4.78424">
        <ele>549</ele>
        <time>2012-01-22T10:51:44Z</time>
      </trkpt>
      <trkpt lat="45.84603" lon="4.7842">
        <ele>549</ele>
        <time>2012-01-22T10:51:46Z</time>
      </trkpt>
      <trkpt lat="45.84606" lon="4.78418">
        <ele>548</ele>
        <time>2012-01-22T10:51:48Z</time>
      </trkpt>
      <trkpt lat="45.84611" lon="4.78415">
        <ele>557</ele>
        <time>2012-01-22T10:51:52Z</time>
      </trkpt>
      <trkpt lat="45.84614" lon="4.78414">
        <ele>557</ele>
        <time>2012-01-22T10:51:53Z</time>
      </trkpt>
      <trkpt lat="45.84622" lon="4.78413">
        <ele>557</ele>
        <time>2012-01-22T10:51:56Z</time>
      </trkpt>
      <trkpt lat="45.84625" lon="4.78411">
        <ele>557</ele>
        <time>2012-01-22T10:51:57Z</time>
      </trkpt>
      <trkpt lat="45.84638" lon="4.784">
        <ele>557</ele>
        <time>2012-01-22T10:52:02Z</time>
      </trkpt>
      <trkpt lat="45.84649" lon="4.78393">
        <ele>558</ele>
        <time>2012-01-22T10:52:07Z</time>
      </trkpt>
      <trkpt lat="45.84653" lon="4.78387">
        <ele>558</ele>
        <time>2012-01-22T10:52:12Z</time>
      </trkpt>
      <trkpt lat="45.84649" lon="4.78381">
        <ele>559</ele>
        <time>2012-01-22T10:52:16Z</time>
      </trkpt>
      <trkpt lat="45.8465" lon="4.78379">
        <ele>559</ele>
        <time>2012-01-22T10:52:17Z</time>
      </trkpt>
      <trkpt lat="45.84653" lon="4.78375">
        <ele>560</ele>
        <time>2012-01-22T10:52:19Z</time>
      </trkpt>
      <trkpt lat="45.84653" lon="4.78374">
        <ele>560</ele>
        <time>2012-01-22T10:52:20Z</time>
      </trkpt>
      <trkpt lat="45.84652" lon="4.78369">
        <ele>560</ele>
        <time>2012-01-22T10:52:25Z</time>
      </trkpt>
      <trkpt lat="45.84653" lon="4.78365">
        <ele>561</ele>
        <time>2012-01-22T10:52:27Z</time>
      </trkpt>
      <trkpt lat="45.84652" lon="4.78361">
        <ele>561</ele>
        <time>2012-01-22T10:52:30Z</time>
      </trkpt>
      <trkpt lat="45.84652" lon="4.7836">
        <ele>561</ele>
        <time>2012-01-22T10:52:31Z</time>
      </trkpt>
      <trkpt lat="45.84654" lon="4.78359">
        <ele>561</ele>
        <time>2012-01-22T10:52:32Z</time>
      </trkpt>
      <trkpt lat="45.84657" lon="4.78356">
        <ele>562</ele>
        <time>2012-01-22T10:52:34Z</time>
      </trkpt>
      <trkpt lat="45.84658" lon="4.78354">
        <ele>562</ele>
        <time>2012-01-22T10:52:36Z</time>
      </trkpt>
      <trkpt lat="45.84659" lon="4.78351">
        <ele>563</ele>
        <time>2012-01-22T10:52:39Z</time>
      </trkpt>
      <trkpt lat="45.84659" lon="4.7835">
        <ele>563</ele>
        <time>2012-01-22T10:52:40Z</time>
      </trkpt>
      <trkpt lat="45.8466" lon="4.78347">
        <ele>563</ele>
        <time>2012-01-22T10:52:43Z</time>
      </trkpt>
      <trkpt lat="45.8466" lon="4.78346">
        <ele>563</ele>
        <time>2012-01-22T10:52:46Z</time>
      </trkpt>
      <trkpt lat="45.84661" lon="4.7835">
        <ele>563</ele>
        <time>2012-01-22T10:52:49Z</time>
      </trkpt>
      <trkpt lat="45.84669" lon="4.78353">
        <ele>561</ele>
        <time>2012-01-22T10:52:54Z</time>
      </trkpt>
      <trkpt lat="45.84676" lon="4.78351">
        <ele>562</ele>
        <time>2012-01-22T10:53:07Z</time>
      </trkpt>
      <trkpt lat="45.84677" lon="4.78345">
        <ele>562</ele>
        <time>2012-01-22T10:53:11Z</time>
      </trkpt>
      <trkpt lat="45.84676" lon="4.78345">
        <ele>562</ele>
        <time>2012-01-22T10:53:12Z</time>
      </trkpt>
      <trkpt lat="45.84677" lon="4.78334">
        <ele>563</ele>
        <time>2012-01-22T10:53:19Z</time>
      </trkpt>
      <trkpt lat="45.84678" lon="4.78329">
        <ele>567</ele>
        <time>2012-01-22T10:53:22Z</time>
      </trkpt>
      <trkpt lat="45.84678" lon="4.78321">
        <ele>567</ele>
        <time>2012-01-22T10:53:26Z</time>
      </trkpt>
      <trkpt lat="45.84678" lon="4.78316">
        <ele>568</ele>
        <time>2012-01-22T10:53:28Z</time>
      </trkpt>
      <trkpt lat="45.8468" lon="4.7831">
        <ele>568</ele>
        <time>2012-01-22T10:53:30Z</time>
      </trkpt>
      <trkpt lat="45.84681" lon="4.78304">
        <ele>569</ele>
        <time>2012-01-22T10:53:32Z</time>
      </trkpt>
      <trkpt lat="45.84679" lon="4.78293">
        <ele>569</ele>
        <time>2012-01-22T10:53:37Z</time>
      </trkpt>
      <trkpt lat="45.84678" lon="4.78291">
        <ele>570</ele>
        <time>2012-01-22T10:53:38Z</time>
      </trkpt>
      <trkpt lat="45.84677" lon="4.78289">
        <ele>570</ele>
        <time>2012-01-22T10:53:39Z</time>
      </trkpt>
      <trkpt lat="45.84674" lon="4.78284">
        <ele>570</ele>
        <time>2012-01-22T10:53:42Z</time>
      </trkpt>
      <trkpt lat="45.84673" lon="4.78281">
        <ele>571</ele>
        <time>2012-01-22T10:53:44Z</time>
      </trkpt>
      <trkpt lat="45.84674" lon="4.78275">
        <ele>571</ele>
        <time>2012-01-22T10:53:48Z</time>
      </trkpt>
      <trkpt lat="45.84676" lon="4.78268">
        <ele>572</ele>
        <time>2012-01-22T10:53:53Z</time>
      </trkpt>
      <trkpt lat="45.84677" lon="4.78265">
        <ele>572</ele>
        <time>2012-01-22T10:53:55Z</time>
      </trkpt>
      <trkpt lat="45.84678" lon="4.78259">
        <ele>573</ele>
        <time>2012-01-22T10:53:59Z</time>
      </trkpt>
      <trkpt lat="45.84677" lon="4.78255">
        <ele>573</ele>
        <time>2012-01-22T10:54:02Z</time>
      </trkpt>
      <trkpt lat="45.84677" lon="4.78253">
        <ele>573</ele>
        <time>2012-01-22T10:54:04Z</time>
      </trkpt>
      <trkpt lat="45.84676" lon="4.78252">
        <ele>574</ele>
        <time>2012-01-22T10:54:05Z</time>
      </trkpt>
      <trkpt lat="45.84675" lon="4.78245">
        <ele>576</ele>
        <time>2012-01-22T10:54:09Z</time>
      </trkpt>
      <trkpt lat="45.84675" lon="4.78241">
        <ele>576</ele>
        <time>2012-01-22T10:54:11Z</time>
      </trkpt>
      <trkpt lat="45.84678" lon="4.78235">
        <ele>576</ele>
        <time>2012-01-22T10:54:15Z</time>
      </trkpt>
      <trkpt lat="45.84681" lon="4.78228">
        <ele>576</ele>
        <time>2012-01-22T10:54:19Z</time>
      </trkpt>
      <trkpt lat="45.84682" lon="4.78225">
        <ele>576</ele>
        <time>2012-01-22T10:54:22Z</time>
      </trkpt>
      <trkpt lat="45.84683" lon="4.78222">
        <ele>576</ele>
        <time>2012-01-22T10:54:25Z</time>
      </trkpt>
      <trkpt lat="45.84685" lon="4.78219">
        <ele>576</ele>
        <time>2012-01-22T10:54:29Z</time>
      </trkpt>
      <trkpt lat="45.8469" lon="4.78205">
        <ele>577</ele>
        <time>2012-01-22T10:54:36Z</time>
      </trkpt>
      <trkpt lat="45.84696" lon="4.78199">
        <ele>577</ele>
        <time>2012-01-22T10:54:41Z</time>
      </trkpt>
      <trkpt lat="45.84697" lon="4.78198">
        <ele>577</ele>
        <time>2012-01-22T10:54:42Z</time>
      </trkpt>
      <trkpt lat="45.84697" lon="4.78187">
        <ele>577</ele>
        <time>2012-01-22T10:54:49Z</time>
      </trkpt>
      <trkpt lat="45.84695" lon="4.78176">
        <ele>578</ele>
        <time>2012-01-22T10:54:54Z</time>
      </trkpt>
      <trkpt lat="45.84696" lon="4.78174">
        <ele>578</ele>
        <time>2012-01-22T10:54:55Z</time>
      </trkpt>
      <trkpt lat="45.84696" lon="4.78173">
        <ele>578</ele>
        <time>2012-01-22T10:54:56Z</time>
      </trkpt>
      <trkpt lat="45.84697" lon="4.78171">
        <ele>578</ele>
        <time>2012-01-22T10:54:57Z</time>
      </trkpt>
      <trkpt lat="45.84696" lon="4.78162">
        <ele>582</ele>
        <time>2012-01-22T10:55:01Z</time>
      </trkpt>
      <trkpt lat="45.84695" lon="4.78155">
        <ele>583</ele>
        <time>2012-01-22T10:55:04Z</time>
      </trkpt>
      <trkpt lat="45.84694" lon="4.78153">
        <ele>583</ele>
        <time>2012-01-22T10:55:05Z</time>
      </trkpt>
      <trkpt lat="45.84693" lon="4.78152">
        <ele>583</ele>
        <time>2012-01-22T10:55:06Z</time>
      </trkpt>
      <trkpt lat="45.84693" lon="4.78149">
        <ele>583</ele>
        <time>2012-01-22T10:55:08Z</time>
      </trkpt>
      <trkpt lat="45.84693" lon="4.78143">
        <ele>583</ele>
        <time>2012-01-22T10:55:12Z</time>
      </trkpt>
      <trkpt lat="45.84693" lon="4.78141">
        <ele>583</ele>
        <time>2012-01-22T10:55:13Z</time>
      </trkpt>
      <trkpt lat="45.84694" lon="4.7814">
        <ele>583</ele>
        <time>2012-01-22T10:55:14Z</time>
      </trkpt>
      <trkpt lat="45.84695" lon="4.78136">
        <ele>583</ele>
        <time>2012-01-22T10:55:17Z</time>
      </trkpt>
      <trkpt lat="45.84697" lon="4.78128">
        <ele>584</ele>
        <time>2012-01-22T10:55:22Z</time>
      </trkpt>
      <trkpt lat="45.84697" lon="4.78127">
        <ele>584</ele>
        <time>2012-01-22T10:55:23Z</time>
      </trkpt>
      <trkpt lat="45.84698" lon="4.78124">
        <ele>584</ele>
        <time>2012-01-22T10:55:25Z</time>
      </trkpt>
      <trkpt lat="45.84697" lon="4.78123">
        <ele>584</ele>
        <time>2012-01-22T10:55:26Z</time>
      </trkpt>
      <trkpt lat="45.847" lon="4.78118">
        <ele>584</ele>
        <time>2012-01-22T10:55:29Z</time>
      </trkpt>
      <trkpt lat="45.847" lon="4.78117">
        <ele>584</ele>
        <time>2012-01-22T10:55:30Z</time>
      </trkpt>
      <trkpt lat="45.84701" lon="4.7811">
        <ele>585</ele>
        <time>2012-01-22T10:55:34Z</time>
      </trkpt>
      <trkpt lat="45.847" lon="4.78099">
        <ele>585</ele>
        <time>2012-01-22T10:55:40Z</time>
      </trkpt>
      <trkpt lat="45.84701" lon="4.78098">
        <ele>585</ele>
        <time>2012-01-22T10:55:42Z</time>
      </trkpt>
      <trkpt lat="45.84701" lon="4.78096">
        <ele>585</ele>
        <time>2012-01-22T10:55:44Z</time>
      </trkpt>
      <trkpt lat="45.847" lon="4.78094">
        <ele>586</ele>
        <time>2012-01-22T10:55:46Z</time>
      </trkpt>
      <trkpt lat="45.847" lon="4.78089">
        <ele>586</ele>
        <time>2012-01-22T10:55:49Z</time>
      </trkpt>
      <trkpt lat="45.84699" lon="4.78087">
        <ele>586</ele>
        <time>2012-01-22T10:55:51Z</time>
      </trkpt>
      <trkpt lat="45.84699" lon="4.78084">
        <ele>586</ele>
        <time>2012-01-22T10:55:53Z</time>
      </trkpt>
      <trkpt lat="45.84698" lon="4.78082">
        <ele>591</ele>
        <time>2012-01-22T10:55:54Z</time>
      </trkpt>
      <trkpt lat="45.84697" lon="4.78079">
        <ele>591</ele>
        <time>2012-01-22T10:55:56Z</time>
      </trkpt>
      <trkpt lat="45.84696" lon="4.78076">
        <ele>591</ele>
        <time>2012-01-22T10:55:58Z</time>
      </trkpt>
      <trkpt lat="45.84695" lon="4.78073">
        <ele>591</ele>
        <time>2012-01-22T10:56:00Z</time>
      </trkpt>
      <trkpt lat="45.84695" lon="4.78072">
        <ele>591</ele>
        <time>2012-01-22T10:56:01Z</time>
      </trkpt>
      <trkpt lat="45.84694" lon="4.78069">
        <ele>591</ele>
        <time>2012-01-22T10:56:04Z</time>
      </trkpt>
      <trkpt lat="45.84695" lon="4.78064">
        <ele>591</ele>
        <time>2012-01-22T10:56:12Z</time>
      </trkpt>
      <trkpt lat="45.84691" lon="4.78061">
        <ele>591</ele>
        <time>2012-01-22T10:56:18Z</time>
      </trkpt>
      <trkpt lat="45.84691" lon="4.78059">
        <ele>591</ele>
        <time>2012-01-22T10:56:20Z</time>
      </trkpt>
      <trkpt lat="45.8469" lon="4.78057">
        <ele>591</ele>
        <time>2012-01-22T10:56:22Z</time>
      </trkpt>
      <trkpt lat="45.84689" lon="4.78053">
        <ele>591</ele>
        <time>2012-01-22T10:56:27Z</time>
      </trkpt>
      <trkpt lat="45.84689" lon="4.7805">
        <ele>591</ele>
        <time>2012-01-22T10:56:32Z</time>
      </trkpt>
      <trkpt lat="45.84689" lon="4.78049">
        <ele>591</ele>
        <time>2012-01-22T10:56:33Z</time>
      </trkpt>
      <trkpt lat="45.84689" lon="4.78048">
        <ele>591</ele>
        <time>2012-01-22T10:56:35Z</time>
      </trkpt>
      <trkpt lat="45.84689" lon="4.78045">
        <ele>591</ele>
        <time>2012-01-22T10:56:40Z</time>
      </trkpt>
      <trkpt lat="45.84688" lon="4.78041">
        <ele>591</ele>
        <time>2012-01-22T10:56:49Z</time>
      </trkpt>
      <trkpt lat="45.84689" lon="4.78038">
        <ele>591</ele>
        <time>2012-01-22T10:56:55Z</time>
      </trkpt>
      <trkpt lat="45.84689" lon="4.78038">
        <ele>591</ele>
        <time>2012-01-22T10:57:01Z</time>
      </trkpt>
      <trkpt lat="45.84688" lon="4.78029">
        <ele>591</ele>
        <time>2012-01-22T10:57:12Z</time>
      </trkpt>
      <trkpt lat="45.84688" lon="4.78027">
        <ele>592</ele>
        <time>2012-01-22T10:57:14Z</time>
      </trkpt>
      <trkpt lat="45.84687" lon="4.78023">
        <ele>592</ele>
        <time>2012-01-22T10:57:16Z</time>
      </trkpt>
      <trkpt lat="45.84686" lon="4.7802">
        <ele>592</ele>
        <time>2012-01-22T10:57:18Z</time>
      </trkpt>
      <trkpt lat="45.84686" lon="4.78019">
        <ele>592</ele>
        <time>2012-01-22T10:57:19Z</time>
      </trkpt>
      <trkpt lat="45.84684" lon="4.7801">
        <ele>592</ele>
        <time>2012-01-22T10:57:24Z</time>
      </trkpt>
      <trkpt lat="45.84683" lon="4.77998">
        <ele>591</ele>
        <time>2012-01-22T10:57:28Z</time>
      </trkpt>
      <trkpt lat="45.84684" lon="4.77996">
        <ele>591</ele>
        <time>2012-01-22T10:57:29Z</time>
      </trkpt>
      <trkpt lat="45.84684" lon="4.77994">
        <ele>591</ele>
        <time>2012-01-22T10:57:30Z</time>
      </trkpt>
      <trkpt lat="45.84683" lon="4.77993">
        <ele>591</ele>
        <time>2012-01-22T10:57:34Z</time>
      </trkpt>
      <trkpt lat="45.84684" lon="4.77983">
        <ele>590</ele>
        <time>2012-01-22T10:57:47Z</time>
      </trkpt>
      <trkpt lat="45.84688" lon="4.77974">
        <ele>590</ele>
        <time>2012-01-22T10:57:50Z</time>
      </trkpt>
      <trkpt lat="45.8469" lon="4.77967">
        <ele>590</ele>
        <time>2012-01-22T10:57:52Z</time>
      </trkpt>
      <trkpt lat="45.84698" lon="4.7795">
        <ele>589</ele>
        <time>2012-01-22T10:57:57Z</time>
      </trkpt>
      <trkpt lat="45.847" lon="4.77947">
        <ele>589</ele>
        <time>2012-01-22T10:57:58Z</time>
      </trkpt>
      <trkpt lat="45.84709" lon="4.77928">
        <ele>589</ele>
        <time>2012-01-22T10:58:04Z</time>
      </trkpt>
      <trkpt lat="45.84717" lon="4.77912">
        <ele>584</ele>
        <time>2012-01-22T10:58:09Z</time>
      </trkpt>
      <trkpt lat="45.8472" lon="4.77905">
        <ele>584</ele>
        <time>2012-01-22T10:58:11Z</time>
      </trkpt>
      <trkpt lat="45.84725" lon="4.77895">
        <ele>584</ele>
        <time>2012-01-22T10:58:14Z</time>
      </trkpt>
      <trkpt lat="45.84732" lon="4.77882">
        <ele>583</ele>
        <time>2012-01-22T10:58:18Z</time>
      </trkpt>
      <trkpt lat="45.84736" lon="4.77872">
        <ele>582</ele>
        <time>2012-01-22T10:58:21Z</time>
      </trkpt>
      <trkpt lat="45.84739" lon="4.77857">
        <ele>581</ele>
        <time>2012-01-22T10:58:25Z</time>
      </trkpt>
      <trkpt lat="45.84739" lon="4.7785">
        <ele>581</ele>
        <time>2012-01-22T10:58:27Z</time>
      </trkpt>
      <trkpt lat="45.84732" lon="4.77833">
        <ele>574</ele>
        <time>2012-01-22T10:58:32Z</time>
      </trkpt>
      <trkpt lat="45.84718" lon="4.77827">
        <ele>571</ele>
        <time>2012-01-22T10:58:37Z</time>
      </trkpt>
      <trkpt lat="45.84713" lon="4.77829">
        <ele>570</ele>
        <time>2012-01-22T10:58:39Z</time>
      </trkpt>
      <trkpt lat="45.84706" lon="4.77836">
        <ele>577</ele>
        <time>2012-01-22T10:58:42Z</time>
      </trkpt>
      <trkpt lat="45.84704" lon="4.77839">
        <ele>577</ele>
        <time>2012-01-22T10:58:43Z</time>
      </trkpt>
      <trkpt lat="45.84699" lon="4.77848">
        <ele>576</ele>
        <time>2012-01-22T10:58:46Z</time>
      </trkpt>
      <trkpt lat="45.84697" lon="4.77855">
        <ele>577</ele>
        <time>2012-01-22T10:58:48Z</time>
      </trkpt>
      <trkpt lat="45.8469" lon="4.77873">
        <ele>578</ele>
        <time>2012-01-22T10:58:53Z</time>
      </trkpt>
      <trkpt lat="45.8469" lon="4.77876">
        <ele>578</ele>
        <time>2012-01-22T10:58:54Z</time>
      </trkpt>
      <trkpt lat="45.84682" lon="4.77895">
        <ele>578</ele>
        <time>2012-01-22T10:58:59Z</time>
      </trkpt>
      <trkpt lat="45.84681" lon="4.77898">
        <ele>578</ele>
        <time>2012-01-22T10:59:00Z</time>
      </trkpt>
      <trkpt lat="45.84673" lon="4.77912">
        <ele>577</ele>
        <time>2012-01-22T10:59:04Z</time>
      </trkpt>
      <trkpt lat="45.84669" lon="4.77918">
        <ele>577</ele>
        <time>2012-01-22T10:59:06Z</time>
      </trkpt>
      <trkpt lat="45.84661" lon="4.77926">
        <ele>578</ele>
        <time>2012-01-22T10:59:10Z</time>
      </trkpt>
      <trkpt lat="45.84652" lon="4.77927">
        <ele>578</ele>
        <time>2012-01-22T10:59:13Z</time>
      </trkpt>
      <trkpt lat="45.84649" lon="4.77926">
        <ele>578</ele>
        <time>2012-01-22T10:59:14Z</time>
      </trkpt>
      <trkpt lat="45.8464" lon="4.77912">
        <ele>568</ele>
        <time>2012-01-22T10:59:19Z</time>
      </trkpt>
      <trkpt lat="45.8464" lon="4.77908">
        <ele>567</ele>
        <time>2012-01-22T10:59:20Z</time>
      </trkpt>
      <trkpt lat="45.84642" lon="4.77895">
        <ele>566</ele>
        <time>2012-01-22T10:59:23Z</time>
      </trkpt>
      <trkpt lat="45.84649" lon="4.77883">
        <ele>566</ele>
        <time>2012-01-22T10:59:27Z</time>
      </trkpt>
      <trkpt lat="45.84652" lon="4.7788">
        <ele>565</ele>
        <time>2012-01-22T10:59:28Z</time>
      </trkpt>
      <trkpt lat="45.84665" lon="4.77865">
        <ele>564</ele>
        <time>2012-01-22T10:59:34Z</time>
      </trkpt>
      <trkpt lat="45.84677" lon="4.77848">
        <ele>572</ele>
        <time>2012-01-22T10:59:40Z</time>
      </trkpt>
      <trkpt lat="45.84678" lon="4.77845">
        <ele>572</ele>
        <time>2012-01-22T10:59:41Z</time>
      </trkpt>
      <trkpt lat="45.84689" lon="4.77826">
        <ele>567</ele>
        <time>2012-01-22T10:59:47Z</time>
      </trkpt>
      <trkpt lat="45.84691" lon="4.77823">
        <ele>567</ele>
        <time>2012-01-22T10:59:48Z</time>
      </trkpt>
      <trkpt lat="45.84697" lon="4.77806">
        <ele>567</ele>
        <time>2012-01-22T10:59:53Z</time>
      </trkpt>
      <trkpt lat="45.84699" lon="4.77799">
        <ele>567</ele>
        <time>2012-01-22T10:59:55Z</time>
      </trkpt>
      <trkpt lat="45.84706" lon="4.77781">
        <ele>566</ele>
        <time>2012-01-22T11:00:00Z</time>
      </trkpt>
      <trkpt lat="45.84708" lon="4.77773">
        <ele>566</ele>
        <time>2012-01-22T11:00:02Z</time>
      </trkpt>
      <trkpt lat="45.84712" lon="4.77762">
        <ele>566</ele>
        <time>2012-01-22T11:00:05Z</time>
      </trkpt>
      <trkpt lat="45.84718" lon="4.77748">
        <ele>560</ele>
        <time>2012-01-22T11:00:09Z</time>
      </trkpt>
      <trkpt lat="45.84719" lon="4.77744">
        <ele>560</ele>
        <time>2012-01-22T11:00:10Z</time>
      </trkpt>
      <trkpt lat="45.84726" lon="4.77723">
        <ele>559</ele>
        <time>2012-01-22T11:00:16Z</time>
      </trkpt>
      <trkpt lat="45.84731" lon="4.77701">
        <ele>557</ele>
        <time>2012-01-22T11:00:22Z</time>
      </trkpt>
      <trkpt lat="45.84731" lon="4.77697">
        <ele>557</ele>
        <time>2012-01-22T11:00:23Z</time>
      </trkpt>
      <trkpt lat="45.8473" lon="4.77677">
        <ele>556</ele>
        <time>2012-01-22T11:00:28Z</time>
      </trkpt>
      <trkpt lat="45.84729" lon="4.77669">
        <ele>556</ele>
        <time>2012-01-22T11:00:30Z</time>
      </trkpt>
      <trkpt lat="45.84726" lon="4.77656">
        <ele>552</ele>
        <time>2012-01-22T11:00:33Z</time>
      </trkpt>
      <trkpt lat="45.8472" lon="4.77641">
        <ele>551</ele>
        <time>2012-01-22T11:00:37Z</time>
      </trkpt>
      <trkpt lat="45.84716" lon="4.7763">
        <ele>551</ele>
        <time>2012-01-22T11:00:40Z</time>
      </trkpt>
      <trkpt lat="45.84711" lon="4.77619">
        <ele>550</ele>
        <time>2012-01-22T11:00:43Z</time>
      </trkpt>
      <trkpt lat="45.84705" lon="4.77604">
        <ele>550</ele>
        <time>2012-01-22T11:00:47Z</time>
      </trkpt>
      <trkpt lat="45.84701" lon="4.77594">
        <ele>550</ele>
        <time>2012-01-22T11:00:50Z</time>
      </trkpt>
      <trkpt lat="45.84698" lon="4.77585">
        <ele>550</ele>
        <time>2012-01-22T11:00:53Z</time>
      </trkpt>
      <trkpt lat="45.84697" lon="4.77583">
        <ele>548</ele>
        <time>2012-01-22T11:00:54Z</time>
      </trkpt>
      <trkpt lat="45.847" lon="4.77581">
        <ele>548</ele>
        <time>2012-01-22T11:00:58Z</time>
      </trkpt>
      <trkpt lat="45.84704" lon="4.77586">
        <ele>550</ele>
        <time>2012-01-22T11:01:02Z</time>
      </trkpt>
      <trkpt lat="45.84705" lon="4.77587">
        <ele>550</ele>
        <time>2012-01-22T11:01:03Z</time>
      </trkpt>
      <trkpt lat="45.84706" lon="4.77589">
        <ele>550</ele>
        <time>2012-01-22T11:01:04Z</time>
      </trkpt>
      <trkpt lat="45.84708" lon="4.77593">
        <ele>550</ele>
        <time>2012-01-22T11:01:07Z</time>
      </trkpt>
      <trkpt lat="45.84711" lon="4.77596">
        <ele>550</ele>
        <time>2012-01-22T11:01:09Z</time>
      </trkpt>
      <trkpt lat="45.84719" lon="4.77604">
        <ele>550</ele>
        <time>2012-01-22T11:01:13Z</time>
      </trkpt>
      <trkpt lat="45.84726" lon="4.77611">
        <ele>550</ele>
        <time>2012-01-22T11:01:17Z</time>
      </trkpt>
      <trkpt lat="45.84727" lon="4.77613">
        <ele>550</ele>
        <time>2012-01-22T11:01:18Z</time>
      </trkpt>
      <trkpt lat="45.84735" lon="4.77618">
        <ele>550</ele>
        <time>2012-01-22T11:01:22Z</time>
      </trkpt>
      <trkpt lat="45.84748" lon="4.77623">
        <ele>551</ele>
        <time>2012-01-22T11:01:26Z</time>
      </trkpt>
      <trkpt lat="45.84752" lon="4.77625">
        <ele>552</ele>
        <time>2012-01-22T11:01:28Z</time>
      </trkpt>
      <trkpt lat="45.84754" lon="4.77625">
        <ele>552</ele>
        <time>2012-01-22T11:01:29Z</time>
      </trkpt>
      <trkpt lat="45.84756" lon="4.77626">
        <ele>552</ele>
        <time>2012-01-22T11:01:30Z</time>
      </trkpt>
      <trkpt lat="45.84774" lon="4.7763">
        <ele>552</ele>
        <time>2012-01-22T11:01:37Z</time>
      </trkpt>
      <trkpt lat="45.84784" lon="4.7763">
        <ele>553</ele>
        <time>2012-01-22T11:01:41Z</time>
      </trkpt>
      <trkpt lat="45.84793" lon="4.7763">
        <ele>553</ele>
        <time>2012-01-22T11:01:45Z</time>
      </trkpt>
      <trkpt lat="45.84797" lon="4.7763">
        <ele>553</ele>
        <time>2012-01-22T11:01:47Z</time>
      </trkpt>
      <trkpt lat="45.84812" lon="4.77629">
        <ele>553</ele>
        <time>2012-01-22T11:01:53Z</time>
      </trkpt>
      <trkpt lat="45.84828" lon="4.77627">
        <ele>553</ele>
        <time>2012-01-22T11:02:00Z</time>
      </trkpt>
      <trkpt lat="45.84831" lon="4.77627">
        <ele>553</ele>
        <time>2012-01-22T11:02:01Z</time>
      </trkpt>
      <trkpt lat="45.84843" lon="4.77625">
        <ele>554</ele>
        <time>2012-01-22T11:02:06Z</time>
      </trkpt>
      <trkpt lat="45.84849" lon="4.77624">
        <ele>554</ele>
        <time>2012-01-22T11:02:09Z</time>
      </trkpt>
      <trkpt lat="45.84853" lon="4.77624">
        <ele>554</ele>
        <time>2012-01-22T11:02:11Z</time>
      </trkpt>
      <trkpt lat="45.84858" lon="4.77624">
        <ele>554</ele>
        <time>2012-01-22T11:02:13Z</time>
      </trkpt>
      <trkpt lat="45.84867" lon="4.77624">
        <ele>554</ele>
        <time>2012-01-22T11:02:18Z</time>
      </trkpt>
      <trkpt lat="45.84872" lon="4.77624">
        <ele>554</ele>
        <time>2012-01-22T11:02:20Z</time>
      </trkpt>
      <trkpt lat="45.84884" lon="4.77623">
        <ele>554</ele>
        <time>2012-01-22T11:02:25Z</time>
      </trkpt>
      <trkpt lat="45.84886" lon="4.77623">
        <ele>554</ele>
        <time>2012-01-22T11:02:26Z</time>
      </trkpt>
      <trkpt lat="45.84894" lon="4.77621">
        <ele>554</ele>
        <time>2012-01-22T11:02:30Z</time>
      </trkpt>
      <trkpt lat="45.84905" lon="4.77622">
        <ele>555</ele>
        <time>2012-01-22T11:02:35Z</time>
      </trkpt>
      <trkpt lat="45.8491" lon="4.77621">
        <ele>555</ele>
        <time>2012-01-22T11:02:37Z</time>
      </trkpt>
      <trkpt lat="45.84924" lon="4.77623">
        <ele>556</ele>
        <time>2012-01-22T11:02:43Z</time>
      </trkpt>
      <trkpt lat="45.84936" lon="4.77623">
        <ele>556</ele>
        <time>2012-01-22T11:02:48Z</time>
      </trkpt>
      <trkpt lat="45.84942" lon="4.77625">
        <ele>556</ele>
        <time>2012-01-22T11:02:51Z</time>
      </trkpt>
      <trkpt lat="45.8495" lon="4.77626">
        <ele>556</ele>
        <time>2012-01-22T11:02:54Z</time>
      </trkpt>
      <trkpt lat="45.84961" lon="4.77627">
        <ele>556</ele>
        <time>2012-01-22T11:02:58Z</time>
      </trkpt>
      <trkpt lat="45.84964" lon="4.77628">
        <ele>556</ele>
        <time>2012-01-22T11:02:59Z</time>
      </trkpt>
      <trkpt lat="45.84972" lon="4.77629">
        <ele>556</ele>
        <time>2012-01-22T11:03:03Z</time>
      </trkpt>
      <trkpt lat="45.84974" lon="4.77629">
        <ele>556</ele>
        <time>2012-01-22T11:03:04Z</time>
      </trkpt>
      <trkpt lat="45.84982" lon="4.7763">
        <ele>557</ele>
        <time>2012-01-22T11:03:07Z</time>
      </trkpt>
      <trkpt lat="45.84987" lon="4.77631">
        <ele>557</ele>
        <time>2012-01-22T11:03:09Z</time>
      </trkpt>
      <trkpt lat="45.84999" lon="4.77633">
        <ele>557</ele>
        <time>2012-01-22T11:03:13Z</time>
      </trkpt>
      <trkpt lat="45.85002" lon="4.77633">
        <ele>555</ele>
        <time>2012-01-22T11:03:14Z</time>
      </trkpt>
      <trkpt lat="45.85012" lon="4.77636">
        <ele>555</ele>
        <time>2012-01-22T11:03:18Z</time>
      </trkpt>
      <trkpt lat="45.85022" lon="4.77641">
        <ele>555</ele>
        <time>2012-01-22T11:03:22Z</time>
      </trkpt>
      <trkpt lat="45.85026" lon="4.77644">
        <ele>555</ele>
        <time>2012-01-22T11:03:24Z</time>
      </trkpt>
      <trkpt lat="45.8504" lon="4.77654">
        <ele>555</ele>
        <time>2012-01-22T11:03:30Z</time>
      </trkpt>
      <trkpt lat="45.8505" lon="4.77668">
        <ele>564</ele>
        <time>2012-01-22T11:03:36Z</time>
      </trkpt>
      <trkpt lat="45.85052" lon="4.77672">
        <ele>564</ele>
        <time>2012-01-22T11:03:38Z</time>
      </trkpt>
      <trkpt lat="45.85052" lon="4.77674">
        <ele>564</ele>
        <time>2012-01-22T11:03:39Z</time>
      </trkpt>
      <trkpt lat="45.85053" lon="4.77676">
        <ele>564</ele>
        <time>2012-01-22T11:03:40Z</time>
      </trkpt>
      <trkpt lat="45.8506" lon="4.77689">
        <ele>565</ele>
        <time>2012-01-22T11:03:45Z</time>
      </trkpt>
      <trkpt lat="45.85061" lon="4.77691">
        <ele>565</ele>
        <time>2012-01-22T11:03:46Z</time>
      </trkpt>
      <trkpt lat="45.85064" lon="4.77696">
        <ele>565</ele>
        <time>2012-01-22T11:03:48Z</time>
      </trkpt>
      <trkpt lat="45.85067" lon="4.77702">
        <ele>566</ele>
        <time>2012-01-22T11:03:50Z</time>
      </trkpt>
      <trkpt lat="45.85068" lon="4.77704">
        <ele>566</ele>
        <time>2012-01-22T11:03:51Z</time>
      </trkpt>
      <trkpt lat="45.85075" lon="4.7772">
        <ele>568</ele>
        <time>2012-01-22T11:03:57Z</time>
      </trkpt>
      <trkpt lat="45.85076" lon="4.77722">
        <ele>568</ele>
        <time>2012-01-22T11:03:58Z</time>
      </trkpt>
      <trkpt lat="45.85083" lon="4.77741">
        <ele>569</ele>
        <time>2012-01-22T11:04:05Z</time>
      </trkpt>
      <trkpt lat="45.85084" lon="4.77744">
        <ele>565</ele>
        <time>2012-01-22T11:04:06Z</time>
      </trkpt>
      <trkpt lat="45.85088" lon="4.77752">
        <ele>568</ele>
        <time>2012-01-22T11:04:09Z</time>
      </trkpt>
      <trkpt lat="45.85089" lon="4.77755">
        <ele>567</ele>
        <time>2012-01-22T11:04:10Z</time>
      </trkpt>
      <trkpt lat="45.85093" lon="4.77764">
        <ele>565</ele>
        <time>2012-01-22T11:04:16Z</time>
      </trkpt>
      <trkpt lat="45.85094" lon="4.77767">
        <ele>565</ele>
        <time>2012-01-22T11:04:18Z</time>
      </trkpt>
      <trkpt lat="45.85094" lon="4.77769">
        <ele>565</ele>
        <time>2012-01-22T11:04:19Z</time>
      </trkpt>
      <trkpt lat="45.85096" lon="4.77774">
        <ele>564</ele>
        <time>2012-01-22T11:04:22Z</time>
      </trkpt>
      <trkpt lat="45.85098" lon="4.77782">
        <ele>564</ele>
        <time>2012-01-22T11:04:26Z</time>
      </trkpt>
      <trkpt lat="45.85099" lon="4.77785">
        <ele>564</ele>
        <time>2012-01-22T11:04:28Z</time>
      </trkpt>
      <trkpt lat="45.85098" lon="4.77792">
        <ele>564</ele>
        <time>2012-01-22T11:04:32Z</time>
      </trkpt>
      <trkpt lat="45.85098" lon="4.77795">
        <ele>564</ele>
        <time>2012-01-22T11:04:34Z</time>
      </trkpt>
      <trkpt lat="45.85101" lon="4.77806">
        <ele>565</ele>
        <time>2012-01-22T11:04:41Z</time>
      </trkpt>
      <trkpt lat="45.851" lon="4.77816">
        <ele>567</ele>
        <time>2012-01-22T11:04:47Z</time>
      </trkpt>
      <trkpt lat="45.851" lon="4.77817">
        <ele>567</ele>
        <time>2012-01-22T11:04:48Z</time>
      </trkpt>
      <trkpt lat="45.851" lon="4.77822">
        <ele>568</ele>
        <time>2012-01-22T11:04:51Z</time>
      </trkpt>
      <trkpt lat="45.851" lon="4.77824">
        <ele>568</ele>
        <time>2012-01-22T11:04:53Z</time>
      </trkpt>
      <trkpt lat="45.85099" lon="4.77827">
        <ele>568</ele>
        <time>2012-01-22T11:04:55Z</time>
      </trkpt>
      <trkpt lat="45.851" lon="4.77832">
        <ele>569</ele>
        <time>2012-01-22T11:04:58Z</time>
      </trkpt>
      <trkpt lat="45.85101" lon="4.7784">
        <ele>571</ele>
        <time>2012-01-22T11:05:02Z</time>
      </trkpt>
      <trkpt lat="45.85101" lon="4.77841">
        <ele>571</ele>
        <time>2012-01-22T11:05:03Z</time>
      </trkpt>
      <trkpt lat="45.85101" lon="4.77843">
        <ele>571</ele>
        <time>2012-01-22T11:05:04Z</time>
      </trkpt>
      <trkpt lat="45.85099" lon="4.77853">
        <ele>571</ele>
        <time>2012-01-22T11:05:09Z</time>
      </trkpt>
      <trkpt lat="45.85098" lon="4.77855">
        <ele>571</ele>
        <time>2012-01-22T11:05:10Z</time>
      </trkpt>
      <trkpt lat="45.85096" lon="4.77868">
        <ele>571</ele>
        <time>2012-01-22T11:05:16Z</time>
      </trkpt>
      <trkpt lat="45.85093" lon="4.77875">
        <ele>571</ele>
        <time>2012-01-22T11:05:19Z</time>
      </trkpt>
      <trkpt lat="45.85093" lon="4.77884">
        <ele>572</ele>
        <time>2012-01-22T11:05:22Z</time>
      </trkpt>
      <trkpt lat="45.85094" lon="4.77894">
        <ele>573</ele>
        <time>2012-01-22T11:05:24Z</time>
      </trkpt>
      <trkpt lat="45.85095" lon="4.77902">
        <ele>574</ele>
        <time>2012-01-22T11:05:26Z</time>
      </trkpt>
      <trkpt lat="45.85097" lon="4.77916">
        <ele>575</ele>
        <time>2012-01-22T11:05:30Z</time>
      </trkpt>
      <trkpt lat="45.85098" lon="4.77919">
        <ele>577</ele>
        <time>2012-01-22T11:05:31Z</time>
      </trkpt>
      <trkpt lat="45.85099" lon="4.77921">
        <ele>577</ele>
        <time>2012-01-22T11:05:32Z</time>
      </trkpt>
      <trkpt lat="45.85103" lon="4.77926">
        <ele>576</ele>
        <time>2012-01-22T11:05:34Z</time>
      </trkpt>
      <trkpt lat="45.85111" lon="4.77939">
        <ele>574</ele>
        <time>2012-01-22T11:05:39Z</time>
      </trkpt>
      <trkpt lat="45.85112" lon="4.77943">
        <ele>574</ele>
        <time>2012-01-22T11:05:40Z</time>
      </trkpt>
      <trkpt lat="45.85115" lon="4.77955">
        <ele>574</ele>
        <time>2012-01-22T11:05:44Z</time>
      </trkpt>
      <trkpt lat="45.85115" lon="4.77965">
        <ele>575</ele>
        <time>2012-01-22T11:05:49Z</time>
      </trkpt>
      <trkpt lat="45.85116" lon="4.77968">
        <ele>575</ele>
        <time>2012-01-22T11:05:52Z</time>
      </trkpt>
      <trkpt lat="45.85117" lon="4.7797">
        <ele>575</ele>
        <time>2012-01-22T11:05:53Z</time>
      </trkpt>
      <trkpt lat="45.85117" lon="4.77972">
        <ele>575</ele>
        <time>2012-01-22T11:05:54Z</time>
      </trkpt>
      <trkpt lat="45.8512" lon="4.77985">
        <ele>575</ele>
        <time>2012-01-22T11:06:00Z</time>
      </trkpt>
      <trkpt lat="45.85121" lon="4.77997">
        <ele>575</ele>
        <time>2012-01-22T11:06:03Z</time>
      </trkpt>
      <trkpt lat="45.85122" lon="4.78001">
        <ele>579</ele>
        <time>2012-01-22T11:06:04Z</time>
      </trkpt>
      <trkpt lat="45.85126" lon="4.78018">
        <ele>578</ele>
        <time>2012-01-22T11:06:08Z</time>
      </trkpt>
      <trkpt lat="45.85127" lon="4.78025">
        <ele>579</ele>
        <time>2012-01-22T11:06:10Z</time>
      </trkpt>
      <trkpt lat="45.85133" lon="4.78045">
        <ele>578</ele>
        <time>2012-01-22T11:06:16Z</time>
      </trkpt>
      <trkpt lat="45.85134" lon="4.78051">
        <ele>578</ele>
        <time>2012-01-22T11:06:18Z</time>
      </trkpt>
      <trkpt lat="45.85135" lon="4.78054">
        <ele>578</ele>
        <time>2012-01-22T11:06:19Z</time>
      </trkpt>
      <trkpt lat="45.85137" lon="4.78058">
        <ele>578</ele>
        <time>2012-01-22T11:06:20Z</time>
      </trkpt>
      <trkpt lat="45.85143" lon="4.78076">
        <ele>576</ele>
        <time>2012-01-22T11:06:25Z</time>
      </trkpt>
      <trkpt lat="45.85152" lon="4.78093">
        <ele>577</ele>
        <time>2012-01-22T11:06:30Z</time>
      </trkpt>
      <trkpt lat="45.85155" lon="4.78098">
        <ele>577</ele>
        <time>2012-01-22T11:06:32Z</time>
      </trkpt>
      <trkpt lat="45.85162" lon="4.78107">
        <ele>579</ele>
        <time>2012-01-22T11:06:35Z</time>
      </trkpt>
      <trkpt lat="45.85168" lon="4.78117">
        <ele>564</ele>
        <time>2012-01-22T11:06:38Z</time>
      </trkpt>
      <trkpt lat="45.85172" lon="4.78123">
        <ele>565</ele>
        <time>2012-01-22T11:06:40Z</time>
      </trkpt>
      <trkpt lat="45.85178" lon="4.78141">
        <ele>567</ele>
        <time>2012-01-22T11:06:45Z</time>
      </trkpt>
      <trkpt lat="45.85184" lon="4.78155">
        <ele>568</ele>
        <time>2012-01-22T11:06:49Z</time>
      </trkpt>
      <trkpt lat="45.85186" lon="4.78157">
        <ele>568</ele>
        <time>2012-01-22T11:06:50Z</time>
      </trkpt>
      <trkpt lat="45.85189" lon="4.78163">
        <ele>567</ele>
        <time>2012-01-22T11:06:52Z</time>
      </trkpt>
      <trkpt lat="45.85193" lon="4.78169">
        <ele>570</ele>
        <time>2012-01-22T11:06:54Z</time>
      </trkpt>
      <trkpt lat="45.85203" lon="4.7818">
        <ele>568</ele>
        <time>2012-01-22T11:06:58Z</time>
      </trkpt>
      <trkpt lat="45.85205" lon="4.78183">
        <ele>568</ele>
        <time>2012-01-22T11:06:59Z</time>
      </trkpt>
      <trkpt lat="45.85207" lon="4.78186">
        <ele>568</ele>
        <time>2012-01-22T11:07:00Z</time>
      </trkpt>
      <trkpt lat="45.85215" lon="4.782">
        <ele>567</ele>
        <time>2012-01-22T11:07:04Z</time>
      </trkpt>
      <trkpt lat="45.85225" lon="4.78213">
        <ele>566</ele>
        <time>2012-01-22T11:07:09Z</time>
      </trkpt>
      <trkpt lat="45.8523" lon="4.78218">
        <ele>566</ele>
        <time>2012-01-22T11:07:11Z</time>
      </trkpt>
      <trkpt lat="45.85236" lon="4.78226">
        <ele>566</ele>
        <time>2012-01-22T11:07:14Z</time>
      </trkpt>
      <trkpt lat="45.85244" lon="4.78237">
        <ele>565</ele>
        <time>2012-01-22T11:07:18Z</time>
      </trkpt>
      <trkpt lat="45.85245" lon="4.7824">
        <ele>564</ele>
        <time>2012-01-22T11:07:19Z</time>
      </trkpt>
      <trkpt lat="45.85256" lon="4.78252">
        <ele>561</ele>
        <time>2012-01-22T11:07:24Z</time>
      </trkpt>
      <trkpt lat="45.85258" lon="4.78255">
        <ele>560</ele>
        <time>2012-01-22T11:07:25Z</time>
      </trkpt>
      <trkpt lat="45.85262" lon="4.78263">
        <ele>558</ele>
        <time>2012-01-22T11:07:28Z</time>
      </trkpt>
      <trkpt lat="45.85269" lon="4.78276">
        <ele>556</ele>
        <time>2012-01-22T11:07:32Z</time>
      </trkpt>
      <trkpt lat="45.8527" lon="4.78278">
        <ele>556</ele>
        <time>2012-01-22T11:07:33Z</time>
      </trkpt>
      <trkpt lat="45.85279" lon="4.78288">
        <ele>555</ele>
        <time>2012-01-22T11:07:37Z</time>
      </trkpt>
      <trkpt lat="45.85282" lon="4.78295">
        <ele>555</ele>
        <time>2012-01-22T11:07:39Z</time>
      </trkpt>
      <trkpt lat="45.85286" lon="4.78301">
        <ele>555</ele>
        <time>2012-01-22T11:07:41Z</time>
      </trkpt>
      <trkpt lat="45.85293" lon="4.78311">
        <ele>555</ele>
        <time>2012-01-22T11:07:45Z</time>
      </trkpt>
      <trkpt lat="45.85295" lon="4.78314">
        <ele>555</ele>
        <time>2012-01-22T11:07:46Z</time>
      </trkpt>
      <trkpt lat="45.85302" lon="4.78323">
        <ele>554</ele>
        <time>2012-01-22T11:07:50Z</time>
      </trkpt>
      <trkpt lat="45.85309" lon="4.78331">
        <ele>554</ele>
        <time>2012-01-22T11:07:53Z</time>
      </trkpt>
      <trkpt lat="45.85312" lon="4.78337">
        <ele>556</ele>
        <time>2012-01-22T11:07:55Z</time>
      </trkpt>
      <trkpt lat="45.85321" lon="4.78347">
        <ele>556</ele>
        <time>2012-01-22T11:07:59Z</time>
      </trkpt>
      <trkpt lat="45.85322" lon="4.78349">
        <ele>556</ele>
        <time>2012-01-22T11:08:00Z</time>
      </trkpt>
      <trkpt lat="45.85332" lon="4.78359">
        <ele>556</ele>
        <time>2012-01-22T11:08:05Z</time>
      </trkpt>
      <trkpt lat="45.85338" lon="4.78366">
        <ele>547</ele>
        <time>2012-01-22T11:08:08Z</time>
      </trkpt>
      <trkpt lat="45.85343" lon="4.78374">
        <ele>546</ele>
        <time>2012-01-22T11:08:11Z</time>
      </trkpt>
      <trkpt lat="45.8535" lon="4.78388">
        <ele>547</ele>
        <time>2012-01-22T11:08:16Z</time>
      </trkpt>
      <trkpt lat="45.85352" lon="4.78391">
        <ele>547</ele>
        <time>2012-01-22T11:08:17Z</time>
      </trkpt>
      <trkpt lat="45.8536" lon="4.78405">
        <ele>547</ele>
        <time>2012-01-22T11:08:22Z</time>
      </trkpt>
      <trkpt lat="45.85363" lon="4.78409">
        <ele>547</ele>
        <time>2012-01-22T11:08:24Z</time>
      </trkpt>
      <trkpt lat="45.8537" lon="4.78419">
        <ele>550</ele>
        <time>2012-01-22T11:08:28Z</time>
      </trkpt>
      <trkpt lat="45.85377" lon="4.78429">
        <ele>549</ele>
        <time>2012-01-22T11:08:32Z</time>
      </trkpt>
      <trkpt lat="45.85379" lon="4.78432">
        <ele>548</ele>
        <time>2012-01-22T11:08:33Z</time>
      </trkpt>
      <trkpt lat="45.85393" lon="4.78446">
        <ele>548</ele>
        <time>2012-01-22T11:08:39Z</time>
      </trkpt>
      <trkpt lat="45.85405" lon="4.78463">
        <ele>548</ele>
        <time>2012-01-22T11:08:45Z</time>
      </trkpt>
      <trkpt lat="45.85406" lon="4.78466">
        <ele>548</ele>
        <time>2012-01-22T11:08:46Z</time>
      </trkpt>
      <trkpt lat="45.85416" lon="4.78479">
        <ele>549</ele>
        <time>2012-01-22T11:08:51Z</time>
      </trkpt>
      <trkpt lat="45.8542" lon="4.78484">
        <ele>543</ele>
        <time>2012-01-22T11:08:53Z</time>
      </trkpt>
      <trkpt lat="45.85429" lon="4.78494">
        <ele>544</ele>
        <time>2012-01-22T11:08:57Z</time>
      </trkpt>
      <trkpt lat="45.85436" lon="4.78501">
        <ele>546</ele>
        <time>2012-01-22T11:09:00Z</time>
      </trkpt>
      <trkpt lat="45.85443" lon="4.78509">
        <ele>545</ele>
        <time>2012-01-22T11:09:03Z</time>
      </trkpt>
      <trkpt lat="45.85453" lon="4.7852">
        <ele>544</ele>
        <time>2012-01-22T11:09:07Z</time>
      </trkpt>
      <trkpt lat="45.85455" lon="4.78522">
        <ele>544</ele>
        <time>2012-01-22T11:09:08Z</time>
      </trkpt>
      <trkpt lat="45.85462" lon="4.78531">
        <ele>543</ele>
        <time>2012-01-22T11:09:14Z</time>
      </trkpt>
      <trkpt lat="45.85469" lon="4.78531">
        <ele>543</ele>
        <time>2012-01-22T11:09:21Z</time>
      </trkpt>
      <trkpt lat="45.8547" lon="4.78531">
        <ele>543</ele>
        <time>2012-01-22T11:09:22Z</time>
      </trkpt>
      <trkpt lat="45.85471" lon="4.78532">
        <ele>543</ele>
        <time>2012-01-22T11:09:23Z</time>
      </trkpt>
      <trkpt lat="45.85474" lon="4.78536">
        <ele>543</ele>
        <time>2012-01-22T11:09:26Z</time>
      </trkpt>
      <trkpt lat="45.85487" lon="4.78548">
        <ele>543</ele>
        <time>2012-01-22T11:09:34Z</time>
      </trkpt>
      <trkpt lat="45.85499" lon="4.78558">
        <ele>543</ele>
        <time>2012-01-22T11:09:39Z</time>
      </trkpt>
      <trkpt lat="45.85504" lon="4.78563">
        <ele>539</ele>
        <time>2012-01-22T11:09:42Z</time>
      </trkpt>
      <trkpt lat="45.85506" lon="4.78567">
        <ele>539</ele>
        <time>2012-01-22T11:09:44Z</time>
      </trkpt>
      <trkpt lat="45.85513" lon="4.78576">
        <ele>540</ele>
        <time>2012-01-22T11:09:49Z</time>
      </trkpt>
      <trkpt lat="45.85518" lon="4.78584">
        <ele>541</ele>
        <time>2012-01-22T11:09:52Z</time>
      </trkpt>
      <trkpt lat="45.8552" lon="4.78586">
        <ele>541</ele>
        <time>2012-01-22T11:09:53Z</time>
      </trkpt>
      <trkpt lat="45.85531" lon="4.78593">
        <ele>540</ele>
        <time>2012-01-22T11:09:58Z</time>
      </trkpt>
      <trkpt lat="45.85536" lon="4.78595">
        <ele>540</ele>
        <time>2012-01-22T11:10:00Z</time>
      </trkpt>
      <trkpt lat="45.85543" lon="4.78597">
        <ele>540</ele>
        <time>2012-01-22T11:10:03Z</time>
      </trkpt>
      <trkpt lat="45.85555" lon="4.78604">
        <ele>540</ele>
        <time>2012-01-22T11:10:08Z</time>
      </trkpt>
      <trkpt lat="45.85567" lon="4.78613">
        <ele>539</ele>
        <time>2012-01-22T11:10:13Z</time>
      </trkpt>
      <trkpt lat="45.85572" lon="4.78617">
        <ele>539</ele>
        <time>2012-01-22T11:10:15Z</time>
      </trkpt>
      <trkpt lat="45.8558" lon="4.78624">
        <ele>539</ele>
        <time>2012-01-22T11:10:19Z</time>
      </trkpt>
      <trkpt lat="45.85592" lon="4.78629">
        <ele>538</ele>
        <time>2012-01-22T11:10:23Z</time>
      </trkpt>
      <trkpt lat="45.85595" lon="4.78632">
        <ele>538</ele>
        <time>2012-01-22T11:10:25Z</time>
      </trkpt>
      <trkpt lat="45.85607" lon="4.7864">
        <ele>538</ele>
        <time>2012-01-22T11:10:30Z</time>
      </trkpt>
      <trkpt lat="45.8561" lon="4.78642">
        <ele>538</ele>
        <time>2012-01-22T11:10:31Z</time>
      </trkpt>
      <trkpt lat="45.85618" lon="4.78651">
        <ele>539</ele>
        <time>2012-01-22T11:10:35Z</time>
      </trkpt>
      <trkpt lat="45.85624" lon="4.78658">
        <ele>539</ele>
        <time>2012-01-22T11:10:38Z</time>
      </trkpt>
      <trkpt lat="45.85627" lon="4.7866">
        <ele>539</ele>
        <time>2012-01-22T11:10:39Z</time>
      </trkpt>
      <trkpt lat="45.85638" lon="4.78666">
        <ele>540</ele>
        <time>2012-01-22T11:10:44Z</time>
      </trkpt>
      <trkpt lat="45.85643" lon="4.78669">
        <ele>539</ele>
        <time>2012-01-22T11:10:46Z</time>
      </trkpt>
      <trkpt lat="45.85653" lon="4.78673">
        <ele>540</ele>
        <time>2012-01-22T11:10:49Z</time>
      </trkpt>
      <trkpt lat="45.85656" lon="4.78674">
        <ele>540</ele>
        <time>2012-01-22T11:10:50Z</time>
      </trkpt>
      <trkpt lat="45.85664" lon="4.78677">
        <ele>540</ele>
        <time>2012-01-22T11:10:52Z</time>
      </trkpt>
      <trkpt lat="45.85668" lon="4.78678">
        <ele>541</ele>
        <time>2012-01-22T11:10:53Z</time>
      </trkpt>
      <trkpt lat="45.85678" lon="4.78686">
        <ele>539</ele>
        <time>2012-01-22T11:10:56Z</time>
      </trkpt>
      <trkpt lat="45.85681" lon="4.78688">
        <ele>539</ele>
        <time>2012-01-22T11:10:57Z</time>
      </trkpt>
      <trkpt lat="45.85683" lon="4.78691">
        <ele>539</ele>
        <time>2012-01-22T11:10:58Z</time>
      </trkpt>
      <trkpt lat="45.85695" lon="4.78711">
        <ele>537</ele>
        <time>2012-01-22T11:11:04Z</time>
      </trkpt>
      <trkpt lat="45.85702" lon="4.78723">
        <ele>537</ele>
        <time>2012-01-22T11:11:08Z</time>
      </trkpt>
      <trkpt lat="45.85708" lon="4.78732">
        <ele>537</ele>
        <time>2012-01-22T11:11:11Z</time>
      </trkpt>
      <trkpt lat="45.85712" lon="4.78739">
        <ele>537</ele>
        <time>2012-01-22T11:11:13Z</time>
      </trkpt>
      <trkpt lat="45.85723" lon="4.78749">
        <ele>537</ele>
        <time>2012-01-22T11:11:18Z</time>
      </trkpt>
      <trkpt lat="45.85735" lon="4.78765">
        <ele>533</ele>
        <time>2012-01-22T11:11:23Z</time>
      </trkpt>
      <trkpt lat="45.85739" lon="4.78767">
        <ele>533</ele>
        <time>2012-01-22T11:11:24Z</time>
      </trkpt>
      <trkpt lat="45.85748" lon="4.78776">
        <ele>532</ele>
        <time>2012-01-22T11:11:28Z</time>
      </trkpt>
      <trkpt lat="45.85752" lon="4.78782">
        <ele>532</ele>
        <time>2012-01-22T11:11:31Z</time>
      </trkpt>
      <trkpt lat="45.85755" lon="4.78782">
        <ele>532</ele>
        <time>2012-01-22T11:11:32Z</time>
      </trkpt>
      <trkpt lat="45.85766" lon="4.78786">
        <ele>531</ele>
        <time>2012-01-22T11:11:37Z</time>
      </trkpt>
      <trkpt lat="45.85771" lon="4.7879">
        <ele>531</ele>
        <time>2012-01-22T11:11:39Z</time>
      </trkpt>
      <trkpt lat="45.85779" lon="4.78795">
        <ele>531</ele>
        <time>2012-01-22T11:11:42Z</time>
      </trkpt>
      <trkpt lat="45.85789" lon="4.78799">
        <ele>530</ele>
        <time>2012-01-22T11:11:46Z</time>
      </trkpt>
      <trkpt lat="45.85791" lon="4.78801">
        <ele>530</ele>
        <time>2012-01-22T11:11:47Z</time>
      </trkpt>
      <trkpt lat="45.858" lon="4.78804">
        <ele>531</ele>
        <time>2012-01-22T11:11:51Z</time>
      </trkpt>
      <trkpt lat="45.85808" lon="4.78807">
        <ele>531</ele>
        <time>2012-01-22T11:11:56Z</time>
      </trkpt>
      <trkpt lat="45.85808" lon="4.78808">
        <ele>531</ele>
        <time>2012-01-22T11:11:57Z</time>
      </trkpt>
      <trkpt lat="45.85809" lon="4.78808">
        <ele>531</ele>
        <time>2012-01-22T11:11:58Z</time>
      </trkpt>
      <trkpt lat="45.85814" lon="4.78808">
        <ele>531</ele>
        <time>2012-01-22T11:12:02Z</time>
      </trkpt>
      <trkpt lat="45.85818" lon="4.78809">
        <ele>531</ele>
        <time>2012-01-22T11:12:14Z</time>
      </trkpt>
      <trkpt lat="45.85819" lon="4.78812">
        <ele>531</ele>
        <time>2012-01-22T11:12:22Z</time>
      </trkpt>
      <trkpt lat="45.85819" lon="4.78813">
        <ele>531</ele>
        <time>2012-01-22T11:12:36Z</time>
      </trkpt>
      <trkpt lat="45.85818" lon="4.7881">
        <ele>531</ele>
        <time>2012-01-22T11:12:47Z</time>
      </trkpt>
      <trkpt lat="45.85819" lon="4.78812">
        <ele>531</ele>
        <time>2012-01-22T11:13:30Z</time>
      </trkpt>
      <trkpt lat="45.85817" lon="4.78816">
        <ele>531</ele>
        <time>2012-01-22T11:13:33Z</time>
      </trkpt>
      <trkpt lat="45.85809" lon="4.78824">
        <ele>531</ele>
        <time>2012-01-22T11:13:40Z</time>
      </trkpt>
      <trkpt lat="45.85805" lon="4.78832">
        <ele>531</ele>
        <time>2012-01-22T11:13:44Z</time>
      </trkpt>
      <trkpt lat="45.85804" lon="4.78835">
        <ele>530</ele>
        <time>2012-01-22T11:13:45Z</time>
      </trkpt>
      <trkpt lat="45.85799" lon="4.78856">
        <ele>529</ele>
        <time>2012-01-22T11:13:51Z</time>
      </trkpt>
      <trkpt lat="45.85798" lon="4.7886">
        <ele>528</ele>
        <time>2012-01-22T11:13:52Z</time>
      </trkpt>
      <trkpt lat="45.85792" lon="4.78884">
        <ele>527</ele>
        <time>2012-01-22T11:13:58Z</time>
      </trkpt>
      <trkpt lat="45.85791" lon="4.78905">
        <ele>527</ele>
        <time>2012-01-22T11:14:03Z</time>
      </trkpt>
      <trkpt lat="45.85793" lon="4.78913">
        <ele>527</ele>
        <time>2012-01-22T11:14:05Z</time>
      </trkpt>
      <trkpt lat="45.85798" lon="4.78929">
        <ele>523</ele>
        <time>2012-01-22T11:14:09Z</time>
      </trkpt>
      <trkpt lat="45.85799" lon="4.78938">
        <ele>523</ele>
        <time>2012-01-22T11:14:11Z</time>
      </trkpt>
      <trkpt lat="45.85802" lon="4.7895">
        <ele>523</ele>
        <time>2012-01-22T11:14:14Z</time>
      </trkpt>
      <trkpt lat="45.85805" lon="4.78964">
        <ele>522</ele>
        <time>2012-01-22T11:14:17Z</time>
      </trkpt>
      <trkpt lat="45.85807" lon="4.78972">
        <ele>522</ele>
        <time>2012-01-22T11:14:19Z</time>
      </trkpt>
      <trkpt lat="45.85811" lon="4.7899">
        <ele>522</ele>
        <time>2012-01-22T11:14:23Z</time>
      </trkpt>
      <trkpt lat="45.85811" lon="4.78994">
        <ele>522</ele>
        <time>2012-01-22T11:14:24Z</time>
      </trkpt>
      <trkpt lat="45.85817" lon="4.79016">
        <ele>518</ele>
        <time>2012-01-22T11:14:29Z</time>
      </trkpt>
      <trkpt lat="45.85826" lon="4.79039">
        <ele>516</ele>
        <time>2012-01-22T11:14:35Z</time>
      </trkpt>
      <trkpt lat="45.85832" lon="4.79059">
        <ele>514</ele>
        <time>2012-01-22T11:14:40Z</time>
      </trkpt>
      <trkpt lat="45.85833" lon="4.79063">
        <ele>514</ele>
        <time>2012-01-22T11:14:41Z</time>
      </trkpt>
      <trkpt lat="45.8584" lon="4.79083">
        <ele>516</ele>
        <time>2012-01-22T11:14:46Z</time>
      </trkpt>
      <trkpt lat="45.85841" lon="4.79088">
        <ele>514</ele>
        <time>2012-01-22T11:14:47Z</time>
      </trkpt>
      <trkpt lat="45.85847" lon="4.79111">
        <ele>516</ele>
        <time>2012-01-22T11:14:53Z</time>
      </trkpt>
      <trkpt lat="45.85848" lon="4.79115">
        <ele>516</ele>
        <time>2012-01-22T11:14:54Z</time>
      </trkpt>
      <trkpt lat="45.85852" lon="4.79132">
        <ele>515</ele>
        <time>2012-01-22T11:14:58Z</time>
      </trkpt>
      <trkpt lat="45.85854" lon="4.7914">
        <ele>515</ele>
        <time>2012-01-22T11:15:00Z</time>
      </trkpt>
      <trkpt lat="45.8586" lon="4.79161">
        <ele>514</ele>
        <time>2012-01-22T11:15:05Z</time>
      </trkpt>
      <trkpt lat="45.85861" lon="4.79166">
        <ele>514</ele>
        <time>2012-01-22T11:15:06Z</time>
      </trkpt>
      <trkpt lat="45.85865" lon="4.79178">
        <ele>509</ele>
        <time>2012-01-22T11:15:09Z</time>
      </trkpt>
      <trkpt lat="45.85867" lon="4.7919">
        <ele>509</ele>
        <time>2012-01-22T11:15:12Z</time>
      </trkpt>
      <trkpt lat="45.8587" lon="4.79198">
        <ele>509</ele>
        <time>2012-01-22T11:15:14Z</time>
      </trkpt>
      <trkpt lat="45.85879" lon="4.79216">
        <ele>509</ele>
        <time>2012-01-22T11:15:19Z</time>
      </trkpt>
      <trkpt lat="45.8588" lon="4.79219">
        <ele>509</ele>
        <time>2012-01-22T11:15:20Z</time>
      </trkpt>
      <trkpt lat="45.85892" lon="4.79238">
        <ele>508</ele>
        <time>2012-01-22T11:15:26Z</time>
      </trkpt>
      <trkpt lat="45.85904" lon="4.79256">
        <ele>505</ele>
        <time>2012-01-22T11:15:32Z</time>
      </trkpt>
      <trkpt lat="45.85906" lon="4.79259">
        <ele>504</ele>
        <time>2012-01-22T11:15:33Z</time>
      </trkpt>
      <trkpt lat="45.85917" lon="4.79276">
        <ele>509</ele>
        <time>2012-01-22T11:15:38Z</time>
      </trkpt>
      <trkpt lat="45.85919" lon="4.7928">
        <ele>509</ele>
        <time>2012-01-22T11:15:39Z</time>
      </trkpt>
      <trkpt lat="45.85924" lon="4.79296">
        <ele>508</ele>
        <time>2012-01-22T11:15:43Z</time>
      </trkpt>
      <trkpt lat="45.85928" lon="4.79305">
        <ele>507</ele>
        <time>2012-01-22T11:15:45Z</time>
      </trkpt>
      <trkpt lat="45.85931" lon="4.79317">
        <ele>505</ele>
        <time>2012-01-22T11:15:48Z</time>
      </trkpt>
      <trkpt lat="45.85936" lon="4.79333">
        <ele>505</ele>
        <time>2012-01-22T11:15:52Z</time>
      </trkpt>
      <trkpt lat="45.85938" lon="4.7934">
        <ele>498</ele>
        <time>2012-01-22T11:15:54Z</time>
      </trkpt>
      <trkpt lat="45.85943" lon="4.79357">
        <ele>497</ele>
        <time>2012-01-22T11:15:58Z</time>
      </trkpt>
      <trkpt lat="45.85946" lon="4.79361">
        <ele>497</ele>
        <time>2012-01-22T11:15:59Z</time>
      </trkpt>
      <trkpt lat="45.85954" lon="4.79379">
        <ele>497</ele>
        <time>2012-01-22T11:16:04Z</time>
      </trkpt>
      <trkpt lat="45.85955" lon="4.79387">
        <ele>496</ele>
        <time>2012-01-22T11:16:06Z</time>
      </trkpt>
      <trkpt lat="45.85955" lon="4.79406">
        <ele>494</ele>
        <time>2012-01-22T11:16:11Z</time>
      </trkpt>
      <trkpt lat="45.85963" lon="4.79421">
        <ele>485</ele>
        <time>2012-01-22T11:16:15Z</time>
      </trkpt>
      <trkpt lat="45.85966" lon="4.79428">
        <ele>484</ele>
        <time>2012-01-22T11:16:17Z</time>
      </trkpt>
      <trkpt lat="45.85972" lon="4.79442">
        <ele>484</ele>
        <time>2012-01-22T11:16:21Z</time>
      </trkpt>
      <trkpt lat="45.85976" lon="4.79452">
        <ele>483</ele>
        <time>2012-01-22T11:16:25Z</time>
      </trkpt>
      <trkpt lat="45.85978" lon="4.79455">
        <ele>483</ele>
        <time>2012-01-22T11:16:28Z</time>
      </trkpt>
      <trkpt lat="45.85981" lon="4.79456">
        <ele>483</ele>
        <time>2012-01-22T11:16:31Z</time>
      </trkpt>
      <trkpt lat="45.85982" lon="4.79457">
        <ele>482</ele>
        <time>2012-01-22T11:16:32Z</time>
      </trkpt>
      <trkpt lat="45.85984" lon="4.79459">
        <ele>482</ele>
        <time>2012-01-22T11:16:38Z</time>
      </trkpt>
      <trkpt lat="45.85987" lon="4.79465">
        <ele>482</ele>
        <time>2012-01-22T11:16:46Z</time>
      </trkpt>
      <trkpt lat="45.85989" lon="4.79468">
        <ele>481</ele>
        <time>2012-01-22T11:16:48Z</time>
      </trkpt>
      <trkpt lat="45.85994" lon="4.79474">
        <ele>481</ele>
        <time>2012-01-22T11:16:53Z</time>
      </trkpt>
      <trkpt lat="45.86003" lon="4.79487">
        <ele>485</ele>
        <time>2012-01-22T11:17:00Z</time>
      </trkpt>
      <trkpt lat="45.86015" lon="4.79503">
        <ele>478</ele>
        <time>2012-01-22T11:17:07Z</time>
      </trkpt>
      <trkpt lat="45.86017" lon="4.79505">
        <ele>478</ele>
        <time>2012-01-22T11:17:08Z</time>
      </trkpt>
      <trkpt lat="45.86024" lon="4.79517">
        <ele>479</ele>
        <time>2012-01-22T11:17:12Z</time>
      </trkpt>
      <trkpt lat="45.8603" lon="4.79526">
        <ele>479</ele>
        <time>2012-01-22T11:17:15Z</time>
      </trkpt>
      <trkpt lat="45.86035" lon="4.79535">
        <ele>478</ele>
        <time>2012-01-22T11:17:18Z</time>
      </trkpt>
      <trkpt lat="45.86042" lon="4.79549">
        <ele>478</ele>
        <time>2012-01-22T11:17:22Z</time>
      </trkpt>
      <trkpt lat="45.86044" lon="4.79553">
        <ele>478</ele>
        <time>2012-01-22T11:17:23Z</time>
      </trkpt>
      <trkpt lat="45.86053" lon="4.79572">
        <ele>477</ele>
        <time>2012-01-22T11:17:28Z</time>
      </trkpt>
      <trkpt lat="45.86055" lon="4.79575">
        <ele>477</ele>
        <time>2012-01-22T11:17:29Z</time>
      </trkpt>
      <trkpt lat="45.8606" lon="4.7959">
        <ele>470</ele>
        <time>2012-01-22T11:17:33Z</time>
      </trkpt>
      <trkpt lat="45.86061" lon="4.79594">
        <ele>470</ele>
        <time>2012-01-22T11:17:34Z</time>
      </trkpt>
      <trkpt lat="45.86066" lon="4.79611">
        <ele>469</ele>
        <time>2012-01-22T11:17:38Z</time>
      </trkpt>
      <trkpt lat="45.8607" lon="4.79622">
        <ele>468</ele>
        <time>2012-01-22T11:17:41Z</time>
      </trkpt>
      <trkpt lat="45.86074" lon="4.79631">
        <ele>468</ele>
        <time>2012-01-22T11:17:43Z</time>
      </trkpt>
      <trkpt lat="45.8608" lon="4.79647">
        <ele>467</ele>
        <time>2012-01-22T11:17:47Z</time>
      </trkpt>
      <trkpt lat="45.86081" lon="4.7965">
        <ele>467</ele>
        <time>2012-01-22T11:17:48Z</time>
      </trkpt>
      <trkpt lat="45.86089" lon="4.79664">
        <ele>470</ele>
        <time>2012-01-22T11:17:53Z</time>
      </trkpt>
      <trkpt lat="45.86092" lon="4.79669">
        <ele>468</ele>
        <time>2012-01-22T11:17:55Z</time>
      </trkpt>
      <trkpt lat="45.86096" lon="4.79674">
        <ele>468</ele>
        <time>2012-01-22T11:17:57Z</time>
      </trkpt>
      <trkpt lat="45.86108" lon="4.79684">
        <ele>467</ele>
        <time>2012-01-22T11:18:02Z</time>
      </trkpt>
      <trkpt lat="45.86111" lon="4.79686">
        <ele>467</ele>
        <time>2012-01-22T11:18:03Z</time>
      </trkpt>
      <trkpt lat="45.86127" lon="4.79697">
        <ele>467</ele>
        <time>2012-01-22T11:18:09Z</time>
      </trkpt>
      <trkpt lat="45.86141" lon="4.79706">
        <ele>467</ele>
        <time>2012-01-22T11:18:14Z</time>
      </trkpt>
      <trkpt lat="45.86146" lon="4.79709">
        <ele>467</ele>
        <time>2012-01-22T11:18:16Z</time>
      </trkpt>
      <trkpt lat="45.86155" lon="4.79713">
        <ele>467</ele>
        <time>2012-01-22T11:18:19Z</time>
      </trkpt>
      <trkpt lat="45.86166" lon="4.79719">
        <ele>467</ele>
        <time>2012-01-22T11:18:23Z</time>
      </trkpt>
      <trkpt lat="45.86169" lon="4.79721">
        <ele>469</ele>
        <time>2012-01-22T11:18:24Z</time>
      </trkpt>
      <trkpt lat="45.86183" lon="4.7973">
        <ele>469</ele>
        <time>2012-01-22T11:18:29Z</time>
      </trkpt>
      <trkpt lat="45.86197" lon="4.7974">
        <ele>469</ele>
        <time>2012-01-22T11:18:34Z</time>
      </trkpt>
      <trkpt lat="45.862" lon="4.79742">
        <ele>469</ele>
        <time>2012-01-22T11:18:35Z</time>
      </trkpt>
      <trkpt lat="45.86215" lon="4.79751">
        <ele>462</ele>
        <time>2012-01-22T11:18:40Z</time>
      </trkpt>
      <trkpt lat="45.86217" lon="4.79752">
        <ele>462</ele>
        <time>2012-01-22T11:18:41Z</time>
      </trkpt>
      <trkpt lat="45.86224" lon="4.7976">
        <ele>462</ele>
        <time>2012-01-22T11:18:45Z</time>
      </trkpt>
      <trkpt lat="45.86225" lon="4.79761">
        <ele>462</ele>
        <time>2012-01-22T11:18:46Z</time>
      </trkpt>
      <trkpt lat="45.8623" lon="4.79764">
        <ele>462</ele>
        <time>2012-01-22T11:18:51Z</time>
      </trkpt>
      <trkpt lat="45.86234" lon="4.79767">
        <ele>462</ele>
        <time>2012-01-22T11:18:53Z</time>
      </trkpt>
      <trkpt lat="45.86242" lon="4.79771">
        <ele>462</ele>
        <time>2012-01-22T11:18:56Z</time>
      </trkpt>
      <trkpt lat="45.86251" lon="4.79776">
        <ele>461</ele>
        <time>2012-01-22T11:18:59Z</time>
      </trkpt>
      <trkpt lat="45.86257" lon="4.79779">
        <ele>461</ele>
        <time>2012-01-22T11:19:01Z</time>
      </trkpt>
      <trkpt lat="45.86266" lon="4.7979">
        <ele>459</ele>
        <time>2012-01-22T11:19:06Z</time>
      </trkpt>
      <trkpt lat="45.86267" lon="4.79791">
        <ele>459</ele>
        <time>2012-01-22T11:19:07Z</time>
      </trkpt>
      <trkpt lat="45.8627" lon="4.79795">
        <ele>459</ele>
        <time>2012-01-22T11:19:09Z</time>
      </trkpt>
      <trkpt lat="45.86272" lon="4.79801">
        <ele>458</ele>
        <time>2012-01-22T11:19:11Z</time>
      </trkpt>
      <trkpt lat="45.86274" lon="4.79812">
        <ele>458</ele>
        <time>2012-01-22T11:19:14Z</time>
      </trkpt>
      <trkpt lat="45.86275" lon="4.79816">
        <ele>457</ele>
        <time>2012-01-22T11:19:15Z</time>
      </trkpt>
      <trkpt lat="45.86276" lon="4.7983">
        <ele>457</ele>
        <time>2012-01-22T11:19:18Z</time>
      </trkpt>
      <trkpt lat="45.86277" lon="4.79844">
        <ele>449</ele>
        <time>2012-01-22T11:19:21Z</time>
      </trkpt>
      <trkpt lat="45.86278" lon="4.79852">
        <ele>448</ele>
        <time>2012-01-22T11:19:23Z</time>
      </trkpt>
      <trkpt lat="45.8628" lon="4.79863">
        <ele>447</ele>
        <time>2012-01-22T11:19:26Z</time>
      </trkpt>
      <trkpt lat="45.86282" lon="4.79864">
        <ele>447</ele>
        <time>2012-01-22T11:19:27Z</time>
      </trkpt>
      <trkpt lat="45.86284" lon="4.79863">
        <ele>447</ele>
        <time>2012-01-22T11:19:28Z</time>
      </trkpt>
      <trkpt lat="45.86288" lon="4.79864">
        <ele>447</ele>
        <time>2012-01-22T11:19:31Z</time>
      </trkpt>
      <trkpt lat="45.86286" lon="4.79872">
        <ele>446</ele>
        <time>2012-01-22T11:19:34Z</time>
      </trkpt>
      <trkpt lat="45.86278" lon="4.79878">
        <ele>446</ele>
        <time>2012-01-22T11:19:37Z</time>
      </trkpt>
      <trkpt lat="45.86273" lon="4.79882">
        <ele>446</ele>
        <time>2012-01-22T11:19:39Z</time>
      </trkpt>
      <trkpt lat="45.8626" lon="4.79892">
        <ele>445</ele>
        <time>2012-01-22T11:19:44Z</time>
      </trkpt>
      <trkpt lat="45.86246" lon="4.79902">
        <ele>445</ele>
        <time>2012-01-22T11:19:50Z</time>
      </trkpt>
      <trkpt lat="45.86244" lon="4.79904">
        <ele>444</ele>
        <time>2012-01-22T11:19:51Z</time>
      </trkpt>
      <trkpt lat="45.86234" lon="4.79909">
        <ele>445</ele>
        <time>2012-01-22T11:19:55Z</time>
      </trkpt>
      <trkpt lat="45.86226" lon="4.79913">
        <ele>445</ele>
        <time>2012-01-22T11:19:58Z</time>
      </trkpt>
      <trkpt lat="45.8622" lon="4.79916">
        <ele>446</ele>
        <time>2012-01-22T11:20:01Z</time>
      </trkpt>
      <trkpt lat="45.86215" lon="4.7993">
        <ele>438</ele>
        <time>2012-01-22T11:20:05Z</time>
      </trkpt>
      <trkpt lat="45.86215" lon="4.79934">
        <ele>438</ele>
        <time>2012-01-22T11:20:06Z</time>
      </trkpt>
      <trkpt lat="45.86212" lon="4.7995">
        <ele>437</ele>
        <time>2012-01-22T11:20:10Z</time>
      </trkpt>
      <trkpt lat="45.86211" lon="4.79962">
        <ele>436</ele>
        <time>2012-01-22T11:20:13Z</time>
      </trkpt>
      <trkpt lat="45.86211" lon="4.79968">
        <ele>435</ele>
        <time>2012-01-22T11:20:15Z</time>
      </trkpt>
      <trkpt lat="45.86213" lon="4.79972">
        <ele>435</ele>
        <time>2012-01-22T11:20:19Z</time>
      </trkpt>
      <trkpt lat="45.86214" lon="4.79973">
        <ele>435</ele>
        <time>2012-01-22T11:20:20Z</time>
      </trkpt>
      <trkpt lat="45.86214" lon="4.79975">
        <ele>435</ele>
        <time>2012-01-22T11:20:22Z</time>
      </trkpt>
      <trkpt lat="45.86218" lon="4.79977">
        <ele>435</ele>
        <time>2012-01-22T11:20:24Z</time>
      </trkpt>
      <trkpt lat="45.86224" lon="4.7998">
        <ele>434</ele>
        <time>2012-01-22T11:20:26Z</time>
      </trkpt>
      <trkpt lat="45.86229" lon="4.79985">
        <ele>433</ele>
        <time>2012-01-22T11:20:28Z</time>
      </trkpt>
      <trkpt lat="45.86232" lon="4.79989">
        <ele>433</ele>
        <time>2012-01-22T11:20:30Z</time>
      </trkpt>
      <trkpt lat="45.86234" lon="4.79993">
        <ele>432</ele>
        <time>2012-01-22T11:20:32Z</time>
      </trkpt>
      <trkpt lat="45.86235" lon="4.79995">
        <ele>432</ele>
        <time>2012-01-22T11:20:34Z</time>
      </trkpt>
      <trkpt lat="45.86235" lon="4.79996">
        <ele>432</ele>
        <time>2012-01-22T11:20:35Z</time>
      </trkpt>
      <trkpt lat="45.86237" lon="4.79998">
        <ele>431</ele>
        <time>2012-01-22T11:20:36Z</time>
      </trkpt>
      <trkpt lat="45.86237" lon="4.79999">
        <ele>431</ele>
        <time>2012-01-22T11:20:37Z</time>
      </trkpt>
      <trkpt lat="45.86238" lon="4.80003">
        <ele>427</ele>
        <time>2012-01-22T11:20:39Z</time>
      </trkpt>
      <trkpt lat="45.86238" lon="4.80004">
        <ele>427</ele>
        <time>2012-01-22T11:20:40Z</time>
      </trkpt>
      <trkpt lat="45.86239" lon="4.80006">
        <ele>427</ele>
        <time>2012-01-22T11:20:46Z</time>
      </trkpt>
      <trkpt lat="45.8624" lon="4.80015">
        <ele>426</ele>
        <time>2012-01-22T11:20:51Z</time>
      </trkpt>
      <trkpt lat="45.8624" lon="4.80025">
        <ele>426</ele>
        <time>2012-01-22T11:20:54Z</time>
      </trkpt>
      <trkpt lat="45.8624" lon="4.80031">
        <ele>425</ele>
        <time>2012-01-22T11:20:56Z</time>
      </trkpt>
      <trkpt lat="45.86238" lon="4.80053">
        <ele>424</ele>
        <time>2012-01-22T11:21:01Z</time>
      </trkpt>
      <trkpt lat="45.86242" lon="4.80078">
        <ele>421</ele>
        <time>2012-01-22T11:21:07Z</time>
      </trkpt>
      <trkpt lat="45.86245" lon="4.80098">
        <ele>417</ele>
        <time>2012-01-22T11:21:12Z</time>
      </trkpt>
      <trkpt lat="45.86248" lon="4.80107">
        <ele>416</ele>
        <time>2012-01-22T11:21:14Z</time>
      </trkpt>
      <trkpt lat="45.86252" lon="4.80118">
        <ele>416</ele>
        <time>2012-01-22T11:21:17Z</time>
      </trkpt>
      <trkpt lat="45.86257" lon="4.80131">
        <ele>415</ele>
        <time>2012-01-22T11:21:20Z</time>
      </trkpt>
      <trkpt lat="45.86258" lon="4.80141">
        <ele>414</ele>
        <time>2012-01-22T11:21:22Z</time>
      </trkpt>
      <trkpt lat="45.86263" lon="4.8016">
        <ele>412</ele>
        <time>2012-01-22T11:21:26Z</time>
      </trkpt>
      <trkpt lat="45.86264" lon="4.80165">
        <ele>411</ele>
        <time>2012-01-22T11:21:27Z</time>
      </trkpt>
      <trkpt lat="45.86274" lon="4.80186">
        <ele>407</ele>
        <time>2012-01-22T11:21:32Z</time>
      </trkpt>
      <trkpt lat="45.86284" lon="4.80199">
        <ele>407</ele>
        <time>2012-01-22T11:21:36Z</time>
      </trkpt>
      <trkpt lat="45.86287" lon="4.80203">
        <ele>407</ele>
        <time>2012-01-22T11:21:37Z</time>
      </trkpt>
      <trkpt lat="45.86292" lon="4.80222">
        <ele>406</ele>
        <time>2012-01-22T11:21:41Z</time>
      </trkpt>
      <trkpt lat="45.86292" lon="4.80232">
        <ele>405</ele>
        <time>2012-01-22T11:21:43Z</time>
      </trkpt>
      <trkpt lat="45.86296" lon="4.80248">
        <ele>405</ele>
        <time>2012-01-22T11:21:46Z</time>
      </trkpt>
      <trkpt lat="45.86299" lon="4.80259">
        <ele>398</ele>
        <time>2012-01-22T11:21:48Z</time>
      </trkpt>
      <trkpt lat="45.86301" lon="4.8027">
        <ele>397</ele>
        <time>2012-01-22T11:21:50Z</time>
      </trkpt>
      <trkpt lat="45.86305" lon="4.80284">
        <ele>396</ele>
        <time>2012-01-22T11:21:53Z</time>
      </trkpt>
      <trkpt lat="45.86309" lon="4.80294">
        <ele>395</ele>
        <time>2012-01-22T11:21:55Z</time>
      </trkpt>
      <trkpt lat="45.86314" lon="4.80306">
        <ele>394</ele>
        <time>2012-01-22T11:21:57Z</time>
      </trkpt>
      <trkpt lat="45.86322" lon="4.80325">
        <ele>393</ele>
        <time>2012-01-22T11:22:01Z</time>
      </trkpt>
      <trkpt lat="45.86323" lon="4.8033">
        <ele>393</ele>
        <time>2012-01-22T11:22:02Z</time>
      </trkpt>
      <trkpt lat="45.86327" lon="4.80345">
        <ele>388</ele>
        <time>2012-01-22T11:22:05Z</time>
      </trkpt>
      <trkpt lat="45.86329" lon="4.8035">
        <ele>388</ele>
        <time>2012-01-22T11:22:06Z</time>
      </trkpt>
      <trkpt lat="45.8633" lon="4.80357">
        <ele>386</ele>
        <time>2012-01-22T11:22:08Z</time>
      </trkpt>
      <trkpt lat="45.86331" lon="4.80368">
        <ele>385</ele>
        <time>2012-01-22T11:22:11Z</time>
      </trkpt>
      <trkpt lat="45.86333" lon="4.80376">
        <ele>384</ele>
        <time>2012-01-22T11:22:13Z</time>
      </trkpt>
      <trkpt lat="45.86334" lon="4.80385">
        <ele>390</ele>
        <time>2012-01-22T11:22:15Z</time>
      </trkpt>
      <trkpt lat="45.86343" lon="4.80409">
        <ele>386</ele>
        <time>2012-01-22T11:22:20Z</time>
      </trkpt>
      <trkpt lat="45.86346" lon="4.80414">
        <ele>385</ele>
        <time>2012-01-22T11:22:21Z</time>
      </trkpt>
      <trkpt lat="45.86354" lon="4.80434">
        <ele>380</ele>
        <time>2012-01-22T11:22:25Z</time>
      </trkpt>
      <trkpt lat="45.86356" lon="4.80438">
        <ele>380</ele>
        <time>2012-01-22T11:22:26Z</time>
      </trkpt>
      <trkpt lat="45.86364" lon="4.80459">
        <ele>378</ele>
        <time>2012-01-22T11:22:31Z</time>
      </trkpt>
      <trkpt lat="45.86371" lon="4.80484">
        <ele>377</ele>
        <time>2012-01-22T11:22:36Z</time>
      </trkpt>
      <trkpt lat="45.86373" lon="4.80488">
        <ele>377</ele>
        <time>2012-01-22T11:22:37Z</time>
      </trkpt>
      <trkpt lat="45.8638" lon="4.80506">
        <ele>368</ele>
        <time>2012-01-22T11:22:41Z</time>
      </trkpt>
      <trkpt lat="45.86382" lon="4.80511">
        <ele>368</ele>
        <time>2012-01-22T11:22:42Z</time>
      </trkpt>
      <trkpt lat="45.86386" lon="4.8053">
        <ele>367</ele>
        <time>2012-01-22T11:22:46Z</time>
      </trkpt>
      <trkpt lat="45.86389" lon="4.80539">
        <ele>367</ele>
        <time>2012-01-22T11:22:48Z</time>
      </trkpt>
      <trkpt lat="45.86393" lon="4.80554">
        <ele>366</ele>
        <time>2012-01-22T11:22:51Z</time>
      </trkpt>
      <trkpt lat="45.86395" lon="4.80563">
        <ele>365</ele>
        <time>2012-01-22T11:22:53Z</time>
      </trkpt>
      <trkpt lat="45.86398" lon="4.80578">
        <ele>365</ele>
        <time>2012-01-22T11:22:56Z</time>
      </trkpt>
      <trkpt lat="45.86402" lon="4.80592">
        <ele>360</ele>
        <time>2012-01-22T11:22:59Z</time>
      </trkpt>
      <trkpt lat="45.86404" lon="4.80602">
        <ele>359</ele>
        <time>2012-01-22T11:23:01Z</time>
      </trkpt>
      <trkpt lat="45.8641" lon="4.80618">
        <ele>357</ele>
        <time>2012-01-22T11:23:05Z</time>
      </trkpt>
      <trkpt lat="45.86411" lon="4.80622">
        <ele>356</ele>
        <time>2012-01-22T11:23:06Z</time>
      </trkpt>
      <trkpt lat="45.86417" lon="4.80646">
        <ele>363</ele>
        <time>2012-01-22T11:23:11Z</time>
      </trkpt>
      <trkpt lat="45.86422" lon="4.80675">
        <ele>357</ele>
        <time>2012-01-22T11:23:17Z</time>
      </trkpt>
      <trkpt lat="45.8642" lon="4.80696">
        <ele>358</ele>
        <time>2012-01-22T11:23:22Z</time>
      </trkpt>
      <trkpt lat="45.86418" lon="4.807">
        <ele>358</ele>
        <time>2012-01-22T11:23:23Z</time>
      </trkpt>
      <trkpt lat="45.86414" lon="4.80715">
        <ele>348</ele>
        <time>2012-01-22T11:23:27Z</time>
      </trkpt>
      <trkpt lat="45.86412" lon="4.80725">
        <ele>348</ele>
        <time>2012-01-22T11:23:30Z</time>
      </trkpt>
      <trkpt lat="45.86409" lon="4.80736">
        <ele>348</ele>
        <time>2012-01-22T11:23:33Z</time>
      </trkpt>
      <trkpt lat="45.86406" lon="4.8075">
        <ele>348</ele>
        <time>2012-01-22T11:23:36Z</time>
      </trkpt>
      <trkpt lat="45.86404" lon="4.80757">
        <ele>345</ele>
        <time>2012-01-22T11:23:38Z</time>
      </trkpt>
      <trkpt lat="45.86403" lon="4.80777">
        <ele>342</ele>
        <time>2012-01-22T11:23:43Z</time>
      </trkpt>
      <trkpt lat="45.86408" lon="4.8079">
        <ele>340</ele>
        <time>2012-01-22T11:23:47Z</time>
      </trkpt>
      <trkpt lat="45.86415" lon="4.808">
        <ele>339</ele>
        <time>2012-01-22T11:23:50Z</time>
      </trkpt>
      <trkpt lat="45.86421" lon="4.80806">
        <ele>345</ele>
        <time>2012-01-22T11:23:52Z</time>
      </trkpt>
      <trkpt lat="45.86432" lon="4.80819">
        <ele>344</ele>
        <time>2012-01-22T11:23:57Z</time>
      </trkpt>
      <trkpt lat="45.86434" lon="4.80822">
        <ele>344</ele>
        <time>2012-01-22T11:23:58Z</time>
      </trkpt>
      <trkpt lat="45.86446" lon="4.8084">
        <ele>335</ele>
        <time>2012-01-22T11:24:04Z</time>
      </trkpt>
      <trkpt lat="45.8646" lon="4.80856">
        <ele>335</ele>
        <time>2012-01-22T11:24:09Z</time>
      </trkpt>
      <trkpt lat="45.86462" lon="4.8086">
        <ele>334</ele>
        <time>2012-01-22T11:24:10Z</time>
      </trkpt>
      <trkpt lat="45.86472" lon="4.80874">
        <ele>333</ele>
        <time>2012-01-22T11:24:14Z</time>
      </trkpt>
      <trkpt lat="45.86477" lon="4.8088">
        <ele>333</ele>
        <time>2012-01-22T11:24:16Z</time>
      </trkpt>
      <trkpt lat="45.86487" lon="4.80891">
        <ele>331</ele>
        <time>2012-01-22T11:24:20Z</time>
      </trkpt>
      <trkpt lat="45.86492" lon="4.80895">
        <ele>331</ele>
        <time>2012-01-22T11:24:22Z</time>
      </trkpt>
      <trkpt lat="45.86501" lon="4.80902">
        <ele>332</ele>
        <time>2012-01-22T11:24:25Z</time>
      </trkpt>
      <trkpt lat="45.8651" lon="4.8091">
        <ele>331</ele>
        <time>2012-01-22T11:24:29Z</time>
      </trkpt>
      <trkpt lat="45.86514" lon="4.80914">
        <ele>332</ele>
        <time>2012-01-22T11:24:31Z</time>
      </trkpt>
      <trkpt lat="45.86527" lon="4.80925">
        <ele>323</ele>
        <time>2012-01-22T11:24:36Z</time>
      </trkpt>
      <trkpt lat="45.86529" lon="4.80927">
        <ele>322</ele>
        <time>2012-01-22T11:24:37Z</time>
      </trkpt>
      <trkpt lat="45.86542" lon="4.80933">
        <ele>322</ele>
        <time>2012-01-22T11:24:42Z</time>
      </trkpt>
      <trkpt lat="45.86545" lon="4.80934">
        <ele>322</ele>
        <time>2012-01-22T11:24:43Z</time>
      </trkpt>
      <trkpt lat="45.86557" lon="4.80938">
        <ele>322</ele>
        <time>2012-01-22T11:24:47Z</time>
      </trkpt>
      <trkpt lat="45.86563" lon="4.8094">
        <ele>322</ele>
        <time>2012-01-22T11:24:49Z</time>
      </trkpt>
      <trkpt lat="45.86572" lon="4.80942">
        <ele>322</ele>
        <time>2012-01-22T11:24:52Z</time>
      </trkpt>
      <trkpt lat="45.86581" lon="4.80942">
        <ele>322</ele>
        <time>2012-01-22T11:24:55Z</time>
      </trkpt>
      <trkpt lat="45.86583" lon="4.80942">
        <ele>322</ele>
        <time>2012-01-22T11:24:56Z</time>
      </trkpt>
      <trkpt lat="45.8659" lon="4.80939">
        <ele>322</ele>
        <time>2012-01-22T11:24:59Z</time>
      </trkpt>
      <trkpt lat="45.86595" lon="4.80936">
        <ele>322</ele>
        <time>2012-01-22T11:25:01Z</time>
      </trkpt>
      <trkpt lat="45.86599" lon="4.80935">
        <ele>322</ele>
        <time>2012-01-22T11:25:03Z</time>
      </trkpt>
      <trkpt lat="45.86605" lon="4.80934">
        <ele>322</ele>
        <time>2012-01-22T11:25:05Z</time>
      </trkpt>
      <trkpt lat="45.86608" lon="4.80935">
        <ele>322</ele>
        <time>2012-01-22T11:25:06Z</time>
      </trkpt>
      <trkpt lat="45.8662" lon="4.80935">
        <ele>321</ele>
        <time>2012-01-22T11:25:10Z</time>
      </trkpt>
      <trkpt lat="45.86625" lon="4.80936">
        <ele>321</ele>
        <time>2012-01-22T11:25:12Z</time>
      </trkpt>
      <trkpt lat="45.86638" lon="4.80941">
        <ele>320</ele>
        <time>2012-01-22T11:25:16Z</time>
      </trkpt>
      <trkpt lat="45.86643" lon="4.80944">
        <ele>320</ele>
        <time>2012-01-22T11:25:18Z</time>
      </trkpt>
      <trkpt lat="45.86654" lon="4.80951">
        <ele>319</ele>
        <time>2012-01-22T11:25:22Z</time>
      </trkpt>
      <trkpt lat="45.86657" lon="4.80953">
        <ele>319</ele>
        <time>2012-01-22T11:25:23Z</time>
      </trkpt>
      <trkpt lat="45.86666" lon="4.80967">
        <ele>317</ele>
        <time>2012-01-22T11:25:28Z</time>
      </trkpt>
      <trkpt lat="45.86668" lon="4.8097">
        <ele>322</ele>
        <time>2012-01-22T11:25:29Z</time>
      </trkpt>
      <trkpt lat="45.86676" lon="4.80986">
        <ele>319</ele>
        <time>2012-01-22T11:25:34Z</time>
      </trkpt>
      <trkpt lat="45.86679" lon="4.80992">
        <ele>318</ele>
        <time>2012-01-22T11:25:36Z</time>
      </trkpt>
      <trkpt lat="45.86685" lon="4.81004">
        <ele>312</ele>
        <time>2012-01-22T11:25:40Z</time>
      </trkpt>
      <trkpt lat="45.86687" lon="4.81008">
        <ele>313</ele>
        <time>2012-01-22T11:25:41Z</time>
      </trkpt>
      <trkpt lat="45.86689" lon="4.81016">
        <ele>313</ele>
        <time>2012-01-22T11:25:43Z</time>
      </trkpt>
      <trkpt lat="45.86693" lon="4.81027">
        <ele>313</ele>
        <time>2012-01-22T11:25:47Z</time>
      </trkpt>
      <trkpt lat="45.86699" lon="4.81034">
        <ele>313</ele>
        <time>2012-01-22T11:25:53Z</time>
      </trkpt>
      <trkpt lat="45.867" lon="4.81035">
        <ele>313</ele>
        <time>2012-01-22T11:25:54Z</time>
      </trkpt>
      <trkpt lat="45.86701" lon="4.81037">
        <ele>313</ele>
        <time>2012-01-22T11:25:57Z</time>
      </trkpt>
      <trkpt lat="45.86701" lon="4.81037">
        <ele>313</ele>
        <time>2012-01-22T11:25:58Z</time>
      </trkpt>
      <trkpt lat="45.86705" lon="4.8104">
        <ele>313</ele>
        <time>2012-01-22T11:26:07Z</time>
      </trkpt>
      <trkpt lat="45.86705" lon="4.81044">
        <ele>313</ele>
        <time>2012-01-22T11:26:18Z</time>
      </trkpt>
      <trkpt lat="45.86705" lon="4.81045">
        <ele>313</ele>
        <time>2012-01-22T11:26:20Z</time>
      </trkpt>
      <trkpt lat="45.86706" lon="4.8105">
        <ele>313</ele>
        <time>2012-01-22T11:26:23Z</time>
      </trkpt>
      <trkpt lat="45.86707" lon="4.81054">
        <ele>312</ele>
        <time>2012-01-22T11:26:25Z</time>
      </trkpt>
      <trkpt lat="45.86707" lon="4.81059">
        <ele>312</ele>
        <time>2012-01-22T11:26:28Z</time>
      </trkpt>
      <trkpt lat="45.86707" lon="4.81062">
        <ele>312</ele>
        <time>2012-01-22T11:26:29Z</time>
      </trkpt>
      <trkpt lat="45.86711" lon="4.81076">
        <ele>312</ele>
        <time>2012-01-22T11:26:33Z</time>
      </trkpt>
      <trkpt lat="45.86714" lon="4.81086">
        <ele>304</ele>
        <time>2012-01-22T11:26:36Z</time>
      </trkpt>
      <trkpt lat="45.86717" lon="4.81092">
        <ele>304</ele>
        <time>2012-01-22T11:26:38Z</time>
      </trkpt>
      <trkpt lat="45.86722" lon="4.81111">
        <ele>304</ele>
        <time>2012-01-22T11:26:43Z</time>
      </trkpt>
      <trkpt lat="45.86723" lon="4.81115">
        <ele>303</ele>
        <time>2012-01-22T11:26:44Z</time>
      </trkpt>
      <trkpt lat="45.86729" lon="4.81134">
        <ele>302</ele>
        <time>2012-01-22T11:26:49Z</time>
      </trkpt>
      <trkpt lat="45.8673" lon="4.81138">
        <ele>302</ele>
        <time>2012-01-22T11:26:50Z</time>
      </trkpt>
      <trkpt lat="45.86734" lon="4.81154">
        <ele>303</ele>
        <time>2012-01-22T11:26:54Z</time>
      </trkpt>
      <trkpt lat="45.86738" lon="4.81165">
        <ele>303</ele>
        <time>2012-01-22T11:26:57Z</time>
      </trkpt>
      <trkpt lat="45.86741" lon="4.81173">
        <ele>299</ele>
        <time>2012-01-22T11:26:59Z</time>
      </trkpt>
      <trkpt lat="45.86746" lon="4.81189">
        <ele>294</ele>
        <time>2012-01-22T11:27:03Z</time>
      </trkpt>
      <trkpt lat="45.86751" lon="4.81207">
        <ele>311</ele>
        <time>2012-01-22T11:27:08Z</time>
      </trkpt>
      <trkpt lat="45.86753" lon="4.81215">
        <ele>310</ele>
        <time>2012-01-22T11:27:10Z</time>
      </trkpt>
      <trkpt lat="45.86756" lon="4.81231">
        <ele>305</ele>
        <time>2012-01-22T11:27:14Z</time>
      </trkpt>
      <trkpt lat="45.86759" lon="4.81241">
        <ele>301</ele>
        <time>2012-01-22T11:27:17Z</time>
      </trkpt>
      <trkpt lat="45.86761" lon="4.8125">
        <ele>294</ele>
        <time>2012-01-22T11:27:19Z</time>
      </trkpt>
      <trkpt lat="45.86765" lon="4.81269">
        <ele>295</ele>
        <time>2012-01-22T11:27:23Z</time>
      </trkpt>
      <trkpt lat="45.86767" lon="4.81273">
        <ele>296</ele>
        <time>2012-01-22T11:27:24Z</time>
      </trkpt>
      <trkpt lat="45.86774" lon="4.81291">
        <ele>295</ele>
        <time>2012-01-22T11:27:28Z</time>
      </trkpt>
      <trkpt lat="45.86774" lon="4.81296">
        <ele>295</ele>
        <time>2012-01-22T11:27:29Z</time>
      </trkpt>
      <trkpt lat="45.86777" lon="4.81307">
        <ele>293</ele>
        <time>2012-01-22T11:27:32Z</time>
      </trkpt>
      <trkpt lat="45.8678" lon="4.81321">
        <ele>292</ele>
        <time>2012-01-22T11:27:35Z</time>
      </trkpt>
      <trkpt lat="45.86781" lon="4.81334">
        <ele>281</ele>
        <time>2012-01-22T11:27:38Z</time>
      </trkpt>
      <trkpt lat="45.86782" lon="4.8135">
        <ele>280</ele>
        <time>2012-01-22T11:27:41Z</time>
      </trkpt>
      <trkpt lat="45.86784" lon="4.81359">
        <ele>280</ele>
        <time>2012-01-22T11:27:43Z</time>
      </trkpt>
      <trkpt lat="45.86786" lon="4.81378">
        <ele>280</ele>
        <time>2012-01-22T11:27:47Z</time>
      </trkpt>
      <trkpt lat="45.86791" lon="4.81399">
        <ele>279</ele>
        <time>2012-01-22T11:27:52Z</time>
      </trkpt>
      <trkpt lat="45.86792" lon="4.81403">
        <ele>279</ele>
        <time>2012-01-22T11:27:53Z</time>
      </trkpt>
      <trkpt lat="45.86795" lon="4.81423">
        <ele>270</ele>
        <time>2012-01-22T11:27:58Z</time>
      </trkpt>
      <trkpt lat="45.86796" lon="4.81431">
        <ele>270</ele>
        <time>2012-01-22T11:28:00Z</time>
      </trkpt>
      <trkpt lat="45.86798" lon="4.81438">
        <ele>270</ele>
        <time>2012-01-22T11:28:02Z</time>
      </trkpt>
      <trkpt lat="45.868" lon="4.81454">
        <ele>270</ele>
        <time>2012-01-22T11:28:06Z</time>
      </trkpt>
      <trkpt lat="45.86801" lon="4.81459">
        <ele>269</ele>
        <time>2012-01-22T11:28:07Z</time>
      </trkpt>
      <trkpt lat="45.86806" lon="4.81477">
        <ele>270</ele>
        <time>2012-01-22T11:28:12Z</time>
      </trkpt>
      <trkpt lat="45.86808" lon="4.81486">
        <ele>270</ele>
        <time>2012-01-22T11:28:14Z</time>
      </trkpt>
      <trkpt lat="45.8681" lon="4.81501">
        <ele>265</ele>
        <time>2012-01-22T11:28:17Z</time>
      </trkpt>
      <trkpt lat="45.8681" lon="4.81513">
        <ele>264</ele>
        <time>2012-01-22T11:28:20Z</time>
      </trkpt>
      <trkpt lat="45.86811" lon="4.81518">
        <ele>263</ele>
        <time>2012-01-22T11:28:21Z</time>
      </trkpt>
      <trkpt lat="45.86816" lon="4.81537">
        <ele>261</ele>
        <time>2012-01-22T11:28:25Z</time>
      </trkpt>
      <trkpt lat="45.86817" lon="4.81542">
        <ele>261</ele>
        <time>2012-01-22T11:28:26Z</time>
      </trkpt>
      <trkpt lat="45.86818" lon="4.81558">
        <ele>260</ele>
        <time>2012-01-22T11:28:30Z</time>
      </trkpt>
      <trkpt lat="45.8682" lon="4.81571">
        <ele>261</ele>
        <time>2012-01-22T11:28:33Z</time>
      </trkpt>
      <trkpt lat="45.86821" lon="4.81579">
        <ele>262</ele>
        <time>2012-01-22T11:28:35Z</time>
      </trkpt>
      <trkpt lat="45.86822" lon="4.81599">
        <ele>256</ele>
        <time>2012-01-22T11:28:40Z</time>
      </trkpt>
      <trkpt lat="45.86822" lon="4.81603">
        <ele>255</ele>
        <time>2012-01-22T11:28:41Z</time>
      </trkpt>
      <trkpt lat="45.86822" lon="4.81624">
        <ele>252</ele>
        <time>2012-01-22T11:28:46Z</time>
      </trkpt>
      <trkpt lat="45.86822" lon="4.81627">
        <ele>251</ele>
        <time>2012-01-22T11:28:47Z</time>
      </trkpt>
      <trkpt lat="45.86822" lon="4.81646">
        <ele>251</ele>
        <time>2012-01-22T11:28:52Z</time>
      </trkpt>
      <trkpt lat="45.86821" lon="4.81654">
        <ele>251</ele>
        <time>2012-01-22T11:28:54Z</time>
      </trkpt>
      <trkpt lat="45.86819" lon="4.81673">
        <ele>248</ele>
        <time>2012-01-22T11:28:59Z</time>
      </trkpt>
      <trkpt lat="45.86818" lon="4.81681">
        <ele>246</ele>
        <time>2012-01-22T11:29:01Z</time>
      </trkpt>
      <trkpt lat="45.86817" lon="4.81692">
        <ele>244</ele>
        <time>2012-01-22T11:29:04Z</time>
      </trkpt>
      <trkpt lat="45.86816" lon="4.81708">
        <ele>242</ele>
        <time>2012-01-22T11:29:08Z</time>
      </trkpt>
      <trkpt lat="45.86815" lon="4.81716">
        <ele>242</ele>
        <time>2012-01-22T11:29:10Z</time>
      </trkpt>
      <trkpt lat="45.86815" lon="4.81735">
        <ele>240</ele>
        <time>2012-01-22T11:29:15Z</time>
      </trkpt>
      <trkpt lat="45.8682" lon="4.81759">
        <ele>237</ele>
        <time>2012-01-22T11:29:22Z</time>
      </trkpt>
      <trkpt lat="45.86821" lon="4.81762">
        <ele>237</ele>
        <time>2012-01-22T11:29:23Z</time>
      </trkpt>
      <trkpt lat="45.86825" lon="4.81779">
        <ele>237</ele>
        <time>2012-01-22T11:29:28Z</time>
      </trkpt>
      <trkpt lat="45.86827" lon="4.81788">
        <ele>236</ele>
        <time>2012-01-22T11:29:31Z</time>
      </trkpt>
      <trkpt lat="45.86828" lon="4.81793">
        <ele>236</ele>
        <time>2012-01-22T11:29:33Z</time>
      </trkpt>
      <trkpt lat="45.86833" lon="4.81806">
        <ele>235</ele>
        <time>2012-01-22T11:29:38Z</time>
      </trkpt>
      <trkpt lat="45.86836" lon="4.81813">
        <ele>235</ele>
        <time>2012-01-22T11:29:40Z</time>
      </trkpt>
      <trkpt lat="45.8684" lon="4.81823">
        <ele>234</ele>
        <time>2012-01-22T11:29:43Z</time>
      </trkpt>
      <trkpt lat="45.86847" lon="4.81836">
        <ele>231</ele>
        <time>2012-01-22T11:29:47Z</time>
      </trkpt>
      <trkpt lat="45.86848" lon="4.81839">
        <ele>231</ele>
        <time>2012-01-22T11:29:48Z</time>
      </trkpt>
      <trkpt lat="45.86853" lon="4.8186">
        <ele>232</ele>
        <time>2012-01-22T11:29:54Z</time>
      </trkpt>
      <trkpt lat="45.86854" lon="4.81863">
        <ele>232</ele>
        <time>2012-01-22T11:29:55Z</time>
      </trkpt>
      <trkpt lat="45.86861" lon="4.81874">
        <ele>232</ele>
        <time>2012-01-22T11:29:59Z</time>
      </trkpt>
      <trkpt lat="45.86862" lon="4.81874">
        <ele>232</ele>
        <time>2012-01-22T11:30:00Z</time>
      </trkpt>
      <trkpt lat="45.8687" lon="4.81875">
        <ele>232</ele>
        <time>2012-01-22T11:30:04Z</time>
      </trkpt>
      <trkpt lat="45.86887" lon="4.81881">
        <ele>231</ele>
        <time>2012-01-22T11:30:10Z</time>
      </trkpt>
      <trkpt lat="45.86889" lon="4.81882">
        <ele>231</ele>
        <time>2012-01-22T11:30:11Z</time>
      </trkpt>
      <trkpt lat="45.86901" lon="4.81889">
        <ele>230</ele>
        <time>2012-01-22T11:30:16Z</time>
      </trkpt>
      <trkpt lat="45.86908" lon="4.81893">
        <ele>230</ele>
        <time>2012-01-22T11:30:19Z</time>
      </trkpt>
      <trkpt lat="45.86917" lon="4.81898">
        <ele>231</ele>
        <time>2012-01-22T11:30:23Z</time>
      </trkpt>
      <trkpt lat="45.86927" lon="4.81905">
        <ele>231</ele>
        <time>2012-01-22T11:30:27Z</time>
      </trkpt>
      <trkpt lat="45.86932" lon="4.8191">
        <ele>231</ele>
        <time>2012-01-22T11:30:29Z</time>
      </trkpt>
      <trkpt lat="45.86942" lon="4.81923">
        <ele>226</ele>
        <time>2012-01-22T11:30:34Z</time>
      </trkpt>
      <trkpt lat="45.86956" lon="4.81939">
        <ele>227</ele>
        <time>2012-01-22T11:30:40Z</time>
      </trkpt>
      <trkpt lat="45.86958" lon="4.81942">
        <ele>227</ele>
        <time>2012-01-22T11:30:41Z</time>
      </trkpt>
    </trkseg>
  </trk>
</gpx>